<?xml version="1.0" encoding="UTF-8" standalone="no" ?>
<gpx xmlns="http://www.topografix.com/GPX/1/1" xmlns:xsi="http://www.w3.org/2001/XMLSchema-instance" xsi:schemaLocation="http://www.topografix.com/GPX/1/1 http://www.topografix.com/GPX/1/1/gpx.xsd" version="1.1" creator="VisuGPX - https://www.visugpx.com">
  <metadata>
    <name>Pornichet Estivale 15/08/2020</name>
    <desc><![CDATA[Sortie VTT estivale du samedi 15 août 2020]]></desc>
  </metadata>
  <trk>
    <name><![CDATA[Pornichet Cyclisme]]></name>
    <trkseg>
      <trkpt lat="47.27034" lon="-2.3447">
        <ele>7.5999999046326</ele>
        <time>2020-08-15T07:06:09.000Z</time>
      </trkpt>
      <trkpt lat="47.27035" lon="-2.34458">
        <ele>7.5999999046326</ele>
        <time>2020-08-15T07:06:12.000Z</time>
      </trkpt>
      <trkpt lat="47.27034" lon="-2.34454">
        <ele>7.8000001907349</ele>
        <time>2020-08-15T07:06:13.000Z</time>
      </trkpt>
      <trkpt lat="47.27033" lon="-2.34446">
        <ele>7.8000001907349</ele>
        <time>2020-08-15T07:06:15.000Z</time>
      </trkpt>
      <trkpt lat="47.27028" lon="-2.34418">
        <ele>7.8000001907349</ele>
        <time>2020-08-15T07:06:21.000Z</time>
      </trkpt>
      <trkpt lat="47.27019" lon="-2.34378">
        <ele>7.8000001907349</ele>
        <time>2020-08-15T07:06:31.000Z</time>
      </trkpt>
      <trkpt lat="47.27015" lon="-2.34361">
        <ele>7.8000001907349</ele>
        <time>2020-08-15T07:06:37.000Z</time>
      </trkpt>
      <trkpt lat="47.2701" lon="-2.34342">
        <ele>7.8000001907349</ele>
        <time>2020-08-15T07:06:44.000Z</time>
      </trkpt>
      <trkpt lat="47.27009" lon="-2.34324">
        <ele>7.8000001907349</ele>
        <time>2020-08-15T07:06:50.000Z</time>
      </trkpt>
      <trkpt lat="47.27009" lon="-2.34319">
        <ele>7.8000001907349</ele>
        <time>2020-08-15T07:06:52.000Z</time>
      </trkpt>
      <trkpt lat="47.27006" lon="-2.3431">
        <ele>7.8000001907349</ele>
        <time>2020-08-15T07:06:55.000Z</time>
      </trkpt>
      <trkpt lat="47.27006" lon="-2.34291">
        <ele>7.8000001907349</ele>
        <time>2020-08-15T07:06:59.000Z</time>
      </trkpt>
      <trkpt lat="47.26999" lon="-2.34254">
        <ele>7.8000001907349</ele>
        <time>2020-08-15T07:07:05.000Z</time>
      </trkpt>
      <trkpt lat="47.26988" lon="-2.34206">
        <ele>7.8000001907349</ele>
        <time>2020-08-15T07:07:13.000Z</time>
      </trkpt>
      <trkpt lat="47.26977" lon="-2.3416">
        <ele>7.8000001907349</ele>
        <time>2020-08-15T07:07:21.000Z</time>
      </trkpt>
      <trkpt lat="47.26975" lon="-2.34148">
        <ele>7.8000001907349</ele>
        <time>2020-08-15T07:07:23.000Z</time>
      </trkpt>
      <trkpt lat="47.26969" lon="-2.34118">
        <ele>7.8000001907349</ele>
        <time>2020-08-15T07:07:28.000Z</time>
      </trkpt>
      <trkpt lat="47.26956" lon="-2.34062">
        <ele>7.8000001907349</ele>
        <time>2020-08-15T07:07:37.000Z</time>
      </trkpt>
      <trkpt lat="47.26945" lon="-2.34009">
        <ele>7.8000001907349</ele>
        <time>2020-08-15T07:07:45.000Z</time>
      </trkpt>
      <trkpt lat="47.26931" lon="-2.33951">
        <ele>7.8000001907349</ele>
        <time>2020-08-15T07:07:53.000Z</time>
      </trkpt>
      <trkpt lat="47.26917" lon="-2.3389">
        <ele>7.8000001907349</ele>
        <time>2020-08-15T07:08:00.000Z</time>
      </trkpt>
      <trkpt lat="47.269" lon="-2.33823">
        <ele>7.8000001907349</ele>
        <time>2020-08-15T07:08:08.000Z</time>
      </trkpt>
      <trkpt lat="47.26894" lon="-2.33802">
        <ele>7.4000000953674</ele>
        <time>2020-08-15T07:08:11.000Z</time>
      </trkpt>
      <trkpt lat="47.26891" lon="-2.33796">
        <ele>7</ele>
        <time>2020-08-15T07:08:12.000Z</time>
      </trkpt>
      <trkpt lat="47.26886" lon="-2.33792">
        <ele>6.5999999046326</ele>
        <time>2020-08-15T07:08:13.000Z</time>
      </trkpt>
      <trkpt lat="47.26881" lon="-2.33789">
        <ele>6.1999998092651</ele>
        <time>2020-08-15T07:08:14.000Z</time>
      </trkpt>
      <trkpt lat="47.26876" lon="-2.33786">
        <ele>5.8000001907349</ele>
        <time>2020-08-15T07:08:15.000Z</time>
      </trkpt>
      <trkpt lat="47.2687" lon="-2.33784">
        <ele>5.8000001907349</ele>
        <time>2020-08-15T07:08:16.000Z</time>
      </trkpt>
      <trkpt lat="47.2686" lon="-2.3378">
        <ele>5.8000001907349</ele>
        <time>2020-08-15T07:08:18.000Z</time>
      </trkpt>
      <trkpt lat="47.26844" lon="-2.33775">
        <ele>5.8000001907349</ele>
        <time>2020-08-15T07:08:21.000Z</time>
      </trkpt>
      <trkpt lat="47.26836" lon="-2.3377">
        <ele>5.8000001907349</ele>
        <time>2020-08-15T07:08:23.000Z</time>
      </trkpt>
      <trkpt lat="47.26828" lon="-2.33763">
        <ele>5.8000001907349</ele>
        <time>2020-08-15T07:08:25.000Z</time>
      </trkpt>
      <trkpt lat="47.26819" lon="-2.33751">
        <ele>5.8000001907349</ele>
        <time>2020-08-15T07:08:28.000Z</time>
      </trkpt>
      <trkpt lat="47.26796" lon="-2.33726">
        <ele>5.8000001907349</ele>
        <time>2020-08-15T07:08:34.000Z</time>
      </trkpt>
      <trkpt lat="47.26778" lon="-2.33703">
        <ele>5.8000001907349</ele>
        <time>2020-08-15T07:08:39.000Z</time>
      </trkpt>
      <trkpt lat="47.26777" lon="-2.33696">
        <ele>5.8000001907349</ele>
        <time>2020-08-15T07:08:40.000Z</time>
      </trkpt>
      <trkpt lat="47.26775" lon="-2.33659">
        <ele>5.8000001907349</ele>
        <time>2020-08-15T07:08:44.000Z</time>
      </trkpt>
      <trkpt lat="47.26778" lon="-2.33593">
        <ele>5</ele>
        <time>2020-08-15T07:08:50.000Z</time>
      </trkpt>
      <trkpt lat="47.26779" lon="-2.33583">
        <ele>4.5999999046326</ele>
        <time>2020-08-15T07:08:51.000Z</time>
      </trkpt>
      <trkpt lat="47.26779" lon="-2.33572">
        <ele>4.1999998092651</ele>
        <time>2020-08-15T07:08:52.000Z</time>
      </trkpt>
      <trkpt lat="47.26778" lon="-2.33561">
        <ele>3.5999999046326</ele>
        <time>2020-08-15T07:08:53.000Z</time>
      </trkpt>
      <trkpt lat="47.26775" lon="-2.33541">
        <ele>3.5999999046326</ele>
        <time>2020-08-15T07:08:55.000Z</time>
      </trkpt>
      <trkpt lat="47.2677" lon="-2.33511">
        <ele>3.2000000476837</ele>
        <time>2020-08-15T07:08:58.000Z</time>
      </trkpt>
      <trkpt lat="47.26768" lon="-2.33502">
        <ele>2.7999999523163</ele>
        <time>2020-08-15T07:08:59.000Z</time>
      </trkpt>
      <trkpt lat="47.26766" lon="-2.33493">
        <ele>2.4000000953674</ele>
        <time>2020-08-15T07:09:00.000Z</time>
      </trkpt>
      <trkpt lat="47.26765" lon="-2.33484">
        <ele>2</ele>
        <time>2020-08-15T07:09:01.000Z</time>
      </trkpt>
      <trkpt lat="47.26764" lon="-2.33474">
        <ele>1.6000000238419</ele>
        <time>2020-08-15T07:09:02.000Z</time>
      </trkpt>
      <trkpt lat="47.26757" lon="-2.33428">
        <ele>1.6000000238419</ele>
        <time>2020-08-15T07:09:07.000Z</time>
      </trkpt>
      <trkpt lat="47.26752" lon="-2.33378">
        <ele>1.6000000238419</ele>
        <time>2020-08-15T07:09:13.000Z</time>
      </trkpt>
      <trkpt lat="47.26747" lon="-2.33339">
        <ele>1.6000000238419</ele>
        <time>2020-08-15T07:09:19.000Z</time>
      </trkpt>
      <trkpt lat="47.26744" lon="-2.33319">
        <ele>1.6000000238419</ele>
        <time>2020-08-15T07:09:22.000Z</time>
      </trkpt>
      <trkpt lat="47.26737" lon="-2.333">
        <ele>1.6000000238419</ele>
        <time>2020-08-15T07:09:25.000Z</time>
      </trkpt>
      <trkpt lat="47.2673" lon="-2.33274">
        <ele>1.6000000238419</ele>
        <time>2020-08-15T07:09:29.000Z</time>
      </trkpt>
      <trkpt lat="47.26729" lon="-2.3326">
        <ele>1.6000000238419</ele>
        <time>2020-08-15T07:09:31.000Z</time>
      </trkpt>
      <trkpt lat="47.26729" lon="-2.33247">
        <ele>1.6000000238419</ele>
        <time>2020-08-15T07:09:33.000Z</time>
      </trkpt>
      <trkpt lat="47.26734" lon="-2.33227">
        <ele>1.6000000238419</ele>
        <time>2020-08-15T07:09:36.000Z</time>
      </trkpt>
      <trkpt lat="47.26736" lon="-2.33219">
        <ele>1.6000000238419</ele>
        <time>2020-08-15T07:09:37.000Z</time>
      </trkpt>
      <trkpt lat="47.26747" lon="-2.33185">
        <ele>1.6000000238419</ele>
        <time>2020-08-15T07:09:42.000Z</time>
      </trkpt>
      <trkpt lat="47.26764" lon="-2.33127">
        <ele>1.6000000238419</ele>
        <time>2020-08-15T07:09:51.000Z</time>
      </trkpt>
      <trkpt lat="47.26767" lon="-2.33111">
        <ele>1.6000000238419</ele>
        <time>2020-08-15T07:09:55.000Z</time>
      </trkpt>
      <trkpt lat="47.26763" lon="-2.33095">
        <ele>1.6000000238419</ele>
        <time>2020-08-15T07:10:00.000Z</time>
      </trkpt>
      <trkpt lat="47.26762" lon="-2.33092">
        <ele>1.6000000238419</ele>
        <time>2020-08-15T07:10:02.000Z</time>
      </trkpt>
      <trkpt lat="47.26758" lon="-2.3309">
        <ele>1.6000000238419</ele>
        <time>2020-08-15T07:10:05.000Z</time>
      </trkpt>
      <trkpt lat="47.26748" lon="-2.33089">
        <ele>1.6000000238419</ele>
        <time>2020-08-15T07:10:10.000Z</time>
      </trkpt>
      <trkpt lat="47.26745" lon="-2.33092">
        <ele>1.6000000238419</ele>
        <time>2020-08-15T07:10:11.000Z</time>
      </trkpt>
      <trkpt lat="47.26729" lon="-2.33108">
        <ele>1.6000000238419</ele>
        <time>2020-08-15T07:10:15.000Z</time>
      </trkpt>
      <trkpt lat="47.26692" lon="-2.33143">
        <ele>1.6000000238419</ele>
        <time>2020-08-15T07:10:22.000Z</time>
      </trkpt>
      <trkpt lat="47.26651" lon="-2.33185">
        <ele>1.6000000238419</ele>
        <time>2020-08-15T07:10:30.000Z</time>
      </trkpt>
      <trkpt lat="47.26615" lon="-2.33221">
        <ele>1.6000000238419</ele>
        <time>2020-08-15T07:10:37.000Z</time>
      </trkpt>
      <trkpt lat="47.26582" lon="-2.33253">
        <ele>1.6000000238419</ele>
        <time>2020-08-15T07:10:44.000Z</time>
      </trkpt>
      <trkpt lat="47.26553" lon="-2.33283">
        <ele>1.6000000238419</ele>
        <time>2020-08-15T07:10:51.000Z</time>
      </trkpt>
      <trkpt lat="47.26537" lon="-2.33294">
        <ele>1.6000000238419</ele>
        <time>2020-08-15T07:10:56.000Z</time>
      </trkpt>
      <trkpt lat="47.26535" lon="-2.33293">
        <ele>1.6000000238419</ele>
        <time>2020-08-15T07:10:57.000Z</time>
      </trkpt>
      <trkpt lat="47.26532" lon="-2.3329">
        <ele>1.6000000238419</ele>
        <time>2020-08-15T07:11:00.000Z</time>
      </trkpt>
      <trkpt lat="47.26527" lon="-2.3328">
        <ele>1.6000000238419</ele>
        <time>2020-08-15T07:11:06.000Z</time>
      </trkpt>
      <trkpt lat="47.26527" lon="-2.3328">
        <ele>1.6000000238419</ele>
        <time>2020-08-15T07:11:08.000Z</time>
      </trkpt>
      <trkpt lat="47.26526" lon="-2.33281">
        <ele>1.6000000238419</ele>
        <time>2020-08-15T07:11:32.000Z</time>
      </trkpt>
      <trkpt lat="47.26524" lon="-2.33282">
        <ele>1.6000000238419</ele>
        <time>2020-08-15T07:11:33.000Z</time>
      </trkpt>
      <trkpt lat="47.26512" lon="-2.33283">
        <ele>1.6000000238419</ele>
        <time>2020-08-15T07:11:38.000Z</time>
      </trkpt>
      <trkpt lat="47.26507" lon="-2.33282">
        <ele>1.6000000238419</ele>
        <time>2020-08-15T07:11:42.000Z</time>
      </trkpt>
      <trkpt lat="47.26505" lon="-2.3328">
        <ele>1.6000000238419</ele>
        <time>2020-08-15T07:11:44.000Z</time>
      </trkpt>
      <trkpt lat="47.26501" lon="-2.33269">
        <ele>1.6000000238419</ele>
        <time>2020-08-15T07:11:50.000Z</time>
      </trkpt>
      <trkpt lat="47.26506" lon="-2.33257">
        <ele>1.6000000238419</ele>
        <time>2020-08-15T07:11:54.000Z</time>
      </trkpt>
      <trkpt lat="47.26516" lon="-2.33249">
        <ele>1.6000000238419</ele>
        <time>2020-08-15T07:11:57.000Z</time>
      </trkpt>
      <trkpt lat="47.26523" lon="-2.33245">
        <ele>1.6000000238419</ele>
        <time>2020-08-15T07:11:59.000Z</time>
      </trkpt>
      <trkpt lat="47.26548" lon="-2.33228">
        <ele>1.6000000238419</ele>
        <time>2020-08-15T07:12:06.000Z</time>
      </trkpt>
      <trkpt lat="47.26558" lon="-2.33222">
        <ele>1.2000000476837</ele>
        <time>2020-08-15T07:12:09.000Z</time>
      </trkpt>
      <trkpt lat="47.2656" lon="-2.3322">
        <ele>0.80000001192093</ele>
        <time>2020-08-15T07:12:10.000Z</time>
      </trkpt>
      <trkpt lat="47.26561" lon="-2.3322">
        <ele>0.40000000596046</ele>
        <time>2020-08-15T07:12:11.000Z</time>
      </trkpt>
      <trkpt lat="47.26562" lon="-2.33219">
        <ele>2.8</ele>
        <time>2020-08-15T07:12:12.000Z</time>
      </trkpt>
      <trkpt lat="47.26564" lon="-2.33219">
        <ele>-0.40000000596046</ele>
        <time>2020-08-15T07:12:13.000Z</time>
      </trkpt>
      <trkpt lat="47.26565" lon="-2.33218">
        <ele>-0.40000000596046</ele>
        <time>2020-08-15T07:12:14.000Z</time>
      </trkpt>
      <trkpt lat="47.26576" lon="-2.33212">
        <ele>-0.40000000596046</ele>
        <time>2020-08-15T07:12:21.000Z</time>
      </trkpt>
      <trkpt lat="47.26584" lon="-2.33207">
        <ele>-0.40000000596046</ele>
        <time>2020-08-15T07:12:28.000Z</time>
      </trkpt>
      <trkpt lat="47.26588" lon="-2.33202">
        <ele>-0.40000000596046</ele>
        <time>2020-08-15T07:12:31.000Z</time>
      </trkpt>
      <trkpt lat="47.2659" lon="-2.33198">
        <ele>-0.40000000596046</ele>
        <time>2020-08-15T07:12:33.000Z</time>
      </trkpt>
      <trkpt lat="47.26592" lon="-2.33194">
        <ele>-0.40000000596046</ele>
        <time>2020-08-15T07:12:35.000Z</time>
      </trkpt>
      <trkpt lat="47.26594" lon="-2.33189">
        <ele>-0.40000000596046</ele>
        <time>2020-08-15T07:12:38.000Z</time>
      </trkpt>
      <trkpt lat="47.26595" lon="-2.33184">
        <ele>-0.40000000596046</ele>
        <time>2020-08-15T07:12:40.000Z</time>
      </trkpt>
      <trkpt lat="47.26598" lon="-2.33174">
        <ele>-0.40000000596046</ele>
        <time>2020-08-15T07:12:43.000Z</time>
      </trkpt>
      <trkpt lat="47.26609" lon="-2.33154">
        <ele>-0.40000000596046</ele>
        <time>2020-08-15T07:12:48.000Z</time>
      </trkpt>
      <trkpt lat="47.2662" lon="-2.33151">
        <ele>-0.40000000596046</ele>
        <time>2020-08-15T07:12:51.000Z</time>
      </trkpt>
      <trkpt lat="47.26625" lon="-2.33151">
        <ele>-0.40000000596046</ele>
        <time>2020-08-15T07:12:52.000Z</time>
      </trkpt>
      <trkpt lat="47.26639" lon="-2.33145">
        <ele>-0.40000000596046</ele>
        <time>2020-08-15T07:12:55.000Z</time>
      </trkpt>
      <trkpt lat="47.26649" lon="-2.33137">
        <ele>-0.40000000596046</ele>
        <time>2020-08-15T07:12:57.000Z</time>
      </trkpt>
      <trkpt lat="47.26674" lon="-2.33117">
        <ele>-0.40000000596046</ele>
        <time>2020-08-15T07:13:02.000Z</time>
      </trkpt>
      <trkpt lat="47.26713" lon="-2.33082">
        <ele>-0.40000000596046</ele>
        <time>2020-08-15T07:13:10.000Z</time>
      </trkpt>
      <trkpt lat="47.26717" lon="-2.33078">
        <ele>-0.40000000596046</ele>
        <time>2020-08-15T07:13:11.000Z</time>
      </trkpt>
      <trkpt lat="47.26729" lon="-2.33059">
        <ele>-0.40000000596046</ele>
        <time>2020-08-15T07:13:15.000Z</time>
      </trkpt>
      <trkpt lat="47.26733" lon="-2.33053">
        <ele>-0.40000000596046</ele>
        <time>2020-08-15T07:13:18.000Z</time>
      </trkpt>
      <trkpt lat="47.26733" lon="-2.33051">
        <ele>-0.40000000596046</ele>
        <time>2020-08-15T07:13:19.000Z</time>
      </trkpt>
      <trkpt lat="47.2673" lon="-2.3305">
        <ele>-0.40000000596046</ele>
        <time>2020-08-15T07:13:23.000Z</time>
      </trkpt>
      <trkpt lat="47.2673" lon="-2.33061">
        <ele>-0.40000000596046</ele>
        <time>2020-08-15T07:13:27.000Z</time>
      </trkpt>
      <trkpt lat="47.26727" lon="-2.33064">
        <ele>-0.40000000596046</ele>
        <time>2020-08-15T07:13:30.000Z</time>
      </trkpt>
      <trkpt lat="47.26729" lon="-2.33052">
        <ele>-0.40000000596046</ele>
        <time>2020-08-15T07:13:33.000Z</time>
      </trkpt>
      <trkpt lat="47.2673" lon="-2.33048">
        <ele>-0.40000000596046</ele>
        <time>2020-08-15T07:13:34.000Z</time>
      </trkpt>
      <trkpt lat="47.26735" lon="-2.33025">
        <ele>-0.40000000596046</ele>
        <time>2020-08-15T07:13:38.000Z</time>
      </trkpt>
      <trkpt lat="47.26735" lon="-2.3302">
        <ele>-0.40000000596046</ele>
        <time>2020-08-15T07:13:39.000Z</time>
      </trkpt>
      <trkpt lat="47.26735" lon="-2.33007">
        <ele>-0.40000000596046</ele>
        <time>2020-08-15T07:13:41.000Z</time>
      </trkpt>
      <trkpt lat="47.26737" lon="-2.32988">
        <ele>-0.40000000596046</ele>
        <time>2020-08-15T07:13:44.000Z</time>
      </trkpt>
      <trkpt lat="47.26743" lon="-2.32976">
        <ele>5.7</ele>
        <time>2020-08-15T07:13:46.000Z</time>
      </trkpt>
      <trkpt lat="47.26746" lon="-2.32971">
        <ele>0.80000001192093</ele>
        <time>2020-08-15T07:13:47.000Z</time>
      </trkpt>
      <trkpt lat="47.2675" lon="-2.32966">
        <ele>1.2000000476837</ele>
        <time>2020-08-15T07:13:48.000Z</time>
      </trkpt>
      <trkpt lat="47.26754" lon="-2.32961">
        <ele>1.6000000238419</ele>
        <time>2020-08-15T07:13:49.000Z</time>
      </trkpt>
      <trkpt lat="47.26777" lon="-2.32935">
        <ele>1.6000000238419</ele>
        <time>2020-08-15T07:13:54.000Z</time>
      </trkpt>
      <trkpt lat="47.26787" lon="-2.32925">
        <ele>1.6000000238419</ele>
        <time>2020-08-15T07:13:56.000Z</time>
      </trkpt>
      <trkpt lat="47.26803" lon="-2.32915">
        <ele>1.6000000238419</ele>
        <time>2020-08-15T07:13:59.000Z</time>
      </trkpt>
      <trkpt lat="47.26808" lon="-2.32912">
        <ele>1.6000000238419</ele>
        <time>2020-08-15T07:14:00.000Z</time>
      </trkpt>
      <trkpt lat="47.26828" lon="-2.32892">
        <ele>1.6000000238419</ele>
        <time>2020-08-15T07:14:04.000Z</time>
      </trkpt>
      <trkpt lat="47.26849" lon="-2.32881">
        <ele>1.6000000238419</ele>
        <time>2020-08-15T07:14:08.000Z</time>
      </trkpt>
      <trkpt lat="47.26864" lon="-2.32869">
        <ele>1.6000000238419</ele>
        <time>2020-08-15T07:14:11.000Z</time>
      </trkpt>
      <trkpt lat="47.26864" lon="-2.32856">
        <ele>1.6000000238419</ele>
        <time>2020-08-15T07:14:13.000Z</time>
      </trkpt>
      <trkpt lat="47.26856" lon="-2.32834">
        <ele>1.6000000238419</ele>
        <time>2020-08-15T07:14:17.000Z</time>
      </trkpt>
      <trkpt lat="47.26855" lon="-2.32829">
        <ele>1.6000000238419</ele>
        <time>2020-08-15T07:14:18.000Z</time>
      </trkpt>
      <trkpt lat="47.26853" lon="-2.32825">
        <ele>2.2000000476837</ele>
        <time>2020-08-15T07:14:19.000Z</time>
      </trkpt>
      <trkpt lat="47.26851" lon="-2.3282">
        <ele>2.5999999046326</ele>
        <time>2020-08-15T07:14:20.000Z</time>
      </trkpt>
      <trkpt lat="47.26849" lon="-2.32817">
        <ele>3</ele>
        <time>2020-08-15T07:14:21.000Z</time>
      </trkpt>
      <trkpt lat="47.26848" lon="-2.32813">
        <ele>3.4000000953674</ele>
        <time>2020-08-15T07:14:22.000Z</time>
      </trkpt>
      <trkpt lat="47.26846" lon="-2.32808">
        <ele>3.7999999523163</ele>
        <time>2020-08-15T07:14:23.000Z</time>
      </trkpt>
      <trkpt lat="47.26844" lon="-2.32805">
        <ele>4.1999998092651</ele>
        <time>2020-08-15T07:14:24.000Z</time>
      </trkpt>
      <trkpt lat="47.26843" lon="-2.328">
        <ele>4.5999999046326</ele>
        <time>2020-08-15T07:14:25.000Z</time>
      </trkpt>
      <trkpt lat="47.26841" lon="-2.32796">
        <ele>5</ele>
        <time>2020-08-15T07:14:26.000Z</time>
      </trkpt>
      <trkpt lat="47.2684" lon="-2.32792">
        <ele>5.4000000953674</ele>
        <time>2020-08-15T07:14:27.000Z</time>
      </trkpt>
      <trkpt lat="47.26839" lon="-2.32787">
        <ele>5.8000001907349</ele>
        <time>2020-08-15T07:14:28.000Z</time>
      </trkpt>
      <trkpt lat="47.26836" lon="-2.32778">
        <ele>6.4000000953674</ele>
        <time>2020-08-15T07:14:30.000Z</time>
      </trkpt>
      <trkpt lat="47.26835" lon="-2.32774">
        <ele>6.8000001907349</ele>
        <time>2020-08-15T07:14:31.000Z</time>
      </trkpt>
      <trkpt lat="47.26834" lon="-2.32769">
        <ele>7.1999998092651</ele>
        <time>2020-08-15T07:14:32.000Z</time>
      </trkpt>
      <trkpt lat="47.26833" lon="-2.32764">
        <ele>7.5999999046326</ele>
        <time>2020-08-15T07:14:33.000Z</time>
      </trkpt>
      <trkpt lat="47.26832" lon="-2.3276">
        <ele>8</ele>
        <time>2020-08-15T07:14:34.000Z</time>
      </trkpt>
      <trkpt lat="47.26829" lon="-2.32751">
        <ele>8.8000001907349</ele>
        <time>2020-08-15T07:14:36.000Z</time>
      </trkpt>
      <trkpt lat="47.26827" lon="-2.32747">
        <ele>9.1999998092651</ele>
        <time>2020-08-15T07:14:37.000Z</time>
      </trkpt>
      <trkpt lat="47.26826" lon="-2.32744">
        <ele>9.6000003814697</ele>
        <time>2020-08-15T07:14:38.000Z</time>
      </trkpt>
      <trkpt lat="47.26824" lon="-2.3274">
        <ele>10</ele>
        <time>2020-08-15T07:14:39.000Z</time>
      </trkpt>
      <trkpt lat="47.26821" lon="-2.32732">
        <ele>10.39999961853</ele>
        <time>2020-08-15T07:14:41.000Z</time>
      </trkpt>
      <trkpt lat="47.2682" lon="-2.32728">
        <ele>10.800000190735</ele>
        <time>2020-08-15T07:14:42.000Z</time>
      </trkpt>
      <trkpt lat="47.26818" lon="-2.32724">
        <ele>11.199999809265</ele>
        <time>2020-08-15T07:14:43.000Z</time>
      </trkpt>
      <trkpt lat="47.26817" lon="-2.3272">
        <ele>11.60000038147</ele>
        <time>2020-08-15T07:14:44.000Z</time>
      </trkpt>
      <trkpt lat="47.26815" lon="-2.32716">
        <ele>12</ele>
        <time>2020-08-15T07:14:45.000Z</time>
      </trkpt>
      <trkpt lat="47.2681" lon="-2.32705">
        <ele>12</ele>
        <time>2020-08-15T07:14:48.000Z</time>
      </trkpt>
      <trkpt lat="47.26804" lon="-2.32676">
        <ele>12</ele>
        <time>2020-08-15T07:14:54.000Z</time>
      </trkpt>
      <trkpt lat="47.26811" lon="-2.32658">
        <ele>12.39999961853</ele>
        <time>2020-08-15T07:14:58.000Z</time>
      </trkpt>
      <trkpt lat="47.26812" lon="-2.32653">
        <ele>12.800000190735</ele>
        <time>2020-08-15T07:14:59.000Z</time>
      </trkpt>
      <trkpt lat="47.26813" lon="-2.32647">
        <ele>13.199999809265</ele>
        <time>2020-08-15T07:15:00.000Z</time>
      </trkpt>
      <trkpt lat="47.26813" lon="-2.3264">
        <ele>14</ele>
        <time>2020-08-15T07:15:01.000Z</time>
      </trkpt>
      <trkpt lat="47.26813" lon="-2.32626">
        <ele>14</ele>
        <time>2020-08-15T07:15:03.000Z</time>
      </trkpt>
      <trkpt lat="47.26806" lon="-2.32584">
        <ele>14</ele>
        <time>2020-08-15T07:15:09.000Z</time>
      </trkpt>
      <trkpt lat="47.26798" lon="-2.3253">
        <ele>14</ele>
        <time>2020-08-15T07:15:17.000Z</time>
      </trkpt>
      <trkpt lat="47.26796" lon="-2.32506">
        <ele>14</ele>
        <time>2020-08-15T07:15:22.000Z</time>
      </trkpt>
      <trkpt lat="47.26792" lon="-2.32471">
        <ele>14</ele>
        <time>2020-08-15T07:15:29.000Z</time>
      </trkpt>
      <trkpt lat="47.26787" lon="-2.32429">
        <ele>14</ele>
        <time>2020-08-15T07:15:37.000Z</time>
      </trkpt>
      <trkpt lat="47.26784" lon="-2.32409">
        <ele>14</ele>
        <time>2020-08-15T07:15:42.000Z</time>
      </trkpt>
      <trkpt lat="47.26781" lon="-2.32393">
        <ele>14</ele>
        <time>2020-08-15T07:15:49.000Z</time>
      </trkpt>
      <trkpt lat="47.26776" lon="-2.32375">
        <ele>14</ele>
        <time>2020-08-15T07:15:56.000Z</time>
      </trkpt>
      <trkpt lat="47.26776" lon="-2.32371">
        <ele>14</ele>
        <time>2020-08-15T07:15:58.000Z</time>
      </trkpt>
      <trkpt lat="47.26781" lon="-2.32366">
        <ele>14</ele>
        <time>2020-08-15T07:16:00.000Z</time>
      </trkpt>
      <trkpt lat="47.26789" lon="-2.32364">
        <ele>14</ele>
        <time>2020-08-15T07:16:02.000Z</time>
      </trkpt>
      <trkpt lat="47.26799" lon="-2.32362">
        <ele>14</ele>
        <time>2020-08-15T07:16:04.000Z</time>
      </trkpt>
      <trkpt lat="47.26827" lon="-2.32355">
        <ele>13.60000038147</ele>
        <time>2020-08-15T07:16:10.000Z</time>
      </trkpt>
      <trkpt lat="47.26833" lon="-2.32354">
        <ele>13.199999809265</ele>
        <time>2020-08-15T07:16:11.000Z</time>
      </trkpt>
      <trkpt lat="47.26838" lon="-2.32353">
        <ele>12.800000190735</ele>
        <time>2020-08-15T07:16:12.000Z</time>
      </trkpt>
      <trkpt lat="47.26844" lon="-2.32353">
        <ele>12.39999961853</ele>
        <time>2020-08-15T07:16:13.000Z</time>
      </trkpt>
      <trkpt lat="47.2685" lon="-2.32352">
        <ele>12</ele>
        <time>2020-08-15T07:16:14.000Z</time>
      </trkpt>
      <trkpt lat="47.26857" lon="-2.32351">
        <ele>11.199999809265</ele>
        <time>2020-08-15T07:16:15.000Z</time>
      </trkpt>
      <trkpt lat="47.26863" lon="-2.32349">
        <ele>10.800000190735</ele>
        <time>2020-08-15T07:16:16.000Z</time>
      </trkpt>
      <trkpt lat="47.2687" lon="-2.32348">
        <ele>10.39999961853</ele>
        <time>2020-08-15T07:16:17.000Z</time>
      </trkpt>
      <trkpt lat="47.26877" lon="-2.32346">
        <ele>10</ele>
        <time>2020-08-15T07:16:18.000Z</time>
      </trkpt>
      <trkpt lat="47.26888" lon="-2.32343">
        <ele>9.3999996185303</ele>
        <time>2020-08-15T07:16:20.000Z</time>
      </trkpt>
      <trkpt lat="47.26894" lon="-2.32342">
        <ele>9</ele>
        <time>2020-08-15T07:16:21.000Z</time>
      </trkpt>
      <trkpt lat="47.26899" lon="-2.32341">
        <ele>8.6000003814697</ele>
        <time>2020-08-15T07:16:22.000Z</time>
      </trkpt>
      <trkpt lat="47.26903" lon="-2.32341">
        <ele>8</ele>
        <time>2020-08-15T07:16:23.000Z</time>
      </trkpt>
      <trkpt lat="47.26906" lon="-2.3234">
        <ele>7.5999999046326</ele>
        <time>2020-08-15T07:16:24.000Z</time>
      </trkpt>
      <trkpt lat="47.2691" lon="-2.32339">
        <ele>7.1999998092651</ele>
        <time>2020-08-15T07:16:26.000Z</time>
      </trkpt>
      <trkpt lat="47.26911" lon="-2.32339">
        <ele>6.8000001907349</ele>
        <time>2020-08-15T07:16:27.000Z</time>
      </trkpt>
      <trkpt lat="47.26912" lon="-2.32339">
        <ele>6.1999998092651</ele>
        <time>2020-08-15T07:16:28.000Z</time>
      </trkpt>
      <trkpt lat="47.26914" lon="-2.32338">
        <ele>5.8000001907349</ele>
        <time>2020-08-15T07:16:29.000Z</time>
      </trkpt>
      <trkpt lat="47.26915" lon="-2.32338">
        <ele>5.4000000953674</ele>
        <time>2020-08-15T07:16:30.000Z</time>
      </trkpt>
      <trkpt lat="47.26918" lon="-2.32338">
        <ele>5.4000000953674</ele>
        <time>2020-08-15T07:16:34.000Z</time>
      </trkpt>
      <trkpt lat="47.2692" lon="-2.32339">
        <ele>5.4000000953674</ele>
        <time>2020-08-15T07:16:35.000Z</time>
      </trkpt>
      <trkpt lat="47.26928" lon="-2.32348">
        <ele>5.4000000953674</ele>
        <time>2020-08-15T07:16:39.000Z</time>
      </trkpt>
      <trkpt lat="47.26939" lon="-2.32367">
        <ele>5.4000000953674</ele>
        <time>2020-08-15T07:16:45.000Z</time>
      </trkpt>
      <trkpt lat="47.26945" lon="-2.32391">
        <ele>5.4000000953674</ele>
        <time>2020-08-15T07:16:52.000Z</time>
      </trkpt>
      <trkpt lat="47.26952" lon="-2.32414">
        <ele>5.4000000953674</ele>
        <time>2020-08-15T07:16:59.000Z</time>
      </trkpt>
      <trkpt lat="47.26964" lon="-2.32438">
        <ele>4.5999999046326</ele>
        <time>2020-08-15T07:17:05.000Z</time>
      </trkpt>
      <trkpt lat="47.26967" lon="-2.32441">
        <ele>4.1999998092651</ele>
        <time>2020-08-15T07:17:06.000Z</time>
      </trkpt>
      <trkpt lat="47.2697" lon="-2.32444">
        <ele>3.5999999046326</ele>
        <time>2020-08-15T07:17:07.000Z</time>
      </trkpt>
      <trkpt lat="47.26972" lon="-2.32447">
        <ele>3.2000000476837</ele>
        <time>2020-08-15T07:17:08.000Z</time>
      </trkpt>
      <trkpt lat="47.26982" lon="-2.32462">
        <ele>3.2000000476837</ele>
        <time>2020-08-15T07:17:12.000Z</time>
      </trkpt>
      <trkpt lat="47.26997" lon="-2.32494">
        <ele>3.2000000476837</ele>
        <time>2020-08-15T07:17:19.000Z</time>
      </trkpt>
      <trkpt lat="47.27009" lon="-2.32506">
        <ele>3.2000000476837</ele>
        <time>2020-08-15T07:17:23.000Z</time>
      </trkpt>
      <trkpt lat="47.2703" lon="-2.32494">
        <ele>2.7999999523163</ele>
        <time>2020-08-15T07:17:28.000Z</time>
      </trkpt>
      <trkpt lat="47.27034" lon="-2.32489">
        <ele>2</ele>
        <time>2020-08-15T07:17:29.000Z</time>
      </trkpt>
      <trkpt lat="47.27036" lon="-2.32483">
        <ele>1.6000000238419</ele>
        <time>2020-08-15T07:17:30.000Z</time>
      </trkpt>
      <trkpt lat="47.27038" lon="-2.32476">
        <ele>1.2000000476837</ele>
        <time>2020-08-15T07:17:31.000Z</time>
      </trkpt>
      <trkpt lat="47.2704" lon="-2.32469">
        <ele>1.2000000476837</ele>
        <time>2020-08-15T07:17:32.000Z</time>
      </trkpt>
      <trkpt lat="47.27041" lon="-2.32434">
        <ele>1.2000000476837</ele>
        <time>2020-08-15T07:17:36.000Z</time>
      </trkpt>
      <trkpt lat="47.27033" lon="-2.32377">
        <ele>1.2000000476837</ele>
        <time>2020-08-15T07:17:42.000Z</time>
      </trkpt>
      <trkpt lat="47.27027" lon="-2.32314">
        <ele>1.2000000476837</ele>
        <time>2020-08-15T07:17:49.000Z</time>
      </trkpt>
      <trkpt lat="47.27027" lon="-2.32274">
        <ele>1.2000000476837</ele>
        <time>2020-08-15T07:17:54.000Z</time>
      </trkpt>
      <trkpt lat="47.27028" lon="-2.32256">
        <ele>1.2000000476837</ele>
        <time>2020-08-15T07:17:56.000Z</time>
      </trkpt>
      <trkpt lat="47.27027" lon="-2.32225">
        <ele>1.2000000476837</ele>
        <time>2020-08-15T07:17:59.000Z</time>
      </trkpt>
      <trkpt lat="47.27025" lon="-2.32215">
        <ele>1.2000000476837</ele>
        <time>2020-08-15T07:18:00.000Z</time>
      </trkpt>
      <trkpt lat="47.27017" lon="-2.32189">
        <ele>1.2000000476837</ele>
        <time>2020-08-15T07:18:03.000Z</time>
      </trkpt>
      <trkpt lat="47.26998" lon="-2.3216">
        <ele>1.2000000476837</ele>
        <time>2020-08-15T07:18:07.000Z</time>
      </trkpt>
      <trkpt lat="47.26997" lon="-2.3214">
        <ele>1.2000000476837</ele>
        <time>2020-08-15T07:18:10.000Z</time>
      </trkpt>
      <trkpt lat="47.27008" lon="-2.32122">
        <ele>1.2000000476837</ele>
        <time>2020-08-15T07:18:14.000Z</time>
      </trkpt>
      <trkpt lat="47.27016" lon="-2.32101">
        <ele>1.2000000476837</ele>
        <time>2020-08-15T07:18:18.000Z</time>
      </trkpt>
      <trkpt lat="47.27017" lon="-2.32094">
        <ele>1.2000000476837</ele>
        <time>2020-08-15T07:18:19.000Z</time>
      </trkpt>
      <trkpt lat="47.27019" lon="-2.32071">
        <ele>1.6000000238419</ele>
        <time>2020-08-15T07:18:22.000Z</time>
      </trkpt>
      <trkpt lat="47.27019" lon="-2.32064">
        <ele>2</ele>
        <time>2020-08-15T07:18:23.000Z</time>
      </trkpt>
      <trkpt lat="47.27019" lon="-2.32057">
        <ele>2.4000000953674</ele>
        <time>2020-08-15T07:18:24.000Z</time>
      </trkpt>
      <trkpt lat="47.27019" lon="-2.32049">
        <ele>2.7999999523163</ele>
        <time>2020-08-15T07:18:25.000Z</time>
      </trkpt>
      <trkpt lat="47.27018" lon="-2.32041">
        <ele>3.2000000476837</ele>
        <time>2020-08-15T07:18:26.000Z</time>
      </trkpt>
      <trkpt lat="47.27016" lon="-2.32024">
        <ele>3.2000000476837</ele>
        <time>2020-08-15T07:18:28.000Z</time>
      </trkpt>
      <trkpt lat="47.27014" lon="-2.32017">
        <ele>3.2000000476837</ele>
        <time>2020-08-15T07:18:29.000Z</time>
      </trkpt>
      <trkpt lat="47.27009" lon="-2.31986">
        <ele>3.5999999046326</ele>
        <time>2020-08-15T07:18:34.000Z</time>
      </trkpt>
      <trkpt lat="47.27011" lon="-2.31981">
        <ele>4</ele>
        <time>2020-08-15T07:18:35.000Z</time>
      </trkpt>
      <trkpt lat="47.27015" lon="-2.31978">
        <ele>4.4000000953674</ele>
        <time>2020-08-15T07:18:36.000Z</time>
      </trkpt>
      <trkpt lat="47.2702" lon="-2.31976">
        <ele>4.8000001907349</ele>
        <time>2020-08-15T07:18:37.000Z</time>
      </trkpt>
      <trkpt lat="47.27024" lon="-2.31973">
        <ele>5.1999998092651</ele>
        <time>2020-08-15T07:18:38.000Z</time>
      </trkpt>
      <trkpt lat="47.27044" lon="-2.31963">
        <ele>5.1999998092651</ele>
        <time>2020-08-15T07:18:42.000Z</time>
      </trkpt>
      <trkpt lat="47.27049" lon="-2.3196">
        <ele>5.1999998092651</ele>
        <time>2020-08-15T07:18:43.000Z</time>
      </trkpt>
      <trkpt lat="47.27055" lon="-2.31958">
        <ele>5.1999998092651</ele>
        <time>2020-08-15T07:18:44.000Z</time>
      </trkpt>
      <trkpt lat="47.27074" lon="-2.31957">
        <ele>5.1999998092651</ele>
        <time>2020-08-15T07:18:47.000Z</time>
      </trkpt>
      <trkpt lat="47.27094" lon="-2.31956">
        <ele>5.1999998092651</ele>
        <time>2020-08-15T07:18:50.000Z</time>
      </trkpt>
      <trkpt lat="47.271" lon="-2.31957">
        <ele>5.1999998092651</ele>
        <time>2020-08-15T07:18:51.000Z</time>
      </trkpt>
      <trkpt lat="47.27137" lon="-2.31975">
        <ele>4.8000001907349</ele>
        <time>2020-08-15T07:18:57.000Z</time>
      </trkpt>
      <trkpt lat="47.27143" lon="-2.31979">
        <ele>4.4000000953674</ele>
        <time>2020-08-15T07:18:58.000Z</time>
      </trkpt>
      <trkpt lat="47.27147" lon="-2.31982">
        <ele>4</ele>
        <time>2020-08-15T07:18:59.000Z</time>
      </trkpt>
      <trkpt lat="47.27152" lon="-2.31985">
        <ele>3.4000000953674</ele>
        <time>2020-08-15T07:19:00.000Z</time>
      </trkpt>
      <trkpt lat="47.27155" lon="-2.31987">
        <ele>3</ele>
        <time>2020-08-15T07:19:01.000Z</time>
      </trkpt>
      <trkpt lat="47.27169" lon="-2.31983">
        <ele>3</ele>
        <time>2020-08-15T07:19:05.000Z</time>
      </trkpt>
      <trkpt lat="47.2718" lon="-2.31964">
        <ele>3</ele>
        <time>2020-08-15T07:19:09.000Z</time>
      </trkpt>
      <trkpt lat="47.27182" lon="-2.31961">
        <ele>3</ele>
        <time>2020-08-15T07:19:10.000Z</time>
      </trkpt>
      <trkpt lat="47.27186" lon="-2.31957">
        <ele>3</ele>
        <time>2020-08-15T07:19:11.000Z</time>
      </trkpt>
      <trkpt lat="47.27197" lon="-2.31947">
        <ele>3</ele>
        <time>2020-08-15T07:19:14.000Z</time>
      </trkpt>
      <trkpt lat="47.27206" lon="-2.31935">
        <ele>3</ele>
        <time>2020-08-15T07:19:18.000Z</time>
      </trkpt>
      <trkpt lat="47.27207" lon="-2.31934">
        <ele>3</ele>
        <time>2020-08-15T07:19:20.000Z</time>
      </trkpt>
      <trkpt lat="47.27215" lon="-2.31918">
        <ele>3</ele>
        <time>2020-08-15T07:20:31.000Z</time>
      </trkpt>
      <trkpt lat="47.27204" lon="-2.31906">
        <ele>3</ele>
        <time>2020-08-15T07:20:35.000Z</time>
      </trkpt>
      <trkpt lat="47.272" lon="-2.31901">
        <ele>3</ele>
        <time>2020-08-15T07:20:36.000Z</time>
      </trkpt>
      <trkpt lat="47.27182" lon="-2.31879">
        <ele>3</ele>
        <time>2020-08-15T07:20:41.000Z</time>
      </trkpt>
      <trkpt lat="47.2717" lon="-2.31865">
        <ele>3</ele>
        <time>2020-08-15T07:20:44.000Z</time>
      </trkpt>
      <trkpt lat="47.27162" lon="-2.31856">
        <ele>3</ele>
        <time>2020-08-15T07:20:46.000Z</time>
      </trkpt>
      <trkpt lat="47.27153" lon="-2.31843">
        <ele>3.4000000953674</ele>
        <time>2020-08-15T07:20:49.000Z</time>
      </trkpt>
      <trkpt lat="47.2715" lon="-2.31839">
        <ele>3.7999999523163</ele>
        <time>2020-08-15T07:20:50.000Z</time>
      </trkpt>
      <trkpt lat="47.27146" lon="-2.31833">
        <ele>4.1999998092651</ele>
        <time>2020-08-15T07:20:51.000Z</time>
      </trkpt>
      <trkpt lat="47.27142" lon="-2.31828">
        <ele>4.8000001907349</ele>
        <time>2020-08-15T07:20:52.000Z</time>
      </trkpt>
      <trkpt lat="47.27139" lon="-2.31823">
        <ele>5.1999998092651</ele>
        <time>2020-08-15T07:20:53.000Z</time>
      </trkpt>
      <trkpt lat="47.27118" lon="-2.31791">
        <ele>5.1999998092651</ele>
        <time>2020-08-15T07:20:58.000Z</time>
      </trkpt>
      <trkpt lat="47.27109" lon="-2.31783">
        <ele>5.1999998092651</ele>
        <time>2020-08-15T07:21:00.000Z</time>
      </trkpt>
      <trkpt lat="47.27093" lon="-2.31769">
        <ele>5.5999999046326</ele>
        <time>2020-08-15T07:21:04.000Z</time>
      </trkpt>
      <trkpt lat="47.27089" lon="-2.31766">
        <ele>6</ele>
        <time>2020-08-15T07:21:05.000Z</time>
      </trkpt>
      <trkpt lat="47.27085" lon="-2.31763">
        <ele>6.4000000953674</ele>
        <time>2020-08-15T07:21:06.000Z</time>
      </trkpt>
      <trkpt lat="47.27081" lon="-2.3176">
        <ele>6.8000001907349</ele>
        <time>2020-08-15T07:21:07.000Z</time>
      </trkpt>
      <trkpt lat="47.27078" lon="-2.31756">
        <ele>7.1999998092651</ele>
        <time>2020-08-15T07:21:08.000Z</time>
      </trkpt>
      <trkpt lat="47.27067" lon="-2.31746">
        <ele>7.1999998092651</ele>
        <time>2020-08-15T07:21:11.000Z</time>
      </trkpt>
      <trkpt lat="47.2706" lon="-2.31741">
        <ele>7.1999998092651</ele>
        <time>2020-08-15T07:21:13.000Z</time>
      </trkpt>
      <trkpt lat="47.27046" lon="-2.3173">
        <ele>7.5999999046326</ele>
        <time>2020-08-15T07:21:18.000Z</time>
      </trkpt>
      <trkpt lat="47.27043" lon="-2.31728">
        <ele>8</ele>
        <time>2020-08-15T07:21:19.000Z</time>
      </trkpt>
      <trkpt lat="47.2704" lon="-2.31726">
        <ele>8.3999996185303</ele>
        <time>2020-08-15T07:21:20.000Z</time>
      </trkpt>
      <trkpt lat="47.27038" lon="-2.31724">
        <ele>8.8000001907349</ele>
        <time>2020-08-15T07:21:21.000Z</time>
      </trkpt>
      <trkpt lat="47.27036" lon="-2.31722">
        <ele>9.1999998092651</ele>
        <time>2020-08-15T07:21:22.000Z</time>
      </trkpt>
      <trkpt lat="47.27031" lon="-2.31718">
        <ele>9.1999998092651</ele>
        <time>2020-08-15T07:21:25.000Z</time>
      </trkpt>
      <trkpt lat="47.27028" lon="-2.31709">
        <ele>9.1999998092651</ele>
        <time>2020-08-15T07:21:28.000Z</time>
      </trkpt>
      <trkpt lat="47.27028" lon="-2.31706">
        <ele>9.1999998092651</ele>
        <time>2020-08-15T07:21:29.000Z</time>
      </trkpt>
      <trkpt lat="47.27029" lon="-2.31695">
        <ele>9.1999998092651</ele>
        <time>2020-08-15T07:21:33.000Z</time>
      </trkpt>
      <trkpt lat="47.27029" lon="-2.31693">
        <ele>9.1999998092651</ele>
        <time>2020-08-15T07:21:34.000Z</time>
      </trkpt>
      <trkpt lat="47.2703" lon="-2.31674">
        <ele>9.1999998092651</ele>
        <time>2020-08-15T07:21:42.000Z</time>
      </trkpt>
      <trkpt lat="47.2703" lon="-2.31671">
        <ele>9.6000003814697</ele>
        <time>2020-08-15T07:21:43.000Z</time>
      </trkpt>
      <trkpt lat="47.2703" lon="-2.31667">
        <ele>10</ele>
        <time>2020-08-15T07:21:44.000Z</time>
      </trkpt>
      <trkpt lat="47.27031" lon="-2.31664">
        <ele>10.39999961853</ele>
        <time>2020-08-15T07:21:45.000Z</time>
      </trkpt>
      <trkpt lat="47.27031" lon="-2.3166">
        <ele>10.800000190735</ele>
        <time>2020-08-15T07:21:46.000Z</time>
      </trkpt>
      <trkpt lat="47.27031" lon="-2.31657">
        <ele>11.39999961853</ele>
        <time>2020-08-15T07:21:47.000Z</time>
      </trkpt>
      <trkpt lat="47.2703" lon="-2.31651">
        <ele>11.39999961853</ele>
        <time>2020-08-15T07:21:49.000Z</time>
      </trkpt>
      <trkpt lat="47.27028" lon="-2.31635">
        <ele>11.39999961853</ele>
        <time>2020-08-15T07:21:55.000Z</time>
      </trkpt>
      <trkpt lat="47.27028" lon="-2.3162">
        <ele>11.39999961853</ele>
        <time>2020-08-15T07:22:01.000Z</time>
      </trkpt>
      <trkpt lat="47.27028" lon="-2.31611">
        <ele>11.800000190735</ele>
        <time>2020-08-15T07:22:03.000Z</time>
      </trkpt>
      <trkpt lat="47.27028" lon="-2.31607">
        <ele>12.199999809265</ele>
        <time>2020-08-15T07:22:04.000Z</time>
      </trkpt>
      <trkpt lat="47.27028" lon="-2.31604">
        <ele>12.60000038147</ele>
        <time>2020-08-15T07:22:05.000Z</time>
      </trkpt>
      <trkpt lat="47.27028" lon="-2.31601">
        <ele>13</ele>
        <time>2020-08-15T07:22:06.000Z</time>
      </trkpt>
      <trkpt lat="47.27027" lon="-2.31598">
        <ele>13.39999961853</ele>
        <time>2020-08-15T07:22:07.000Z</time>
      </trkpt>
      <trkpt lat="47.27027" lon="-2.31596">
        <ele>13.39999961853</ele>
        <time>2020-08-15T07:22:08.000Z</time>
      </trkpt>
      <trkpt lat="47.2702" lon="-2.31576">
        <ele>13.800000190735</ele>
        <time>2020-08-15T07:22:14.000Z</time>
      </trkpt>
      <trkpt lat="47.27019" lon="-2.31574">
        <ele>14.199999809265</ele>
        <time>2020-08-15T07:22:15.000Z</time>
      </trkpt>
      <trkpt lat="47.27018" lon="-2.31571">
        <ele>14.60000038147</ele>
        <time>2020-08-15T07:22:16.000Z</time>
      </trkpt>
      <trkpt lat="47.27017" lon="-2.31567">
        <ele>15</ele>
        <time>2020-08-15T07:22:17.000Z</time>
      </trkpt>
      <trkpt lat="47.27016" lon="-2.31564">
        <ele>15.39999961853</ele>
        <time>2020-08-15T07:22:18.000Z</time>
      </trkpt>
      <trkpt lat="47.27012" lon="-2.31553">
        <ele>15.39999961853</ele>
        <time>2020-08-15T07:22:21.000Z</time>
      </trkpt>
      <trkpt lat="47.27006" lon="-2.31534">
        <ele>15.800000190735</ele>
        <time>2020-08-15T07:22:26.000Z</time>
      </trkpt>
      <trkpt lat="47.27005" lon="-2.3153">
        <ele>16.200000762939</ele>
        <time>2020-08-15T07:22:27.000Z</time>
      </trkpt>
      <trkpt lat="47.27004" lon="-2.31525">
        <ele>16.60000038147</ele>
        <time>2020-08-15T07:22:28.000Z</time>
      </trkpt>
      <trkpt lat="47.27003" lon="-2.3152">
        <ele>17</ele>
        <time>2020-08-15T07:22:29.000Z</time>
      </trkpt>
      <trkpt lat="47.27002" lon="-2.31516">
        <ele>17.39999961853</ele>
        <time>2020-08-15T07:22:30.000Z</time>
      </trkpt>
      <trkpt lat="47.26997" lon="-2.31497">
        <ele>17.39999961853</ele>
        <time>2020-08-15T07:22:35.000Z</time>
      </trkpt>
      <trkpt lat="47.26993" lon="-2.31482">
        <ele>17.799999237061</ele>
        <time>2020-08-15T07:22:40.000Z</time>
      </trkpt>
      <trkpt lat="47.26993" lon="-2.31479">
        <ele>18.39999961853</ele>
        <time>2020-08-15T07:22:41.000Z</time>
      </trkpt>
      <trkpt lat="47.26993" lon="-2.31477">
        <ele>18.799999237061</ele>
        <time>2020-08-15T07:22:42.000Z</time>
      </trkpt>
      <trkpt lat="47.26992" lon="-2.31475">
        <ele>19.200000762939</ele>
        <time>2020-08-15T07:22:43.000Z</time>
      </trkpt>
      <trkpt lat="47.26992" lon="-2.31472">
        <ele>19.60000038147</ele>
        <time>2020-08-15T07:22:44.000Z</time>
      </trkpt>
      <trkpt lat="47.2699" lon="-2.31453">
        <ele>19.60000038147</ele>
        <time>2020-08-15T07:22:50.000Z</time>
      </trkpt>
      <trkpt lat="47.26988" lon="-2.31428">
        <ele>19.60000038147</ele>
        <time>2020-08-15T07:22:55.000Z</time>
      </trkpt>
      <trkpt lat="47.26986" lon="-2.31405">
        <ele>20</ele>
        <time>2020-08-15T07:23:00.000Z</time>
      </trkpt>
      <trkpt lat="47.26986" lon="-2.314">
        <ele>20.39999961853</ele>
        <time>2020-08-15T07:23:01.000Z</time>
      </trkpt>
      <trkpt lat="47.26985" lon="-2.31395">
        <ele>20.799999237061</ele>
        <time>2020-08-15T07:23:02.000Z</time>
      </trkpt>
      <trkpt lat="47.26984" lon="-2.3139">
        <ele>21.200000762939</ele>
        <time>2020-08-15T07:23:03.000Z</time>
      </trkpt>
      <trkpt lat="47.26984" lon="-2.31385">
        <ele>21.60000038147</ele>
        <time>2020-08-15T07:23:04.000Z</time>
      </trkpt>
      <trkpt lat="47.26984" lon="-2.31364">
        <ele>21.60000038147</ele>
        <time>2020-08-15T07:23:09.000Z</time>
      </trkpt>
      <trkpt lat="47.26981" lon="-2.31348">
        <ele>21.60000038147</ele>
        <time>2020-08-15T07:23:12.000Z</time>
      </trkpt>
      <trkpt lat="47.2698" lon="-2.31337">
        <ele>22</ele>
        <time>2020-08-15T07:23:14.000Z</time>
      </trkpt>
      <trkpt lat="47.2698" lon="-2.31332">
        <ele>22.39999961853</ele>
        <time>2020-08-15T07:23:15.000Z</time>
      </trkpt>
      <trkpt lat="47.26979" lon="-2.31327">
        <ele>23.200000762939</ele>
        <time>2020-08-15T07:23:16.000Z</time>
      </trkpt>
      <trkpt lat="47.26978" lon="-2.31321">
        <ele>23.60000038147</ele>
        <time>2020-08-15T07:23:17.000Z</time>
      </trkpt>
      <trkpt lat="47.26975" lon="-2.31303">
        <ele>23.60000038147</ele>
        <time>2020-08-15T07:23:20.000Z</time>
      </trkpt>
      <trkpt lat="47.26974" lon="-2.31269">
        <ele>23.60000038147</ele>
        <time>2020-08-15T07:23:25.000Z</time>
      </trkpt>
      <trkpt lat="47.26978" lon="-2.3122">
        <ele>23.60000038147</ele>
        <time>2020-08-15T07:23:32.000Z</time>
      </trkpt>
      <trkpt lat="47.26984" lon="-2.31184">
        <ele>23.60000038147</ele>
        <time>2020-08-15T07:23:37.000Z</time>
      </trkpt>
      <trkpt lat="47.26989" lon="-2.31142">
        <ele>23.200000762939</ele>
        <time>2020-08-15T07:23:42.000Z</time>
      </trkpt>
      <trkpt lat="47.2699" lon="-2.31132">
        <ele>22.799999237061</ele>
        <time>2020-08-15T07:23:43.000Z</time>
      </trkpt>
      <trkpt lat="47.2699" lon="-2.31122">
        <ele>22.39999961853</ele>
        <time>2020-08-15T07:23:44.000Z</time>
      </trkpt>
      <trkpt lat="47.2699" lon="-2.31113">
        <ele>22</ele>
        <time>2020-08-15T07:23:45.000Z</time>
      </trkpt>
      <trkpt lat="47.2699" lon="-2.31104">
        <ele>21.60000038147</ele>
        <time>2020-08-15T07:23:46.000Z</time>
      </trkpt>
      <trkpt lat="47.26988" lon="-2.31081">
        <ele>21.60000038147</ele>
        <time>2020-08-15T07:23:49.000Z</time>
      </trkpt>
      <trkpt lat="47.26995" lon="-2.31066">
        <ele>21</ele>
        <time>2020-08-15T07:23:52.000Z</time>
      </trkpt>
      <trkpt lat="47.26999" lon="-2.31063">
        <ele>20.60000038147</ele>
        <time>2020-08-15T07:23:53.000Z</time>
      </trkpt>
      <trkpt lat="47.27003" lon="-2.3106">
        <ele>20.200000762939</ele>
        <time>2020-08-15T07:23:54.000Z</time>
      </trkpt>
      <trkpt lat="47.27008" lon="-2.31056">
        <ele>19.799999237061</ele>
        <time>2020-08-15T07:23:55.000Z</time>
      </trkpt>
      <trkpt lat="47.27013" lon="-2.31053">
        <ele>19.39999961853</ele>
        <time>2020-08-15T07:23:56.000Z</time>
      </trkpt>
      <trkpt lat="47.27017" lon="-2.31049">
        <ele>19.39999961853</ele>
        <time>2020-08-15T07:23:57.000Z</time>
      </trkpt>
      <trkpt lat="47.27041" lon="-2.31029">
        <ele>19</ele>
        <time>2020-08-15T07:24:03.000Z</time>
      </trkpt>
      <trkpt lat="47.27045" lon="-2.31026">
        <ele>18.60000038147</ele>
        <time>2020-08-15T07:24:04.000Z</time>
      </trkpt>
      <trkpt lat="47.27049" lon="-2.31022">
        <ele>17.60000038147</ele>
        <time>2020-08-15T07:24:05.000Z</time>
      </trkpt>
      <trkpt lat="47.27052" lon="-2.31018">
        <ele>17.200000762939</ele>
        <time>2020-08-15T07:24:06.000Z</time>
      </trkpt>
      <trkpt lat="47.27058" lon="-2.31005">
        <ele>17.200000762939</ele>
        <time>2020-08-15T07:24:09.000Z</time>
      </trkpt>
      <trkpt lat="47.27058" lon="-2.31001">
        <ele>17.200000762939</ele>
        <time>2020-08-15T07:24:10.000Z</time>
      </trkpt>
      <trkpt lat="47.27057" lon="-2.30985">
        <ele>17.200000762939</ele>
        <time>2020-08-15T07:24:13.000Z</time>
      </trkpt>
      <trkpt lat="47.27057" lon="-2.30955">
        <ele>17.200000762939</ele>
        <time>2020-08-15T07:24:19.000Z</time>
      </trkpt>
      <trkpt lat="47.27047" lon="-2.30932">
        <ele>17.200000762939</ele>
        <time>2020-08-15T07:24:24.000Z</time>
      </trkpt>
      <trkpt lat="47.27045" lon="-2.30912">
        <ele>17.200000762939</ele>
        <time>2020-08-15T07:24:29.000Z</time>
      </trkpt>
      <trkpt lat="47.27038" lon="-2.30899">
        <ele>17.200000762939</ele>
        <time>2020-08-15T07:24:35.000Z</time>
      </trkpt>
      <trkpt lat="47.27026" lon="-2.30875">
        <ele>17.200000762939</ele>
        <time>2020-08-15T07:24:40.000Z</time>
      </trkpt>
      <trkpt lat="47.27004" lon="-2.30831">
        <ele>17.200000762939</ele>
        <time>2020-08-15T07:24:47.000Z</time>
      </trkpt>
      <trkpt lat="47.26997" lon="-2.30819">
        <ele>17.200000762939</ele>
        <time>2020-08-15T07:24:49.000Z</time>
      </trkpt>
      <trkpt lat="47.26986" lon="-2.30798">
        <ele>17.60000038147</ele>
        <time>2020-08-15T07:24:53.000Z</time>
      </trkpt>
      <trkpt lat="47.26983" lon="-2.30794">
        <ele>18</ele>
        <time>2020-08-15T07:24:54.000Z</time>
      </trkpt>
      <trkpt lat="47.2698" lon="-2.30789">
        <ele>19</ele>
        <time>2020-08-15T07:24:55.000Z</time>
      </trkpt>
      <trkpt lat="47.26977" lon="-2.30785">
        <ele>19.39999961853</ele>
        <time>2020-08-15T07:24:56.000Z</time>
      </trkpt>
      <trkpt lat="47.2697" lon="-2.30774">
        <ele>19.39999961853</ele>
        <time>2020-08-15T07:24:58.000Z</time>
      </trkpt>
      <trkpt lat="47.26966" lon="-2.30768">
        <ele>19.39999961853</ele>
        <time>2020-08-15T07:24:59.000Z</time>
      </trkpt>
      <trkpt lat="47.26948" lon="-2.30743">
        <ele>19.799999237061</ele>
        <time>2020-08-15T07:25:04.000Z</time>
      </trkpt>
      <trkpt lat="47.26944" lon="-2.30738">
        <ele>20.200000762939</ele>
        <time>2020-08-15T07:25:05.000Z</time>
      </trkpt>
      <trkpt lat="47.26941" lon="-2.30733">
        <ele>20.60000038147</ele>
        <time>2020-08-15T07:25:06.000Z</time>
      </trkpt>
      <trkpt lat="47.26937" lon="-2.30727">
        <ele>21</ele>
        <time>2020-08-15T07:25:07.000Z</time>
      </trkpt>
      <trkpt lat="47.26934" lon="-2.30722">
        <ele>21.39999961853</ele>
        <time>2020-08-15T07:25:08.000Z</time>
      </trkpt>
      <trkpt lat="47.2692" lon="-2.30702">
        <ele>21.39999961853</ele>
        <time>2020-08-15T07:25:13.000Z</time>
      </trkpt>
      <trkpt lat="47.26907" lon="-2.30683">
        <ele>21.39999961853</ele>
        <time>2020-08-15T07:25:20.000Z</time>
      </trkpt>
      <trkpt lat="47.26904" lon="-2.3068">
        <ele>21.39999961853</ele>
        <time>2020-08-15T07:25:23.000Z</time>
      </trkpt>
      <trkpt lat="47.26902" lon="-2.30677">
        <ele>21.39999961853</ele>
        <time>2020-08-15T07:25:37.000Z</time>
      </trkpt>
      <trkpt lat="47.26902" lon="-2.30675">
        <ele>21.799999237061</ele>
        <time>2020-08-15T07:25:38.000Z</time>
      </trkpt>
      <trkpt lat="47.26901" lon="-2.30672">
        <ele>22.200000762939</ele>
        <time>2020-08-15T07:25:39.000Z</time>
      </trkpt>
      <trkpt lat="47.26899" lon="-2.3067">
        <ele>22.60000038147</ele>
        <time>2020-08-15T07:25:40.000Z</time>
      </trkpt>
      <trkpt lat="47.26897" lon="-2.30669">
        <ele>23</ele>
        <time>2020-08-15T07:25:41.000Z</time>
      </trkpt>
      <trkpt lat="47.26894" lon="-2.30669">
        <ele>23.39999961853</ele>
        <time>2020-08-15T07:25:42.000Z</time>
      </trkpt>
      <trkpt lat="47.26892" lon="-2.30669">
        <ele>23.39999961853</ele>
        <time>2020-08-15T07:25:43.000Z</time>
      </trkpt>
      <trkpt lat="47.26879" lon="-2.30682">
        <ele>23.39999961853</ele>
        <time>2020-08-15T07:25:48.000Z</time>
      </trkpt>
      <trkpt lat="47.26876" lon="-2.30687">
        <ele>23.39999961853</ele>
        <time>2020-08-15T07:25:49.000Z</time>
      </trkpt>
      <trkpt lat="47.26864" lon="-2.30708">
        <ele>23.39999961853</ele>
        <time>2020-08-15T07:25:53.000Z</time>
      </trkpt>
      <trkpt lat="47.26848" lon="-2.30747">
        <ele>23.39999961853</ele>
        <time>2020-08-15T07:25:59.000Z</time>
      </trkpt>
      <trkpt lat="47.26837" lon="-2.30778">
        <ele>23.39999961853</ele>
        <time>2020-08-15T07:26:04.000Z</time>
      </trkpt>
      <trkpt lat="47.26834" lon="-2.3079">
        <ele>23.39999961853</ele>
        <time>2020-08-15T07:26:06.000Z</time>
      </trkpt>
      <trkpt lat="47.2683" lon="-2.30799">
        <ele>23.39999961853</ele>
        <time>2020-08-15T07:26:09.000Z</time>
      </trkpt>
      <trkpt lat="47.2683" lon="-2.30799">
        <ele>23.39999961853</ele>
        <time>2020-08-15T07:26:10.000Z</time>
      </trkpt>
      <trkpt lat="47.26829" lon="-2.30798">
        <ele>23.39999961853</ele>
        <time>2020-08-15T07:26:11.000Z</time>
      </trkpt>
      <trkpt lat="47.26828" lon="-2.30796">
        <ele>23.39999961853</ele>
        <time>2020-08-15T07:27:00.000Z</time>
      </trkpt>
      <trkpt lat="47.26826" lon="-2.30795">
        <ele>23.39999961853</ele>
        <time>2020-08-15T07:27:02.000Z</time>
      </trkpt>
      <trkpt lat="47.26826" lon="-2.30795">
        <ele>23.39999961853</ele>
        <time>2020-08-15T07:27:04.000Z</time>
      </trkpt>
      <trkpt lat="47.2683" lon="-2.30787">
        <ele>23.39999961853</ele>
        <time>2020-08-15T07:27:34.000Z</time>
      </trkpt>
      <trkpt lat="47.26831" lon="-2.30785">
        <ele>23.39999961853</ele>
        <time>2020-08-15T07:27:35.000Z</time>
      </trkpt>
      <trkpt lat="47.26838" lon="-2.30772">
        <ele>23.39999961853</ele>
        <time>2020-08-15T07:27:39.000Z</time>
      </trkpt>
      <trkpt lat="47.2684" lon="-2.30766">
        <ele>23.39999961853</ele>
        <time>2020-08-15T07:27:41.000Z</time>
      </trkpt>
      <trkpt lat="47.26846" lon="-2.30748">
        <ele>23.39999961853</ele>
        <time>2020-08-15T07:27:46.000Z</time>
      </trkpt>
      <trkpt lat="47.26859" lon="-2.30713">
        <ele>23.39999961853</ele>
        <time>2020-08-15T07:27:55.000Z</time>
      </trkpt>
      <trkpt lat="47.26874" lon="-2.30684">
        <ele>23.39999961853</ele>
        <time>2020-08-15T07:28:03.000Z</time>
      </trkpt>
      <trkpt lat="47.26885" lon="-2.30669">
        <ele>23.39999961853</ele>
        <time>2020-08-15T07:28:09.000Z</time>
      </trkpt>
      <trkpt lat="47.26895" lon="-2.30662">
        <ele>23.39999961853</ele>
        <time>2020-08-15T07:28:14.000Z</time>
      </trkpt>
      <trkpt lat="47.26895" lon="-2.30662">
        <ele>23.39999961853</ele>
        <time>2020-08-15T07:28:15.000Z</time>
      </trkpt>
      <trkpt lat="47.26895" lon="-2.30662">
        <ele>23.39999961853</ele>
        <time>2020-08-15T07:28:16.000Z</time>
      </trkpt>
      <trkpt lat="47.26894" lon="-2.30664">
        <ele>23.39999961853</ele>
        <time>2020-08-15T07:28:20.000Z</time>
      </trkpt>
      <trkpt lat="47.2689" lon="-2.30668">
        <ele>23.39999961853</ele>
        <time>2020-08-15T07:28:22.000Z</time>
      </trkpt>
      <trkpt lat="47.26872" lon="-2.30692">
        <ele>23.39999961853</ele>
        <time>2020-08-15T07:28:28.000Z</time>
      </trkpt>
      <trkpt lat="47.2685" lon="-2.30741">
        <ele>23.39999961853</ele>
        <time>2020-08-15T07:28:37.000Z</time>
      </trkpt>
      <trkpt lat="47.26845" lon="-2.30753">
        <ele>23.39999961853</ele>
        <time>2020-08-15T07:28:39.000Z</time>
      </trkpt>
      <trkpt lat="47.26836" lon="-2.30778">
        <ele>23.39999961853</ele>
        <time>2020-08-15T07:28:43.000Z</time>
      </trkpt>
      <trkpt lat="47.26833" lon="-2.30784">
        <ele>23.39999961853</ele>
        <time>2020-08-15T07:28:44.000Z</time>
      </trkpt>
      <trkpt lat="47.26829" lon="-2.3079">
        <ele>23.39999961853</ele>
        <time>2020-08-15T07:28:45.000Z</time>
      </trkpt>
      <trkpt lat="47.26821" lon="-2.30798">
        <ele>23.39999961853</ele>
        <time>2020-08-15T07:28:47.000Z</time>
      </trkpt>
      <trkpt lat="47.26802" lon="-2.30813">
        <ele>23.39999961853</ele>
        <time>2020-08-15T07:28:51.000Z</time>
      </trkpt>
      <trkpt lat="47.26766" lon="-2.3085">
        <ele>23.39999961853</ele>
        <time>2020-08-15T07:28:59.000Z</time>
      </trkpt>
      <trkpt lat="47.26747" lon="-2.30868">
        <ele>23.39999961853</ele>
        <time>2020-08-15T07:29:03.000Z</time>
      </trkpt>
      <trkpt lat="47.26737" lon="-2.3087">
        <ele>23.39999961853</ele>
        <time>2020-08-15T07:29:05.000Z</time>
      </trkpt>
      <trkpt lat="47.26725" lon="-2.30856">
        <ele>23.39999961853</ele>
        <time>2020-08-15T07:29:08.000Z</time>
      </trkpt>
      <trkpt lat="47.26716" lon="-2.30836">
        <ele>23.39999961853</ele>
        <time>2020-08-15T07:29:11.000Z</time>
      </trkpt>
      <trkpt lat="47.26714" lon="-2.30829">
        <ele>23.39999961853</ele>
        <time>2020-08-15T07:29:12.000Z</time>
      </trkpt>
      <trkpt lat="47.26695" lon="-2.30783">
        <ele>23.39999961853</ele>
        <time>2020-08-15T07:29:18.000Z</time>
      </trkpt>
      <trkpt lat="47.26669" lon="-2.30725">
        <ele>23.39999961853</ele>
        <time>2020-08-15T07:29:25.000Z</time>
      </trkpt>
      <trkpt lat="47.26659" lon="-2.30701">
        <ele>22.60000038147</ele>
        <time>2020-08-15T07:29:28.000Z</time>
      </trkpt>
      <trkpt lat="47.26657" lon="-2.30695">
        <ele>22.200000762939</ele>
        <time>2020-08-15T07:29:29.000Z</time>
      </trkpt>
      <trkpt lat="47.26654" lon="-2.30691">
        <ele>21.60000038147</ele>
        <time>2020-08-15T07:29:30.000Z</time>
      </trkpt>
      <trkpt lat="47.26651" lon="-2.30691">
        <ele>21.200000762939</ele>
        <time>2020-08-15T07:29:31.000Z</time>
      </trkpt>
      <trkpt lat="47.26649" lon="-2.30694">
        <ele>21.200000762939</ele>
        <time>2020-08-15T07:29:32.000Z</time>
      </trkpt>
      <trkpt lat="47.26646" lon="-2.30709">
        <ele>21.200000762939</ele>
        <time>2020-08-15T07:29:35.000Z</time>
      </trkpt>
      <trkpt lat="47.26645" lon="-2.30714">
        <ele>21.200000762939</ele>
        <time>2020-08-15T07:29:36.000Z</time>
      </trkpt>
      <trkpt lat="47.26643" lon="-2.30719">
        <ele>20.799999237061</ele>
        <time>2020-08-15T07:29:37.000Z</time>
      </trkpt>
      <trkpt lat="47.26642" lon="-2.30723">
        <ele>20.39999961853</ele>
        <time>2020-08-15T07:29:38.000Z</time>
      </trkpt>
      <trkpt lat="47.26639" lon="-2.30726">
        <ele>20</ele>
        <time>2020-08-15T07:29:39.000Z</time>
      </trkpt>
      <trkpt lat="47.26636" lon="-2.30729">
        <ele>19.60000038147</ele>
        <time>2020-08-15T07:29:40.000Z</time>
      </trkpt>
      <trkpt lat="47.26633" lon="-2.30733">
        <ele>19.200000762939</ele>
        <time>2020-08-15T07:29:41.000Z</time>
      </trkpt>
      <trkpt lat="47.26625" lon="-2.30744">
        <ele>19.200000762939</ele>
        <time>2020-08-15T07:29:44.000Z</time>
      </trkpt>
      <trkpt lat="47.26616" lon="-2.3076">
        <ele>19.200000762939</ele>
        <time>2020-08-15T07:29:49.000Z</time>
      </trkpt>
      <trkpt lat="47.26599" lon="-2.30778">
        <ele>19.200000762939</ele>
        <time>2020-08-15T07:29:54.000Z</time>
      </trkpt>
      <trkpt lat="47.26595" lon="-2.30782">
        <ele>18.799999237061</ele>
        <time>2020-08-15T07:29:55.000Z</time>
      </trkpt>
      <trkpt lat="47.26591" lon="-2.30786">
        <ele>18.39999961853</ele>
        <time>2020-08-15T07:29:56.000Z</time>
      </trkpt>
      <trkpt lat="47.26587" lon="-2.30791">
        <ele>18</ele>
        <time>2020-08-15T07:29:57.000Z</time>
      </trkpt>
      <trkpt lat="47.26582" lon="-2.30799">
        <ele>17.60000038147</ele>
        <time>2020-08-15T07:29:58.000Z</time>
      </trkpt>
      <trkpt lat="47.26578" lon="-2.30806">
        <ele>17.200000762939</ele>
        <time>2020-08-15T07:29:59.000Z</time>
      </trkpt>
      <trkpt lat="47.26576" lon="-2.30812">
        <ele>17.200000762939</ele>
        <time>2020-08-15T07:30:00.000Z</time>
      </trkpt>
      <trkpt lat="47.26568" lon="-2.30824">
        <ele>16.799999237061</ele>
        <time>2020-08-15T07:30:03.000Z</time>
      </trkpt>
      <trkpt lat="47.26566" lon="-2.30826">
        <ele>16.200000762939</ele>
        <time>2020-08-15T07:30:04.000Z</time>
      </trkpt>
      <trkpt lat="47.26564" lon="-2.30829">
        <ele>15.800000190735</ele>
        <time>2020-08-15T07:30:05.000Z</time>
      </trkpt>
      <trkpt lat="47.26561" lon="-2.30832">
        <ele>15.39999961853</ele>
        <time>2020-08-15T07:30:06.000Z</time>
      </trkpt>
      <trkpt lat="47.26558" lon="-2.30835">
        <ele>15</ele>
        <time>2020-08-15T07:30:07.000Z</time>
      </trkpt>
      <trkpt lat="47.26555" lon="-2.30839">
        <ele>15</ele>
        <time>2020-08-15T07:30:08.000Z</time>
      </trkpt>
      <trkpt lat="47.26552" lon="-2.30844">
        <ele>15</ele>
        <time>2020-08-15T07:30:09.000Z</time>
      </trkpt>
      <trkpt lat="47.26534" lon="-2.30868">
        <ele>15</ele>
        <time>2020-08-15T07:30:15.000Z</time>
      </trkpt>
      <trkpt lat="47.2652" lon="-2.30877">
        <ele>14.60000038147</ele>
        <time>2020-08-15T07:30:19.000Z</time>
      </trkpt>
      <trkpt lat="47.26518" lon="-2.30876">
        <ele>14.199999809265</ele>
        <time>2020-08-15T07:30:20.000Z</time>
      </trkpt>
      <trkpt lat="47.26515" lon="-2.30874">
        <ele>13.800000190735</ele>
        <time>2020-08-15T07:30:21.000Z</time>
      </trkpt>
      <trkpt lat="47.26513" lon="-2.30872">
        <ele>13.39999961853</ele>
        <time>2020-08-15T07:30:22.000Z</time>
      </trkpt>
      <trkpt lat="47.26511" lon="-2.30869">
        <ele>12.800000190735</ele>
        <time>2020-08-15T07:30:23.000Z</time>
      </trkpt>
      <trkpt lat="47.2651" lon="-2.30865">
        <ele>12.800000190735</ele>
        <time>2020-08-15T07:30:24.000Z</time>
      </trkpt>
      <trkpt lat="47.26507" lon="-2.30859">
        <ele>13.39999961853</ele>
        <time>2020-08-15T07:30:26.000Z</time>
      </trkpt>
      <trkpt lat="47.26505" lon="-2.30856">
        <ele>13.800000190735</ele>
        <time>2020-08-15T07:30:27.000Z</time>
      </trkpt>
      <trkpt lat="47.26503" lon="-2.30852">
        <ele>14.39999961853</ele>
        <time>2020-08-15T07:30:28.000Z</time>
      </trkpt>
      <trkpt lat="47.26501" lon="-2.30849">
        <ele>14.800000190735</ele>
        <time>2020-08-15T07:30:29.000Z</time>
      </trkpt>
      <trkpt lat="47.26495" lon="-2.30845">
        <ele>15.199999809265</ele>
        <time>2020-08-15T07:30:30.000Z</time>
      </trkpt>
      <trkpt lat="47.26491" lon="-2.30844">
        <ele>15.60000038147</ele>
        <time>2020-08-15T07:30:31.000Z</time>
      </trkpt>
      <trkpt lat="47.26487" lon="-2.30838">
        <ele>16.200000762939</ele>
        <time>2020-08-15T07:30:32.000Z</time>
      </trkpt>
      <trkpt lat="47.26483" lon="-2.30833">
        <ele>16.60000038147</ele>
        <time>2020-08-15T07:30:33.000Z</time>
      </trkpt>
      <trkpt lat="47.2648" lon="-2.30827">
        <ele>17</ele>
        <time>2020-08-15T07:30:34.000Z</time>
      </trkpt>
      <trkpt lat="47.26477" lon="-2.30822">
        <ele>17.39999961853</ele>
        <time>2020-08-15T07:30:35.000Z</time>
      </trkpt>
      <trkpt lat="47.26466" lon="-2.308">
        <ele>17.799999237061</ele>
        <time>2020-08-15T07:30:39.000Z</time>
      </trkpt>
      <trkpt lat="47.26464" lon="-2.30794">
        <ele>18.200000762939</ele>
        <time>2020-08-15T07:30:40.000Z</time>
      </trkpt>
      <trkpt lat="47.26461" lon="-2.30789">
        <ele>18.60000038147</ele>
        <time>2020-08-15T07:30:41.000Z</time>
      </trkpt>
      <trkpt lat="47.26459" lon="-2.30782">
        <ele>19.39999961853</ele>
        <time>2020-08-15T07:30:42.000Z</time>
      </trkpt>
      <trkpt lat="47.26452" lon="-2.30761">
        <ele>19.39999961853</ele>
        <time>2020-08-15T07:30:46.000Z</time>
      </trkpt>
      <trkpt lat="47.26439" lon="-2.30728">
        <ele>19.39999961853</ele>
        <time>2020-08-15T07:30:52.000Z</time>
      </trkpt>
      <trkpt lat="47.26437" lon="-2.30723">
        <ele>19.799999237061</ele>
        <time>2020-08-15T07:30:53.000Z</time>
      </trkpt>
      <trkpt lat="47.26435" lon="-2.30719">
        <ele>20.200000762939</ele>
        <time>2020-08-15T07:30:54.000Z</time>
      </trkpt>
      <trkpt lat="47.26433" lon="-2.30715">
        <ele>20.799999237061</ele>
        <time>2020-08-15T07:30:55.000Z</time>
      </trkpt>
      <trkpt lat="47.2643" lon="-2.30711">
        <ele>21.200000762939</ele>
        <time>2020-08-15T07:30:56.000Z</time>
      </trkpt>
      <trkpt lat="47.26428" lon="-2.30707">
        <ele>21.60000038147</ele>
        <time>2020-08-15T07:30:57.000Z</time>
      </trkpt>
      <trkpt lat="47.26426" lon="-2.30701">
        <ele>21.60000038147</ele>
        <time>2020-08-15T07:30:58.000Z</time>
      </trkpt>
      <trkpt lat="47.26416" lon="-2.30687">
        <ele>21.60000038147</ele>
        <time>2020-08-15T07:31:01.000Z</time>
      </trkpt>
      <trkpt lat="47.26411" lon="-2.30682">
        <ele>21.60000038147</ele>
        <time>2020-08-15T07:31:02.000Z</time>
      </trkpt>
      <trkpt lat="47.26388" lon="-2.30665">
        <ele>21.60000038147</ele>
        <time>2020-08-15T07:31:07.000Z</time>
      </trkpt>
      <trkpt lat="47.26384" lon="-2.30662">
        <ele>21.60000038147</ele>
        <time>2020-08-15T07:31:08.000Z</time>
      </trkpt>
      <trkpt lat="47.26378" lon="-2.30653">
        <ele>21.60000038147</ele>
        <time>2020-08-15T07:31:10.000Z</time>
      </trkpt>
      <trkpt lat="47.26371" lon="-2.3064">
        <ele>21.60000038147</ele>
        <time>2020-08-15T07:31:13.000Z</time>
      </trkpt>
      <trkpt lat="47.2636" lon="-2.30617">
        <ele>21.60000038147</ele>
        <time>2020-08-15T07:31:17.000Z</time>
      </trkpt>
      <trkpt lat="47.26357" lon="-2.30612">
        <ele>21.60000038147</ele>
        <time>2020-08-15T07:31:18.000Z</time>
      </trkpt>
      <trkpt lat="47.26346" lon="-2.30591">
        <ele>21.60000038147</ele>
        <time>2020-08-15T07:31:22.000Z</time>
      </trkpt>
      <trkpt lat="47.26345" lon="-2.30579">
        <ele>21.60000038147</ele>
        <time>2020-08-15T07:31:24.000Z</time>
      </trkpt>
      <trkpt lat="47.26344" lon="-2.30565">
        <ele>21.60000038147</ele>
        <time>2020-08-15T07:31:27.000Z</time>
      </trkpt>
      <trkpt lat="47.26344" lon="-2.30556">
        <ele>21.60000038147</ele>
        <time>2020-08-15T07:31:29.000Z</time>
      </trkpt>
      <trkpt lat="47.26343" lon="-2.30552">
        <ele>22</ele>
        <time>2020-08-15T07:31:30.000Z</time>
      </trkpt>
      <trkpt lat="47.26343" lon="-2.30547">
        <ele>22.39999961853</ele>
        <time>2020-08-15T07:31:31.000Z</time>
      </trkpt>
      <trkpt lat="47.26342" lon="-2.30542">
        <ele>23.200000762939</ele>
        <time>2020-08-15T07:31:32.000Z</time>
      </trkpt>
      <trkpt lat="47.26341" lon="-2.30537">
        <ele>23.60000038147</ele>
        <time>2020-08-15T07:31:33.000Z</time>
      </trkpt>
      <trkpt lat="47.26338" lon="-2.30526">
        <ele>23.60000038147</ele>
        <time>2020-08-15T07:31:35.000Z</time>
      </trkpt>
      <trkpt lat="47.26332" lon="-2.30493">
        <ele>23.60000038147</ele>
        <time>2020-08-15T07:31:40.000Z</time>
      </trkpt>
      <trkpt lat="47.2633" lon="-2.30479">
        <ele>23.60000038147</ele>
        <time>2020-08-15T07:31:42.000Z</time>
      </trkpt>
      <trkpt lat="47.26325" lon="-2.30458">
        <ele>23.60000038147</ele>
        <time>2020-08-15T07:31:45.000Z</time>
      </trkpt>
      <trkpt lat="47.26325" lon="-2.30451">
        <ele>23.60000038147</ele>
        <time>2020-08-15T07:31:46.000Z</time>
      </trkpt>
      <trkpt lat="47.26321" lon="-2.30431">
        <ele>24</ele>
        <time>2020-08-15T07:31:49.000Z</time>
      </trkpt>
      <trkpt lat="47.26319" lon="-2.30424">
        <ele>24.39999961853</ele>
        <time>2020-08-15T07:31:50.000Z</time>
      </trkpt>
      <trkpt lat="47.26318" lon="-2.30416">
        <ele>25</ele>
        <time>2020-08-15T07:31:51.000Z</time>
      </trkpt>
      <trkpt lat="47.26316" lon="-2.30409">
        <ele>25.39999961853</ele>
        <time>2020-08-15T07:31:52.000Z</time>
      </trkpt>
      <trkpt lat="47.26314" lon="-2.30401">
        <ele>25.799999237061</ele>
        <time>2020-08-15T07:31:53.000Z</time>
      </trkpt>
      <trkpt lat="47.26309" lon="-2.30377">
        <ele>25.799999237061</ele>
        <time>2020-08-15T07:31:56.000Z</time>
      </trkpt>
      <trkpt lat="47.263" lon="-2.30327">
        <ele>25.799999237061</ele>
        <time>2020-08-15T07:32:03.000Z</time>
      </trkpt>
      <trkpt lat="47.26298" lon="-2.3032">
        <ele>25.799999237061</ele>
        <time>2020-08-15T07:32:04.000Z</time>
      </trkpt>
      <trkpt lat="47.26288" lon="-2.30294">
        <ele>25.799999237061</ele>
        <time>2020-08-15T07:32:08.000Z</time>
      </trkpt>
      <trkpt lat="47.26283" lon="-2.30273">
        <ele>25.799999237061</ele>
        <time>2020-08-15T07:32:11.000Z</time>
      </trkpt>
      <trkpt lat="47.26279" lon="-2.30252">
        <ele>25.799999237061</ele>
        <time>2020-08-15T07:32:14.000Z</time>
      </trkpt>
      <trkpt lat="47.2627" lon="-2.30205">
        <ele>25.799999237061</ele>
        <time>2020-08-15T07:32:21.000Z</time>
      </trkpt>
      <trkpt lat="47.26262" lon="-2.30168">
        <ele>25.799999237061</ele>
        <time>2020-08-15T07:32:27.000Z</time>
      </trkpt>
      <trkpt lat="47.2626" lon="-2.30163">
        <ele>25.799999237061</ele>
        <time>2020-08-15T07:32:28.000Z</time>
      </trkpt>
      <trkpt lat="47.26248" lon="-2.30134">
        <ele>25.799999237061</ele>
        <time>2020-08-15T07:32:34.000Z</time>
      </trkpt>
      <trkpt lat="47.26237" lon="-2.30136">
        <ele>25.799999237061</ele>
        <time>2020-08-15T07:32:37.000Z</time>
      </trkpt>
      <trkpt lat="47.26225" lon="-2.30141">
        <ele>25.799999237061</ele>
        <time>2020-08-15T07:32:40.000Z</time>
      </trkpt>
      <trkpt lat="47.26215" lon="-2.30144">
        <ele>25.799999237061</ele>
        <time>2020-08-15T07:32:42.000Z</time>
      </trkpt>
      <trkpt lat="47.26195" lon="-2.30152">
        <ele>25.799999237061</ele>
        <time>2020-08-15T07:32:48.000Z</time>
      </trkpt>
      <trkpt lat="47.26181" lon="-2.30158">
        <ele>25.799999237061</ele>
        <time>2020-08-15T07:32:55.000Z</time>
      </trkpt>
      <trkpt lat="47.26177" lon="-2.30158">
        <ele>25.799999237061</ele>
        <time>2020-08-15T07:32:57.000Z</time>
      </trkpt>
      <trkpt lat="47.26175" lon="-2.30156">
        <ele>25.799999237061</ele>
        <time>2020-08-15T07:33:00.000Z</time>
      </trkpt>
      <trkpt lat="47.26174" lon="-2.30154">
        <ele>25.799999237061</ele>
        <time>2020-08-15T07:33:13.000Z</time>
      </trkpt>
      <trkpt lat="47.26173" lon="-2.3015">
        <ele>25.799999237061</ele>
        <time>2020-08-15T07:33:16.000Z</time>
      </trkpt>
      <trkpt lat="47.26171" lon="-2.30148">
        <ele>25.799999237061</ele>
        <time>2020-08-15T07:33:19.000Z</time>
      </trkpt>
      <trkpt lat="47.26169" lon="-2.30149">
        <ele>25.39999961853</ele>
        <time>2020-08-15T07:33:20.000Z</time>
      </trkpt>
      <trkpt lat="47.26168" lon="-2.30149">
        <ele>25</ele>
        <time>2020-08-15T07:33:21.000Z</time>
      </trkpt>
      <trkpt lat="47.26166" lon="-2.3015">
        <ele>24.60000038147</ele>
        <time>2020-08-15T07:33:22.000Z</time>
      </trkpt>
      <trkpt lat="47.26163" lon="-2.30151">
        <ele>24.200000762939</ele>
        <time>2020-08-15T07:33:23.000Z</time>
      </trkpt>
      <trkpt lat="47.26161" lon="-2.30152">
        <ele>23.799999237061</ele>
        <time>2020-08-15T07:33:24.000Z</time>
      </trkpt>
      <trkpt lat="47.26159" lon="-2.30154">
        <ele>23.799999237061</ele>
        <time>2020-08-15T07:33:25.000Z</time>
      </trkpt>
      <trkpt lat="47.26153" lon="-2.30155">
        <ele>23.799999237061</ele>
        <time>2020-08-15T07:33:27.000Z</time>
      </trkpt>
      <trkpt lat="47.26131" lon="-2.30161">
        <ele>23.799999237061</ele>
        <time>2020-08-15T07:33:32.000Z</time>
      </trkpt>
      <trkpt lat="47.26123" lon="-2.30163">
        <ele>23.39999961853</ele>
        <time>2020-08-15T07:33:34.000Z</time>
      </trkpt>
      <trkpt lat="47.26119" lon="-2.30165">
        <ele>22.799999237061</ele>
        <time>2020-08-15T07:33:35.000Z</time>
      </trkpt>
      <trkpt lat="47.26116" lon="-2.30166">
        <ele>22</ele>
        <time>2020-08-15T07:33:36.000Z</time>
      </trkpt>
      <trkpt lat="47.26112" lon="-2.30167">
        <ele>21.60000038147</ele>
        <time>2020-08-15T07:33:37.000Z</time>
      </trkpt>
      <trkpt lat="47.2611" lon="-2.30168">
        <ele>21.60000038147</ele>
        <time>2020-08-15T07:33:38.000Z</time>
      </trkpt>
      <trkpt lat="47.26105" lon="-2.30164">
        <ele>21.60000038147</ele>
        <time>2020-08-15T07:33:40.000Z</time>
      </trkpt>
      <trkpt lat="47.26103" lon="-2.30159">
        <ele>21.60000038147</ele>
        <time>2020-08-15T07:33:41.000Z</time>
      </trkpt>
      <trkpt lat="47.26095" lon="-2.30151">
        <ele>21.200000762939</ele>
        <time>2020-08-15T07:33:45.000Z</time>
      </trkpt>
      <trkpt lat="47.26093" lon="-2.30151">
        <ele>20.799999237061</ele>
        <time>2020-08-15T07:33:46.000Z</time>
      </trkpt>
      <trkpt lat="47.26089" lon="-2.30152">
        <ele>20.39999961853</ele>
        <time>2020-08-15T07:33:47.000Z</time>
      </trkpt>
      <trkpt lat="47.26086" lon="-2.30154">
        <ele>20</ele>
        <time>2020-08-15T07:33:48.000Z</time>
      </trkpt>
      <trkpt lat="47.26083" lon="-2.30154">
        <ele>19.60000038147</ele>
        <time>2020-08-15T07:33:49.000Z</time>
      </trkpt>
      <trkpt lat="47.26078" lon="-2.30151">
        <ele>19.60000038147</ele>
        <time>2020-08-15T07:33:51.000Z</time>
      </trkpt>
      <trkpt lat="47.26065" lon="-2.30136">
        <ele>19.60000038147</ele>
        <time>2020-08-15T07:33:54.000Z</time>
      </trkpt>
      <trkpt lat="47.26048" lon="-2.3013">
        <ele>19.200000762939</ele>
        <time>2020-08-15T07:33:58.000Z</time>
      </trkpt>
      <trkpt lat="47.26042" lon="-2.30131">
        <ele>18.60000038147</ele>
        <time>2020-08-15T07:33:59.000Z</time>
      </trkpt>
      <trkpt lat="47.26036" lon="-2.30132">
        <ele>17.799999237061</ele>
        <time>2020-08-15T07:34:00.000Z</time>
      </trkpt>
      <trkpt lat="47.26031" lon="-2.3013">
        <ele>17.39999961853</ele>
        <time>2020-08-15T07:34:01.000Z</time>
      </trkpt>
      <trkpt lat="47.26017" lon="-2.30127">
        <ele>17.39999961853</ele>
        <time>2020-08-15T07:34:04.000Z</time>
      </trkpt>
      <trkpt lat="47.25992" lon="-2.30131">
        <ele>17</ele>
        <time>2020-08-15T07:34:09.000Z</time>
      </trkpt>
      <trkpt lat="47.2599" lon="-2.30131">
        <ele>16.60000038147</ele>
        <time>2020-08-15T07:34:10.000Z</time>
      </trkpt>
      <trkpt lat="47.25989" lon="-2.30131">
        <ele>16</ele>
        <time>2020-08-15T07:34:11.000Z</time>
      </trkpt>
      <trkpt lat="47.25987" lon="-2.30132">
        <ele>15.60000038147</ele>
        <time>2020-08-15T07:34:12.000Z</time>
      </trkpt>
      <trkpt lat="47.25985" lon="-2.30133">
        <ele>15.199999809265</ele>
        <time>2020-08-15T07:34:13.000Z</time>
      </trkpt>
      <trkpt lat="47.25981" lon="-2.30131">
        <ele>15.199999809265</ele>
        <time>2020-08-15T07:34:15.000Z</time>
      </trkpt>
      <trkpt lat="47.25977" lon="-2.30124">
        <ele>15.199999809265</ele>
        <time>2020-08-15T07:34:17.000Z</time>
      </trkpt>
      <trkpt lat="47.25975" lon="-2.30098">
        <ele>15.199999809265</ele>
        <time>2020-08-15T07:34:21.000Z</time>
      </trkpt>
      <trkpt lat="47.25975" lon="-2.3009">
        <ele>15.199999809265</ele>
        <time>2020-08-15T07:34:22.000Z</time>
      </trkpt>
      <trkpt lat="47.25975" lon="-2.30037">
        <ele>15.199999809265</ele>
        <time>2020-08-15T07:34:29.000Z</time>
      </trkpt>
      <trkpt lat="47.25978" lon="-2.29978">
        <ele>15.199999809265</ele>
        <time>2020-08-15T07:34:37.000Z</time>
      </trkpt>
      <trkpt lat="47.25987" lon="-2.29941">
        <ele>15.199999809265</ele>
        <time>2020-08-15T07:34:43.000Z</time>
      </trkpt>
      <trkpt lat="47.25994" lon="-2.29929">
        <ele>15.199999809265</ele>
        <time>2020-08-15T07:34:47.000Z</time>
      </trkpt>
      <trkpt lat="47.25994" lon="-2.29927">
        <ele>15.199999809265</ele>
        <time>2020-08-15T07:34:48.000Z</time>
      </trkpt>
      <trkpt lat="47.25992" lon="-2.29923">
        <ele>15.199999809265</ele>
        <time>2020-08-15T07:34:51.000Z</time>
      </trkpt>
      <trkpt lat="47.25991" lon="-2.29922">
        <ele>15.199999809265</ele>
        <time>2020-08-15T07:34:52.000Z</time>
      </trkpt>
      <trkpt lat="47.25985" lon="-2.29915">
        <ele>15.199999809265</ele>
        <time>2020-08-15T07:34:57.000Z</time>
      </trkpt>
      <trkpt lat="47.25981" lon="-2.29904">
        <ele>15.199999809265</ele>
        <time>2020-08-15T07:35:02.000Z</time>
      </trkpt>
      <trkpt lat="47.25981" lon="-2.29903">
        <ele>15.199999809265</ele>
        <time>2020-08-15T07:35:06.000Z</time>
      </trkpt>
      <trkpt lat="47.25966" lon="-2.29866">
        <ele>15.199999809265</ele>
        <time>2020-08-15T07:35:41.000Z</time>
      </trkpt>
      <trkpt lat="47.25965" lon="-2.29862">
        <ele>15.199999809265</ele>
        <time>2020-08-15T07:35:42.000Z</time>
      </trkpt>
      <trkpt lat="47.25962" lon="-2.29835">
        <ele>15.199999809265</ele>
        <time>2020-08-15T07:35:48.000Z</time>
      </trkpt>
      <trkpt lat="47.25956" lon="-2.29817">
        <ele>15.199999809265</ele>
        <time>2020-08-15T07:35:53.000Z</time>
      </trkpt>
      <trkpt lat="47.25955" lon="-2.29814">
        <ele>15.199999809265</ele>
        <time>2020-08-15T07:35:55.000Z</time>
      </trkpt>
      <trkpt lat="47.25954" lon="-2.29808">
        <ele>15.199999809265</ele>
        <time>2020-08-15T07:36:22.000Z</time>
      </trkpt>
      <trkpt lat="47.25952" lon="-2.298">
        <ele>15.199999809265</ele>
        <time>2020-08-15T07:36:24.000Z</time>
      </trkpt>
      <trkpt lat="47.25947" lon="-2.29788">
        <ele>15.199999809265</ele>
        <time>2020-08-15T07:36:29.000Z</time>
      </trkpt>
      <trkpt lat="47.25939" lon="-2.29764">
        <ele>15.199999809265</ele>
        <time>2020-08-15T07:36:35.000Z</time>
      </trkpt>
      <trkpt lat="47.25937" lon="-2.29751">
        <ele>15.60000038147</ele>
        <time>2020-08-15T07:36:38.000Z</time>
      </trkpt>
      <trkpt lat="47.25937" lon="-2.29746">
        <ele>16.200000762939</ele>
        <time>2020-08-15T07:36:39.000Z</time>
      </trkpt>
      <trkpt lat="47.25936" lon="-2.29742">
        <ele>16.60000038147</ele>
        <time>2020-08-15T07:36:40.000Z</time>
      </trkpt>
      <trkpt lat="47.25937" lon="-2.29737">
        <ele>17</ele>
        <time>2020-08-15T07:36:41.000Z</time>
      </trkpt>
      <trkpt lat="47.25937" lon="-2.29732">
        <ele>17.39999961853</ele>
        <time>2020-08-15T07:36:42.000Z</time>
      </trkpt>
      <trkpt lat="47.25937" lon="-2.29707">
        <ele>17.39999961853</ele>
        <time>2020-08-15T07:36:47.000Z</time>
      </trkpt>
      <trkpt lat="47.25939" lon="-2.29671">
        <ele>17.799999237061</ele>
        <time>2020-08-15T07:36:53.000Z</time>
      </trkpt>
      <trkpt lat="47.25939" lon="-2.29665">
        <ele>18.200000762939</ele>
        <time>2020-08-15T07:36:54.000Z</time>
      </trkpt>
      <trkpt lat="47.2594" lon="-2.29659">
        <ele>18.60000038147</ele>
        <time>2020-08-15T07:36:55.000Z</time>
      </trkpt>
      <trkpt lat="47.25942" lon="-2.29654">
        <ele>19</ele>
        <time>2020-08-15T07:36:56.000Z</time>
      </trkpt>
      <trkpt lat="47.25943" lon="-2.29651">
        <ele>19.39999961853</ele>
        <time>2020-08-15T07:36:57.000Z</time>
      </trkpt>
      <trkpt lat="47.25946" lon="-2.29647">
        <ele>19.39999961853</ele>
        <time>2020-08-15T07:36:59.000Z</time>
      </trkpt>
      <trkpt lat="47.25947" lon="-2.29649">
        <ele>19.39999961853</ele>
        <time>2020-08-15T07:37:00.000Z</time>
      </trkpt>
      <trkpt lat="47.25958" lon="-2.29653">
        <ele>19.39999961853</ele>
        <time>2020-08-15T07:37:03.000Z</time>
      </trkpt>
      <trkpt lat="47.25962" lon="-2.29655">
        <ele>19.39999961853</ele>
        <time>2020-08-15T07:37:04.000Z</time>
      </trkpt>
      <trkpt lat="47.25975" lon="-2.29648">
        <ele>19.39999961853</ele>
        <time>2020-08-15T07:37:07.000Z</time>
      </trkpt>
      <trkpt lat="47.25981" lon="-2.29644">
        <ele>19.39999961853</ele>
        <time>2020-08-15T07:37:08.000Z</time>
      </trkpt>
      <trkpt lat="47.26006" lon="-2.29634">
        <ele>19.39999961853</ele>
        <time>2020-08-15T07:37:13.000Z</time>
      </trkpt>
      <trkpt lat="47.26011" lon="-2.29631">
        <ele>19.39999961853</ele>
        <time>2020-08-15T07:37:14.000Z</time>
      </trkpt>
      <trkpt lat="47.26046" lon="-2.2962">
        <ele>19.39999961853</ele>
        <time>2020-08-15T07:37:22.000Z</time>
      </trkpt>
      <trkpt lat="47.26061" lon="-2.29619">
        <ele>19.39999961853</ele>
        <time>2020-08-15T07:37:27.000Z</time>
      </trkpt>
      <trkpt lat="47.26066" lon="-2.29617">
        <ele>19.799999237061</ele>
        <time>2020-08-15T07:37:30.000Z</time>
      </trkpt>
      <trkpt lat="47.26068" lon="-2.29617">
        <ele>20.200000762939</ele>
        <time>2020-08-15T07:37:31.000Z</time>
      </trkpt>
      <trkpt lat="47.26071" lon="-2.29616">
        <ele>20.799999237061</ele>
        <time>2020-08-15T07:37:32.000Z</time>
      </trkpt>
      <trkpt lat="47.26074" lon="-2.29614">
        <ele>21.200000762939</ele>
        <time>2020-08-15T07:37:33.000Z</time>
      </trkpt>
      <trkpt lat="47.26076" lon="-2.29613">
        <ele>21.60000038147</ele>
        <time>2020-08-15T07:37:34.000Z</time>
      </trkpt>
      <trkpt lat="47.26091" lon="-2.29612">
        <ele>21.60000038147</ele>
        <time>2020-08-15T07:37:39.000Z</time>
      </trkpt>
      <trkpt lat="47.26094" lon="-2.29612">
        <ele>22</ele>
        <time>2020-08-15T07:37:40.000Z</time>
      </trkpt>
      <trkpt lat="47.26097" lon="-2.29611">
        <ele>22.39999961853</ele>
        <time>2020-08-15T07:37:41.000Z</time>
      </trkpt>
      <trkpt lat="47.26099" lon="-2.29609">
        <ele>22.799999237061</ele>
        <time>2020-08-15T07:37:42.000Z</time>
      </trkpt>
      <trkpt lat="47.26101" lon="-2.29609">
        <ele>23.60000038147</ele>
        <time>2020-08-15T07:37:43.000Z</time>
      </trkpt>
      <trkpt lat="47.26105" lon="-2.29607">
        <ele>23.60000038147</ele>
        <time>2020-08-15T07:37:45.000Z</time>
      </trkpt>
      <trkpt lat="47.26112" lon="-2.29604">
        <ele>24</ele>
        <time>2020-08-15T07:37:49.000Z</time>
      </trkpt>
      <trkpt lat="47.26114" lon="-2.29603">
        <ele>24.39999961853</ele>
        <time>2020-08-15T07:37:50.000Z</time>
      </trkpt>
      <trkpt lat="47.26116" lon="-2.29601">
        <ele>24.799999237061</ele>
        <time>2020-08-15T07:37:51.000Z</time>
      </trkpt>
      <trkpt lat="47.26118" lon="-2.296">
        <ele>25.200000762939</ele>
        <time>2020-08-15T07:37:52.000Z</time>
      </trkpt>
      <trkpt lat="47.26119" lon="-2.29599">
        <ele>25.60000038147</ele>
        <time>2020-08-15T07:37:53.000Z</time>
      </trkpt>
      <trkpt lat="47.26132" lon="-2.29593">
        <ele>25.60000038147</ele>
        <time>2020-08-15T07:38:00.000Z</time>
      </trkpt>
      <trkpt lat="47.26146" lon="-2.29589">
        <ele>26</ele>
        <time>2020-08-15T07:38:07.000Z</time>
      </trkpt>
      <trkpt lat="47.26148" lon="-2.29589">
        <ele>26.39999961853</ele>
        <time>2020-08-15T07:38:08.000Z</time>
      </trkpt>
      <trkpt lat="47.2615" lon="-2.29588">
        <ele>26.799999237061</ele>
        <time>2020-08-15T07:38:09.000Z</time>
      </trkpt>
      <trkpt lat="47.26152" lon="-2.29588">
        <ele>27.200000762939</ele>
        <time>2020-08-15T07:38:10.000Z</time>
      </trkpt>
      <trkpt lat="47.26155" lon="-2.29587">
        <ele>27.60000038147</ele>
        <time>2020-08-15T07:38:11.000Z</time>
      </trkpt>
      <trkpt lat="47.26164" lon="-2.29582">
        <ele>27.60000038147</ele>
        <time>2020-08-15T07:38:16.000Z</time>
      </trkpt>
      <trkpt lat="47.26176" lon="-2.29577">
        <ele>28</ele>
        <time>2020-08-15T07:38:22.000Z</time>
      </trkpt>
      <trkpt lat="47.26177" lon="-2.29577">
        <ele>28.39999961853</ele>
        <time>2020-08-15T07:38:23.000Z</time>
      </trkpt>
      <trkpt lat="47.26179" lon="-2.29577">
        <ele>29</ele>
        <time>2020-08-15T07:38:24.000Z</time>
      </trkpt>
      <trkpt lat="47.26182" lon="-2.29576">
        <ele>29.39999961853</ele>
        <time>2020-08-15T07:38:25.000Z</time>
      </trkpt>
      <trkpt lat="47.26183" lon="-2.29576">
        <ele>29.799999237061</ele>
        <time>2020-08-15T07:38:26.000Z</time>
      </trkpt>
      <trkpt lat="47.2619" lon="-2.29573">
        <ele>29.799999237061</ele>
        <time>2020-08-15T07:38:31.000Z</time>
      </trkpt>
      <trkpt lat="47.26191" lon="-2.29567">
        <ele>29.799999237061</ele>
        <time>2020-08-15T07:38:34.000Z</time>
      </trkpt>
      <trkpt lat="47.2619" lon="-2.29562">
        <ele>29.799999237061</ele>
        <time>2020-08-15T07:38:36.000Z</time>
      </trkpt>
      <trkpt lat="47.26184" lon="-2.29545">
        <ele>29.799999237061</ele>
        <time>2020-08-15T07:38:42.000Z</time>
      </trkpt>
      <trkpt lat="47.2617" lon="-2.29532">
        <ele>29.799999237061</ele>
        <time>2020-08-15T07:38:47.000Z</time>
      </trkpt>
      <trkpt lat="47.26154" lon="-2.29521">
        <ele>29.799999237061</ele>
        <time>2020-08-15T07:38:51.000Z</time>
      </trkpt>
      <trkpt lat="47.26151" lon="-2.29517">
        <ele>29.799999237061</ele>
        <time>2020-08-15T07:38:52.000Z</time>
      </trkpt>
      <trkpt lat="47.26142" lon="-2.29502">
        <ele>29.799999237061</ele>
        <time>2020-08-15T07:38:55.000Z</time>
      </trkpt>
      <trkpt lat="47.26139" lon="-2.29496">
        <ele>29.799999237061</ele>
        <time>2020-08-15T07:38:56.000Z</time>
      </trkpt>
      <trkpt lat="47.26136" lon="-2.2949">
        <ele>29.799999237061</ele>
        <time>2020-08-15T07:38:57.000Z</time>
      </trkpt>
      <trkpt lat="47.26124" lon="-2.29453">
        <ele>29.799999237061</ele>
        <time>2020-08-15T07:39:03.000Z</time>
      </trkpt>
      <trkpt lat="47.26123" lon="-2.29446">
        <ele>29.799999237061</ele>
        <time>2020-08-15T07:39:04.000Z</time>
      </trkpt>
      <trkpt lat="47.26124" lon="-2.29425">
        <ele>29.799999237061</ele>
        <time>2020-08-15T07:39:07.000Z</time>
      </trkpt>
      <trkpt lat="47.26126" lon="-2.2941">
        <ele>29.799999237061</ele>
        <time>2020-08-15T07:39:09.000Z</time>
      </trkpt>
      <trkpt lat="47.26134" lon="-2.29365">
        <ele>29.799999237061</ele>
        <time>2020-08-15T07:39:16.000Z</time>
      </trkpt>
      <trkpt lat="47.2614" lon="-2.29346">
        <ele>29.799999237061</ele>
        <time>2020-08-15T07:39:21.000Z</time>
      </trkpt>
      <trkpt lat="47.26147" lon="-2.29351">
        <ele>29.799999237061</ele>
        <time>2020-08-15T07:39:25.000Z</time>
      </trkpt>
      <trkpt lat="47.26162" lon="-2.29359">
        <ele>29.799999237061</ele>
        <time>2020-08-15T07:39:30.000Z</time>
      </trkpt>
      <trkpt lat="47.26175" lon="-2.2936">
        <ele>29.799999237061</ele>
        <time>2020-08-15T07:39:33.000Z</time>
      </trkpt>
      <trkpt lat="47.26182" lon="-2.2936">
        <ele>29.799999237061</ele>
        <time>2020-08-15T07:39:35.000Z</time>
      </trkpt>
      <trkpt lat="47.262" lon="-2.29352">
        <ele>29.799999237061</ele>
        <time>2020-08-15T07:39:40.000Z</time>
      </trkpt>
      <trkpt lat="47.26206" lon="-2.29347">
        <ele>30.200000762939</ele>
        <time>2020-08-15T07:39:42.000Z</time>
      </trkpt>
      <trkpt lat="47.26209" lon="-2.29345">
        <ele>30.60000038147</ele>
        <time>2020-08-15T07:39:43.000Z</time>
      </trkpt>
      <trkpt lat="47.26212" lon="-2.29343">
        <ele>31</ele>
        <time>2020-08-15T07:39:44.000Z</time>
      </trkpt>
      <trkpt lat="47.26215" lon="-2.2934">
        <ele>32</ele>
        <time>2020-08-15T07:39:45.000Z</time>
      </trkpt>
      <trkpt lat="47.26219" lon="-2.29336">
        <ele>32</ele>
        <time>2020-08-15T07:39:47.000Z</time>
      </trkpt>
      <trkpt lat="47.26234" lon="-2.29319">
        <ele>32</ele>
        <time>2020-08-15T07:39:54.000Z</time>
      </trkpt>
      <trkpt lat="47.26253" lon="-2.29304">
        <ele>32</ele>
        <time>2020-08-15T07:40:02.000Z</time>
      </trkpt>
      <trkpt lat="47.26273" lon="-2.29291">
        <ele>32</ele>
        <time>2020-08-15T07:40:09.000Z</time>
      </trkpt>
      <trkpt lat="47.26276" lon="-2.29289">
        <ele>32.799999237061</ele>
        <time>2020-08-15T07:40:10.000Z</time>
      </trkpt>
      <trkpt lat="47.26279" lon="-2.29287">
        <ele>33.200000762939</ele>
        <time>2020-08-15T07:40:11.000Z</time>
      </trkpt>
      <trkpt lat="47.26282" lon="-2.29286">
        <ele>33.599998474121</ele>
        <time>2020-08-15T07:40:12.000Z</time>
      </trkpt>
      <trkpt lat="47.26285" lon="-2.29284">
        <ele>34</ele>
        <time>2020-08-15T07:40:13.000Z</time>
      </trkpt>
      <trkpt lat="47.26302" lon="-2.29279">
        <ele>34</ele>
        <time>2020-08-15T07:40:18.000Z</time>
      </trkpt>
      <trkpt lat="47.26336" lon="-2.29276">
        <ele>34</ele>
        <time>2020-08-15T07:40:27.000Z</time>
      </trkpt>
      <trkpt lat="47.26364" lon="-2.29282">
        <ele>35</ele>
        <time>2020-08-15T07:40:34.000Z</time>
      </trkpt>
      <trkpt lat="47.26368" lon="-2.29284">
        <ele>35.400001525879</ele>
        <time>2020-08-15T07:40:35.000Z</time>
      </trkpt>
      <trkpt lat="47.26372" lon="-2.29285">
        <ele>35.799999237061</ele>
        <time>2020-08-15T07:40:36.000Z</time>
      </trkpt>
      <trkpt lat="47.26376" lon="-2.29287">
        <ele>36.200000762939</ele>
        <time>2020-08-15T07:40:37.000Z</time>
      </trkpt>
      <trkpt lat="47.26391" lon="-2.29296">
        <ele>36.200000762939</ele>
        <time>2020-08-15T07:40:41.000Z</time>
      </trkpt>
      <trkpt lat="47.26394" lon="-2.29298">
        <ele>36.200000762939</ele>
        <time>2020-08-15T07:40:42.000Z</time>
      </trkpt>
      <trkpt lat="47.26421" lon="-2.29312">
        <ele>36.200000762939</ele>
        <time>2020-08-15T07:40:49.000Z</time>
      </trkpt>
      <trkpt lat="47.26458" lon="-2.29333">
        <ele>36.200000762939</ele>
        <time>2020-08-15T07:40:59.000Z</time>
      </trkpt>
      <trkpt lat="47.26485" lon="-2.29339">
        <ele>36.200000762939</ele>
        <time>2020-08-15T07:41:06.000Z</time>
      </trkpt>
      <trkpt lat="47.26509" lon="-2.29335">
        <ele>36.200000762939</ele>
        <time>2020-08-15T07:41:12.000Z</time>
      </trkpt>
      <trkpt lat="47.26518" lon="-2.29332">
        <ele>36.200000762939</ele>
        <time>2020-08-15T07:41:14.000Z</time>
      </trkpt>
      <trkpt lat="47.26536" lon="-2.29322">
        <ele>36.200000762939</ele>
        <time>2020-08-15T07:41:18.000Z</time>
      </trkpt>
      <trkpt lat="47.26579" lon="-2.29297">
        <ele>36.200000762939</ele>
        <time>2020-08-15T07:41:27.000Z</time>
      </trkpt>
      <trkpt lat="47.26633" lon="-2.29261">
        <ele>36.200000762939</ele>
        <time>2020-08-15T07:41:37.000Z</time>
      </trkpt>
      <trkpt lat="47.26677" lon="-2.2922">
        <ele>36.200000762939</ele>
        <time>2020-08-15T07:41:45.000Z</time>
      </trkpt>
      <trkpt lat="47.26682" lon="-2.29214">
        <ele>35.799999237061</ele>
        <time>2020-08-15T07:41:46.000Z</time>
      </trkpt>
      <trkpt lat="47.26687" lon="-2.29209">
        <ele>35.400001525879</ele>
        <time>2020-08-15T07:41:47.000Z</time>
      </trkpt>
      <trkpt lat="47.26693" lon="-2.29203">
        <ele>34.599998474121</ele>
        <time>2020-08-15T07:41:48.000Z</time>
      </trkpt>
      <trkpt lat="47.26698" lon="-2.29198">
        <ele>34.200000762939</ele>
        <time>2020-08-15T07:41:49.000Z</time>
      </trkpt>
      <trkpt lat="47.2672" lon="-2.29175">
        <ele>34.200000762939</ele>
        <time>2020-08-15T07:41:53.000Z</time>
      </trkpt>
      <trkpt lat="47.26738" lon="-2.29157">
        <ele>33.799999237061</ele>
        <time>2020-08-15T07:41:56.000Z</time>
      </trkpt>
      <trkpt lat="47.26745" lon="-2.29151">
        <ele>33.400001525879</ele>
        <time>2020-08-15T07:41:57.000Z</time>
      </trkpt>
      <trkpt lat="47.26751" lon="-2.29144">
        <ele>33</ele>
        <time>2020-08-15T07:41:58.000Z</time>
      </trkpt>
      <trkpt lat="47.26758" lon="-2.29138">
        <ele>32.599998474121</ele>
        <time>2020-08-15T07:41:59.000Z</time>
      </trkpt>
      <trkpt lat="47.26764" lon="-2.29132">
        <ele>32.200000762939</ele>
        <time>2020-08-15T07:42:00.000Z</time>
      </trkpt>
      <trkpt lat="47.26801" lon="-2.29094">
        <ele>32.200000762939</ele>
        <time>2020-08-15T07:42:06.000Z</time>
      </trkpt>
      <trkpt lat="47.26807" lon="-2.29088">
        <ele>31.60000038147</ele>
        <time>2020-08-15T07:42:07.000Z</time>
      </trkpt>
      <trkpt lat="47.26813" lon="-2.29082">
        <ele>31.200000762939</ele>
        <time>2020-08-15T07:42:08.000Z</time>
      </trkpt>
      <trkpt lat="47.26819" lon="-2.29076">
        <ele>30.799999237061</ele>
        <time>2020-08-15T07:42:09.000Z</time>
      </trkpt>
      <trkpt lat="47.26825" lon="-2.29071">
        <ele>30.39999961853</ele>
        <time>2020-08-15T07:42:10.000Z</time>
      </trkpt>
      <trkpt lat="47.26831" lon="-2.29065">
        <ele>29.799999237061</ele>
        <time>2020-08-15T07:42:11.000Z</time>
      </trkpt>
      <trkpt lat="47.26837" lon="-2.29058">
        <ele>29.799999237061</ele>
        <time>2020-08-15T07:42:12.000Z</time>
      </trkpt>
      <trkpt lat="47.26864" lon="-2.29029">
        <ele>29.799999237061</ele>
        <time>2020-08-15T07:42:17.000Z</time>
      </trkpt>
      <trkpt lat="47.2687" lon="-2.29024">
        <ele>29.39999961853</ele>
        <time>2020-08-15T07:42:18.000Z</time>
      </trkpt>
      <trkpt lat="47.26876" lon="-2.29018">
        <ele>29</ele>
        <time>2020-08-15T07:42:19.000Z</time>
      </trkpt>
      <trkpt lat="47.26882" lon="-2.29013">
        <ele>28.60000038147</ele>
        <time>2020-08-15T07:42:20.000Z</time>
      </trkpt>
      <trkpt lat="47.26888" lon="-2.29009">
        <ele>28.200000762939</ele>
        <time>2020-08-15T07:42:21.000Z</time>
      </trkpt>
      <trkpt lat="47.26893" lon="-2.29006">
        <ele>27.60000038147</ele>
        <time>2020-08-15T07:42:22.000Z</time>
      </trkpt>
      <trkpt lat="47.26918" lon="-2.28997">
        <ele>27.60000038147</ele>
        <time>2020-08-15T07:42:27.000Z</time>
      </trkpt>
      <trkpt lat="47.26928" lon="-2.2899">
        <ele>27.60000038147</ele>
        <time>2020-08-15T07:42:30.000Z</time>
      </trkpt>
      <trkpt lat="47.26929" lon="-2.28987">
        <ele>27.60000038147</ele>
        <time>2020-08-15T07:42:31.000Z</time>
      </trkpt>
      <trkpt lat="47.26929" lon="-2.28985">
        <ele>27.200000762939</ele>
        <time>2020-08-15T07:42:32.000Z</time>
      </trkpt>
      <trkpt lat="47.26929" lon="-2.28983">
        <ele>26.799999237061</ele>
        <time>2020-08-15T07:42:33.000Z</time>
      </trkpt>
      <trkpt lat="47.26929" lon="-2.28983">
        <ele>26.39999961853</ele>
        <time>2020-08-15T07:42:34.000Z</time>
      </trkpt>
      <trkpt lat="47.26923" lon="-2.2898">
        <ele>28.200000762939</ele>
        <time>2020-08-15T07:59:58.000Z</time>
      </trkpt>
      <trkpt lat="47.26909" lon="-2.28973">
        <ele>28.200000762939</ele>
        <time>2020-08-15T08:00:05.000Z</time>
      </trkpt>
      <trkpt lat="47.26887" lon="-2.28965">
        <ele>28.200000762939</ele>
        <time>2020-08-15T08:00:13.000Z</time>
      </trkpt>
      <trkpt lat="47.26873" lon="-2.28957">
        <ele>28.200000762939</ele>
        <time>2020-08-15T08:00:19.000Z</time>
      </trkpt>
      <trkpt lat="47.26868" lon="-2.28954">
        <ele>28.60000038147</ele>
        <time>2020-08-15T08:00:21.000Z</time>
      </trkpt>
      <trkpt lat="47.26866" lon="-2.28953">
        <ele>29</ele>
        <time>2020-08-15T08:00:22.000Z</time>
      </trkpt>
      <trkpt lat="47.26863" lon="-2.28951">
        <ele>29.39999961853</ele>
        <time>2020-08-15T08:00:23.000Z</time>
      </trkpt>
      <trkpt lat="47.26861" lon="-2.28949">
        <ele>29.799999237061</ele>
        <time>2020-08-15T08:00:24.000Z</time>
      </trkpt>
      <trkpt lat="47.26858" lon="-2.28947">
        <ele>30.200000762939</ele>
        <time>2020-08-15T08:00:25.000Z</time>
      </trkpt>
      <trkpt lat="47.26837" lon="-2.28934">
        <ele>30.200000762939</ele>
        <time>2020-08-15T08:00:32.000Z</time>
      </trkpt>
      <trkpt lat="47.26815" lon="-2.28922">
        <ele>30.200000762939</ele>
        <time>2020-08-15T08:00:39.000Z</time>
      </trkpt>
      <trkpt lat="47.26787" lon="-2.28908">
        <ele>30.200000762939</ele>
        <time>2020-08-15T08:00:46.000Z</time>
      </trkpt>
      <trkpt lat="47.26782" lon="-2.28905">
        <ele>30.200000762939</ele>
        <time>2020-08-15T08:00:47.000Z</time>
      </trkpt>
      <trkpt lat="47.26768" lon="-2.28894">
        <ele>30.60000038147</ele>
        <time>2020-08-15T08:00:50.000Z</time>
      </trkpt>
      <trkpt lat="47.26764" lon="-2.2889">
        <ele>31</ele>
        <time>2020-08-15T08:00:51.000Z</time>
      </trkpt>
      <trkpt lat="47.2676" lon="-2.28887">
        <ele>31.39999961853</ele>
        <time>2020-08-15T08:00:52.000Z</time>
      </trkpt>
      <trkpt lat="47.26755" lon="-2.28883">
        <ele>31.799999237061</ele>
        <time>2020-08-15T08:00:53.000Z</time>
      </trkpt>
      <trkpt lat="47.26751" lon="-2.2888">
        <ele>32.200000762939</ele>
        <time>2020-08-15T08:00:54.000Z</time>
      </trkpt>
      <trkpt lat="47.26733" lon="-2.28863">
        <ele>32.200000762939</ele>
        <time>2020-08-15T08:00:58.000Z</time>
      </trkpt>
      <trkpt lat="47.26708" lon="-2.28844">
        <ele>32.200000762939</ele>
        <time>2020-08-15T08:01:04.000Z</time>
      </trkpt>
      <trkpt lat="47.26688" lon="-2.28823">
        <ele>32.200000762939</ele>
        <time>2020-08-15T08:01:09.000Z</time>
      </trkpt>
      <trkpt lat="47.26683" lon="-2.2882">
        <ele>32.200000762939</ele>
        <time>2020-08-15T08:01:10.000Z</time>
      </trkpt>
      <trkpt lat="47.26657" lon="-2.28792">
        <ele>32.599998474121</ele>
        <time>2020-08-15T08:01:16.000Z</time>
      </trkpt>
      <trkpt lat="47.26652" lon="-2.28787">
        <ele>33</ele>
        <time>2020-08-15T08:01:17.000Z</time>
      </trkpt>
      <trkpt lat="47.26648" lon="-2.28783">
        <ele>33.400001525879</ele>
        <time>2020-08-15T08:01:18.000Z</time>
      </trkpt>
      <trkpt lat="47.26644" lon="-2.28778">
        <ele>33.799999237061</ele>
        <time>2020-08-15T08:01:19.000Z</time>
      </trkpt>
      <trkpt lat="47.2664" lon="-2.28774">
        <ele>34.200000762939</ele>
        <time>2020-08-15T08:01:20.000Z</time>
      </trkpt>
      <trkpt lat="47.26627" lon="-2.28762">
        <ele>34.200000762939</ele>
        <time>2020-08-15T08:01:23.000Z</time>
      </trkpt>
      <trkpt lat="47.26605" lon="-2.28739">
        <ele>34.200000762939</ele>
        <time>2020-08-15T08:01:29.000Z</time>
      </trkpt>
      <trkpt lat="47.26598" lon="-2.28729">
        <ele>34.200000762939</ele>
        <time>2020-08-15T08:01:31.000Z</time>
      </trkpt>
      <trkpt lat="47.26587" lon="-2.28714">
        <ele>34.200000762939</ele>
        <time>2020-08-15T08:01:34.000Z</time>
      </trkpt>
      <trkpt lat="47.26564" lon="-2.28688">
        <ele>34.599998474121</ele>
        <time>2020-08-15T08:01:39.000Z</time>
      </trkpt>
      <trkpt lat="47.26559" lon="-2.28683">
        <ele>35.200000762939</ele>
        <time>2020-08-15T08:01:40.000Z</time>
      </trkpt>
      <trkpt lat="47.26553" lon="-2.28679">
        <ele>35.599998474121</ele>
        <time>2020-08-15T08:01:41.000Z</time>
      </trkpt>
      <trkpt lat="47.26549" lon="-2.28675">
        <ele>36</ele>
        <time>2020-08-15T08:01:42.000Z</time>
      </trkpt>
      <trkpt lat="47.26544" lon="-2.2867">
        <ele>36.400001525879</ele>
        <time>2020-08-15T08:01:43.000Z</time>
      </trkpt>
      <trkpt lat="47.2654" lon="-2.28664">
        <ele>36.400001525879</ele>
        <time>2020-08-15T08:01:44.000Z</time>
      </trkpt>
      <trkpt lat="47.26537" lon="-2.28659">
        <ele>36.400001525879</ele>
        <time>2020-08-15T08:01:45.000Z</time>
      </trkpt>
      <trkpt lat="47.26521" lon="-2.28635">
        <ele>36.400001525879</ele>
        <time>2020-08-15T08:01:49.000Z</time>
      </trkpt>
      <trkpt lat="47.26517" lon="-2.28629">
        <ele>36.799999237061</ele>
        <time>2020-08-15T08:01:50.000Z</time>
      </trkpt>
      <trkpt lat="47.26513" lon="-2.28624">
        <ele>37.200000762939</ele>
        <time>2020-08-15T08:01:51.000Z</time>
      </trkpt>
      <trkpt lat="47.26509" lon="-2.2862">
        <ele>37.599998474121</ele>
        <time>2020-08-15T08:01:52.000Z</time>
      </trkpt>
      <trkpt lat="47.26505" lon="-2.28616">
        <ele>38</ele>
        <time>2020-08-15T08:01:53.000Z</time>
      </trkpt>
      <trkpt lat="47.26503" lon="-2.2861">
        <ele>38.400001525879</ele>
        <time>2020-08-15T08:01:54.000Z</time>
      </trkpt>
      <trkpt lat="47.26502" lon="-2.28603">
        <ele>38.400001525879</ele>
        <time>2020-08-15T08:01:55.000Z</time>
      </trkpt>
      <trkpt lat="47.26502" lon="-2.2858">
        <ele>38.400001525879</ele>
        <time>2020-08-15T08:01:58.000Z</time>
      </trkpt>
      <trkpt lat="47.265" lon="-2.28574">
        <ele>38.400001525879</ele>
        <time>2020-08-15T08:01:59.000Z</time>
      </trkpt>
      <trkpt lat="47.26486" lon="-2.2854">
        <ele>38.400001525879</ele>
        <time>2020-08-15T08:02:04.000Z</time>
      </trkpt>
      <trkpt lat="47.2648" lon="-2.28527">
        <ele>38.400001525879</ele>
        <time>2020-08-15T08:02:06.000Z</time>
      </trkpt>
      <trkpt lat="47.2647" lon="-2.28508">
        <ele>38.799999237061</ele>
        <time>2020-08-15T08:02:09.000Z</time>
      </trkpt>
      <trkpt lat="47.26466" lon="-2.28502">
        <ele>39.200000762939</ele>
        <time>2020-08-15T08:02:10.000Z</time>
      </trkpt>
      <trkpt lat="47.26463" lon="-2.28496">
        <ele>39.599998474121</ele>
        <time>2020-08-15T08:02:11.000Z</time>
      </trkpt>
      <trkpt lat="47.26459" lon="-2.28489">
        <ele>40</ele>
        <time>2020-08-15T08:02:12.000Z</time>
      </trkpt>
      <trkpt lat="47.26456" lon="-2.28483">
        <ele>40.400001525879</ele>
        <time>2020-08-15T08:02:13.000Z</time>
      </trkpt>
      <trkpt lat="47.26447" lon="-2.28464">
        <ele>40.400001525879</ele>
        <time>2020-08-15T08:02:16.000Z</time>
      </trkpt>
      <trkpt lat="47.26425" lon="-2.28419">
        <ele>40.400001525879</ele>
        <time>2020-08-15T08:02:23.000Z</time>
      </trkpt>
      <trkpt lat="47.26414" lon="-2.28398">
        <ele>40.799999237061</ele>
        <time>2020-08-15T08:02:26.000Z</time>
      </trkpt>
      <trkpt lat="47.26411" lon="-2.28392">
        <ele>41.200000762939</ele>
        <time>2020-08-15T08:02:27.000Z</time>
      </trkpt>
      <trkpt lat="47.26407" lon="-2.28385">
        <ele>41.799999237061</ele>
        <time>2020-08-15T08:02:28.000Z</time>
      </trkpt>
      <trkpt lat="47.26405" lon="-2.28377">
        <ele>42.200000762939</ele>
        <time>2020-08-15T08:02:29.000Z</time>
      </trkpt>
      <trkpt lat="47.26402" lon="-2.2837">
        <ele>42.599998474121</ele>
        <time>2020-08-15T08:02:30.000Z</time>
      </trkpt>
      <trkpt lat="47.26398" lon="-2.28363">
        <ele>42.599998474121</ele>
        <time>2020-08-15T08:02:31.000Z</time>
      </trkpt>
      <trkpt lat="47.26377" lon="-2.28314">
        <ele>42.599998474121</ele>
        <time>2020-08-15T08:02:38.000Z</time>
      </trkpt>
      <trkpt lat="47.26361" lon="-2.28261">
        <ele>42.599998474121</ele>
        <time>2020-08-15T08:02:45.000Z</time>
      </trkpt>
      <trkpt lat="47.26349" lon="-2.28212">
        <ele>42.599998474121</ele>
        <time>2020-08-15T08:02:51.000Z</time>
      </trkpt>
      <trkpt lat="47.26335" lon="-2.28143">
        <ele>42.599998474121</ele>
        <time>2020-08-15T08:02:59.000Z</time>
      </trkpt>
      <trkpt lat="47.26326" lon="-2.28082">
        <ele>42.599998474121</ele>
        <time>2020-08-15T08:03:06.000Z</time>
      </trkpt>
      <trkpt lat="47.26317" lon="-2.28048">
        <ele>42.599998474121</ele>
        <time>2020-08-15T08:03:10.000Z</time>
      </trkpt>
      <trkpt lat="47.26311" lon="-2.28032">
        <ele>42.599998474121</ele>
        <time>2020-08-15T08:03:12.000Z</time>
      </trkpt>
      <trkpt lat="47.26306" lon="-2.28017">
        <ele>42.200000762939</ele>
        <time>2020-08-15T08:03:14.000Z</time>
      </trkpt>
      <trkpt lat="47.26303" lon="-2.28009">
        <ele>41.599998474121</ele>
        <time>2020-08-15T08:03:15.000Z</time>
      </trkpt>
      <trkpt lat="47.26301" lon="-2.28002">
        <ele>41.200000762939</ele>
        <time>2020-08-15T08:03:16.000Z</time>
      </trkpt>
      <trkpt lat="47.26298" lon="-2.27995">
        <ele>40.799999237061</ele>
        <time>2020-08-15T08:03:17.000Z</time>
      </trkpt>
      <trkpt lat="47.26296" lon="-2.27989">
        <ele>40.400001525879</ele>
        <time>2020-08-15T08:03:18.000Z</time>
      </trkpt>
      <trkpt lat="47.26294" lon="-2.27983">
        <ele>40.400001525879</ele>
        <time>2020-08-15T08:03:19.000Z</time>
      </trkpt>
      <trkpt lat="47.26291" lon="-2.27975">
        <ele>40.400001525879</ele>
        <time>2020-08-15T08:03:23.000Z</time>
      </trkpt>
      <trkpt lat="47.26289" lon="-2.27973">
        <ele>40.400001525879</ele>
        <time>2020-08-15T08:03:51.000Z</time>
      </trkpt>
      <trkpt lat="47.26284" lon="-2.2797">
        <ele>40.400001525879</ele>
        <time>2020-08-15T08:03:54.000Z</time>
      </trkpt>
      <trkpt lat="47.26275" lon="-2.27954">
        <ele>40.400001525879</ele>
        <time>2020-08-15T08:03:58.000Z</time>
      </trkpt>
      <trkpt lat="47.26256" lon="-2.27919">
        <ele>40.400001525879</ele>
        <time>2020-08-15T08:04:05.000Z</time>
      </trkpt>
      <trkpt lat="47.26233" lon="-2.27874">
        <ele>40.400001525879</ele>
        <time>2020-08-15T08:04:13.000Z</time>
      </trkpt>
      <trkpt lat="47.26209" lon="-2.27827">
        <ele>40.400001525879</ele>
        <time>2020-08-15T08:04:21.000Z</time>
      </trkpt>
      <trkpt lat="47.26185" lon="-2.27771">
        <ele>40.400001525879</ele>
        <time>2020-08-15T08:04:30.000Z</time>
      </trkpt>
      <trkpt lat="47.26167" lon="-2.27716">
        <ele>40.400001525879</ele>
        <time>2020-08-15T08:04:38.000Z</time>
      </trkpt>
      <trkpt lat="47.26151" lon="-2.27664">
        <ele>40.400001525879</ele>
        <time>2020-08-15T08:04:45.000Z</time>
      </trkpt>
      <trkpt lat="47.26144" lon="-2.27624">
        <ele>40.400001525879</ele>
        <time>2020-08-15T08:04:50.000Z</time>
      </trkpt>
      <trkpt lat="47.26143" lon="-2.27616">
        <ele>40.400001525879</ele>
        <time>2020-08-15T08:04:51.000Z</time>
      </trkpt>
      <trkpt lat="47.26139" lon="-2.27595">
        <ele>40.400001525879</ele>
        <time>2020-08-15T08:04:54.000Z</time>
      </trkpt>
      <trkpt lat="47.26132" lon="-2.27587">
        <ele>40.400001525879</ele>
        <time>2020-08-15T08:04:56.000Z</time>
      </trkpt>
      <trkpt lat="47.26118" lon="-2.27589">
        <ele>40.400001525879</ele>
        <time>2020-08-15T08:04:59.000Z</time>
      </trkpt>
      <trkpt lat="47.26109" lon="-2.27594">
        <ele>40.400001525879</ele>
        <time>2020-08-15T08:05:01.000Z</time>
      </trkpt>
      <trkpt lat="47.26089" lon="-2.27606">
        <ele>40.400001525879</ele>
        <time>2020-08-15T08:05:05.000Z</time>
      </trkpt>
      <trkpt lat="47.26066" lon="-2.27617">
        <ele>40.400001525879</ele>
        <time>2020-08-15T08:05:10.000Z</time>
      </trkpt>
      <trkpt lat="47.26062" lon="-2.2762">
        <ele>40.400001525879</ele>
        <time>2020-08-15T08:05:11.000Z</time>
      </trkpt>
      <trkpt lat="47.26057" lon="-2.27622">
        <ele>40.799999237061</ele>
        <time>2020-08-15T08:05:12.000Z</time>
      </trkpt>
      <trkpt lat="47.26052" lon="-2.27623">
        <ele>41.200000762939</ele>
        <time>2020-08-15T08:05:13.000Z</time>
      </trkpt>
      <trkpt lat="47.26047" lon="-2.27623">
        <ele>41.599998474121</ele>
        <time>2020-08-15T08:05:14.000Z</time>
      </trkpt>
      <trkpt lat="47.26043" lon="-2.27619">
        <ele>42</ele>
        <time>2020-08-15T08:05:15.000Z</time>
      </trkpt>
      <trkpt lat="47.26042" lon="-2.27614">
        <ele>42.400001525879</ele>
        <time>2020-08-15T08:05:16.000Z</time>
      </trkpt>
      <trkpt lat="47.26035" lon="-2.2759">
        <ele>42.400001525879</ele>
        <time>2020-08-15T08:05:20.000Z</time>
      </trkpt>
      <trkpt lat="47.26034" lon="-2.27584">
        <ele>42.400001525879</ele>
        <time>2020-08-15T08:05:21.000Z</time>
      </trkpt>
      <trkpt lat="47.26026" lon="-2.27552">
        <ele>42.400001525879</ele>
        <time>2020-08-15T08:05:26.000Z</time>
      </trkpt>
      <trkpt lat="47.26024" lon="-2.27522">
        <ele>42.400001525879</ele>
        <time>2020-08-15T08:05:31.000Z</time>
      </trkpt>
      <trkpt lat="47.26031" lon="-2.27503">
        <ele>42.400001525879</ele>
        <time>2020-08-15T08:05:34.000Z</time>
      </trkpt>
      <trkpt lat="47.26033" lon="-2.27495">
        <ele>42.400001525879</ele>
        <time>2020-08-15T08:05:35.000Z</time>
      </trkpt>
      <trkpt lat="47.26043" lon="-2.27468">
        <ele>42.400001525879</ele>
        <time>2020-08-15T08:05:39.000Z</time>
      </trkpt>
      <trkpt lat="47.26048" lon="-2.27452">
        <ele>42.400001525879</ele>
        <time>2020-08-15T08:05:41.000Z</time>
      </trkpt>
      <trkpt lat="47.26069" lon="-2.27404">
        <ele>42.400001525879</ele>
        <time>2020-08-15T08:05:47.000Z</time>
      </trkpt>
      <trkpt lat="47.26092" lon="-2.27373">
        <ele>42.400001525879</ele>
        <time>2020-08-15T08:05:52.000Z</time>
      </trkpt>
      <trkpt lat="47.26099" lon="-2.27366">
        <ele>42.400001525879</ele>
        <time>2020-08-15T08:05:53.000Z</time>
      </trkpt>
      <trkpt lat="47.26126" lon="-2.27335">
        <ele>42.400001525879</ele>
        <time>2020-08-15T08:05:58.000Z</time>
      </trkpt>
      <trkpt lat="47.26142" lon="-2.27322">
        <ele>42.400001525879</ele>
        <time>2020-08-15T08:06:01.000Z</time>
      </trkpt>
      <trkpt lat="47.26154" lon="-2.27322">
        <ele>42.400001525879</ele>
        <time>2020-08-15T08:06:03.000Z</time>
      </trkpt>
      <trkpt lat="47.26184" lon="-2.27317">
        <ele>42.400001525879</ele>
        <time>2020-08-15T08:06:08.000Z</time>
      </trkpt>
      <trkpt lat="47.26199" lon="-2.27314">
        <ele>42</ele>
        <time>2020-08-15T08:06:11.000Z</time>
      </trkpt>
      <trkpt lat="47.26205" lon="-2.27314">
        <ele>41.400001525879</ele>
        <time>2020-08-15T08:06:12.000Z</time>
      </trkpt>
      <trkpt lat="47.2621" lon="-2.27315">
        <ele>41</ele>
        <time>2020-08-15T08:06:13.000Z</time>
      </trkpt>
      <trkpt lat="47.26217" lon="-2.27317">
        <ele>40.599998474121</ele>
        <time>2020-08-15T08:06:14.000Z</time>
      </trkpt>
      <trkpt lat="47.26223" lon="-2.27317">
        <ele>40.200000762939</ele>
        <time>2020-08-15T08:06:15.000Z</time>
      </trkpt>
      <trkpt lat="47.2624" lon="-2.2732">
        <ele>40.200000762939</ele>
        <time>2020-08-15T08:06:18.000Z</time>
      </trkpt>
      <trkpt lat="47.26246" lon="-2.27321">
        <ele>40.200000762939</ele>
        <time>2020-08-15T08:06:19.000Z</time>
      </trkpt>
      <trkpt lat="47.26278" lon="-2.27322">
        <ele>40.200000762939</ele>
        <time>2020-08-15T08:06:24.000Z</time>
      </trkpt>
      <trkpt lat="47.2632" lon="-2.27326">
        <ele>40.200000762939</ele>
        <time>2020-08-15T08:06:31.000Z</time>
      </trkpt>
      <trkpt lat="47.26333" lon="-2.27328">
        <ele>40.200000762939</ele>
        <time>2020-08-15T08:06:34.000Z</time>
      </trkpt>
      <trkpt lat="47.26337" lon="-2.2733">
        <ele>40.200000762939</ele>
        <time>2020-08-15T08:06:36.000Z</time>
      </trkpt>
      <trkpt lat="47.26346" lon="-2.27331">
        <ele>40.200000762939</ele>
        <time>2020-08-15T08:06:40.000Z</time>
      </trkpt>
      <trkpt lat="47.26349" lon="-2.2733">
        <ele>40.200000762939</ele>
        <time>2020-08-15T08:06:41.000Z</time>
      </trkpt>
      <trkpt lat="47.26374" lon="-2.27328">
        <ele>40.200000762939</ele>
        <time>2020-08-15T08:06:46.000Z</time>
      </trkpt>
      <trkpt lat="47.26405" lon="-2.27329">
        <ele>40.200000762939</ele>
        <time>2020-08-15T08:06:51.000Z</time>
      </trkpt>
      <trkpt lat="47.26429" lon="-2.27341">
        <ele>39.799999237061</ele>
        <time>2020-08-15T08:06:55.000Z</time>
      </trkpt>
      <trkpt lat="47.26433" lon="-2.27348">
        <ele>39.400001525879</ele>
        <time>2020-08-15T08:06:56.000Z</time>
      </trkpt>
      <trkpt lat="47.26436" lon="-2.27355">
        <ele>39</ele>
        <time>2020-08-15T08:06:57.000Z</time>
      </trkpt>
      <trkpt lat="47.26439" lon="-2.27362">
        <ele>38.599998474121</ele>
        <time>2020-08-15T08:06:58.000Z</time>
      </trkpt>
      <trkpt lat="47.26443" lon="-2.27371">
        <ele>38.200000762939</ele>
        <time>2020-08-15T08:06:59.000Z</time>
      </trkpt>
      <trkpt lat="47.26446" lon="-2.27381">
        <ele>38.200000762939</ele>
        <time>2020-08-15T08:07:00.000Z</time>
      </trkpt>
      <trkpt lat="47.2645" lon="-2.27397">
        <ele>38.200000762939</ele>
        <time>2020-08-15T08:07:02.000Z</time>
      </trkpt>
      <trkpt lat="47.26465" lon="-2.27448">
        <ele>37.799999237061</ele>
        <time>2020-08-15T08:07:07.000Z</time>
      </trkpt>
      <trkpt lat="47.26468" lon="-2.27459">
        <ele>37.400001525879</ele>
        <time>2020-08-15T08:07:08.000Z</time>
      </trkpt>
      <trkpt lat="47.26471" lon="-2.27469">
        <ele>37</ele>
        <time>2020-08-15T08:07:09.000Z</time>
      </trkpt>
      <trkpt lat="47.26474" lon="-2.27479">
        <ele>36.599998474121</ele>
        <time>2020-08-15T08:07:10.000Z</time>
      </trkpt>
      <trkpt lat="47.26477" lon="-2.27489">
        <ele>36.200000762939</ele>
        <time>2020-08-15T08:07:11.000Z</time>
      </trkpt>
      <trkpt lat="47.26485" lon="-2.2752">
        <ele>36.200000762939</ele>
        <time>2020-08-15T08:07:14.000Z</time>
      </trkpt>
      <trkpt lat="47.26487" lon="-2.27532">
        <ele>36.200000762939</ele>
        <time>2020-08-15T08:07:15.000Z</time>
      </trkpt>
      <trkpt lat="47.26493" lon="-2.27569">
        <ele>35.799999237061</ele>
        <time>2020-08-15T08:07:19.000Z</time>
      </trkpt>
      <trkpt lat="47.26495" lon="-2.27575">
        <ele>34.799999237061</ele>
        <time>2020-08-15T08:07:20.000Z</time>
      </trkpt>
      <trkpt lat="47.26498" lon="-2.27578">
        <ele>34.400001525879</ele>
        <time>2020-08-15T08:07:21.000Z</time>
      </trkpt>
      <trkpt lat="47.26502" lon="-2.27579">
        <ele>34</ele>
        <time>2020-08-15T08:07:22.000Z</time>
      </trkpt>
      <trkpt lat="47.26514" lon="-2.27577">
        <ele>34</ele>
        <time>2020-08-15T08:07:25.000Z</time>
      </trkpt>
      <trkpt lat="47.26519" lon="-2.27577">
        <ele>34</ele>
        <time>2020-08-15T08:07:26.000Z</time>
      </trkpt>
      <trkpt lat="47.26539" lon="-2.27582">
        <ele>34</ele>
        <time>2020-08-15T08:07:30.000Z</time>
      </trkpt>
      <trkpt lat="47.26568" lon="-2.27581">
        <ele>34</ele>
        <time>2020-08-15T08:07:35.000Z</time>
      </trkpt>
      <trkpt lat="47.26575" lon="-2.27582">
        <ele>34</ele>
        <time>2020-08-15T08:07:36.000Z</time>
      </trkpt>
      <trkpt lat="47.26594" lon="-2.27589">
        <ele>34</ele>
        <time>2020-08-15T08:07:39.000Z</time>
      </trkpt>
      <trkpt lat="47.26634" lon="-2.27608">
        <ele>34</ele>
        <time>2020-08-15T08:07:46.000Z</time>
      </trkpt>
      <trkpt lat="47.26662" lon="-2.27622">
        <ele>34</ele>
        <time>2020-08-15T08:07:51.000Z</time>
      </trkpt>
      <trkpt lat="47.26668" lon="-2.27625">
        <ele>33.599998474121</ele>
        <time>2020-08-15T08:07:52.000Z</time>
      </trkpt>
      <trkpt lat="47.26673" lon="-2.27627">
        <ele>33.200000762939</ele>
        <time>2020-08-15T08:07:53.000Z</time>
      </trkpt>
      <trkpt lat="47.2668" lon="-2.27629">
        <ele>32.799999237061</ele>
        <time>2020-08-15T08:07:54.000Z</time>
      </trkpt>
      <trkpt lat="47.26686" lon="-2.27631">
        <ele>32.400001525879</ele>
        <time>2020-08-15T08:07:55.000Z</time>
      </trkpt>
      <trkpt lat="47.26691" lon="-2.27634">
        <ele>32</ele>
        <time>2020-08-15T08:07:56.000Z</time>
      </trkpt>
      <trkpt lat="47.26697" lon="-2.27638">
        <ele>32</ele>
        <time>2020-08-15T08:07:57.000Z</time>
      </trkpt>
      <trkpt lat="47.26715" lon="-2.27644">
        <ele>32</ele>
        <time>2020-08-15T08:08:00.000Z</time>
      </trkpt>
      <trkpt lat="47.26734" lon="-2.2765">
        <ele>32</ele>
        <time>2020-08-15T08:08:03.000Z</time>
      </trkpt>
      <trkpt lat="47.26757" lon="-2.27653">
        <ele>32</ele>
        <time>2020-08-15T08:08:07.000Z</time>
      </trkpt>
      <trkpt lat="47.26761" lon="-2.27649">
        <ele>32</ele>
        <time>2020-08-15T08:08:08.000Z</time>
      </trkpt>
      <trkpt lat="47.26762" lon="-2.27628">
        <ele>32</ele>
        <time>2020-08-15T08:08:11.000Z</time>
      </trkpt>
      <trkpt lat="47.2676" lon="-2.27621">
        <ele>32</ele>
        <time>2020-08-15T08:08:12.000Z</time>
      </trkpt>
      <trkpt lat="47.26753" lon="-2.2758">
        <ele>32</ele>
        <time>2020-08-15T08:08:17.000Z</time>
      </trkpt>
      <trkpt lat="47.26752" lon="-2.27524">
        <ele>32</ele>
        <time>2020-08-15T08:08:24.000Z</time>
      </trkpt>
      <trkpt lat="47.26752" lon="-2.27501">
        <ele>32.400001525879</ele>
        <time>2020-08-15T08:08:27.000Z</time>
      </trkpt>
      <trkpt lat="47.26752" lon="-2.27493">
        <ele>33</ele>
        <time>2020-08-15T08:08:28.000Z</time>
      </trkpt>
      <trkpt lat="47.26752" lon="-2.27484">
        <ele>33.400001525879</ele>
        <time>2020-08-15T08:08:29.000Z</time>
      </trkpt>
      <trkpt lat="47.26753" lon="-2.27475">
        <ele>34</ele>
        <time>2020-08-15T08:08:30.000Z</time>
      </trkpt>
      <trkpt lat="47.26753" lon="-2.27466">
        <ele>34.400001525879</ele>
        <time>2020-08-15T08:08:31.000Z</time>
      </trkpt>
      <trkpt lat="47.26754" lon="-2.27417">
        <ele>34.400001525879</ele>
        <time>2020-08-15T08:08:37.000Z</time>
      </trkpt>
      <trkpt lat="47.26762" lon="-2.27412">
        <ele>34.400001525879</ele>
        <time>2020-08-15T08:08:39.000Z</time>
      </trkpt>
      <trkpt lat="47.26777" lon="-2.27412">
        <ele>34.400001525879</ele>
        <time>2020-08-15T08:08:42.000Z</time>
      </trkpt>
      <trkpt lat="47.26782" lon="-2.27412">
        <ele>34.400001525879</ele>
        <time>2020-08-15T08:08:43.000Z</time>
      </trkpt>
      <trkpt lat="47.26811" lon="-2.27412">
        <ele>34.400001525879</ele>
        <time>2020-08-15T08:08:48.000Z</time>
      </trkpt>
      <trkpt lat="47.26827" lon="-2.27411">
        <ele>34.400001525879</ele>
        <time>2020-08-15T08:08:51.000Z</time>
      </trkpt>
      <trkpt lat="47.26843" lon="-2.27407">
        <ele>34</ele>
        <time>2020-08-15T08:08:54.000Z</time>
      </trkpt>
      <trkpt lat="47.26849" lon="-2.27405">
        <ele>33.599998474121</ele>
        <time>2020-08-15T08:08:55.000Z</time>
      </trkpt>
      <trkpt lat="47.26855" lon="-2.27402">
        <ele>33.200000762939</ele>
        <time>2020-08-15T08:08:56.000Z</time>
      </trkpt>
      <trkpt lat="47.26861" lon="-2.274">
        <ele>32.599998474121</ele>
        <time>2020-08-15T08:08:57.000Z</time>
      </trkpt>
      <trkpt lat="47.26867" lon="-2.27399">
        <ele>32.200000762939</ele>
        <time>2020-08-15T08:08:58.000Z</time>
      </trkpt>
      <trkpt lat="47.26878" lon="-2.27395">
        <ele>31.799999237061</ele>
        <time>2020-08-15T08:09:00.000Z</time>
      </trkpt>
      <trkpt lat="47.26884" lon="-2.27392">
        <ele>31.39999961853</ele>
        <time>2020-08-15T08:09:01.000Z</time>
      </trkpt>
      <trkpt lat="47.2689" lon="-2.27389">
        <ele>31</ele>
        <time>2020-08-15T08:09:02.000Z</time>
      </trkpt>
      <trkpt lat="47.26895" lon="-2.27387">
        <ele>30.60000038147</ele>
        <time>2020-08-15T08:09:03.000Z</time>
      </trkpt>
      <trkpt lat="47.26899" lon="-2.27385">
        <ele>30.200000762939</ele>
        <time>2020-08-15T08:09:04.000Z</time>
      </trkpt>
      <trkpt lat="47.26903" lon="-2.27383">
        <ele>29.799999237061</ele>
        <time>2020-08-15T08:09:05.000Z</time>
      </trkpt>
      <trkpt lat="47.26906" lon="-2.27382">
        <ele>29.39999961853</ele>
        <time>2020-08-15T08:09:06.000Z</time>
      </trkpt>
      <trkpt lat="47.26909" lon="-2.27379">
        <ele>28.799999237061</ele>
        <time>2020-08-15T08:09:07.000Z</time>
      </trkpt>
      <trkpt lat="47.26912" lon="-2.27375">
        <ele>28.39999961853</ele>
        <time>2020-08-15T08:09:08.000Z</time>
      </trkpt>
      <trkpt lat="47.26913" lon="-2.27371">
        <ele>28</ele>
        <time>2020-08-15T08:09:09.000Z</time>
      </trkpt>
      <trkpt lat="47.26913" lon="-2.27366">
        <ele>28</ele>
        <time>2020-08-15T08:09:10.000Z</time>
      </trkpt>
      <trkpt lat="47.26917" lon="-2.27346">
        <ele>28</ele>
        <time>2020-08-15T08:09:15.000Z</time>
      </trkpt>
      <trkpt lat="47.26924" lon="-2.27322">
        <ele>28</ele>
        <time>2020-08-15T08:09:22.000Z</time>
      </trkpt>
      <trkpt lat="47.26926" lon="-2.27302">
        <ele>28</ele>
        <time>2020-08-15T08:09:27.000Z</time>
      </trkpt>
      <trkpt lat="47.26925" lon="-2.273">
        <ele>28</ele>
        <time>2020-08-15T08:09:28.000Z</time>
      </trkpt>
      <trkpt lat="47.26923" lon="-2.27289">
        <ele>28</ele>
        <time>2020-08-15T08:09:32.000Z</time>
      </trkpt>
      <trkpt lat="47.26925" lon="-2.27278">
        <ele>28</ele>
        <time>2020-08-15T08:09:35.000Z</time>
      </trkpt>
      <trkpt lat="47.2693" lon="-2.27272">
        <ele>28</ele>
        <time>2020-08-15T08:09:37.000Z</time>
      </trkpt>
      <trkpt lat="47.26936" lon="-2.27267">
        <ele>28</ele>
        <time>2020-08-15T08:09:39.000Z</time>
      </trkpt>
      <trkpt lat="47.26944" lon="-2.27266">
        <ele>28</ele>
        <time>2020-08-15T08:09:42.000Z</time>
      </trkpt>
      <trkpt lat="47.26951" lon="-2.27256">
        <ele>28</ele>
        <time>2020-08-15T08:09:46.000Z</time>
      </trkpt>
      <trkpt lat="47.26953" lon="-2.27253">
        <ele>28</ele>
        <time>2020-08-15T08:09:47.000Z</time>
      </trkpt>
      <trkpt lat="47.26959" lon="-2.27233">
        <ele>28</ele>
        <time>2020-08-15T08:09:52.000Z</time>
      </trkpt>
      <trkpt lat="47.26958" lon="-2.27226">
        <ele>28</ele>
        <time>2020-08-15T08:09:53.000Z</time>
      </trkpt>
      <trkpt lat="47.26958" lon="-2.27217">
        <ele>28</ele>
        <time>2020-08-15T08:09:55.000Z</time>
      </trkpt>
      <trkpt lat="47.26961" lon="-2.2721">
        <ele>28</ele>
        <time>2020-08-15T08:09:58.000Z</time>
      </trkpt>
      <trkpt lat="47.26964" lon="-2.27207">
        <ele>28</ele>
        <time>2020-08-15T08:09:59.000Z</time>
      </trkpt>
      <trkpt lat="47.26968" lon="-2.27198">
        <ele>28</ele>
        <time>2020-08-15T08:10:03.000Z</time>
      </trkpt>
      <trkpt lat="47.26973" lon="-2.27187">
        <ele>28</ele>
        <time>2020-08-15T08:10:05.000Z</time>
      </trkpt>
      <trkpt lat="47.26979" lon="-2.27182">
        <ele>28</ele>
        <time>2020-08-15T08:10:07.000Z</time>
      </trkpt>
      <trkpt lat="47.26981" lon="-2.27183">
        <ele>28</ele>
        <time>2020-08-15T08:10:08.000Z</time>
      </trkpt>
      <trkpt lat="47.26987" lon="-2.27183">
        <ele>28</ele>
        <time>2020-08-15T08:10:11.000Z</time>
      </trkpt>
      <trkpt lat="47.26992" lon="-2.27178">
        <ele>28</ele>
        <time>2020-08-15T08:10:14.000Z</time>
      </trkpt>
      <trkpt lat="47.26996" lon="-2.27175">
        <ele>28</ele>
        <time>2020-08-15T08:10:16.000Z</time>
      </trkpt>
      <trkpt lat="47.27004" lon="-2.27172">
        <ele>28</ele>
        <time>2020-08-15T08:10:20.000Z</time>
      </trkpt>
      <trkpt lat="47.27005" lon="-2.27173">
        <ele>28</ele>
        <time>2020-08-15T08:10:21.000Z</time>
      </trkpt>
      <trkpt lat="47.27006" lon="-2.27174">
        <ele>27.60000038147</ele>
        <time>2020-08-15T08:10:22.000Z</time>
      </trkpt>
      <trkpt lat="47.27007" lon="-2.27175">
        <ele>27.200000762939</ele>
        <time>2020-08-15T08:10:23.000Z</time>
      </trkpt>
      <trkpt lat="47.27009" lon="-2.27175">
        <ele>26.799999237061</ele>
        <time>2020-08-15T08:10:24.000Z</time>
      </trkpt>
      <trkpt lat="47.2701" lon="-2.27174">
        <ele>26.39999961853</ele>
        <time>2020-08-15T08:10:25.000Z</time>
      </trkpt>
      <trkpt lat="47.27011" lon="-2.27174">
        <ele>26</ele>
        <time>2020-08-15T08:10:26.000Z</time>
      </trkpt>
      <trkpt lat="47.2702" lon="-2.27163">
        <ele>26</ele>
        <time>2020-08-15T08:10:33.000Z</time>
      </trkpt>
      <trkpt lat="47.27022" lon="-2.27159">
        <ele>25.39999961853</ele>
        <time>2020-08-15T08:10:36.000Z</time>
      </trkpt>
      <trkpt lat="47.27023" lon="-2.27154">
        <ele>24.60000038147</ele>
        <time>2020-08-15T08:10:37.000Z</time>
      </trkpt>
      <trkpt lat="47.27023" lon="-2.27149">
        <ele>24.200000762939</ele>
        <time>2020-08-15T08:10:38.000Z</time>
      </trkpt>
      <trkpt lat="47.27022" lon="-2.27146">
        <ele>23.799999237061</ele>
        <time>2020-08-15T08:10:39.000Z</time>
      </trkpt>
      <trkpt lat="47.27017" lon="-2.27134">
        <ele>23.799999237061</ele>
        <time>2020-08-15T08:10:42.000Z</time>
      </trkpt>
      <trkpt lat="47.27016" lon="-2.27129">
        <ele>23.799999237061</ele>
        <time>2020-08-15T08:10:43.000Z</time>
      </trkpt>
      <trkpt lat="47.27012" lon="-2.2712">
        <ele>24.200000762939</ele>
        <time>2020-08-15T08:10:45.000Z</time>
      </trkpt>
      <trkpt lat="47.27011" lon="-2.27114">
        <ele>24.60000038147</ele>
        <time>2020-08-15T08:10:46.000Z</time>
      </trkpt>
      <trkpt lat="47.27008" lon="-2.27108">
        <ele>25</ele>
        <time>2020-08-15T08:10:47.000Z</time>
      </trkpt>
      <trkpt lat="47.27007" lon="-2.27101">
        <ele>25.39999961853</ele>
        <time>2020-08-15T08:10:48.000Z</time>
      </trkpt>
      <trkpt lat="47.27006" lon="-2.27093">
        <ele>25.799999237061</ele>
        <time>2020-08-15T08:10:49.000Z</time>
      </trkpt>
      <trkpt lat="47.27001" lon="-2.2706">
        <ele>25.799999237061</ele>
        <time>2020-08-15T08:10:54.000Z</time>
      </trkpt>
      <trkpt lat="47.26997" lon="-2.27055">
        <ele>25.799999237061</ele>
        <time>2020-08-15T08:10:55.000Z</time>
      </trkpt>
      <trkpt lat="47.26988" lon="-2.27041">
        <ele>25.799999237061</ele>
        <time>2020-08-15T08:10:58.000Z</time>
      </trkpt>
      <trkpt lat="47.26977" lon="-2.27024">
        <ele>25.799999237061</ele>
        <time>2020-08-15T08:11:01.000Z</time>
      </trkpt>
      <trkpt lat="47.26969" lon="-2.27015">
        <ele>25.799999237061</ele>
        <time>2020-08-15T08:11:03.000Z</time>
      </trkpt>
      <trkpt lat="47.26957" lon="-2.26997">
        <ele>25.799999237061</ele>
        <time>2020-08-15T08:11:06.000Z</time>
      </trkpt>
      <trkpt lat="47.26957" lon="-2.26987">
        <ele>25.799999237061</ele>
        <time>2020-08-15T08:11:07.000Z</time>
      </trkpt>
      <trkpt lat="47.26962" lon="-2.26952">
        <ele>25.799999237061</ele>
        <time>2020-08-15T08:11:11.000Z</time>
      </trkpt>
      <trkpt lat="47.26964" lon="-2.26914">
        <ele>25.799999237061</ele>
        <time>2020-08-15T08:11:15.000Z</time>
      </trkpt>
      <trkpt lat="47.26963" lon="-2.26905">
        <ele>25.799999237061</ele>
        <time>2020-08-15T08:11:16.000Z</time>
      </trkpt>
      <trkpt lat="47.26959" lon="-2.26886">
        <ele>25.799999237061</ele>
        <time>2020-08-15T08:11:18.000Z</time>
      </trkpt>
      <trkpt lat="47.26957" lon="-2.26867">
        <ele>25.39999961853</ele>
        <time>2020-08-15T08:11:20.000Z</time>
      </trkpt>
      <trkpt lat="47.26957" lon="-2.26857">
        <ele>25</ele>
        <time>2020-08-15T08:11:21.000Z</time>
      </trkpt>
      <trkpt lat="47.26956" lon="-2.26848">
        <ele>24.60000038147</ele>
        <time>2020-08-15T08:11:22.000Z</time>
      </trkpt>
      <trkpt lat="47.26956" lon="-2.26839">
        <ele>24.200000762939</ele>
        <time>2020-08-15T08:11:23.000Z</time>
      </trkpt>
      <trkpt lat="47.26959" lon="-2.26832">
        <ele>23.60000038147</ele>
        <time>2020-08-15T08:11:24.000Z</time>
      </trkpt>
      <trkpt lat="47.26962" lon="-2.26826">
        <ele>23.60000038147</ele>
        <time>2020-08-15T08:11:25.000Z</time>
      </trkpt>
      <trkpt lat="47.26969" lon="-2.26817">
        <ele>23.60000038147</ele>
        <time>2020-08-15T08:11:27.000Z</time>
      </trkpt>
      <trkpt lat="47.26971" lon="-2.26814">
        <ele>23.200000762939</ele>
        <time>2020-08-15T08:11:28.000Z</time>
      </trkpt>
      <trkpt lat="47.26974" lon="-2.2681">
        <ele>22.799999237061</ele>
        <time>2020-08-15T08:11:29.000Z</time>
      </trkpt>
      <trkpt lat="47.26977" lon="-2.26807">
        <ele>22.39999961853</ele>
        <time>2020-08-15T08:11:30.000Z</time>
      </trkpt>
      <trkpt lat="47.26979" lon="-2.26805">
        <ele>22</ele>
        <time>2020-08-15T08:11:31.000Z</time>
      </trkpt>
      <trkpt lat="47.26982" lon="-2.26803">
        <ele>21.60000038147</ele>
        <time>2020-08-15T08:11:32.000Z</time>
      </trkpt>
      <trkpt lat="47.26987" lon="-2.26796">
        <ele>21.60000038147</ele>
        <time>2020-08-15T08:11:35.000Z</time>
      </trkpt>
      <trkpt lat="47.2699" lon="-2.26793">
        <ele>21.60000038147</ele>
        <time>2020-08-15T08:11:37.000Z</time>
      </trkpt>
      <trkpt lat="47.26997" lon="-2.2679">
        <ele>21.60000038147</ele>
        <time>2020-08-15T08:11:40.000Z</time>
      </trkpt>
      <trkpt lat="47.27004" lon="-2.26781">
        <ele>21.60000038147</ele>
        <time>2020-08-15T08:11:43.000Z</time>
      </trkpt>
      <trkpt lat="47.27006" lon="-2.26779">
        <ele>21.60000038147</ele>
        <time>2020-08-15T08:11:44.000Z</time>
      </trkpt>
      <trkpt lat="47.27009" lon="-2.26774">
        <ele>21.60000038147</ele>
        <time>2020-08-15T08:11:46.000Z</time>
      </trkpt>
      <trkpt lat="47.27014" lon="-2.26767">
        <ele>21.60000038147</ele>
        <time>2020-08-15T08:11:49.000Z</time>
      </trkpt>
      <trkpt lat="47.27025" lon="-2.26759">
        <ele>21.60000038147</ele>
        <time>2020-08-15T08:11:54.000Z</time>
      </trkpt>
      <trkpt lat="47.27032" lon="-2.26752">
        <ele>21.60000038147</ele>
        <time>2020-08-15T08:11:58.000Z</time>
      </trkpt>
      <trkpt lat="47.27032" lon="-2.26749">
        <ele>21.60000038147</ele>
        <time>2020-08-15T08:11:59.000Z</time>
      </trkpt>
      <trkpt lat="47.27033" lon="-2.26743">
        <ele>21.60000038147</ele>
        <time>2020-08-15T08:12:01.000Z</time>
      </trkpt>
      <trkpt lat="47.27034" lon="-2.26736">
        <ele>21.60000038147</ele>
        <time>2020-08-15T08:12:03.000Z</time>
      </trkpt>
      <trkpt lat="47.27036" lon="-2.26719">
        <ele>21.60000038147</ele>
        <time>2020-08-15T08:12:06.000Z</time>
      </trkpt>
      <trkpt lat="47.27034" lon="-2.26687">
        <ele>21.60000038147</ele>
        <time>2020-08-15T08:12:11.000Z</time>
      </trkpt>
      <trkpt lat="47.27036" lon="-2.26653">
        <ele>21.60000038147</ele>
        <time>2020-08-15T08:12:16.000Z</time>
      </trkpt>
      <trkpt lat="47.27028" lon="-2.26636">
        <ele>21.60000038147</ele>
        <time>2020-08-15T08:12:19.000Z</time>
      </trkpt>
      <trkpt lat="47.27004" lon="-2.26591">
        <ele>21.60000038147</ele>
        <time>2020-08-15T08:12:26.000Z</time>
      </trkpt>
      <trkpt lat="47.26995" lon="-2.26579">
        <ele>21.60000038147</ele>
        <time>2020-08-15T08:12:28.000Z</time>
      </trkpt>
      <trkpt lat="47.26984" lon="-2.26567">
        <ele>21.60000038147</ele>
        <time>2020-08-15T08:12:31.000Z</time>
      </trkpt>
      <trkpt lat="47.26979" lon="-2.26555">
        <ele>21.60000038147</ele>
        <time>2020-08-15T08:12:34.000Z</time>
      </trkpt>
      <trkpt lat="47.26977" lon="-2.26549">
        <ele>21.60000038147</ele>
        <time>2020-08-15T08:12:35.000Z</time>
      </trkpt>
      <trkpt lat="47.26973" lon="-2.26535">
        <ele>22</ele>
        <time>2020-08-15T08:12:38.000Z</time>
      </trkpt>
      <trkpt lat="47.26971" lon="-2.26531">
        <ele>22.39999961853</ele>
        <time>2020-08-15T08:12:39.000Z</time>
      </trkpt>
      <trkpt lat="47.26969" lon="-2.26527">
        <ele>23</ele>
        <time>2020-08-15T08:12:40.000Z</time>
      </trkpt>
      <trkpt lat="47.26968" lon="-2.26522">
        <ele>23.799999237061</ele>
        <time>2020-08-15T08:12:41.000Z</time>
      </trkpt>
      <trkpt lat="47.26966" lon="-2.26518">
        <ele>23.799999237061</ele>
        <time>2020-08-15T08:12:42.000Z</time>
      </trkpt>
      <trkpt lat="47.26968" lon="-2.26501">
        <ele>23.799999237061</ele>
        <time>2020-08-15T08:12:46.000Z</time>
      </trkpt>
      <trkpt lat="47.26974" lon="-2.26492">
        <ele>24.200000762939</ele>
        <time>2020-08-15T08:12:48.000Z</time>
      </trkpt>
      <trkpt lat="47.26978" lon="-2.26488">
        <ele>24.60000038147</ele>
        <time>2020-08-15T08:12:49.000Z</time>
      </trkpt>
      <trkpt lat="47.26982" lon="-2.26483">
        <ele>25</ele>
        <time>2020-08-15T08:12:50.000Z</time>
      </trkpt>
      <trkpt lat="47.26987" lon="-2.26478">
        <ele>25.39999961853</ele>
        <time>2020-08-15T08:12:51.000Z</time>
      </trkpt>
      <trkpt lat="47.2699" lon="-2.26474">
        <ele>25.799999237061</ele>
        <time>2020-08-15T08:12:52.000Z</time>
      </trkpt>
      <trkpt lat="47.27005" lon="-2.26454">
        <ele>25.799999237061</ele>
        <time>2020-08-15T08:12:56.000Z</time>
      </trkpt>
      <trkpt lat="47.27037" lon="-2.2641">
        <ele>25.799999237061</ele>
        <time>2020-08-15T08:13:04.000Z</time>
      </trkpt>
      <trkpt lat="47.27064" lon="-2.26372">
        <ele>25.799999237061</ele>
        <time>2020-08-15T08:13:10.000Z</time>
      </trkpt>
      <trkpt lat="47.271" lon="-2.26319">
        <ele>25.799999237061</ele>
        <time>2020-08-15T08:13:18.000Z</time>
      </trkpt>
      <trkpt lat="47.27138" lon="-2.26263">
        <ele>25.799999237061</ele>
        <time>2020-08-15T08:13:26.000Z</time>
      </trkpt>
      <trkpt lat="47.27178" lon="-2.26216">
        <ele>25.799999237061</ele>
        <time>2020-08-15T08:13:33.000Z</time>
      </trkpt>
      <trkpt lat="47.27216" lon="-2.26182">
        <ele>25.799999237061</ele>
        <time>2020-08-15T08:13:39.000Z</time>
      </trkpt>
      <trkpt lat="47.27222" lon="-2.26178">
        <ele>25.39999961853</ele>
        <time>2020-08-15T08:13:40.000Z</time>
      </trkpt>
      <trkpt lat="47.27229" lon="-2.26174">
        <ele>25</ele>
        <time>2020-08-15T08:13:41.000Z</time>
      </trkpt>
      <trkpt lat="47.27235" lon="-2.26169">
        <ele>24.60000038147</ele>
        <time>2020-08-15T08:13:42.000Z</time>
      </trkpt>
      <trkpt lat="47.27242" lon="-2.26165">
        <ele>24</ele>
        <time>2020-08-15T08:13:43.000Z</time>
      </trkpt>
      <trkpt lat="47.27248" lon="-2.2616">
        <ele>23.60000038147</ele>
        <time>2020-08-15T08:13:44.000Z</time>
      </trkpt>
      <trkpt lat="47.27281" lon="-2.26144">
        <ele>23.60000038147</ele>
        <time>2020-08-15T08:13:49.000Z</time>
      </trkpt>
      <trkpt lat="47.27321" lon="-2.26131">
        <ele>23.60000038147</ele>
        <time>2020-08-15T08:13:55.000Z</time>
      </trkpt>
      <trkpt lat="47.27344" lon="-2.2612">
        <ele>23.60000038147</ele>
        <time>2020-08-15T08:13:59.000Z</time>
      </trkpt>
      <trkpt lat="47.27346" lon="-2.26113">
        <ele>23.60000038147</ele>
        <time>2020-08-15T08:14:00.000Z</time>
      </trkpt>
      <trkpt lat="47.27345" lon="-2.26106">
        <ele>23.200000762939</ele>
        <time>2020-08-15T08:14:01.000Z</time>
      </trkpt>
      <trkpt lat="47.27342" lon="-2.261">
        <ele>22.799999237061</ele>
        <time>2020-08-15T08:14:02.000Z</time>
      </trkpt>
      <trkpt lat="47.27338" lon="-2.26092">
        <ele>22.39999961853</ele>
        <time>2020-08-15T08:14:03.000Z</time>
      </trkpt>
      <trkpt lat="47.27335" lon="-2.26085">
        <ele>22</ele>
        <time>2020-08-15T08:14:04.000Z</time>
      </trkpt>
      <trkpt lat="47.27332" lon="-2.26078">
        <ele>21.60000038147</ele>
        <time>2020-08-15T08:14:05.000Z</time>
      </trkpt>
      <trkpt lat="47.27324" lon="-2.26063">
        <ele>21.60000038147</ele>
        <time>2020-08-15T08:14:07.000Z</time>
      </trkpt>
      <trkpt lat="47.27291" lon="-2.26003">
        <ele>21.60000038147</ele>
        <time>2020-08-15T08:14:16.000Z</time>
      </trkpt>
      <trkpt lat="47.2729" lon="-2.25997">
        <ele>21.60000038147</ele>
        <time>2020-08-15T08:14:17.000Z</time>
      </trkpt>
      <trkpt lat="47.27292" lon="-2.2599">
        <ele>21.60000038147</ele>
        <time>2020-08-15T08:14:19.000Z</time>
      </trkpt>
      <trkpt lat="47.27301" lon="-2.25982">
        <ele>21.60000038147</ele>
        <time>2020-08-15T08:14:23.000Z</time>
      </trkpt>
      <trkpt lat="47.27322" lon="-2.25971">
        <ele>21.60000038147</ele>
        <time>2020-08-15T08:14:28.000Z</time>
      </trkpt>
      <trkpt lat="47.27326" lon="-2.2597">
        <ele>21.60000038147</ele>
        <time>2020-08-15T08:14:29.000Z</time>
      </trkpt>
      <trkpt lat="47.27349" lon="-2.25959">
        <ele>21.60000038147</ele>
        <time>2020-08-15T08:14:34.000Z</time>
      </trkpt>
      <trkpt lat="47.27353" lon="-2.25955">
        <ele>21.60000038147</ele>
        <time>2020-08-15T08:14:35.000Z</time>
      </trkpt>
      <trkpt lat="47.27362" lon="-2.25947">
        <ele>21.60000038147</ele>
        <time>2020-08-15T08:14:37.000Z</time>
      </trkpt>
      <trkpt lat="47.27369" lon="-2.25936">
        <ele>21.60000038147</ele>
        <time>2020-08-15T08:14:39.000Z</time>
      </trkpt>
      <trkpt lat="47.27401" lon="-2.25899">
        <ele>21.60000038147</ele>
        <time>2020-08-15T08:14:46.000Z</time>
      </trkpt>
      <trkpt lat="47.27418" lon="-2.25866">
        <ele>21.60000038147</ele>
        <time>2020-08-15T08:14:51.000Z</time>
      </trkpt>
      <trkpt lat="47.27425" lon="-2.25854">
        <ele>21.60000038147</ele>
        <time>2020-08-15T08:14:53.000Z</time>
      </trkpt>
      <trkpt lat="47.27448" lon="-2.25815">
        <ele>21.60000038147</ele>
        <time>2020-08-15T08:14:59.000Z</time>
      </trkpt>
      <trkpt lat="47.27452" lon="-2.25809">
        <ele>21.60000038147</ele>
        <time>2020-08-15T08:15:00.000Z</time>
      </trkpt>
      <trkpt lat="47.2747" lon="-2.25793">
        <ele>21.200000762939</ele>
        <time>2020-08-15T08:15:04.000Z</time>
      </trkpt>
      <trkpt lat="47.27474" lon="-2.25788">
        <ele>20.60000038147</ele>
        <time>2020-08-15T08:15:05.000Z</time>
      </trkpt>
      <trkpt lat="47.27479" lon="-2.25784">
        <ele>20.200000762939</ele>
        <time>2020-08-15T08:15:06.000Z</time>
      </trkpt>
      <trkpt lat="47.27483" lon="-2.2578">
        <ele>19.799999237061</ele>
        <time>2020-08-15T08:15:07.000Z</time>
      </trkpt>
      <trkpt lat="47.27487" lon="-2.25775">
        <ele>19.39999961853</ele>
        <time>2020-08-15T08:15:08.000Z</time>
      </trkpt>
      <trkpt lat="47.27491" lon="-2.2577">
        <ele>19.39999961853</ele>
        <time>2020-08-15T08:15:09.000Z</time>
      </trkpt>
      <trkpt lat="47.27499" lon="-2.2576">
        <ele>19.39999961853</ele>
        <time>2020-08-15T08:15:11.000Z</time>
      </trkpt>
      <trkpt lat="47.27516" lon="-2.25738">
        <ele>19.39999961853</ele>
        <time>2020-08-15T08:15:15.000Z</time>
      </trkpt>
      <trkpt lat="47.27525" lon="-2.25726">
        <ele>19.39999961853</ele>
        <time>2020-08-15T08:15:17.000Z</time>
      </trkpt>
      <trkpt lat="47.27531" lon="-2.25713">
        <ele>19.39999961853</ele>
        <time>2020-08-15T08:15:19.000Z</time>
      </trkpt>
      <trkpt lat="47.27534" lon="-2.25707">
        <ele>19.39999961853</ele>
        <time>2020-08-15T08:15:20.000Z</time>
      </trkpt>
      <trkpt lat="47.27537" lon="-2.25701">
        <ele>19.39999961853</ele>
        <time>2020-08-15T08:15:21.000Z</time>
      </trkpt>
      <trkpt lat="47.2755" lon="-2.25678">
        <ele>19.39999961853</ele>
        <time>2020-08-15T08:15:25.000Z</time>
      </trkpt>
      <trkpt lat="47.27553" lon="-2.25673">
        <ele>19</ele>
        <time>2020-08-15T08:15:26.000Z</time>
      </trkpt>
      <trkpt lat="47.27557" lon="-2.25669">
        <ele>18.60000038147</ele>
        <time>2020-08-15T08:15:27.000Z</time>
      </trkpt>
      <trkpt lat="47.2756" lon="-2.25665">
        <ele>18.200000762939</ele>
        <time>2020-08-15T08:15:28.000Z</time>
      </trkpt>
      <trkpt lat="47.27562" lon="-2.25662">
        <ele>17.60000038147</ele>
        <time>2020-08-15T08:15:29.000Z</time>
      </trkpt>
      <trkpt lat="47.27564" lon="-2.2566">
        <ele>17.200000762939</ele>
        <time>2020-08-15T08:15:30.000Z</time>
      </trkpt>
      <trkpt lat="47.27571" lon="-2.25655">
        <ele>17.200000762939</ele>
        <time>2020-08-15T08:15:35.000Z</time>
      </trkpt>
      <trkpt lat="47.27572" lon="-2.25653">
        <ele>17.200000762939</ele>
        <time>2020-08-15T08:15:37.000Z</time>
      </trkpt>
      <trkpt lat="47.27572" lon="-2.25653">
        <ele>17.200000762939</ele>
        <time>2020-08-15T08:15:40.000Z</time>
      </trkpt>
      <trkpt lat="47.2757" lon="-2.25654">
        <ele>17.200000762939</ele>
        <time>2020-08-15T08:15:41.000Z</time>
      </trkpt>
      <trkpt lat="47.27562" lon="-2.25646">
        <ele>17.200000762939</ele>
        <time>2020-08-15T08:15:45.000Z</time>
      </trkpt>
      <trkpt lat="47.27562" lon="-2.25627">
        <ele>17.200000762939</ele>
        <time>2020-08-15T08:15:49.000Z</time>
      </trkpt>
      <trkpt lat="47.27562" lon="-2.25621">
        <ele>17.200000762939</ele>
        <time>2020-08-15T08:15:50.000Z</time>
      </trkpt>
      <trkpt lat="47.27559" lon="-2.25581">
        <ele>17.200000762939</ele>
        <time>2020-08-15T08:15:56.000Z</time>
      </trkpt>
      <trkpt lat="47.27556" lon="-2.25566">
        <ele>17.200000762939</ele>
        <time>2020-08-15T08:15:58.000Z</time>
      </trkpt>
      <trkpt lat="47.27551" lon="-2.25543">
        <ele>17.200000762939</ele>
        <time>2020-08-15T08:16:01.000Z</time>
      </trkpt>
      <trkpt lat="47.27544" lon="-2.25522">
        <ele>17.200000762939</ele>
        <time>2020-08-15T08:16:04.000Z</time>
      </trkpt>
      <trkpt lat="47.27539" lon="-2.2551">
        <ele>17.200000762939</ele>
        <time>2020-08-15T08:16:06.000Z</time>
      </trkpt>
      <trkpt lat="47.27525" lon="-2.25482">
        <ele>17.200000762939</ele>
        <time>2020-08-15T08:16:11.000Z</time>
      </trkpt>
      <trkpt lat="47.27514" lon="-2.25468">
        <ele>16.799999237061</ele>
        <time>2020-08-15T08:16:14.000Z</time>
      </trkpt>
      <trkpt lat="47.2751" lon="-2.25463">
        <ele>16.39999961853</ele>
        <time>2020-08-15T08:16:15.000Z</time>
      </trkpt>
      <trkpt lat="47.27506" lon="-2.25459">
        <ele>16</ele>
        <time>2020-08-15T08:16:16.000Z</time>
      </trkpt>
      <trkpt lat="47.27502" lon="-2.25455">
        <ele>15.60000038147</ele>
        <time>2020-08-15T08:16:17.000Z</time>
      </trkpt>
      <trkpt lat="47.27497" lon="-2.25453">
        <ele>15.199999809265</ele>
        <time>2020-08-15T08:16:18.000Z</time>
      </trkpt>
      <trkpt lat="47.27489" lon="-2.25452">
        <ele>15.199999809265</ele>
        <time>2020-08-15T08:16:20.000Z</time>
      </trkpt>
      <trkpt lat="47.27484" lon="-2.25453">
        <ele>15.199999809265</ele>
        <time>2020-08-15T08:16:21.000Z</time>
      </trkpt>
      <trkpt lat="47.27466" lon="-2.25454">
        <ele>15.199999809265</ele>
        <time>2020-08-15T08:16:26.000Z</time>
      </trkpt>
      <trkpt lat="47.27448" lon="-2.25447">
        <ele>15.199999809265</ele>
        <time>2020-08-15T08:16:31.000Z</time>
      </trkpt>
      <trkpt lat="47.27438" lon="-2.25427">
        <ele>15.199999809265</ele>
        <time>2020-08-15T08:16:35.000Z</time>
      </trkpt>
      <trkpt lat="47.27438" lon="-2.25409">
        <ele>15.199999809265</ele>
        <time>2020-08-15T08:16:38.000Z</time>
      </trkpt>
      <trkpt lat="47.2744" lon="-2.25396">
        <ele>15.199999809265</ele>
        <time>2020-08-15T08:16:40.000Z</time>
      </trkpt>
      <trkpt lat="47.27448" lon="-2.25358">
        <ele>15.199999809265</ele>
        <time>2020-08-15T08:16:45.000Z</time>
      </trkpt>
      <trkpt lat="47.27444" lon="-2.25328">
        <ele>15.199999809265</ele>
        <time>2020-08-15T08:16:49.000Z</time>
      </trkpt>
      <trkpt lat="47.27439" lon="-2.25313">
        <ele>15.199999809265</ele>
        <time>2020-08-15T08:16:51.000Z</time>
      </trkpt>
      <trkpt lat="47.27432" lon="-2.25289">
        <ele>15.199999809265</ele>
        <time>2020-08-15T08:16:54.000Z</time>
      </trkpt>
      <trkpt lat="47.27415" lon="-2.25237">
        <ele>15.199999809265</ele>
        <time>2020-08-15T08:17:00.000Z</time>
      </trkpt>
      <trkpt lat="47.27402" lon="-2.25201">
        <ele>15.199999809265</ele>
        <time>2020-08-15T08:17:04.000Z</time>
      </trkpt>
      <trkpt lat="47.27395" lon="-2.25184">
        <ele>15.199999809265</ele>
        <time>2020-08-15T08:17:06.000Z</time>
      </trkpt>
      <trkpt lat="47.27375" lon="-2.25133">
        <ele>15.60000038147</ele>
        <time>2020-08-15T08:17:12.000Z</time>
      </trkpt>
      <trkpt lat="47.2737" lon="-2.25124">
        <ele>16</ele>
        <time>2020-08-15T08:17:13.000Z</time>
      </trkpt>
      <trkpt lat="47.27366" lon="-2.25115">
        <ele>16.799999237061</ele>
        <time>2020-08-15T08:17:14.000Z</time>
      </trkpt>
      <trkpt lat="47.27362" lon="-2.25106">
        <ele>17.200000762939</ele>
        <time>2020-08-15T08:17:15.000Z</time>
      </trkpt>
      <trkpt lat="47.2735" lon="-2.2508">
        <ele>17.200000762939</ele>
        <time>2020-08-15T08:17:18.000Z</time>
      </trkpt>
      <trkpt lat="47.27345" lon="-2.25062">
        <ele>17.200000762939</ele>
        <time>2020-08-15T08:17:20.000Z</time>
      </trkpt>
      <trkpt lat="47.27345" lon="-2.25044">
        <ele>17.200000762939</ele>
        <time>2020-08-15T08:17:22.000Z</time>
      </trkpt>
      <trkpt lat="47.27351" lon="-2.25019">
        <ele>17.200000762939</ele>
        <time>2020-08-15T08:17:26.000Z</time>
      </trkpt>
      <trkpt lat="47.27357" lon="-2.25008">
        <ele>17.200000762939</ele>
        <time>2020-08-15T08:17:28.000Z</time>
      </trkpt>
      <trkpt lat="47.27361" lon="-2.25002">
        <ele>17.200000762939</ele>
        <time>2020-08-15T08:17:29.000Z</time>
      </trkpt>
      <trkpt lat="47.27369" lon="-2.2499">
        <ele>17.200000762939</ele>
        <time>2020-08-15T08:17:31.000Z</time>
      </trkpt>
      <trkpt lat="47.27378" lon="-2.24979">
        <ele>17.200000762939</ele>
        <time>2020-08-15T08:17:33.000Z</time>
      </trkpt>
      <trkpt lat="47.27389" lon="-2.24971">
        <ele>17.200000762939</ele>
        <time>2020-08-15T08:17:35.000Z</time>
      </trkpt>
      <trkpt lat="47.27429" lon="-2.24952">
        <ele>17.200000762939</ele>
        <time>2020-08-15T08:17:42.000Z</time>
      </trkpt>
      <trkpt lat="47.27447" lon="-2.24954">
        <ele>17.200000762939</ele>
        <time>2020-08-15T08:17:45.000Z</time>
      </trkpt>
      <trkpt lat="47.27457" lon="-2.24958">
        <ele>17.200000762939</ele>
        <time>2020-08-15T08:17:47.000Z</time>
      </trkpt>
      <trkpt lat="47.27467" lon="-2.24963">
        <ele>17.200000762939</ele>
        <time>2020-08-15T08:17:49.000Z</time>
      </trkpt>
      <trkpt lat="47.27471" lon="-2.24966">
        <ele>17.200000762939</ele>
        <time>2020-08-15T08:17:50.000Z</time>
      </trkpt>
      <trkpt lat="47.27498" lon="-2.24987">
        <ele>17.200000762939</ele>
        <time>2020-08-15T08:17:56.000Z</time>
      </trkpt>
      <trkpt lat="47.27518" lon="-2.25006">
        <ele>17.200000762939</ele>
        <time>2020-08-15T08:18:00.000Z</time>
      </trkpt>
      <trkpt lat="47.27532" lon="-2.2502">
        <ele>17.200000762939</ele>
        <time>2020-08-15T08:18:03.000Z</time>
      </trkpt>
      <trkpt lat="47.27539" lon="-2.25032">
        <ele>17.200000762939</ele>
        <time>2020-08-15T08:18:05.000Z</time>
      </trkpt>
      <trkpt lat="47.27562" lon="-2.25058">
        <ele>17.200000762939</ele>
        <time>2020-08-15T08:18:10.000Z</time>
      </trkpt>
      <trkpt lat="47.2759" lon="-2.25075">
        <ele>17.200000762939</ele>
        <time>2020-08-15T08:18:15.000Z</time>
      </trkpt>
      <trkpt lat="47.27625" lon="-2.25091">
        <ele>17.200000762939</ele>
        <time>2020-08-15T08:18:21.000Z</time>
      </trkpt>
      <trkpt lat="47.27642" lon="-2.25096">
        <ele>17.200000762939</ele>
        <time>2020-08-15T08:18:24.000Z</time>
      </trkpt>
      <trkpt lat="47.27653" lon="-2.25094">
        <ele>17.200000762939</ele>
        <time>2020-08-15T08:18:26.000Z</time>
      </trkpt>
      <trkpt lat="47.27682" lon="-2.25083">
        <ele>17.200000762939</ele>
        <time>2020-08-15T08:18:31.000Z</time>
      </trkpt>
      <trkpt lat="47.27703" lon="-2.25071">
        <ele>17.200000762939</ele>
        <time>2020-08-15T08:18:35.000Z</time>
      </trkpt>
      <trkpt lat="47.27734" lon="-2.25045">
        <ele>17.200000762939</ele>
        <time>2020-08-15T08:18:41.000Z</time>
      </trkpt>
      <trkpt lat="47.27764" lon="-2.25027">
        <ele>17.200000762939</ele>
        <time>2020-08-15T08:18:47.000Z</time>
      </trkpt>
      <trkpt lat="47.27782" lon="-2.25021">
        <ele>17.200000762939</ele>
        <time>2020-08-15T08:18:50.000Z</time>
      </trkpt>
      <trkpt lat="47.27793" lon="-2.25023">
        <ele>17.200000762939</ele>
        <time>2020-08-15T08:18:52.000Z</time>
      </trkpt>
      <trkpt lat="47.27804" lon="-2.25026">
        <ele>17.200000762939</ele>
        <time>2020-08-15T08:18:54.000Z</time>
      </trkpt>
      <trkpt lat="47.27821" lon="-2.25036">
        <ele>17.200000762939</ele>
        <time>2020-08-15T08:18:57.000Z</time>
      </trkpt>
      <trkpt lat="47.27849" lon="-2.25053">
        <ele>17.200000762939</ele>
        <time>2020-08-15T08:19:02.000Z</time>
      </trkpt>
      <trkpt lat="47.2788" lon="-2.25068">
        <ele>17.200000762939</ele>
        <time>2020-08-15T08:19:08.000Z</time>
      </trkpt>
      <trkpt lat="47.27896" lon="-2.2508">
        <ele>17.200000762939</ele>
        <time>2020-08-15T08:19:11.000Z</time>
      </trkpt>
      <trkpt lat="47.27902" lon="-2.25081">
        <ele>17.200000762939</ele>
        <time>2020-08-15T08:19:12.000Z</time>
      </trkpt>
      <trkpt lat="47.27918" lon="-2.25076">
        <ele>17.200000762939</ele>
        <time>2020-08-15T08:19:15.000Z</time>
      </trkpt>
      <trkpt lat="47.27924" lon="-2.25074">
        <ele>17.200000762939</ele>
        <time>2020-08-15T08:19:16.000Z</time>
      </trkpt>
      <trkpt lat="47.27948" lon="-2.25073">
        <ele>17.200000762939</ele>
        <time>2020-08-15T08:19:20.000Z</time>
      </trkpt>
      <trkpt lat="47.27954" lon="-2.25072">
        <ele>17.200000762939</ele>
        <time>2020-08-15T08:19:21.000Z</time>
      </trkpt>
      <trkpt lat="47.27975" lon="-2.25071">
        <ele>17.200000762939</ele>
        <time>2020-08-15T08:19:25.000Z</time>
      </trkpt>
      <trkpt lat="47.27985" lon="-2.25071">
        <ele>17.200000762939</ele>
        <time>2020-08-15T08:19:27.000Z</time>
      </trkpt>
      <trkpt lat="47.27994" lon="-2.25076">
        <ele>17.200000762939</ele>
        <time>2020-08-15T08:19:29.000Z</time>
      </trkpt>
      <trkpt lat="47.28022" lon="-2.25099">
        <ele>17.200000762939</ele>
        <time>2020-08-15T08:19:35.000Z</time>
      </trkpt>
      <trkpt lat="47.2806" lon="-2.25128">
        <ele>17.200000762939</ele>
        <time>2020-08-15T08:19:42.000Z</time>
      </trkpt>
      <trkpt lat="47.28095" lon="-2.25162">
        <ele>17.200000762939</ele>
        <time>2020-08-15T08:19:49.000Z</time>
      </trkpt>
      <trkpt lat="47.28098" lon="-2.25169">
        <ele>17.200000762939</ele>
        <time>2020-08-15T08:19:50.000Z</time>
      </trkpt>
      <trkpt lat="47.28104" lon="-2.25189">
        <ele>17.200000762939</ele>
        <time>2020-08-15T08:19:53.000Z</time>
      </trkpt>
      <trkpt lat="47.28102" lon="-2.25223">
        <ele>17.200000762939</ele>
        <time>2020-08-15T08:19:57.000Z</time>
      </trkpt>
      <trkpt lat="47.28094" lon="-2.25246">
        <ele>17.200000762939</ele>
        <time>2020-08-15T08:20:00.000Z</time>
      </trkpt>
      <trkpt lat="47.28092" lon="-2.25254">
        <ele>17.200000762939</ele>
        <time>2020-08-15T08:20:01.000Z</time>
      </trkpt>
      <trkpt lat="47.28086" lon="-2.25282">
        <ele>17.200000762939</ele>
        <time>2020-08-15T08:20:04.000Z</time>
      </trkpt>
      <trkpt lat="47.28085" lon="-2.25302">
        <ele>17.200000762939</ele>
        <time>2020-08-15T08:20:06.000Z</time>
      </trkpt>
      <trkpt lat="47.28085" lon="-2.25367">
        <ele>17.200000762939</ele>
        <time>2020-08-15T08:20:13.000Z</time>
      </trkpt>
      <trkpt lat="47.28084" lon="-2.25423">
        <ele>17.200000762939</ele>
        <time>2020-08-15T08:20:20.000Z</time>
      </trkpt>
      <trkpt lat="47.28086" lon="-2.25437">
        <ele>16.799999237061</ele>
        <time>2020-08-15T08:20:23.000Z</time>
      </trkpt>
      <trkpt lat="47.28087" lon="-2.25442">
        <ele>16.39999961853</ele>
        <time>2020-08-15T08:20:24.000Z</time>
      </trkpt>
      <trkpt lat="47.28089" lon="-2.25448">
        <ele>16</ele>
        <time>2020-08-15T08:20:25.000Z</time>
      </trkpt>
      <trkpt lat="47.2809" lon="-2.25454">
        <ele>15.60000038147</ele>
        <time>2020-08-15T08:20:26.000Z</time>
      </trkpt>
      <trkpt lat="47.28091" lon="-2.25461">
        <ele>15.199999809265</ele>
        <time>2020-08-15T08:20:27.000Z</time>
      </trkpt>
      <trkpt lat="47.28093" lon="-2.25466">
        <ele>15.199999809265</ele>
        <time>2020-08-15T08:20:28.000Z</time>
      </trkpt>
      <trkpt lat="47.28095" lon="-2.25469">
        <ele>15.199999809265</ele>
        <time>2020-08-15T08:20:29.000Z</time>
      </trkpt>
      <trkpt lat="47.28103" lon="-2.25473">
        <ele>15.199999809265</ele>
        <time>2020-08-15T08:20:32.000Z</time>
      </trkpt>
      <trkpt lat="47.28105" lon="-2.25473">
        <ele>15.199999809265</ele>
        <time>2020-08-15T08:20:33.000Z</time>
      </trkpt>
      <trkpt lat="47.28108" lon="-2.25471">
        <ele>15.199999809265</ele>
        <time>2020-08-15T08:20:34.000Z</time>
      </trkpt>
      <trkpt lat="47.28117" lon="-2.25463">
        <ele>15.199999809265</ele>
        <time>2020-08-15T08:20:37.000Z</time>
      </trkpt>
      <trkpt lat="47.28121" lon="-2.2546">
        <ele>15.60000038147</ele>
        <time>2020-08-15T08:20:38.000Z</time>
      </trkpt>
      <trkpt lat="47.28125" lon="-2.25458">
        <ele>16</ele>
        <time>2020-08-15T08:20:39.000Z</time>
      </trkpt>
      <trkpt lat="47.2813" lon="-2.25456">
        <ele>16.39999961853</ele>
        <time>2020-08-15T08:20:40.000Z</time>
      </trkpt>
      <trkpt lat="47.28134" lon="-2.25453">
        <ele>16.799999237061</ele>
        <time>2020-08-15T08:20:41.000Z</time>
      </trkpt>
      <trkpt lat="47.28139" lon="-2.25451">
        <ele>17.200000762939</ele>
        <time>2020-08-15T08:20:42.000Z</time>
      </trkpt>
      <trkpt lat="47.28148" lon="-2.25445">
        <ele>17.200000762939</ele>
        <time>2020-08-15T08:20:44.000Z</time>
      </trkpt>
      <trkpt lat="47.28156" lon="-2.2544">
        <ele>17.200000762939</ele>
        <time>2020-08-15T08:20:46.000Z</time>
      </trkpt>
      <trkpt lat="47.2816" lon="-2.25438">
        <ele>17.200000762939</ele>
        <time>2020-08-15T08:20:47.000Z</time>
      </trkpt>
      <trkpt lat="47.28168" lon="-2.25434">
        <ele>17.200000762939</ele>
        <time>2020-08-15T08:20:49.000Z</time>
      </trkpt>
      <trkpt lat="47.28179" lon="-2.25426">
        <ele>17.200000762939</ele>
        <time>2020-08-15T08:20:52.000Z</time>
      </trkpt>
      <trkpt lat="47.28186" lon="-2.2542">
        <ele>17.60000038147</ele>
        <time>2020-08-15T08:20:54.000Z</time>
      </trkpt>
      <trkpt lat="47.2819" lon="-2.25417">
        <ele>18.39999961853</ele>
        <time>2020-08-15T08:20:55.000Z</time>
      </trkpt>
      <trkpt lat="47.28195" lon="-2.25414">
        <ele>19</ele>
        <time>2020-08-15T08:20:56.000Z</time>
      </trkpt>
      <trkpt lat="47.28199" lon="-2.25411">
        <ele>19.39999961853</ele>
        <time>2020-08-15T08:20:57.000Z</time>
      </trkpt>
      <trkpt lat="47.28203" lon="-2.25408">
        <ele>19.39999961853</ele>
        <time>2020-08-15T08:20:58.000Z</time>
      </trkpt>
      <trkpt lat="47.28217" lon="-2.25398">
        <ele>19.799999237061</ele>
        <time>2020-08-15T08:21:02.000Z</time>
      </trkpt>
      <trkpt lat="47.28221" lon="-2.25395">
        <ele>20.200000762939</ele>
        <time>2020-08-15T08:21:03.000Z</time>
      </trkpt>
      <trkpt lat="47.28224" lon="-2.25392">
        <ele>20.60000038147</ele>
        <time>2020-08-15T08:21:04.000Z</time>
      </trkpt>
      <trkpt lat="47.28228" lon="-2.2539">
        <ele>21</ele>
        <time>2020-08-15T08:21:05.000Z</time>
      </trkpt>
      <trkpt lat="47.28231" lon="-2.25387">
        <ele>21.39999961853</ele>
        <time>2020-08-15T08:21:06.000Z</time>
      </trkpt>
      <trkpt lat="47.28246" lon="-2.25376">
        <ele>21.799999237061</ele>
        <time>2020-08-15T08:21:11.000Z</time>
      </trkpt>
      <trkpt lat="47.28249" lon="-2.25373">
        <ele>22.39999961853</ele>
        <time>2020-08-15T08:21:12.000Z</time>
      </trkpt>
      <trkpt lat="47.28253" lon="-2.25371">
        <ele>22.799999237061</ele>
        <time>2020-08-15T08:21:13.000Z</time>
      </trkpt>
      <trkpt lat="47.28256" lon="-2.2537">
        <ele>23.200000762939</ele>
        <time>2020-08-15T08:21:14.000Z</time>
      </trkpt>
      <trkpt lat="47.2826" lon="-2.25369">
        <ele>23.60000038147</ele>
        <time>2020-08-15T08:21:15.000Z</time>
      </trkpt>
      <trkpt lat="47.28263" lon="-2.25368">
        <ele>23.60000038147</ele>
        <time>2020-08-15T08:21:16.000Z</time>
      </trkpt>
      <trkpt lat="47.28292" lon="-2.25365">
        <ele>23.60000038147</ele>
        <time>2020-08-15T08:21:23.000Z</time>
      </trkpt>
      <trkpt lat="47.283" lon="-2.25362">
        <ele>24</ele>
        <time>2020-08-15T08:21:25.000Z</time>
      </trkpt>
      <trkpt lat="47.28305" lon="-2.2536">
        <ele>24.39999961853</ele>
        <time>2020-08-15T08:21:26.000Z</time>
      </trkpt>
      <trkpt lat="47.2831" lon="-2.25357">
        <ele>25</ele>
        <time>2020-08-15T08:21:27.000Z</time>
      </trkpt>
      <trkpt lat="47.28314" lon="-2.25356">
        <ele>25.39999961853</ele>
        <time>2020-08-15T08:21:28.000Z</time>
      </trkpt>
      <trkpt lat="47.28318" lon="-2.25355">
        <ele>25.799999237061</ele>
        <time>2020-08-15T08:21:29.000Z</time>
      </trkpt>
      <trkpt lat="47.28321" lon="-2.25354">
        <ele>25.799999237061</ele>
        <time>2020-08-15T08:21:30.000Z</time>
      </trkpt>
      <trkpt lat="47.28336" lon="-2.25342">
        <ele>25.799999237061</ele>
        <time>2020-08-15T08:21:35.000Z</time>
      </trkpt>
      <trkpt lat="47.28357" lon="-2.25331">
        <ele>25.799999237061</ele>
        <time>2020-08-15T08:21:41.000Z</time>
      </trkpt>
      <trkpt lat="47.28372" lon="-2.25321">
        <ele>25.799999237061</ele>
        <time>2020-08-15T08:21:46.000Z</time>
      </trkpt>
      <trkpt lat="47.28387" lon="-2.25308">
        <ele>25.799999237061</ele>
        <time>2020-08-15T08:21:51.000Z</time>
      </trkpt>
      <trkpt lat="47.28393" lon="-2.25284">
        <ele>25.799999237061</ele>
        <time>2020-08-15T08:21:56.000Z</time>
      </trkpt>
      <trkpt lat="47.284" lon="-2.25246">
        <ele>25.799999237061</ele>
        <time>2020-08-15T08:22:02.000Z</time>
      </trkpt>
      <trkpt lat="47.28406" lon="-2.25197">
        <ele>25.39999961853</ele>
        <time>2020-08-15T08:22:07.000Z</time>
      </trkpt>
      <trkpt lat="47.28407" lon="-2.25186">
        <ele>25</ele>
        <time>2020-08-15T08:22:08.000Z</time>
      </trkpt>
      <trkpt lat="47.28408" lon="-2.25175">
        <ele>24.60000038147</ele>
        <time>2020-08-15T08:22:09.000Z</time>
      </trkpt>
      <trkpt lat="47.28409" lon="-2.25163">
        <ele>23.799999237061</ele>
        <time>2020-08-15T08:22:10.000Z</time>
      </trkpt>
      <trkpt lat="47.28409" lon="-2.25138">
        <ele>23.200000762939</ele>
        <time>2020-08-15T08:22:12.000Z</time>
      </trkpt>
      <trkpt lat="47.28408" lon="-2.25124">
        <ele>22.799999237061</ele>
        <time>2020-08-15T08:22:13.000Z</time>
      </trkpt>
      <trkpt lat="47.28407" lon="-2.25111">
        <ele>22.39999961853</ele>
        <time>2020-08-15T08:22:14.000Z</time>
      </trkpt>
      <trkpt lat="47.28406" lon="-2.25098">
        <ele>22</ele>
        <time>2020-08-15T08:22:15.000Z</time>
      </trkpt>
      <trkpt lat="47.28405" lon="-2.25084">
        <ele>21.60000038147</ele>
        <time>2020-08-15T08:22:16.000Z</time>
      </trkpt>
      <trkpt lat="47.28403" lon="-2.25057">
        <ele>21</ele>
        <time>2020-08-15T08:22:18.000Z</time>
      </trkpt>
      <trkpt lat="47.28401" lon="-2.25043">
        <ele>20.39999961853</ele>
        <time>2020-08-15T08:22:19.000Z</time>
      </trkpt>
      <trkpt lat="47.284" lon="-2.25029">
        <ele>20</ele>
        <time>2020-08-15T08:22:20.000Z</time>
      </trkpt>
      <trkpt lat="47.28399" lon="-2.25014">
        <ele>19.200000762939</ele>
        <time>2020-08-15T08:22:21.000Z</time>
      </trkpt>
      <trkpt lat="47.28398" lon="-2.24999">
        <ele>18.60000038147</ele>
        <time>2020-08-15T08:22:22.000Z</time>
      </trkpt>
      <trkpt lat="47.28396" lon="-2.24985">
        <ele>17.799999237061</ele>
        <time>2020-08-15T08:22:23.000Z</time>
      </trkpt>
      <trkpt lat="47.28395" lon="-2.2497">
        <ele>17.200000762939</ele>
        <time>2020-08-15T08:22:24.000Z</time>
      </trkpt>
      <trkpt lat="47.28394" lon="-2.24955">
        <ele>16.39999961853</ele>
        <time>2020-08-15T08:22:25.000Z</time>
      </trkpt>
      <trkpt lat="47.28392" lon="-2.2494">
        <ele>16</ele>
        <time>2020-08-15T08:22:26.000Z</time>
      </trkpt>
      <trkpt lat="47.28391" lon="-2.24926">
        <ele>15.39999961853</ele>
        <time>2020-08-15T08:22:27.000Z</time>
      </trkpt>
      <trkpt lat="47.2839" lon="-2.24911">
        <ele>14.800000190735</ele>
        <time>2020-08-15T08:22:28.000Z</time>
      </trkpt>
      <trkpt lat="47.28389" lon="-2.24897">
        <ele>14</ele>
        <time>2020-08-15T08:22:29.000Z</time>
      </trkpt>
      <trkpt lat="47.28388" lon="-2.24884">
        <ele>13.199999809265</ele>
        <time>2020-08-15T08:22:30.000Z</time>
      </trkpt>
      <trkpt lat="47.28387" lon="-2.24871">
        <ele>12.39999961853</ele>
        <time>2020-08-15T08:22:31.000Z</time>
      </trkpt>
      <trkpt lat="47.28387" lon="-2.24858">
        <ele>11.800000190735</ele>
        <time>2020-08-15T08:22:32.000Z</time>
      </trkpt>
      <trkpt lat="47.28386" lon="-2.24848">
        <ele>11.800000190735</ele>
        <time>2020-08-15T08:22:33.000Z</time>
      </trkpt>
      <trkpt lat="47.28386" lon="-2.24839">
        <ele>10.800000190735</ele>
        <time>2020-08-15T08:22:34.000Z</time>
      </trkpt>
      <trkpt lat="47.28385" lon="-2.24831">
        <ele>10.199999809265</ele>
        <time>2020-08-15T08:22:35.000Z</time>
      </trkpt>
      <trkpt lat="47.28385" lon="-2.24823">
        <ele>9.6000003814697</ele>
        <time>2020-08-15T08:22:36.000Z</time>
      </trkpt>
      <trkpt lat="47.28386" lon="-2.24817">
        <ele>9.1999998092651</ele>
        <time>2020-08-15T08:22:37.000Z</time>
      </trkpt>
      <trkpt lat="47.28391" lon="-2.24811">
        <ele>9.1999998092651</ele>
        <time>2020-08-15T08:22:39.000Z</time>
      </trkpt>
      <trkpt lat="47.28394" lon="-2.24812">
        <ele>8.8000001907349</ele>
        <time>2020-08-15T08:22:40.000Z</time>
      </trkpt>
      <trkpt lat="47.28397" lon="-2.24815">
        <ele>8.1999998092651</ele>
        <time>2020-08-15T08:22:41.000Z</time>
      </trkpt>
      <trkpt lat="47.28399" lon="-2.24818">
        <ele>7.8000001907349</ele>
        <time>2020-08-15T08:22:42.000Z</time>
      </trkpt>
      <trkpt lat="47.28402" lon="-2.24822">
        <ele>7.4000000953674</ele>
        <time>2020-08-15T08:22:43.000Z</time>
      </trkpt>
      <trkpt lat="47.28404" lon="-2.24825">
        <ele>7</ele>
        <time>2020-08-15T08:22:44.000Z</time>
      </trkpt>
      <trkpt lat="47.28412" lon="-2.24826">
        <ele>7</ele>
        <time>2020-08-15T08:22:47.000Z</time>
      </trkpt>
      <trkpt lat="47.28426" lon="-2.24817">
        <ele>7</ele>
        <time>2020-08-15T08:22:52.000Z</time>
      </trkpt>
      <trkpt lat="47.28435" lon="-2.2481">
        <ele>7</ele>
        <time>2020-08-15T08:22:55.000Z</time>
      </trkpt>
      <trkpt lat="47.28447" lon="-2.24802">
        <ele>7</ele>
        <time>2020-08-15T08:22:58.000Z</time>
      </trkpt>
      <trkpt lat="47.28482" lon="-2.24784">
        <ele>7</ele>
        <time>2020-08-15T08:23:05.000Z</time>
      </trkpt>
      <trkpt lat="47.28518" lon="-2.24764">
        <ele>7</ele>
        <time>2020-08-15T08:23:11.000Z</time>
      </trkpt>
      <trkpt lat="47.28549" lon="-2.24748">
        <ele>7</ele>
        <time>2020-08-15T08:23:16.000Z</time>
      </trkpt>
      <trkpt lat="47.28579" lon="-2.24736">
        <ele>7</ele>
        <time>2020-08-15T08:23:21.000Z</time>
      </trkpt>
      <trkpt lat="47.28606" lon="-2.2473">
        <ele>7</ele>
        <time>2020-08-15T08:23:26.000Z</time>
      </trkpt>
      <trkpt lat="47.28626" lon="-2.24726">
        <ele>7</ele>
        <time>2020-08-15T08:23:30.000Z</time>
      </trkpt>
      <trkpt lat="47.28634" lon="-2.24724">
        <ele>7</ele>
        <time>2020-08-15T08:23:32.000Z</time>
      </trkpt>
      <trkpt lat="47.28652" lon="-2.24715">
        <ele>7</ele>
        <time>2020-08-15T08:23:38.000Z</time>
      </trkpt>
      <trkpt lat="47.28655" lon="-2.24713">
        <ele>7</ele>
        <time>2020-08-15T08:23:41.000Z</time>
      </trkpt>
      <trkpt lat="47.28657" lon="-2.24711">
        <ele>7</ele>
        <time>2020-08-15T08:23:42.000Z</time>
      </trkpt>
      <trkpt lat="47.28667" lon="-2.24706">
        <ele>7</ele>
        <time>2020-08-15T08:23:46.000Z</time>
      </trkpt>
      <trkpt lat="47.28671" lon="-2.24694">
        <ele>7</ele>
        <time>2020-08-15T08:23:48.000Z</time>
      </trkpt>
      <trkpt lat="47.28673" lon="-2.24688">
        <ele>7</ele>
        <time>2020-08-15T08:23:49.000Z</time>
      </trkpt>
      <trkpt lat="47.28688" lon="-2.24669">
        <ele>7</ele>
        <time>2020-08-15T08:23:53.000Z</time>
      </trkpt>
      <trkpt lat="47.28714" lon="-2.24642">
        <ele>7</ele>
        <time>2020-08-15T08:23:59.000Z</time>
      </trkpt>
      <trkpt lat="47.28726" lon="-2.24626">
        <ele>7</ele>
        <time>2020-08-15T08:24:02.000Z</time>
      </trkpt>
      <trkpt lat="47.28732" lon="-2.24612">
        <ele>7</ele>
        <time>2020-08-15T08:24:04.000Z</time>
      </trkpt>
      <trkpt lat="47.28748" lon="-2.24565">
        <ele>7</ele>
        <time>2020-08-15T08:24:10.000Z</time>
      </trkpt>
      <trkpt lat="47.28755" lon="-2.2454">
        <ele>7</ele>
        <time>2020-08-15T08:24:13.000Z</time>
      </trkpt>
      <trkpt lat="47.28756" lon="-2.24522">
        <ele>7</ele>
        <time>2020-08-15T08:24:15.000Z</time>
      </trkpt>
      <trkpt lat="47.28755" lon="-2.24508">
        <ele>7</ele>
        <time>2020-08-15T08:24:17.000Z</time>
      </trkpt>
      <trkpt lat="47.28752" lon="-2.24494">
        <ele>7</ele>
        <time>2020-08-15T08:24:19.000Z</time>
      </trkpt>
      <trkpt lat="47.2875" lon="-2.24474">
        <ele>7</ele>
        <time>2020-08-15T08:24:22.000Z</time>
      </trkpt>
      <trkpt lat="47.28752" lon="-2.24459">
        <ele>7</ele>
        <time>2020-08-15T08:24:24.000Z</time>
      </trkpt>
      <trkpt lat="47.28754" lon="-2.24444">
        <ele>7</ele>
        <time>2020-08-15T08:24:26.000Z</time>
      </trkpt>
      <trkpt lat="47.2876" lon="-2.24422">
        <ele>7</ele>
        <time>2020-08-15T08:24:29.000Z</time>
      </trkpt>
      <trkpt lat="47.28769" lon="-2.24384">
        <ele>7</ele>
        <time>2020-08-15T08:24:34.000Z</time>
      </trkpt>
      <trkpt lat="47.28771" lon="-2.24377">
        <ele>7</ele>
        <time>2020-08-15T08:24:35.000Z</time>
      </trkpt>
      <trkpt lat="47.28779" lon="-2.24345">
        <ele>7</ele>
        <time>2020-08-15T08:24:39.000Z</time>
      </trkpt>
      <trkpt lat="47.28782" lon="-2.24329">
        <ele>7</ele>
        <time>2020-08-15T08:24:41.000Z</time>
      </trkpt>
      <trkpt lat="47.28783" lon="-2.24304">
        <ele>7</ele>
        <time>2020-08-15T08:24:44.000Z</time>
      </trkpt>
      <trkpt lat="47.28783" lon="-2.24279">
        <ele>7</ele>
        <time>2020-08-15T08:24:47.000Z</time>
      </trkpt>
      <trkpt lat="47.28782" lon="-2.24257">
        <ele>7</ele>
        <time>2020-08-15T08:24:50.000Z</time>
      </trkpt>
      <trkpt lat="47.28783" lon="-2.24226">
        <ele>7</ele>
        <time>2020-08-15T08:24:55.000Z</time>
      </trkpt>
      <trkpt lat="47.28783" lon="-2.24185">
        <ele>7</ele>
        <time>2020-08-15T08:25:00.000Z</time>
      </trkpt>
      <trkpt lat="47.28783" lon="-2.24135">
        <ele>7</ele>
        <time>2020-08-15T08:25:06.000Z</time>
      </trkpt>
      <trkpt lat="47.28786" lon="-2.24074">
        <ele>7</ele>
        <time>2020-08-15T08:25:12.000Z</time>
      </trkpt>
      <trkpt lat="47.2879" lon="-2.24023">
        <ele>7</ele>
        <time>2020-08-15T08:25:18.000Z</time>
      </trkpt>
      <trkpt lat="47.28796" lon="-2.2396">
        <ele>7</ele>
        <time>2020-08-15T08:25:25.000Z</time>
      </trkpt>
      <trkpt lat="47.288" lon="-2.23908">
        <ele>7</ele>
        <time>2020-08-15T08:25:31.000Z</time>
      </trkpt>
      <trkpt lat="47.28803" lon="-2.2387">
        <ele>7</ele>
        <time>2020-08-15T08:25:35.000Z</time>
      </trkpt>
      <trkpt lat="47.28803" lon="-2.23861">
        <ele>7</ele>
        <time>2020-08-15T08:25:36.000Z</time>
      </trkpt>
      <trkpt lat="47.28792" lon="-2.23825">
        <ele>7</ele>
        <time>2020-08-15T08:25:40.000Z</time>
      </trkpt>
      <trkpt lat="47.28776" lon="-2.23796">
        <ele>7</ele>
        <time>2020-08-15T08:25:44.000Z</time>
      </trkpt>
      <trkpt lat="47.28772" lon="-2.23788">
        <ele>7</ele>
        <time>2020-08-15T08:25:45.000Z</time>
      </trkpt>
      <trkpt lat="47.28746" lon="-2.23741">
        <ele>7</ele>
        <time>2020-08-15T08:25:51.000Z</time>
      </trkpt>
      <trkpt lat="47.28718" lon="-2.2369">
        <ele>7</ele>
        <time>2020-08-15T08:25:58.000Z</time>
      </trkpt>
      <trkpt lat="47.28693" lon="-2.23645">
        <ele>7</ele>
        <time>2020-08-15T08:26:04.000Z</time>
      </trkpt>
      <trkpt lat="47.2867" lon="-2.23604">
        <ele>7</ele>
        <time>2020-08-15T08:26:10.000Z</time>
      </trkpt>
      <trkpt lat="47.28665" lon="-2.23597">
        <ele>6.5999999046326</ele>
        <time>2020-08-15T08:26:12.000Z</time>
      </trkpt>
      <trkpt lat="47.28663" lon="-2.23595">
        <ele>6</ele>
        <time>2020-08-15T08:26:13.000Z</time>
      </trkpt>
      <trkpt lat="47.28661" lon="-2.23594">
        <ele>5.5999999046326</ele>
        <time>2020-08-15T08:26:14.000Z</time>
      </trkpt>
      <trkpt lat="47.28659" lon="-2.23594">
        <ele>4.5999999046326</ele>
        <time>2020-08-15T08:26:15.000Z</time>
      </trkpt>
      <trkpt lat="47.28652" lon="-2.23589">
        <ele>4.5999999046326</ele>
        <time>2020-08-15T08:26:19.000Z</time>
      </trkpt>
      <trkpt lat="47.28651" lon="-2.23588">
        <ele>4.5999999046326</ele>
        <time>2020-08-15T08:26:21.000Z</time>
      </trkpt>
      <trkpt lat="47.28642" lon="-2.23588">
        <ele>4.5999999046326</ele>
        <time>2020-08-15T08:33:51.000Z</time>
      </trkpt>
      <trkpt lat="47.28644" lon="-2.23588">
        <ele>4.5999999046326</ele>
        <time>2020-08-15T08:33:52.000Z</time>
      </trkpt>
      <trkpt lat="47.28647" lon="-2.23589">
        <ele>4.5999999046326</ele>
        <time>2020-08-15T08:33:55.000Z</time>
      </trkpt>
      <trkpt lat="47.28649" lon="-2.23589">
        <ele>4.5999999046326</ele>
        <time>2020-08-15T08:33:58.000Z</time>
      </trkpt>
      <trkpt lat="47.2865" lon="-2.23587">
        <ele>4.5999999046326</ele>
        <time>2020-08-15T08:34:01.000Z</time>
      </trkpt>
      <trkpt lat="47.28652" lon="-2.23584">
        <ele>4.5999999046326</ele>
        <time>2020-08-15T08:34:35.000Z</time>
      </trkpt>
      <trkpt lat="47.28651" lon="-2.23581">
        <ele>4.5999999046326</ele>
        <time>2020-08-15T08:34:36.000Z</time>
      </trkpt>
      <trkpt lat="47.28643" lon="-2.23574">
        <ele>4.5999999046326</ele>
        <time>2020-08-15T08:34:40.000Z</time>
      </trkpt>
      <trkpt lat="47.28641" lon="-2.23564">
        <ele>4.5999999046326</ele>
        <time>2020-08-15T08:34:43.000Z</time>
      </trkpt>
      <trkpt lat="47.28649" lon="-2.23553">
        <ele>4.5999999046326</ele>
        <time>2020-08-15T08:34:47.000Z</time>
      </trkpt>
      <trkpt lat="47.28653" lon="-2.23529">
        <ele>4.5999999046326</ele>
        <time>2020-08-15T08:34:51.000Z</time>
      </trkpt>
      <trkpt lat="47.28655" lon="-2.23504">
        <ele>4.5999999046326</ele>
        <time>2020-08-15T08:34:55.000Z</time>
      </trkpt>
      <trkpt lat="47.28658" lon="-2.23475">
        <ele>4.5999999046326</ele>
        <time>2020-08-15T08:35:00.000Z</time>
      </trkpt>
      <trkpt lat="47.28656" lon="-2.23437">
        <ele>4.5999999046326</ele>
        <time>2020-08-15T08:35:07.000Z</time>
      </trkpt>
      <trkpt lat="47.28645" lon="-2.23406">
        <ele>4.5999999046326</ele>
        <time>2020-08-15T08:35:12.000Z</time>
      </trkpt>
      <trkpt lat="47.28644" lon="-2.23392">
        <ele>4.5999999046326</ele>
        <time>2020-08-15T08:35:14.000Z</time>
      </trkpt>
      <trkpt lat="47.28647" lon="-2.23375">
        <ele>4.5999999046326</ele>
        <time>2020-08-15T08:35:17.000Z</time>
      </trkpt>
      <trkpt lat="47.28649" lon="-2.23372">
        <ele>4.5999999046326</ele>
        <time>2020-08-15T08:35:18.000Z</time>
      </trkpt>
      <trkpt lat="47.28651" lon="-2.23363">
        <ele>4.5999999046326</ele>
        <time>2020-08-15T08:35:22.000Z</time>
      </trkpt>
      <trkpt lat="47.28657" lon="-2.2336">
        <ele>4.5999999046326</ele>
        <time>2020-08-15T08:35:25.000Z</time>
      </trkpt>
      <trkpt lat="47.28661" lon="-2.23362">
        <ele>4.5999999046326</ele>
        <time>2020-08-15T08:35:27.000Z</time>
      </trkpt>
      <trkpt lat="47.28669" lon="-2.23356">
        <ele>4.5999999046326</ele>
        <time>2020-08-15T08:35:32.000Z</time>
      </trkpt>
      <trkpt lat="47.28671" lon="-2.23346">
        <ele>4.5999999046326</ele>
        <time>2020-08-15T08:35:37.000Z</time>
      </trkpt>
      <trkpt lat="47.28672" lon="-2.23332">
        <ele>4.5999999046326</ele>
        <time>2020-08-15T08:35:42.000Z</time>
      </trkpt>
      <trkpt lat="47.28674" lon="-2.23313">
        <ele>4.5999999046326</ele>
        <time>2020-08-15T08:35:49.000Z</time>
      </trkpt>
      <trkpt lat="47.28674" lon="-2.2331">
        <ele>4.5999999046326</ele>
        <time>2020-08-15T08:35:50.000Z</time>
      </trkpt>
      <trkpt lat="47.28676" lon="-2.23298">
        <ele>4.5999999046326</ele>
        <time>2020-08-15T08:35:54.000Z</time>
      </trkpt>
      <trkpt lat="47.28675" lon="-2.23293">
        <ele>4.5999999046326</ele>
        <time>2020-08-15T08:35:55.000Z</time>
      </trkpt>
      <trkpt lat="47.28678" lon="-2.23281">
        <ele>4.5999999046326</ele>
        <time>2020-08-15T08:35:58.000Z</time>
      </trkpt>
      <trkpt lat="47.28682" lon="-2.23252">
        <ele>4.5999999046326</ele>
        <time>2020-08-15T08:36:03.000Z</time>
      </trkpt>
      <trkpt lat="47.28682" lon="-2.23246">
        <ele>4.5999999046326</ele>
        <time>2020-08-15T08:36:04.000Z</time>
      </trkpt>
      <trkpt lat="47.28681" lon="-2.23222">
        <ele>4.5999999046326</ele>
        <time>2020-08-15T08:36:08.000Z</time>
      </trkpt>
      <trkpt lat="47.28672" lon="-2.232">
        <ele>4.5999999046326</ele>
        <time>2020-08-15T08:36:11.000Z</time>
      </trkpt>
      <trkpt lat="47.28669" lon="-2.23194">
        <ele>4.5999999046326</ele>
        <time>2020-08-15T08:36:12.000Z</time>
      </trkpt>
      <trkpt lat="47.28665" lon="-2.23188">
        <ele>4.5999999046326</ele>
        <time>2020-08-15T08:36:13.000Z</time>
      </trkpt>
      <trkpt lat="47.28655" lon="-2.2318">
        <ele>4.5999999046326</ele>
        <time>2020-08-15T08:36:15.000Z</time>
      </trkpt>
      <trkpt lat="47.2864" lon="-2.23181">
        <ele>4.5999999046326</ele>
        <time>2020-08-15T08:36:18.000Z</time>
      </trkpt>
      <trkpt lat="47.28626" lon="-2.23189">
        <ele>4.5999999046326</ele>
        <time>2020-08-15T08:36:21.000Z</time>
      </trkpt>
      <trkpt lat="47.28617" lon="-2.23195">
        <ele>4.5999999046326</ele>
        <time>2020-08-15T08:36:23.000Z</time>
      </trkpt>
      <trkpt lat="47.28604" lon="-2.23206">
        <ele>4.5999999046326</ele>
        <time>2020-08-15T08:36:26.000Z</time>
      </trkpt>
      <trkpt lat="47.28598" lon="-2.23219">
        <ele>4.5999999046326</ele>
        <time>2020-08-15T08:36:28.000Z</time>
      </trkpt>
      <trkpt lat="47.28593" lon="-2.23243">
        <ele>4.5999999046326</ele>
        <time>2020-08-15T08:36:31.000Z</time>
      </trkpt>
      <trkpt lat="47.28592" lon="-2.2325">
        <ele>4.5999999046326</ele>
        <time>2020-08-15T08:36:32.000Z</time>
      </trkpt>
      <trkpt lat="47.28589" lon="-2.23274">
        <ele>4.5999999046326</ele>
        <time>2020-08-15T08:36:35.000Z</time>
      </trkpt>
      <trkpt lat="47.2859" lon="-2.23289">
        <ele>4.5999999046326</ele>
        <time>2020-08-15T08:36:37.000Z</time>
      </trkpt>
      <trkpt lat="47.2859" lon="-2.23338">
        <ele>4.5999999046326</ele>
        <time>2020-08-15T08:36:43.000Z</time>
      </trkpt>
      <trkpt lat="47.28589" lon="-2.23346">
        <ele>4.5999999046326</ele>
        <time>2020-08-15T08:36:44.000Z</time>
      </trkpt>
      <trkpt lat="47.28585" lon="-2.2338">
        <ele>4.5999999046326</ele>
        <time>2020-08-15T08:36:48.000Z</time>
      </trkpt>
      <trkpt lat="47.28581" lon="-2.23404">
        <ele>4.5999999046326</ele>
        <time>2020-08-15T08:36:51.000Z</time>
      </trkpt>
      <trkpt lat="47.2858" lon="-2.23421">
        <ele>4.5999999046326</ele>
        <time>2020-08-15T08:36:53.000Z</time>
      </trkpt>
      <trkpt lat="47.2858" lon="-2.23469">
        <ele>4.5999999046326</ele>
        <time>2020-08-15T08:36:58.000Z</time>
      </trkpt>
      <trkpt lat="47.28579" lon="-2.23514">
        <ele>4.5999999046326</ele>
        <time>2020-08-15T08:37:03.000Z</time>
      </trkpt>
      <trkpt lat="47.28583" lon="-2.2354">
        <ele>4.5999999046326</ele>
        <time>2020-08-15T08:37:07.000Z</time>
      </trkpt>
      <trkpt lat="47.28587" lon="-2.23546">
        <ele>4.5999999046326</ele>
        <time>2020-08-15T08:37:08.000Z</time>
      </trkpt>
      <trkpt lat="47.28604" lon="-2.23559">
        <ele>4.5999999046326</ele>
        <time>2020-08-15T08:37:12.000Z</time>
      </trkpt>
      <trkpt lat="47.28615" lon="-2.23565">
        <ele>4.5999999046326</ele>
        <time>2020-08-15T08:37:14.000Z</time>
      </trkpt>
      <trkpt lat="47.28633" lon="-2.23567">
        <ele>4.5999999046326</ele>
        <time>2020-08-15T08:37:17.000Z</time>
      </trkpt>
      <trkpt lat="47.28646" lon="-2.23563">
        <ele>4.5999999046326</ele>
        <time>2020-08-15T08:37:19.000Z</time>
      </trkpt>
      <trkpt lat="47.28663" lon="-2.23562">
        <ele>4.5999999046326</ele>
        <time>2020-08-15T08:37:22.000Z</time>
      </trkpt>
      <trkpt lat="47.28684" lon="-2.23579">
        <ele>4.5999999046326</ele>
        <time>2020-08-15T08:37:26.000Z</time>
      </trkpt>
      <trkpt lat="47.28702" lon="-2.23596">
        <ele>4.5999999046326</ele>
        <time>2020-08-15T08:37:30.000Z</time>
      </trkpt>
      <trkpt lat="47.28717" lon="-2.23587">
        <ele>4.5999999046326</ele>
        <time>2020-08-15T08:37:33.000Z</time>
      </trkpt>
      <trkpt lat="47.28731" lon="-2.23562">
        <ele>4.5999999046326</ele>
        <time>2020-08-15T08:37:37.000Z</time>
      </trkpt>
      <trkpt lat="47.28738" lon="-2.23549">
        <ele>4.5999999046326</ele>
        <time>2020-08-15T08:37:39.000Z</time>
      </trkpt>
      <trkpt lat="47.28746" lon="-2.23541">
        <ele>4.5999999046326</ele>
        <time>2020-08-15T08:37:41.000Z</time>
      </trkpt>
      <trkpt lat="47.28763" lon="-2.23528">
        <ele>5</ele>
        <time>2020-08-15T08:37:45.000Z</time>
      </trkpt>
      <trkpt lat="47.28767" lon="-2.23525">
        <ele>5.4000000953674</ele>
        <time>2020-08-15T08:37:46.000Z</time>
      </trkpt>
      <trkpt lat="47.28771" lon="-2.23523">
        <ele>6</ele>
        <time>2020-08-15T08:37:47.000Z</time>
      </trkpt>
      <trkpt lat="47.28774" lon="-2.23521">
        <ele>6.8000001907349</ele>
        <time>2020-08-15T08:37:48.000Z</time>
      </trkpt>
      <trkpt lat="47.28799" lon="-2.23514">
        <ele>6.8000001907349</ele>
        <time>2020-08-15T08:37:53.000Z</time>
      </trkpt>
      <trkpt lat="47.28803" lon="-2.23513">
        <ele>7.1999998092651</ele>
        <time>2020-08-15T08:37:54.000Z</time>
      </trkpt>
      <trkpt lat="47.28808" lon="-2.23512">
        <ele>7.5999999046326</ele>
        <time>2020-08-15T08:37:55.000Z</time>
      </trkpt>
      <trkpt lat="47.28813" lon="-2.23512">
        <ele>8</ele>
        <time>2020-08-15T08:37:56.000Z</time>
      </trkpt>
      <trkpt lat="47.28817" lon="-2.23512">
        <ele>8.6000003814697</ele>
        <time>2020-08-15T08:37:57.000Z</time>
      </trkpt>
      <trkpt lat="47.28821" lon="-2.23511">
        <ele>9</ele>
        <time>2020-08-15T08:37:58.000Z</time>
      </trkpt>
      <trkpt lat="47.28825" lon="-2.2351">
        <ele>9</ele>
        <time>2020-08-15T08:37:59.000Z</time>
      </trkpt>
      <trkpt lat="47.28849" lon="-2.23507">
        <ele>9</ele>
        <time>2020-08-15T08:38:05.000Z</time>
      </trkpt>
      <trkpt lat="47.28866" lon="-2.23506">
        <ele>9.3999996185303</ele>
        <time>2020-08-15T08:38:09.000Z</time>
      </trkpt>
      <trkpt lat="47.2887" lon="-2.23506">
        <ele>9.8000001907349</ele>
        <time>2020-08-15T08:38:10.000Z</time>
      </trkpt>
      <trkpt lat="47.28874" lon="-2.23505">
        <ele>10.199999809265</ele>
        <time>2020-08-15T08:38:11.000Z</time>
      </trkpt>
      <trkpt lat="47.28878" lon="-2.23505">
        <ele>10.60000038147</ele>
        <time>2020-08-15T08:38:12.000Z</time>
      </trkpt>
      <trkpt lat="47.28882" lon="-2.23505">
        <ele>11</ele>
        <time>2020-08-15T08:38:13.000Z</time>
      </trkpt>
      <trkpt lat="47.28901" lon="-2.23506">
        <ele>11</ele>
        <time>2020-08-15T08:38:18.000Z</time>
      </trkpt>
      <trkpt lat="47.28927" lon="-2.23499">
        <ele>11</ele>
        <time>2020-08-15T08:38:25.000Z</time>
      </trkpt>
      <trkpt lat="47.28949" lon="-2.23493">
        <ele>11</ele>
        <time>2020-08-15T08:38:31.000Z</time>
      </trkpt>
      <trkpt lat="47.2896" lon="-2.23488">
        <ele>11</ele>
        <time>2020-08-15T08:38:34.000Z</time>
      </trkpt>
      <trkpt lat="47.28961" lon="-2.23483">
        <ele>11</ele>
        <time>2020-08-15T08:38:35.000Z</time>
      </trkpt>
      <trkpt lat="47.28961" lon="-2.23464">
        <ele>11.800000190735</ele>
        <time>2020-08-15T08:38:38.000Z</time>
      </trkpt>
      <trkpt lat="47.28962" lon="-2.23456">
        <ele>12.199999809265</ele>
        <time>2020-08-15T08:38:39.000Z</time>
      </trkpt>
      <trkpt lat="47.28962" lon="-2.23449">
        <ele>12.60000038147</ele>
        <time>2020-08-15T08:38:40.000Z</time>
      </trkpt>
      <trkpt lat="47.28963" lon="-2.2344">
        <ele>13</ele>
        <time>2020-08-15T08:38:41.000Z</time>
      </trkpt>
      <trkpt lat="47.28964" lon="-2.23422">
        <ele>13</ele>
        <time>2020-08-15T08:38:43.000Z</time>
      </trkpt>
      <trkpt lat="47.28971" lon="-2.23346">
        <ele>13</ele>
        <time>2020-08-15T08:38:51.000Z</time>
      </trkpt>
      <trkpt lat="47.28979" lon="-2.23261">
        <ele>13</ele>
        <time>2020-08-15T08:38:59.000Z</time>
      </trkpt>
      <trkpt lat="47.28985" lon="-2.23192">
        <ele>12.60000038147</ele>
        <time>2020-08-15T08:39:05.000Z</time>
      </trkpt>
      <trkpt lat="47.28987" lon="-2.2318">
        <ele>12</ele>
        <time>2020-08-15T08:39:06.000Z</time>
      </trkpt>
      <trkpt lat="47.28989" lon="-2.23168">
        <ele>11.60000038147</ele>
        <time>2020-08-15T08:39:07.000Z</time>
      </trkpt>
      <trkpt lat="47.2899" lon="-2.23155">
        <ele>11</ele>
        <time>2020-08-15T08:39:08.000Z</time>
      </trkpt>
      <trkpt lat="47.28992" lon="-2.23143">
        <ele>10.60000038147</ele>
        <time>2020-08-15T08:39:09.000Z</time>
      </trkpt>
      <trkpt lat="47.29" lon="-2.23083">
        <ele>10</ele>
        <time>2020-08-15T08:39:14.000Z</time>
      </trkpt>
      <trkpt lat="47.29003" lon="-2.23072">
        <ele>9.6000003814697</ele>
        <time>2020-08-15T08:39:15.000Z</time>
      </trkpt>
      <trkpt lat="47.29005" lon="-2.23061">
        <ele>9</ele>
        <time>2020-08-15T08:39:16.000Z</time>
      </trkpt>
      <trkpt lat="47.29008" lon="-2.2305">
        <ele>8.6000003814697</ele>
        <time>2020-08-15T08:39:17.000Z</time>
      </trkpt>
      <trkpt lat="47.29012" lon="-2.2304">
        <ele>8</ele>
        <time>2020-08-15T08:39:18.000Z</time>
      </trkpt>
      <trkpt lat="47.29015" lon="-2.23029">
        <ele>7.5999999046326</ele>
        <time>2020-08-15T08:39:19.000Z</time>
      </trkpt>
      <trkpt lat="47.29018" lon="-2.23018">
        <ele>7.1999998092651</ele>
        <time>2020-08-15T08:39:20.000Z</time>
      </trkpt>
      <trkpt lat="47.2902" lon="-2.23007">
        <ele>6.8000001907349</ele>
        <time>2020-08-15T08:39:21.000Z</time>
      </trkpt>
      <trkpt lat="47.29024" lon="-2.22999">
        <ele>6.4000000953674</ele>
        <time>2020-08-15T08:39:22.000Z</time>
      </trkpt>
      <trkpt lat="47.29026" lon="-2.22989">
        <ele>6</ele>
        <time>2020-08-15T08:39:23.000Z</time>
      </trkpt>
      <trkpt lat="47.29026" lon="-2.22981">
        <ele>6</ele>
        <time>2020-08-15T08:39:24.000Z</time>
      </trkpt>
      <trkpt lat="47.29029" lon="-2.2297">
        <ele>6</ele>
        <time>2020-08-15T08:39:26.000Z</time>
      </trkpt>
      <trkpt lat="47.29032" lon="-2.22972">
        <ele>5.1999998092651</ele>
        <time>2020-08-15T08:39:27.000Z</time>
      </trkpt>
      <trkpt lat="47.29036" lon="-2.22978">
        <ele>4.5999999046326</ele>
        <time>2020-08-15T08:39:28.000Z</time>
      </trkpt>
      <trkpt lat="47.2904" lon="-2.22986">
        <ele>4.1999998092651</ele>
        <time>2020-08-15T08:39:29.000Z</time>
      </trkpt>
      <trkpt lat="47.29045" lon="-2.22994">
        <ele>3.7999999523163</ele>
        <time>2020-08-15T08:39:30.000Z</time>
      </trkpt>
      <trkpt lat="47.2905" lon="-2.23001">
        <ele>3.7999999523163</ele>
        <time>2020-08-15T08:39:31.000Z</time>
      </trkpt>
      <trkpt lat="47.29086" lon="-2.23042">
        <ele>3.7999999523163</ele>
        <time>2020-08-15T08:39:37.000Z</time>
      </trkpt>
      <trkpt lat="47.29126" lon="-2.23093">
        <ele>3.7999999523163</ele>
        <time>2020-08-15T08:39:44.000Z</time>
      </trkpt>
      <trkpt lat="47.29169" lon="-2.23145">
        <ele>3.7999999523163</ele>
        <time>2020-08-15T08:39:51.000Z</time>
      </trkpt>
      <trkpt lat="47.29174" lon="-2.23151">
        <ele>3.7999999523163</ele>
        <time>2020-08-15T08:39:52.000Z</time>
      </trkpt>
      <trkpt lat="47.29184" lon="-2.23165">
        <ele>3.7999999523163</ele>
        <time>2020-08-15T08:39:54.000Z</time>
      </trkpt>
      <trkpt lat="47.29192" lon="-2.23179">
        <ele>3.7999999523163</ele>
        <time>2020-08-15T08:39:56.000Z</time>
      </trkpt>
      <trkpt lat="47.29196" lon="-2.23185">
        <ele>3.7999999523163</ele>
        <time>2020-08-15T08:39:57.000Z</time>
      </trkpt>
      <trkpt lat="47.29204" lon="-2.23209">
        <ele>3.7999999523163</ele>
        <time>2020-08-15T08:40:00.000Z</time>
      </trkpt>
      <trkpt lat="47.29205" lon="-2.23219">
        <ele>3.7999999523163</ele>
        <time>2020-08-15T08:40:01.000Z</time>
      </trkpt>
      <trkpt lat="47.29209" lon="-2.23229">
        <ele>3.7999999523163</ele>
        <time>2020-08-15T08:40:02.000Z</time>
      </trkpt>
      <trkpt lat="47.29214" lon="-2.23237">
        <ele>3.7999999523163</ele>
        <time>2020-08-15T08:40:03.000Z</time>
      </trkpt>
      <trkpt lat="47.29237" lon="-2.23268">
        <ele>3.7999999523163</ele>
        <time>2020-08-15T08:40:07.000Z</time>
      </trkpt>
      <trkpt lat="47.29258" lon="-2.23299">
        <ele>3.7999999523163</ele>
        <time>2020-08-15T08:40:11.000Z</time>
      </trkpt>
      <trkpt lat="47.29262" lon="-2.23309">
        <ele>3.7999999523163</ele>
        <time>2020-08-15T08:40:12.000Z</time>
      </trkpt>
      <trkpt lat="47.29269" lon="-2.23331">
        <ele>3.7999999523163</ele>
        <time>2020-08-15T08:40:14.000Z</time>
      </trkpt>
      <trkpt lat="47.29273" lon="-2.23355">
        <ele>3.7999999523163</ele>
        <time>2020-08-15T08:40:16.000Z</time>
      </trkpt>
      <trkpt lat="47.29291" lon="-2.2344">
        <ele>3.7999999523163</ele>
        <time>2020-08-15T08:40:23.000Z</time>
      </trkpt>
      <trkpt lat="47.29307" lon="-2.2352">
        <ele>3.7999999523163</ele>
        <time>2020-08-15T08:40:30.000Z</time>
      </trkpt>
      <trkpt lat="47.29308" lon="-2.23532">
        <ele>3.7999999523163</ele>
        <time>2020-08-15T08:40:31.000Z</time>
      </trkpt>
      <trkpt lat="47.29314" lon="-2.23597">
        <ele>3.7999999523163</ele>
        <time>2020-08-15T08:40:37.000Z</time>
      </trkpt>
      <trkpt lat="47.29314" lon="-2.23663">
        <ele>3.7999999523163</ele>
        <time>2020-08-15T08:40:43.000Z</time>
      </trkpt>
      <trkpt lat="47.29312" lon="-2.23734">
        <ele>3.7999999523163</ele>
        <time>2020-08-15T08:40:50.000Z</time>
      </trkpt>
      <trkpt lat="47.29311" lon="-2.23772">
        <ele>3.7999999523163</ele>
        <time>2020-08-15T08:40:54.000Z</time>
      </trkpt>
      <trkpt lat="47.29314" lon="-2.23778">
        <ele>3.7999999523163</ele>
        <time>2020-08-15T08:40:55.000Z</time>
      </trkpt>
      <trkpt lat="47.29329" lon="-2.23786">
        <ele>3.7999999523163</ele>
        <time>2020-08-15T08:40:58.000Z</time>
      </trkpt>
      <trkpt lat="47.29334" lon="-2.23788">
        <ele>3.7999999523163</ele>
        <time>2020-08-15T08:40:59.000Z</time>
      </trkpt>
      <trkpt lat="47.2934" lon="-2.23791">
        <ele>3.7999999523163</ele>
        <time>2020-08-15T08:41:00.000Z</time>
      </trkpt>
      <trkpt lat="47.29357" lon="-2.23798">
        <ele>3.7999999523163</ele>
        <time>2020-08-15T08:41:03.000Z</time>
      </trkpt>
      <trkpt lat="47.29367" lon="-2.23786">
        <ele>3.7999999523163</ele>
        <time>2020-08-15T08:41:05.000Z</time>
      </trkpt>
      <trkpt lat="47.29371" lon="-2.23759">
        <ele>3.7999999523163</ele>
        <time>2020-08-15T08:41:08.000Z</time>
      </trkpt>
      <trkpt lat="47.29374" lon="-2.23739">
        <ele>3.7999999523163</ele>
        <time>2020-08-15T08:41:10.000Z</time>
      </trkpt>
      <trkpt lat="47.29376" lon="-2.23731">
        <ele>3.7999999523163</ele>
        <time>2020-08-15T08:41:11.000Z</time>
      </trkpt>
      <trkpt lat="47.29382" lon="-2.23716">
        <ele>3.7999999523163</ele>
        <time>2020-08-15T08:41:13.000Z</time>
      </trkpt>
      <trkpt lat="47.29398" lon="-2.23705">
        <ele>3.7999999523163</ele>
        <time>2020-08-15T08:41:16.000Z</time>
      </trkpt>
      <trkpt lat="47.2941" lon="-2.23703">
        <ele>4.1999998092651</ele>
        <time>2020-08-15T08:41:18.000Z</time>
      </trkpt>
      <trkpt lat="47.29415" lon="-2.237">
        <ele>4.5999999046326</ele>
        <time>2020-08-15T08:41:19.000Z</time>
      </trkpt>
      <trkpt lat="47.29421" lon="-2.23698">
        <ele>5</ele>
        <time>2020-08-15T08:41:20.000Z</time>
      </trkpt>
      <trkpt lat="47.29427" lon="-2.23696">
        <ele>5.4000000953674</ele>
        <time>2020-08-15T08:41:21.000Z</time>
      </trkpt>
      <trkpt lat="47.29433" lon="-2.23694">
        <ele>5.8000001907349</ele>
        <time>2020-08-15T08:41:22.000Z</time>
      </trkpt>
      <trkpt lat="47.29452" lon="-2.23687">
        <ele>6.1999998092651</ele>
        <time>2020-08-15T08:41:26.000Z</time>
      </trkpt>
      <trkpt lat="47.29456" lon="-2.23684">
        <ele>6.8000001907349</ele>
        <time>2020-08-15T08:41:27.000Z</time>
      </trkpt>
      <trkpt lat="47.29461" lon="-2.23682">
        <ele>7.1999998092651</ele>
        <time>2020-08-15T08:41:28.000Z</time>
      </trkpt>
      <trkpt lat="47.29464" lon="-2.2368">
        <ele>7.5999999046326</ele>
        <time>2020-08-15T08:41:29.000Z</time>
      </trkpt>
      <trkpt lat="47.29468" lon="-2.23677">
        <ele>8</ele>
        <time>2020-08-15T08:41:30.000Z</time>
      </trkpt>
      <trkpt lat="47.29473" lon="-2.23673">
        <ele>8</ele>
        <time>2020-08-15T08:41:32.000Z</time>
      </trkpt>
      <trkpt lat="47.29487" lon="-2.23667">
        <ele>8</ele>
        <time>2020-08-15T08:41:36.000Z</time>
      </trkpt>
      <trkpt lat="47.29492" lon="-2.23669">
        <ele>8</ele>
        <time>2020-08-15T08:41:37.000Z</time>
      </trkpt>
      <trkpt lat="47.295" lon="-2.23688">
        <ele>8</ele>
        <time>2020-08-15T08:41:40.000Z</time>
      </trkpt>
      <trkpt lat="47.295" lon="-2.23707">
        <ele>8</ele>
        <time>2020-08-15T08:41:42.000Z</time>
      </trkpt>
      <trkpt lat="47.295" lon="-2.23718">
        <ele>8</ele>
        <time>2020-08-15T08:41:43.000Z</time>
      </trkpt>
      <trkpt lat="47.29505" lon="-2.23765">
        <ele>8</ele>
        <time>2020-08-15T08:41:47.000Z</time>
      </trkpt>
      <trkpt lat="47.2952" lon="-2.23825">
        <ele>7.5999999046326</ele>
        <time>2020-08-15T08:41:52.000Z</time>
      </trkpt>
      <trkpt lat="47.29524" lon="-2.23837">
        <ele>7</ele>
        <time>2020-08-15T08:41:53.000Z</time>
      </trkpt>
      <trkpt lat="47.29528" lon="-2.23849">
        <ele>6.5999999046326</ele>
        <time>2020-08-15T08:41:54.000Z</time>
      </trkpt>
      <trkpt lat="47.29531" lon="-2.23862">
        <ele>6</ele>
        <time>2020-08-15T08:41:55.000Z</time>
      </trkpt>
      <trkpt lat="47.29534" lon="-2.23874">
        <ele>5.5999999046326</ele>
        <time>2020-08-15T08:41:56.000Z</time>
      </trkpt>
      <trkpt lat="47.29538" lon="-2.23899">
        <ele>5.5999999046326</ele>
        <time>2020-08-15T08:41:58.000Z</time>
      </trkpt>
      <trkpt lat="47.29549" lon="-2.23985">
        <ele>5.5999999046326</ele>
        <time>2020-08-15T08:42:05.000Z</time>
      </trkpt>
      <trkpt lat="47.29562" lon="-2.24065">
        <ele>5.5999999046326</ele>
        <time>2020-08-15T08:42:12.000Z</time>
      </trkpt>
      <trkpt lat="47.29577" lon="-2.24151">
        <ele>5.5999999046326</ele>
        <time>2020-08-15T08:42:20.000Z</time>
      </trkpt>
      <trkpt lat="47.29588" lon="-2.24206">
        <ele>5.5999999046326</ele>
        <time>2020-08-15T08:42:26.000Z</time>
      </trkpt>
      <trkpt lat="47.29597" lon="-2.24216">
        <ele>5.5999999046326</ele>
        <time>2020-08-15T08:42:29.000Z</time>
      </trkpt>
      <trkpt lat="47.29606" lon="-2.24199">
        <ele>5.5999999046326</ele>
        <time>2020-08-15T08:42:32.000Z</time>
      </trkpt>
      <trkpt lat="47.29607" lon="-2.24171">
        <ele>5.5999999046326</ele>
        <time>2020-08-15T08:42:35.000Z</time>
      </trkpt>
      <trkpt lat="47.29608" lon="-2.24161">
        <ele>5.5999999046326</ele>
        <time>2020-08-15T08:42:36.000Z</time>
      </trkpt>
      <trkpt lat="47.29615" lon="-2.24098">
        <ele>5.5999999046326</ele>
        <time>2020-08-15T08:42:43.000Z</time>
      </trkpt>
      <trkpt lat="47.29617" lon="-2.24083">
        <ele>5.5999999046326</ele>
        <time>2020-08-15T08:42:45.000Z</time>
      </trkpt>
      <trkpt lat="47.29623" lon="-2.24071">
        <ele>5.5999999046326</ele>
        <time>2020-08-15T08:42:47.000Z</time>
      </trkpt>
      <trkpt lat="47.29628" lon="-2.24058">
        <ele>5.5999999046326</ele>
        <time>2020-08-15T08:42:49.000Z</time>
      </trkpt>
      <trkpt lat="47.2963" lon="-2.2404">
        <ele>5.5999999046326</ele>
        <time>2020-08-15T08:42:51.000Z</time>
      </trkpt>
      <trkpt lat="47.29634" lon="-2.24005">
        <ele>5.5999999046326</ele>
        <time>2020-08-15T08:42:55.000Z</time>
      </trkpt>
      <trkpt lat="47.29636" lon="-2.23998">
        <ele>5.1999998092651</ele>
        <time>2020-08-15T08:42:56.000Z</time>
      </trkpt>
      <trkpt lat="47.2964" lon="-2.23992">
        <ele>4.8000001907349</ele>
        <time>2020-08-15T08:42:57.000Z</time>
      </trkpt>
      <trkpt lat="47.29644" lon="-2.23988">
        <ele>4.4000000953674</ele>
        <time>2020-08-15T08:42:58.000Z</time>
      </trkpt>
      <trkpt lat="47.29649" lon="-2.23984">
        <ele>4</ele>
        <time>2020-08-15T08:42:59.000Z</time>
      </trkpt>
      <trkpt lat="47.29655" lon="-2.23979">
        <ele>3.5999999046326</ele>
        <time>2020-08-15T08:43:00.000Z</time>
      </trkpt>
      <trkpt lat="47.29695" lon="-2.2395">
        <ele>3.5999999046326</ele>
        <time>2020-08-15T08:43:07.000Z</time>
      </trkpt>
      <trkpt lat="47.29705" lon="-2.23943">
        <ele>3.5999999046326</ele>
        <time>2020-08-15T08:43:09.000Z</time>
      </trkpt>
      <trkpt lat="47.29712" lon="-2.23929">
        <ele>3.5999999046326</ele>
        <time>2020-08-15T08:43:11.000Z</time>
      </trkpt>
      <trkpt lat="47.29715" lon="-2.23902">
        <ele>3.5999999046326</ele>
        <time>2020-08-15T08:43:14.000Z</time>
      </trkpt>
      <trkpt lat="47.29718" lon="-2.23884">
        <ele>3.5999999046326</ele>
        <time>2020-08-15T08:43:16.000Z</time>
      </trkpt>
      <trkpt lat="47.29726" lon="-2.23859">
        <ele>3.5999999046326</ele>
        <time>2020-08-15T08:43:19.000Z</time>
      </trkpt>
      <trkpt lat="47.29729" lon="-2.2385">
        <ele>3.5999999046326</ele>
        <time>2020-08-15T08:43:20.000Z</time>
      </trkpt>
      <trkpt lat="47.29746" lon="-2.2381">
        <ele>3.5999999046326</ele>
        <time>2020-08-15T08:43:25.000Z</time>
      </trkpt>
      <trkpt lat="47.29755" lon="-2.23799">
        <ele>3.5999999046326</ele>
        <time>2020-08-15T08:43:27.000Z</time>
      </trkpt>
      <trkpt lat="47.29766" lon="-2.23792">
        <ele>3.5999999046326</ele>
        <time>2020-08-15T08:43:29.000Z</time>
      </trkpt>
      <trkpt lat="47.29789" lon="-2.2379">
        <ele>3.5999999046326</ele>
        <time>2020-08-15T08:43:33.000Z</time>
      </trkpt>
      <trkpt lat="47.29817" lon="-2.23803">
        <ele>3.5999999046326</ele>
        <time>2020-08-15T08:43:38.000Z</time>
      </trkpt>
      <trkpt lat="47.29848" lon="-2.23822">
        <ele>3.5999999046326</ele>
        <time>2020-08-15T08:43:44.000Z</time>
      </trkpt>
      <trkpt lat="47.29859" lon="-2.23825">
        <ele>3.5999999046326</ele>
        <time>2020-08-15T08:43:46.000Z</time>
      </trkpt>
      <trkpt lat="47.29874" lon="-2.23821">
        <ele>3.5999999046326</ele>
        <time>2020-08-15T08:43:49.000Z</time>
      </trkpt>
      <trkpt lat="47.29905" lon="-2.23819">
        <ele>3.5999999046326</ele>
        <time>2020-08-15T08:43:55.000Z</time>
      </trkpt>
      <trkpt lat="47.29929" lon="-2.23827">
        <ele>3.5999999046326</ele>
        <time>2020-08-15T08:44:00.000Z</time>
      </trkpt>
      <trkpt lat="47.29935" lon="-2.2383">
        <ele>3.5999999046326</ele>
        <time>2020-08-15T08:44:01.000Z</time>
      </trkpt>
      <trkpt lat="47.29947" lon="-2.23835">
        <ele>3.5999999046326</ele>
        <time>2020-08-15T08:44:03.000Z</time>
      </trkpt>
      <trkpt lat="47.29961" lon="-2.23845">
        <ele>3.5999999046326</ele>
        <time>2020-08-15T08:44:05.000Z</time>
      </trkpt>
      <trkpt lat="47.29989" lon="-2.23869">
        <ele>3.5999999046326</ele>
        <time>2020-08-15T08:44:10.000Z</time>
      </trkpt>
      <trkpt lat="47.29996" lon="-2.23883">
        <ele>3.5999999046326</ele>
        <time>2020-08-15T08:44:12.000Z</time>
      </trkpt>
      <trkpt lat="47.29998" lon="-2.2389">
        <ele>3.5999999046326</ele>
        <time>2020-08-15T08:44:13.000Z</time>
      </trkpt>
      <trkpt lat="47.30001" lon="-2.23913">
        <ele>3.5999999046326</ele>
        <time>2020-08-15T08:44:16.000Z</time>
      </trkpt>
      <trkpt lat="47.30003" lon="-2.23962">
        <ele>3.5999999046326</ele>
        <time>2020-08-15T08:44:21.000Z</time>
      </trkpt>
      <trkpt lat="47.30002" lon="-2.23982">
        <ele>3.5999999046326</ele>
        <time>2020-08-15T08:44:23.000Z</time>
      </trkpt>
      <trkpt lat="47.3" lon="-2.24011">
        <ele>3.5999999046326</ele>
        <time>2020-08-15T08:44:26.000Z</time>
      </trkpt>
      <trkpt lat="47.29999" lon="-2.24046">
        <ele>4</ele>
        <time>2020-08-15T08:44:30.000Z</time>
      </trkpt>
      <trkpt lat="47.29999" lon="-2.24054">
        <ele>4.4000000953674</ele>
        <time>2020-08-15T08:44:31.000Z</time>
      </trkpt>
      <trkpt lat="47.29999" lon="-2.24062">
        <ele>4.8000001907349</ele>
        <time>2020-08-15T08:44:32.000Z</time>
      </trkpt>
      <trkpt lat="47.3" lon="-2.2407">
        <ele>5.4000000953674</ele>
        <time>2020-08-15T08:44:33.000Z</time>
      </trkpt>
      <trkpt lat="47.3" lon="-2.24078">
        <ele>5.8000001907349</ele>
        <time>2020-08-15T08:44:34.000Z</time>
      </trkpt>
      <trkpt lat="47.30001" lon="-2.24094">
        <ele>5.8000001907349</ele>
        <time>2020-08-15T08:44:36.000Z</time>
      </trkpt>
      <trkpt lat="47.30001" lon="-2.24108">
        <ele>5.8000001907349</ele>
        <time>2020-08-15T08:44:38.000Z</time>
      </trkpt>
      <trkpt lat="47.29999" lon="-2.24126">
        <ele>6.1999998092651</ele>
        <time>2020-08-15T08:44:41.000Z</time>
      </trkpt>
      <trkpt lat="47.29998" lon="-2.24131">
        <ele>6.8000001907349</ele>
        <time>2020-08-15T08:44:42.000Z</time>
      </trkpt>
      <trkpt lat="47.29997" lon="-2.24135">
        <ele>7.1999998092651</ele>
        <time>2020-08-15T08:44:43.000Z</time>
      </trkpt>
      <trkpt lat="47.29995" lon="-2.2414">
        <ele>7.5999999046326</ele>
        <time>2020-08-15T08:44:44.000Z</time>
      </trkpt>
      <trkpt lat="47.29994" lon="-2.24146">
        <ele>8.1999998092651</ele>
        <time>2020-08-15T08:44:45.000Z</time>
      </trkpt>
      <trkpt lat="47.29992" lon="-2.24158">
        <ele>8.6000003814697</ele>
        <time>2020-08-15T08:44:47.000Z</time>
      </trkpt>
      <trkpt lat="47.29991" lon="-2.24163">
        <ele>9</ele>
        <time>2020-08-15T08:44:48.000Z</time>
      </trkpt>
      <trkpt lat="47.2999" lon="-2.24169">
        <ele>10</ele>
        <time>2020-08-15T08:44:49.000Z</time>
      </trkpt>
      <trkpt lat="47.2999" lon="-2.24173">
        <ele>10.39999961853</ele>
        <time>2020-08-15T08:44:50.000Z</time>
      </trkpt>
      <trkpt lat="47.29987" lon="-2.24188">
        <ele>10.800000190735</ele>
        <time>2020-08-15T08:44:53.000Z</time>
      </trkpt>
      <trkpt lat="47.29986" lon="-2.24195">
        <ele>11.199999809265</ele>
        <time>2020-08-15T08:44:54.000Z</time>
      </trkpt>
      <trkpt lat="47.29983" lon="-2.24201">
        <ele>11.60000038147</ele>
        <time>2020-08-15T08:44:55.000Z</time>
      </trkpt>
      <trkpt lat="47.29981" lon="-2.24207">
        <ele>12</ele>
        <time>2020-08-15T08:44:56.000Z</time>
      </trkpt>
      <trkpt lat="47.29978" lon="-2.24213">
        <ele>12.39999961853</ele>
        <time>2020-08-15T08:44:57.000Z</time>
      </trkpt>
      <trkpt lat="47.29972" lon="-2.24225">
        <ele>12.39999961853</ele>
        <time>2020-08-15T08:44:59.000Z</time>
      </trkpt>
      <trkpt lat="47.29951" lon="-2.24263">
        <ele>12.39999961853</ele>
        <time>2020-08-15T08:45:06.000Z</time>
      </trkpt>
      <trkpt lat="47.2994" lon="-2.24293">
        <ele>12.39999961853</ele>
        <time>2020-08-15T08:45:11.000Z</time>
      </trkpt>
      <trkpt lat="47.29944" lon="-2.2431">
        <ele>12.39999961853</ele>
        <time>2020-08-15T08:45:14.000Z</time>
      </trkpt>
      <trkpt lat="47.29957" lon="-2.24323">
        <ele>12.39999961853</ele>
        <time>2020-08-15T08:45:18.000Z</time>
      </trkpt>
      <trkpt lat="47.29969" lon="-2.24337">
        <ele>12.39999961853</ele>
        <time>2020-08-15T08:45:22.000Z</time>
      </trkpt>
      <trkpt lat="47.29973" lon="-2.24341">
        <ele>12.800000190735</ele>
        <time>2020-08-15T08:45:23.000Z</time>
      </trkpt>
      <trkpt lat="47.29976" lon="-2.24344">
        <ele>13.199999809265</ele>
        <time>2020-08-15T08:45:24.000Z</time>
      </trkpt>
      <trkpt lat="47.29978" lon="-2.24347">
        <ele>13.60000038147</ele>
        <time>2020-08-15T08:45:25.000Z</time>
      </trkpt>
      <trkpt lat="47.29979" lon="-2.24348">
        <ele>14</ele>
        <time>2020-08-15T08:45:26.000Z</time>
      </trkpt>
      <trkpt lat="47.29979" lon="-2.24349">
        <ele>14.39999961853</ele>
        <time>2020-08-15T08:45:27.000Z</time>
      </trkpt>
      <trkpt lat="47.29979" lon="-2.24349">
        <ele>14.39999961853</ele>
        <time>2020-08-15T08:45:28.000Z</time>
      </trkpt>
      <trkpt lat="47.29982" lon="-2.24351">
        <ele>14.39999961853</ele>
        <time>2020-08-15T08:46:40.000Z</time>
      </trkpt>
      <trkpt lat="47.29986" lon="-2.24358">
        <ele>14.39999961853</ele>
        <time>2020-08-15T08:46:43.000Z</time>
      </trkpt>
      <trkpt lat="47.29994" lon="-2.24363">
        <ele>14.39999961853</ele>
        <time>2020-08-15T08:46:49.000Z</time>
      </trkpt>
      <trkpt lat="47.29996" lon="-2.24362">
        <ele>14.39999961853</ele>
        <time>2020-08-15T08:46:51.000Z</time>
      </trkpt>
      <trkpt lat="47.29998" lon="-2.24357">
        <ele>14.39999961853</ele>
        <time>2020-08-15T08:46:54.000Z</time>
      </trkpt>
      <trkpt lat="47.30003" lon="-2.24341">
        <ele>14.39999961853</ele>
        <time>2020-08-15T08:46:59.000Z</time>
      </trkpt>
      <trkpt lat="47.30004" lon="-2.24337">
        <ele>14.39999961853</ele>
        <time>2020-08-15T08:47:00.000Z</time>
      </trkpt>
      <trkpt lat="47.30011" lon="-2.24317">
        <ele>14.39999961853</ele>
        <time>2020-08-15T08:47:06.000Z</time>
      </trkpt>
      <trkpt lat="47.30017" lon="-2.24303">
        <ele>14.39999961853</ele>
        <time>2020-08-15T08:47:12.000Z</time>
      </trkpt>
      <trkpt lat="47.30018" lon="-2.24292">
        <ele>14.39999961853</ele>
        <time>2020-08-15T08:47:18.000Z</time>
      </trkpt>
      <trkpt lat="47.30023" lon="-2.24289">
        <ele>14.39999961853</ele>
        <time>2020-08-15T08:47:22.000Z</time>
      </trkpt>
      <trkpt lat="47.30027" lon="-2.24283">
        <ele>14.39999961853</ele>
        <time>2020-08-15T08:47:25.000Z</time>
      </trkpt>
      <trkpt lat="47.30029" lon="-2.24262">
        <ele>14.39999961853</ele>
        <time>2020-08-15T08:47:30.000Z</time>
      </trkpt>
      <trkpt lat="47.30026" lon="-2.24235">
        <ele>14.39999961853</ele>
        <time>2020-08-15T08:47:34.000Z</time>
      </trkpt>
      <trkpt lat="47.30024" lon="-2.24223">
        <ele>14</ele>
        <time>2020-08-15T08:47:36.000Z</time>
      </trkpt>
      <trkpt lat="47.30024" lon="-2.24216">
        <ele>13.60000038147</ele>
        <time>2020-08-15T08:47:37.000Z</time>
      </trkpt>
      <trkpt lat="47.30024" lon="-2.24208">
        <ele>13.199999809265</ele>
        <time>2020-08-15T08:47:38.000Z</time>
      </trkpt>
      <trkpt lat="47.30024" lon="-2.242">
        <ele>12.800000190735</ele>
        <time>2020-08-15T08:47:39.000Z</time>
      </trkpt>
      <trkpt lat="47.30025" lon="-2.24191">
        <ele>12.39999961853</ele>
        <time>2020-08-15T08:47:40.000Z</time>
      </trkpt>
      <trkpt lat="47.30026" lon="-2.24183">
        <ele>12.39999961853</ele>
        <time>2020-08-15T08:47:41.000Z</time>
      </trkpt>
      <trkpt lat="47.30026" lon="-2.24175">
        <ele>11.39999961853</ele>
        <time>2020-08-15T08:47:42.000Z</time>
      </trkpt>
      <trkpt lat="47.30026" lon="-2.2417">
        <ele>11</ele>
        <time>2020-08-15T08:47:43.000Z</time>
      </trkpt>
      <trkpt lat="47.30026" lon="-2.24164">
        <ele>10.39999961853</ele>
        <time>2020-08-15T08:47:44.000Z</time>
      </trkpt>
      <trkpt lat="47.30026" lon="-2.24159">
        <ele>9.8000001907349</ele>
        <time>2020-08-15T08:47:45.000Z</time>
      </trkpt>
      <trkpt lat="47.30024" lon="-2.24153">
        <ele>9.3999996185303</ele>
        <time>2020-08-15T08:47:47.000Z</time>
      </trkpt>
      <trkpt lat="47.30024" lon="-2.2415">
        <ele>9</ele>
        <time>2020-08-15T08:47:48.000Z</time>
      </trkpt>
      <trkpt lat="47.30024" lon="-2.24148">
        <ele>8.6000003814697</ele>
        <time>2020-08-15T08:47:49.000Z</time>
      </trkpt>
      <trkpt lat="47.30025" lon="-2.24146">
        <ele>8.1999998092651</ele>
        <time>2020-08-15T08:47:50.000Z</time>
      </trkpt>
      <trkpt lat="47.30027" lon="-2.24143">
        <ele>7.8000001907349</ele>
        <time>2020-08-15T08:47:51.000Z</time>
      </trkpt>
      <trkpt lat="47.30034" lon="-2.2414">
        <ele>7.8000001907349</ele>
        <time>2020-08-15T08:47:53.000Z</time>
      </trkpt>
      <trkpt lat="47.30045" lon="-2.24132">
        <ele>7.8000001907349</ele>
        <time>2020-08-15T08:47:58.000Z</time>
      </trkpt>
      <trkpt lat="47.3005" lon="-2.2413">
        <ele>8.1999998092651</ele>
        <time>2020-08-15T08:48:00.000Z</time>
      </trkpt>
      <trkpt lat="47.30054" lon="-2.24129">
        <ele>8.6000003814697</ele>
        <time>2020-08-15T08:48:01.000Z</time>
      </trkpt>
      <trkpt lat="47.30059" lon="-2.24124">
        <ele>9.3999996185303</ele>
        <time>2020-08-15T08:48:02.000Z</time>
      </trkpt>
      <trkpt lat="47.30061" lon="-2.24123">
        <ele>9.3999996185303</ele>
        <time>2020-08-15T08:48:03.000Z</time>
      </trkpt>
      <trkpt lat="47.30065" lon="-2.24121">
        <ele>9.8000001907349</ele>
        <time>2020-08-15T08:48:04.000Z</time>
      </trkpt>
      <trkpt lat="47.30084" lon="-2.24111">
        <ele>9.8000001907349</ele>
        <time>2020-08-15T08:48:08.000Z</time>
      </trkpt>
      <trkpt lat="47.30089" lon="-2.24108">
        <ele>9.8000001907349</ele>
        <time>2020-08-15T08:48:09.000Z</time>
      </trkpt>
      <trkpt lat="47.30118" lon="-2.24091">
        <ele>9.8000001907349</ele>
        <time>2020-08-15T08:48:16.000Z</time>
      </trkpt>
      <trkpt lat="47.30137" lon="-2.24079">
        <ele>9.8000001907349</ele>
        <time>2020-08-15T08:48:20.000Z</time>
      </trkpt>
      <trkpt lat="47.30145" lon="-2.24075">
        <ele>9.8000001907349</ele>
        <time>2020-08-15T08:48:22.000Z</time>
      </trkpt>
      <trkpt lat="47.30176" lon="-2.24063">
        <ele>9.8000001907349</ele>
        <time>2020-08-15T08:48:28.000Z</time>
      </trkpt>
      <trkpt lat="47.30192" lon="-2.24059">
        <ele>9.8000001907349</ele>
        <time>2020-08-15T08:48:31.000Z</time>
      </trkpt>
      <trkpt lat="47.30215" lon="-2.24059">
        <ele>9.8000001907349</ele>
        <time>2020-08-15T08:48:35.000Z</time>
      </trkpt>
      <trkpt lat="47.30255" lon="-2.2406">
        <ele>9.8000001907349</ele>
        <time>2020-08-15T08:48:42.000Z</time>
      </trkpt>
      <trkpt lat="47.30274" lon="-2.24059">
        <ele>9.8000001907349</ele>
        <time>2020-08-15T08:48:46.000Z</time>
      </trkpt>
      <trkpt lat="47.30278" lon="-2.24053">
        <ele>9.8000001907349</ele>
        <time>2020-08-15T08:48:47.000Z</time>
      </trkpt>
      <trkpt lat="47.30282" lon="-2.24042">
        <ele>9.8000001907349</ele>
        <time>2020-08-15T08:48:49.000Z</time>
      </trkpt>
      <trkpt lat="47.30281" lon="-2.24028">
        <ele>9.3999996185303</ele>
        <time>2020-08-15T08:48:51.000Z</time>
      </trkpt>
      <trkpt lat="47.30281" lon="-2.24021">
        <ele>9</ele>
        <time>2020-08-15T08:48:52.000Z</time>
      </trkpt>
      <trkpt lat="47.3028" lon="-2.24013">
        <ele>8.6000003814697</ele>
        <time>2020-08-15T08:48:53.000Z</time>
      </trkpt>
      <trkpt lat="47.3028" lon="-2.24005">
        <ele>8.1999998092651</ele>
        <time>2020-08-15T08:48:54.000Z</time>
      </trkpt>
      <trkpt lat="47.30279" lon="-2.23996">
        <ele>7.5999999046326</ele>
        <time>2020-08-15T08:48:55.000Z</time>
      </trkpt>
      <trkpt lat="47.30278" lon="-2.23984">
        <ele>7.5999999046326</ele>
        <time>2020-08-15T08:48:56.000Z</time>
      </trkpt>
      <trkpt lat="47.30274" lon="-2.23964">
        <ele>7.1999998092651</ele>
        <time>2020-08-15T08:48:58.000Z</time>
      </trkpt>
      <trkpt lat="47.30271" lon="-2.23955">
        <ele>6.8000001907349</ele>
        <time>2020-08-15T08:48:59.000Z</time>
      </trkpt>
      <trkpt lat="47.30269" lon="-2.23948">
        <ele>6.4000000953674</ele>
        <time>2020-08-15T08:49:00.000Z</time>
      </trkpt>
      <trkpt lat="47.30266" lon="-2.2394">
        <ele>5.8000001907349</ele>
        <time>2020-08-15T08:49:01.000Z</time>
      </trkpt>
      <trkpt lat="47.30265" lon="-2.23931">
        <ele>5.4000000953674</ele>
        <time>2020-08-15T08:49:02.000Z</time>
      </trkpt>
      <trkpt lat="47.30265" lon="-2.23923">
        <ele>5.4000000953674</ele>
        <time>2020-08-15T08:49:03.000Z</time>
      </trkpt>
      <trkpt lat="47.30267" lon="-2.23907">
        <ele>5.4000000953674</ele>
        <time>2020-08-15T08:49:05.000Z</time>
      </trkpt>
      <trkpt lat="47.30278" lon="-2.2389">
        <ele>5.4000000953674</ele>
        <time>2020-08-15T08:49:08.000Z</time>
      </trkpt>
      <trkpt lat="47.30301" lon="-2.23881">
        <ele>5.4000000953674</ele>
        <time>2020-08-15T08:49:12.000Z</time>
      </trkpt>
      <trkpt lat="47.30308" lon="-2.2388">
        <ele>5</ele>
        <time>2020-08-15T08:49:13.000Z</time>
      </trkpt>
      <trkpt lat="47.30314" lon="-2.23877">
        <ele>4.5999999046326</ele>
        <time>2020-08-15T08:49:14.000Z</time>
      </trkpt>
      <trkpt lat="47.30321" lon="-2.23874">
        <ele>4.1999998092651</ele>
        <time>2020-08-15T08:49:15.000Z</time>
      </trkpt>
      <trkpt lat="47.30327" lon="-2.23871">
        <ele>3.7999999523163</ele>
        <time>2020-08-15T08:49:16.000Z</time>
      </trkpt>
      <trkpt lat="47.30333" lon="-2.23868">
        <ele>3.4000000953674</ele>
        <time>2020-08-15T08:49:17.000Z</time>
      </trkpt>
      <trkpt lat="47.30347" lon="-2.23862">
        <ele>3.4000000953674</ele>
        <time>2020-08-15T08:49:19.000Z</time>
      </trkpt>
      <trkpt lat="47.30376" lon="-2.23854">
        <ele>3.4000000953674</ele>
        <time>2020-08-15T08:49:23.000Z</time>
      </trkpt>
      <trkpt lat="47.30434" lon="-2.23846">
        <ele>3.4000000953674</ele>
        <time>2020-08-15T08:49:31.000Z</time>
      </trkpt>
      <trkpt lat="47.30448" lon="-2.23844">
        <ele>3.4000000953674</ele>
        <time>2020-08-15T08:49:33.000Z</time>
      </trkpt>
      <trkpt lat="47.30485" lon="-2.23839">
        <ele>3.4000000953674</ele>
        <time>2020-08-15T08:49:39.000Z</time>
      </trkpt>
      <trkpt lat="47.3049" lon="-2.23841">
        <ele>3.4000000953674</ele>
        <time>2020-08-15T08:49:40.000Z</time>
      </trkpt>
      <trkpt lat="47.3051" lon="-2.23859">
        <ele>3.4000000953674</ele>
        <time>2020-08-15T08:49:44.000Z</time>
      </trkpt>
      <trkpt lat="47.30514" lon="-2.23865">
        <ele>3.4000000953674</ele>
        <time>2020-08-15T08:49:45.000Z</time>
      </trkpt>
      <trkpt lat="47.30537" lon="-2.239">
        <ele>3.4000000953674</ele>
        <time>2020-08-15T08:49:52.000Z</time>
      </trkpt>
      <trkpt lat="47.30553" lon="-2.23921">
        <ele>3.4000000953674</ele>
        <time>2020-08-15T08:49:57.000Z</time>
      </trkpt>
      <trkpt lat="47.30555" lon="-2.23932">
        <ele>3.4000000953674</ele>
        <time>2020-08-15T08:49:59.000Z</time>
      </trkpt>
      <trkpt lat="47.30551" lon="-2.23944">
        <ele>3.4000000953674</ele>
        <time>2020-08-15T08:50:01.000Z</time>
      </trkpt>
      <trkpt lat="47.30547" lon="-2.23949">
        <ele>3.4000000953674</ele>
        <time>2020-08-15T08:50:02.000Z</time>
      </trkpt>
      <trkpt lat="47.30532" lon="-2.23964">
        <ele>3.4000000953674</ele>
        <time>2020-08-15T08:50:06.000Z</time>
      </trkpt>
      <trkpt lat="47.30517" lon="-2.23984">
        <ele>3.4000000953674</ele>
        <time>2020-08-15T08:50:13.000Z</time>
      </trkpt>
      <trkpt lat="47.30511" lon="-2.23992">
        <ele>3.7999999523163</ele>
        <time>2020-08-15T08:50:16.000Z</time>
      </trkpt>
      <trkpt lat="47.30509" lon="-2.23995">
        <ele>4.1999998092651</ele>
        <time>2020-08-15T08:50:17.000Z</time>
      </trkpt>
      <trkpt lat="47.30507" lon="-2.23999">
        <ele>4.5999999046326</ele>
        <time>2020-08-15T08:50:18.000Z</time>
      </trkpt>
      <trkpt lat="47.30504" lon="-2.24001">
        <ele>5</ele>
        <time>2020-08-15T08:50:19.000Z</time>
      </trkpt>
      <trkpt lat="47.30502" lon="-2.24004">
        <ele>5.4000000953674</ele>
        <time>2020-08-15T08:50:20.000Z</time>
      </trkpt>
      <trkpt lat="47.30492" lon="-2.2402">
        <ele>5.8000001907349</ele>
        <time>2020-08-15T08:50:25.000Z</time>
      </trkpt>
      <trkpt lat="47.30489" lon="-2.24023">
        <ele>6.1999998092651</ele>
        <time>2020-08-15T08:50:26.000Z</time>
      </trkpt>
      <trkpt lat="47.30487" lon="-2.24025">
        <ele>6.5999999046326</ele>
        <time>2020-08-15T08:50:27.000Z</time>
      </trkpt>
      <trkpt lat="47.30485" lon="-2.24028">
        <ele>7</ele>
        <time>2020-08-15T08:50:28.000Z</time>
      </trkpt>
      <trkpt lat="47.30483" lon="-2.24029">
        <ele>7.4000000953674</ele>
        <time>2020-08-15T08:50:29.000Z</time>
      </trkpt>
      <trkpt lat="47.30481" lon="-2.24031">
        <ele>7.4000000953674</ele>
        <time>2020-08-15T08:50:31.000Z</time>
      </trkpt>
      <trkpt lat="47.3048" lon="-2.24032">
        <ele>7.8000001907349</ele>
        <time>2020-08-15T08:50:32.000Z</time>
      </trkpt>
      <trkpt lat="47.30479" lon="-2.24032">
        <ele>8.1999998092651</ele>
        <time>2020-08-15T08:50:33.000Z</time>
      </trkpt>
      <trkpt lat="47.30478" lon="-2.24033">
        <ele>8.6000003814697</ele>
        <time>2020-08-15T08:50:34.000Z</time>
      </trkpt>
      <trkpt lat="47.30477" lon="-2.24034">
        <ele>9.3999996185303</ele>
        <time>2020-08-15T08:50:35.000Z</time>
      </trkpt>
      <trkpt lat="47.30472" lon="-2.24036">
        <ele>9.3999996185303</ele>
        <time>2020-08-15T08:50:38.000Z</time>
      </trkpt>
      <trkpt lat="47.3046" lon="-2.24045">
        <ele>9.3999996185303</ele>
        <time>2020-08-15T08:50:44.000Z</time>
      </trkpt>
      <trkpt lat="47.30458" lon="-2.24047">
        <ele>9.8000001907349</ele>
        <time>2020-08-15T08:50:45.000Z</time>
      </trkpt>
      <trkpt lat="47.30456" lon="-2.24049">
        <ele>10.199999809265</ele>
        <time>2020-08-15T08:50:46.000Z</time>
      </trkpt>
      <trkpt lat="47.30454" lon="-2.24052">
        <ele>10.800000190735</ele>
        <time>2020-08-15T08:50:47.000Z</time>
      </trkpt>
      <trkpt lat="47.30452" lon="-2.24054">
        <ele>11.199999809265</ele>
        <time>2020-08-15T08:50:48.000Z</time>
      </trkpt>
      <trkpt lat="47.30449" lon="-2.24056">
        <ele>11.60000038147</ele>
        <time>2020-08-15T08:50:49.000Z</time>
      </trkpt>
      <trkpt lat="47.30447" lon="-2.24059">
        <ele>11.60000038147</ele>
        <time>2020-08-15T08:50:50.000Z</time>
      </trkpt>
      <trkpt lat="47.30429" lon="-2.24081">
        <ele>11.60000038147</ele>
        <time>2020-08-15T08:50:57.000Z</time>
      </trkpt>
      <trkpt lat="47.30421" lon="-2.24088">
        <ele>12</ele>
        <time>2020-08-15T08:51:00.000Z</time>
      </trkpt>
      <trkpt lat="47.30419" lon="-2.24091">
        <ele>12.39999961853</ele>
        <time>2020-08-15T08:51:01.000Z</time>
      </trkpt>
      <trkpt lat="47.30416" lon="-2.24093">
        <ele>12.800000190735</ele>
        <time>2020-08-15T08:51:02.000Z</time>
      </trkpt>
      <trkpt lat="47.30413" lon="-2.24096">
        <ele>13.199999809265</ele>
        <time>2020-08-15T08:51:03.000Z</time>
      </trkpt>
      <trkpt lat="47.30411" lon="-2.24099">
        <ele>13.800000190735</ele>
        <time>2020-08-15T08:51:04.000Z</time>
      </trkpt>
      <trkpt lat="47.30395" lon="-2.24118">
        <ele>13.800000190735</ele>
        <time>2020-08-15T08:51:10.000Z</time>
      </trkpt>
      <trkpt lat="47.30392" lon="-2.24121">
        <ele>14.199999809265</ele>
        <time>2020-08-15T08:51:11.000Z</time>
      </trkpt>
      <trkpt lat="47.30388" lon="-2.24123">
        <ele>14.60000038147</ele>
        <time>2020-08-15T08:51:12.000Z</time>
      </trkpt>
      <trkpt lat="47.30384" lon="-2.24127">
        <ele>15</ele>
        <time>2020-08-15T08:51:13.000Z</time>
      </trkpt>
      <trkpt lat="47.30381" lon="-2.24131">
        <ele>15.39999961853</ele>
        <time>2020-08-15T08:51:14.000Z</time>
      </trkpt>
      <trkpt lat="47.30377" lon="-2.24136">
        <ele>15.800000190735</ele>
        <time>2020-08-15T08:51:15.000Z</time>
      </trkpt>
      <trkpt lat="47.30358" lon="-2.24167">
        <ele>15.800000190735</ele>
        <time>2020-08-15T08:51:20.000Z</time>
      </trkpt>
      <trkpt lat="47.30354" lon="-2.24175">
        <ele>15.800000190735</ele>
        <time>2020-08-15T08:51:21.000Z</time>
      </trkpt>
      <trkpt lat="47.30352" lon="-2.24199">
        <ele>15.800000190735</ele>
        <time>2020-08-15T08:51:24.000Z</time>
      </trkpt>
      <trkpt lat="47.30362" lon="-2.24217">
        <ele>15.800000190735</ele>
        <time>2020-08-15T08:51:27.000Z</time>
      </trkpt>
      <trkpt lat="47.30383" lon="-2.24237">
        <ele>15.800000190735</ele>
        <time>2020-08-15T08:51:32.000Z</time>
      </trkpt>
      <trkpt lat="47.30412" lon="-2.24266">
        <ele>15.800000190735</ele>
        <time>2020-08-15T08:51:39.000Z</time>
      </trkpt>
      <trkpt lat="47.30434" lon="-2.24278">
        <ele>15.800000190735</ele>
        <time>2020-08-15T08:51:43.000Z</time>
      </trkpt>
      <trkpt lat="47.30448" lon="-2.24281">
        <ele>15.800000190735</ele>
        <time>2020-08-15T08:51:45.000Z</time>
      </trkpt>
      <trkpt lat="47.30475" lon="-2.24289">
        <ele>15.800000190735</ele>
        <time>2020-08-15T08:51:49.000Z</time>
      </trkpt>
      <trkpt lat="47.30511" lon="-2.24316">
        <ele>15.800000190735</ele>
        <time>2020-08-15T08:51:55.000Z</time>
      </trkpt>
      <trkpt lat="47.30555" lon="-2.24363">
        <ele>15.800000190735</ele>
        <time>2020-08-15T08:52:03.000Z</time>
      </trkpt>
      <trkpt lat="47.30595" lon="-2.24407">
        <ele>15.800000190735</ele>
        <time>2020-08-15T08:52:10.000Z</time>
      </trkpt>
      <trkpt lat="47.30605" lon="-2.24415">
        <ele>15.199999809265</ele>
        <time>2020-08-15T08:52:12.000Z</time>
      </trkpt>
      <trkpt lat="47.3061" lon="-2.24418">
        <ele>14.800000190735</ele>
        <time>2020-08-15T08:52:13.000Z</time>
      </trkpt>
      <trkpt lat="47.30615" lon="-2.2442">
        <ele>13.800000190735</ele>
        <time>2020-08-15T08:52:14.000Z</time>
      </trkpt>
      <trkpt lat="47.30619" lon="-2.2442">
        <ele>13.39999961853</ele>
        <time>2020-08-15T08:52:15.000Z</time>
      </trkpt>
      <trkpt lat="47.30623" lon="-2.24421">
        <ele>13.39999961853</ele>
        <time>2020-08-15T08:52:16.000Z</time>
      </trkpt>
      <trkpt lat="47.30627" lon="-2.24421">
        <ele>13.39999961853</ele>
        <time>2020-08-15T08:52:18.000Z</time>
      </trkpt>
      <trkpt lat="47.30632" lon="-2.24421">
        <ele>13</ele>
        <time>2020-08-15T08:52:21.000Z</time>
      </trkpt>
      <trkpt lat="47.30632" lon="-2.24422">
        <ele>11.199999809265</ele>
        <time>2020-08-15T08:53:14.000Z</time>
      </trkpt>
      <trkpt lat="47.30637" lon="-2.24434">
        <ele>11.199999809265</ele>
        <time>2020-08-15T08:53:18.000Z</time>
      </trkpt>
      <trkpt lat="47.30635" lon="-2.24455">
        <ele>11.199999809265</ele>
        <time>2020-08-15T08:53:22.000Z</time>
      </trkpt>
      <trkpt lat="47.30633" lon="-2.24469">
        <ele>10.800000190735</ele>
        <time>2020-08-15T08:53:24.000Z</time>
      </trkpt>
      <trkpt lat="47.30632" lon="-2.24477">
        <ele>10.199999809265</ele>
        <time>2020-08-15T08:53:25.000Z</time>
      </trkpt>
      <trkpt lat="47.30631" lon="-2.24485">
        <ele>9.8000001907349</ele>
        <time>2020-08-15T08:53:26.000Z</time>
      </trkpt>
      <trkpt lat="47.30631" lon="-2.24495">
        <ele>9.3999996185303</ele>
        <time>2020-08-15T08:53:27.000Z</time>
      </trkpt>
      <trkpt lat="47.3063" lon="-2.24504">
        <ele>9</ele>
        <time>2020-08-15T08:53:28.000Z</time>
      </trkpt>
      <trkpt lat="47.30629" lon="-2.24515">
        <ele>8.6000003814697</ele>
        <time>2020-08-15T08:53:29.000Z</time>
      </trkpt>
      <trkpt lat="47.30628" lon="-2.24526">
        <ele>8.1999998092651</ele>
        <time>2020-08-15T08:53:30.000Z</time>
      </trkpt>
      <trkpt lat="47.30626" lon="-2.24537">
        <ele>7.8000001907349</ele>
        <time>2020-08-15T08:53:31.000Z</time>
      </trkpt>
      <trkpt lat="47.30625" lon="-2.24548">
        <ele>7.4000000953674</ele>
        <time>2020-08-15T08:53:32.000Z</time>
      </trkpt>
      <trkpt lat="47.30623" lon="-2.2456">
        <ele>7</ele>
        <time>2020-08-15T08:53:33.000Z</time>
      </trkpt>
      <trkpt lat="47.30622" lon="-2.24572">
        <ele>6.5999999046326</ele>
        <time>2020-08-15T08:53:34.000Z</time>
      </trkpt>
      <trkpt lat="47.3062" lon="-2.24584">
        <ele>6</ele>
        <time>2020-08-15T08:53:35.000Z</time>
      </trkpt>
      <trkpt lat="47.30619" lon="-2.24597">
        <ele>5.5999999046326</ele>
        <time>2020-08-15T08:53:36.000Z</time>
      </trkpt>
      <trkpt lat="47.3062" lon="-2.24611">
        <ele>5</ele>
        <time>2020-08-15T08:53:37.000Z</time>
      </trkpt>
      <trkpt lat="47.30621" lon="-2.24624">
        <ele>4.5999999046326</ele>
        <time>2020-08-15T08:53:38.000Z</time>
      </trkpt>
      <trkpt lat="47.30629" lon="-2.2466">
        <ele>4.5999999046326</ele>
        <time>2020-08-15T08:53:41.000Z</time>
      </trkpt>
      <trkpt lat="47.30638" lon="-2.24691">
        <ele>4.1999998092651</ele>
        <time>2020-08-15T08:53:44.000Z</time>
      </trkpt>
      <trkpt lat="47.3064" lon="-2.247">
        <ele>3.7999999523163</ele>
        <time>2020-08-15T08:53:45.000Z</time>
      </trkpt>
      <trkpt lat="47.30643" lon="-2.24709">
        <ele>3.4000000953674</ele>
        <time>2020-08-15T08:53:46.000Z</time>
      </trkpt>
      <trkpt lat="47.30645" lon="-2.24717">
        <ele>3</ele>
        <time>2020-08-15T08:53:47.000Z</time>
      </trkpt>
      <trkpt lat="47.30647" lon="-2.24726">
        <ele>2.5999999046326</ele>
        <time>2020-08-15T08:53:48.000Z</time>
      </trkpt>
      <trkpt lat="47.30652" lon="-2.24741">
        <ele>2.5999999046326</ele>
        <time>2020-08-15T08:53:50.000Z</time>
      </trkpt>
      <trkpt lat="47.30653" lon="-2.24756">
        <ele>2.5999999046326</ele>
        <time>2020-08-15T08:53:52.000Z</time>
      </trkpt>
      <trkpt lat="47.30646" lon="-2.24776">
        <ele>2.5999999046326</ele>
        <time>2020-08-15T08:53:55.000Z</time>
      </trkpt>
      <trkpt lat="47.30641" lon="-2.24781">
        <ele>2.5999999046326</ele>
        <time>2020-08-15T08:53:56.000Z</time>
      </trkpt>
      <trkpt lat="47.30613" lon="-2.2482">
        <ele>2.5999999046326</ele>
        <time>2020-08-15T08:54:02.000Z</time>
      </trkpt>
      <trkpt lat="47.30587" lon="-2.24874">
        <ele>2.5999999046326</ele>
        <time>2020-08-15T08:54:08.000Z</time>
      </trkpt>
      <trkpt lat="47.30576" lon="-2.24912">
        <ele>2.5999999046326</ele>
        <time>2020-08-15T08:54:12.000Z</time>
      </trkpt>
      <trkpt lat="47.30572" lon="-2.24931">
        <ele>2.5999999046326</ele>
        <time>2020-08-15T08:54:14.000Z</time>
      </trkpt>
      <trkpt lat="47.30571" lon="-2.24941">
        <ele>2.5999999046326</ele>
        <time>2020-08-15T08:54:15.000Z</time>
      </trkpt>
      <trkpt lat="47.30571" lon="-2.24979">
        <ele>2.5999999046326</ele>
        <time>2020-08-15T08:54:19.000Z</time>
      </trkpt>
      <trkpt lat="47.30576" lon="-2.25034">
        <ele>2.5999999046326</ele>
        <time>2020-08-15T08:54:25.000Z</time>
      </trkpt>
      <trkpt lat="47.30588" lon="-2.25107">
        <ele>2.5999999046326</ele>
        <time>2020-08-15T08:54:33.000Z</time>
      </trkpt>
      <trkpt lat="47.30601" lon="-2.25149">
        <ele>2.5999999046326</ele>
        <time>2020-08-15T08:54:38.000Z</time>
      </trkpt>
      <trkpt lat="47.30629" lon="-2.25211">
        <ele>2.5999999046326</ele>
        <time>2020-08-15T08:54:46.000Z</time>
      </trkpt>
      <trkpt lat="47.30644" lon="-2.25258">
        <ele>2.5999999046326</ele>
        <time>2020-08-15T08:54:52.000Z</time>
      </trkpt>
      <trkpt lat="47.30655" lon="-2.25315">
        <ele>2.5999999046326</ele>
        <time>2020-08-15T08:54:59.000Z</time>
      </trkpt>
      <trkpt lat="47.30659" lon="-2.25331">
        <ele>2.5999999046326</ele>
        <time>2020-08-15T08:55:01.000Z</time>
      </trkpt>
      <trkpt lat="47.30664" lon="-2.25361">
        <ele>2.5999999046326</ele>
        <time>2020-08-15T08:55:05.000Z</time>
      </trkpt>
      <trkpt lat="47.30666" lon="-2.25377">
        <ele>2.5999999046326</ele>
        <time>2020-08-15T08:55:07.000Z</time>
      </trkpt>
      <trkpt lat="47.30663" lon="-2.25396">
        <ele>2.5999999046326</ele>
        <time>2020-08-15T08:55:09.000Z</time>
      </trkpt>
      <trkpt lat="47.30647" lon="-2.25429">
        <ele>2.5999999046326</ele>
        <time>2020-08-15T08:55:13.000Z</time>
      </trkpt>
      <trkpt lat="47.3062" lon="-2.25463">
        <ele>2.5999999046326</ele>
        <time>2020-08-15T08:55:19.000Z</time>
      </trkpt>
      <trkpt lat="47.30589" lon="-2.25495">
        <ele>2.5999999046326</ele>
        <time>2020-08-15T08:55:25.000Z</time>
      </trkpt>
      <trkpt lat="47.30567" lon="-2.25524">
        <ele>2.5999999046326</ele>
        <time>2020-08-15T08:55:30.000Z</time>
      </trkpt>
      <trkpt lat="47.30559" lon="-2.25538">
        <ele>2.5999999046326</ele>
        <time>2020-08-15T08:55:32.000Z</time>
      </trkpt>
      <trkpt lat="47.30539" lon="-2.25587">
        <ele>2.5999999046326</ele>
        <time>2020-08-15T08:55:38.000Z</time>
      </trkpt>
      <trkpt lat="47.30515" lon="-2.25644">
        <ele>2.5999999046326</ele>
        <time>2020-08-15T08:55:45.000Z</time>
      </trkpt>
      <trkpt lat="47.30492" lon="-2.25698">
        <ele>2.5999999046326</ele>
        <time>2020-08-15T08:55:52.000Z</time>
      </trkpt>
      <trkpt lat="47.30468" lon="-2.25756">
        <ele>2.5999999046326</ele>
        <time>2020-08-15T08:55:59.000Z</time>
      </trkpt>
      <trkpt lat="47.30455" lon="-2.25804">
        <ele>2.5999999046326</ele>
        <time>2020-08-15T08:56:04.000Z</time>
      </trkpt>
      <trkpt lat="47.30453" lon="-2.25814">
        <ele>2.5999999046326</ele>
        <time>2020-08-15T08:56:05.000Z</time>
      </trkpt>
      <trkpt lat="47.30447" lon="-2.25865">
        <ele>2.5999999046326</ele>
        <time>2020-08-15T08:56:10.000Z</time>
      </trkpt>
      <trkpt lat="47.30442" lon="-2.25894">
        <ele>2.5999999046326</ele>
        <time>2020-08-15T08:56:13.000Z</time>
      </trkpt>
      <trkpt lat="47.30437" lon="-2.25911">
        <ele>2.5999999046326</ele>
        <time>2020-08-15T08:56:15.000Z</time>
      </trkpt>
      <trkpt lat="47.3043" lon="-2.25926">
        <ele>2.5999999046326</ele>
        <time>2020-08-15T08:56:17.000Z</time>
      </trkpt>
      <trkpt lat="47.30415" lon="-2.25956">
        <ele>2.5999999046326</ele>
        <time>2020-08-15T08:56:21.000Z</time>
      </trkpt>
      <trkpt lat="47.3041" lon="-2.2597">
        <ele>2.5999999046326</ele>
        <time>2020-08-15T08:56:23.000Z</time>
      </trkpt>
      <trkpt lat="47.30405" lon="-2.25987">
        <ele>2.5999999046326</ele>
        <time>2020-08-15T08:56:25.000Z</time>
      </trkpt>
      <trkpt lat="47.30399" lon="-2.26034">
        <ele>2.5999999046326</ele>
        <time>2020-08-15T08:56:30.000Z</time>
      </trkpt>
      <trkpt lat="47.30395" lon="-2.26094">
        <ele>2.5999999046326</ele>
        <time>2020-08-15T08:56:36.000Z</time>
      </trkpt>
      <trkpt lat="47.30397" lon="-2.26151">
        <ele>2.5999999046326</ele>
        <time>2020-08-15T08:56:42.000Z</time>
      </trkpt>
      <trkpt lat="47.30399" lon="-2.26178">
        <ele>2.5999999046326</ele>
        <time>2020-08-15T08:56:46.000Z</time>
      </trkpt>
      <trkpt lat="47.30395" lon="-2.262">
        <ele>2.5999999046326</ele>
        <time>2020-08-15T08:56:51.000Z</time>
      </trkpt>
      <trkpt lat="47.30378" lon="-2.2621">
        <ele>2.5999999046326</ele>
        <time>2020-08-15T08:56:55.000Z</time>
      </trkpt>
      <trkpt lat="47.30353" lon="-2.26216">
        <ele>2.5999999046326</ele>
        <time>2020-08-15T08:56:59.000Z</time>
      </trkpt>
      <trkpt lat="47.30303" lon="-2.26225">
        <ele>2.5999999046326</ele>
        <time>2020-08-15T08:57:07.000Z</time>
      </trkpt>
      <trkpt lat="47.30246" lon="-2.26232">
        <ele>2.5999999046326</ele>
        <time>2020-08-15T08:57:16.000Z</time>
      </trkpt>
      <trkpt lat="47.30207" lon="-2.26223">
        <ele>2.5999999046326</ele>
        <time>2020-08-15T08:57:22.000Z</time>
      </trkpt>
      <trkpt lat="47.30188" lon="-2.26223">
        <ele>2.5999999046326</ele>
        <time>2020-08-15T08:57:25.000Z</time>
      </trkpt>
      <trkpt lat="47.30175" lon="-2.26226">
        <ele>2.5999999046326</ele>
        <time>2020-08-15T08:57:27.000Z</time>
      </trkpt>
      <trkpt lat="47.30135" lon="-2.26244">
        <ele>2.5999999046326</ele>
        <time>2020-08-15T08:57:33.000Z</time>
      </trkpt>
      <trkpt lat="47.30091" lon="-2.26263">
        <ele>2.5999999046326</ele>
        <time>2020-08-15T08:57:40.000Z</time>
      </trkpt>
      <trkpt lat="47.30052" lon="-2.26273">
        <ele>2.5999999046326</ele>
        <time>2020-08-15T08:57:46.000Z</time>
      </trkpt>
      <trkpt lat="47.30018" lon="-2.26277">
        <ele>2.5999999046326</ele>
        <time>2020-08-15T08:57:51.000Z</time>
      </trkpt>
      <trkpt lat="47.29971" lon="-2.26279">
        <ele>2.5999999046326</ele>
        <time>2020-08-15T08:57:59.000Z</time>
      </trkpt>
      <trkpt lat="47.2993" lon="-2.2628">
        <ele>2.5999999046326</ele>
        <time>2020-08-15T08:58:06.000Z</time>
      </trkpt>
      <trkpt lat="47.29886" lon="-2.26283">
        <ele>2.5999999046326</ele>
        <time>2020-08-15T08:58:14.000Z</time>
      </trkpt>
      <trkpt lat="47.29876" lon="-2.26284">
        <ele>3</ele>
        <time>2020-08-15T08:58:16.000Z</time>
      </trkpt>
      <trkpt lat="47.29872" lon="-2.26285">
        <ele>3.4000000953674</ele>
        <time>2020-08-15T08:58:17.000Z</time>
      </trkpt>
      <trkpt lat="47.29867" lon="-2.26285">
        <ele>4</ele>
        <time>2020-08-15T08:58:18.000Z</time>
      </trkpt>
      <trkpt lat="47.29862" lon="-2.26285">
        <ele>4.4000000953674</ele>
        <time>2020-08-15T08:58:19.000Z</time>
      </trkpt>
      <trkpt lat="47.29856" lon="-2.26285">
        <ele>4.8000001907349</ele>
        <time>2020-08-15T08:58:20.000Z</time>
      </trkpt>
      <trkpt lat="47.29831" lon="-2.26282">
        <ele>4.8000001907349</ele>
        <time>2020-08-15T08:58:24.000Z</time>
      </trkpt>
      <trkpt lat="47.29824" lon="-2.2628">
        <ele>4.8000001907349</ele>
        <time>2020-08-15T08:58:25.000Z</time>
      </trkpt>
      <trkpt lat="47.29805" lon="-2.2627">
        <ele>4.8000001907349</ele>
        <time>2020-08-15T08:58:28.000Z</time>
      </trkpt>
      <trkpt lat="47.29794" lon="-2.26259">
        <ele>4.8000001907349</ele>
        <time>2020-08-15T08:58:30.000Z</time>
      </trkpt>
      <trkpt lat="47.29754" lon="-2.26221">
        <ele>4.8000001907349</ele>
        <time>2020-08-15T08:58:37.000Z</time>
      </trkpt>
      <trkpt lat="47.29726" lon="-2.26209">
        <ele>4.8000001907349</ele>
        <time>2020-08-15T08:58:41.000Z</time>
      </trkpt>
      <trkpt lat="47.29719" lon="-2.26208">
        <ele>4.8000001907349</ele>
        <time>2020-08-15T08:58:42.000Z</time>
      </trkpt>
      <trkpt lat="47.29705" lon="-2.26208">
        <ele>4.8000001907349</ele>
        <time>2020-08-15T08:58:44.000Z</time>
      </trkpt>
      <trkpt lat="47.29698" lon="-2.26212">
        <ele>4.8000001907349</ele>
        <time>2020-08-15T08:58:45.000Z</time>
      </trkpt>
      <trkpt lat="47.29673" lon="-2.26234">
        <ele>4.8000001907349</ele>
        <time>2020-08-15T08:58:49.000Z</time>
      </trkpt>
      <trkpt lat="47.29659" lon="-2.26244">
        <ele>4.8000001907349</ele>
        <time>2020-08-15T08:58:51.000Z</time>
      </trkpt>
      <trkpt lat="47.29639" lon="-2.26252">
        <ele>4.8000001907349</ele>
        <time>2020-08-15T08:58:54.000Z</time>
      </trkpt>
      <trkpt lat="47.29607" lon="-2.26254">
        <ele>4.8000001907349</ele>
        <time>2020-08-15T08:58:59.000Z</time>
      </trkpt>
      <trkpt lat="47.2959" lon="-2.26254">
        <ele>5.1999998092651</ele>
        <time>2020-08-15T08:59:02.000Z</time>
      </trkpt>
      <trkpt lat="47.29585" lon="-2.26254">
        <ele>5.8000001907349</ele>
        <time>2020-08-15T08:59:03.000Z</time>
      </trkpt>
      <trkpt lat="47.29579" lon="-2.26254">
        <ele>6.1999998092651</ele>
        <time>2020-08-15T08:59:04.000Z</time>
      </trkpt>
      <trkpt lat="47.29574" lon="-2.26253">
        <ele>6.5999999046326</ele>
        <time>2020-08-15T08:59:05.000Z</time>
      </trkpt>
      <trkpt lat="47.29569" lon="-2.26254">
        <ele>7</ele>
        <time>2020-08-15T08:59:06.000Z</time>
      </trkpt>
      <trkpt lat="47.29548" lon="-2.26252">
        <ele>7.4000000953674</ele>
        <time>2020-08-15T08:59:11.000Z</time>
      </trkpt>
      <trkpt lat="47.29544" lon="-2.26251">
        <ele>7.8000001907349</ele>
        <time>2020-08-15T08:59:12.000Z</time>
      </trkpt>
      <trkpt lat="47.29541" lon="-2.2625">
        <ele>8.8000001907349</ele>
        <time>2020-08-15T08:59:13.000Z</time>
      </trkpt>
      <trkpt lat="47.29538" lon="-2.26249">
        <ele>9.1999998092651</ele>
        <time>2020-08-15T08:59:14.000Z</time>
      </trkpt>
      <trkpt lat="47.29534" lon="-2.26243">
        <ele>9.1999998092651</ele>
        <time>2020-08-15T08:59:16.000Z</time>
      </trkpt>
      <trkpt lat="47.29539" lon="-2.26233">
        <ele>9.1999998092651</ele>
        <time>2020-08-15T08:59:19.000Z</time>
      </trkpt>
      <trkpt lat="47.29546" lon="-2.26226">
        <ele>9.6000003814697</ele>
        <time>2020-08-15T08:59:21.000Z</time>
      </trkpt>
      <trkpt lat="47.29549" lon="-2.26223">
        <ele>10</ele>
        <time>2020-08-15T08:59:22.000Z</time>
      </trkpt>
      <trkpt lat="47.29552" lon="-2.26221">
        <ele>10.39999961853</ele>
        <time>2020-08-15T08:59:23.000Z</time>
      </trkpt>
      <trkpt lat="47.29554" lon="-2.26218">
        <ele>11</ele>
        <time>2020-08-15T08:59:24.000Z</time>
      </trkpt>
      <trkpt lat="47.29556" lon="-2.26216">
        <ele>11.39999961853</ele>
        <time>2020-08-15T08:59:25.000Z</time>
      </trkpt>
      <trkpt lat="47.29558" lon="-2.2621">
        <ele>11.39999961853</ele>
        <time>2020-08-15T08:59:28.000Z</time>
      </trkpt>
      <trkpt lat="47.29556" lon="-2.26205">
        <ele>11.39999961853</ele>
        <time>2020-08-15T08:59:30.000Z</time>
      </trkpt>
      <trkpt lat="47.29551" lon="-2.26203">
        <ele>11.39999961853</ele>
        <time>2020-08-15T08:59:35.000Z</time>
      </trkpt>
      <trkpt lat="47.2954" lon="-2.26204">
        <ele>11.39999961853</ele>
        <time>2020-08-15T08:59:40.000Z</time>
      </trkpt>
      <trkpt lat="47.29536" lon="-2.26204">
        <ele>11.39999961853</ele>
        <time>2020-08-15T08:59:42.000Z</time>
      </trkpt>
      <trkpt lat="47.29528" lon="-2.26203">
        <ele>11.39999961853</ele>
        <time>2020-08-15T08:59:46.000Z</time>
      </trkpt>
      <trkpt lat="47.29518" lon="-2.26201">
        <ele>11.39999961853</ele>
        <time>2020-08-15T08:59:51.000Z</time>
      </trkpt>
      <trkpt lat="47.2951" lon="-2.26198">
        <ele>11.800000190735</ele>
        <time>2020-08-15T08:59:55.000Z</time>
      </trkpt>
      <trkpt lat="47.29507" lon="-2.26197">
        <ele>12.199999809265</ele>
        <time>2020-08-15T08:59:56.000Z</time>
      </trkpt>
      <trkpt lat="47.29505" lon="-2.26196">
        <ele>12.60000038147</ele>
        <time>2020-08-15T08:59:57.000Z</time>
      </trkpt>
      <trkpt lat="47.29502" lon="-2.26194">
        <ele>13</ele>
        <time>2020-08-15T08:59:58.000Z</time>
      </trkpt>
      <trkpt lat="47.29499" lon="-2.26193">
        <ele>13.39999961853</ele>
        <time>2020-08-15T08:59:59.000Z</time>
      </trkpt>
      <trkpt lat="47.29487" lon="-2.2619">
        <ele>13.39999961853</ele>
        <time>2020-08-15T09:00:03.000Z</time>
      </trkpt>
      <trkpt lat="47.29469" lon="-2.26184">
        <ele>13.39999961853</ele>
        <time>2020-08-15T09:00:09.000Z</time>
      </trkpt>
      <trkpt lat="47.2945" lon="-2.26184">
        <ele>13.800000190735</ele>
        <time>2020-08-15T09:00:14.000Z</time>
      </trkpt>
      <trkpt lat="47.29447" lon="-2.26184">
        <ele>14.199999809265</ele>
        <time>2020-08-15T09:00:15.000Z</time>
      </trkpt>
      <trkpt lat="47.29443" lon="-2.26185">
        <ele>14.800000190735</ele>
        <time>2020-08-15T09:00:16.000Z</time>
      </trkpt>
      <trkpt lat="47.29441" lon="-2.26184">
        <ele>15.199999809265</ele>
        <time>2020-08-15T09:00:17.000Z</time>
      </trkpt>
      <trkpt lat="47.29438" lon="-2.26184">
        <ele>15.60000038147</ele>
        <time>2020-08-15T09:00:18.000Z</time>
      </trkpt>
      <trkpt lat="47.29429" lon="-2.26181">
        <ele>15.60000038147</ele>
        <time>2020-08-15T09:00:22.000Z</time>
      </trkpt>
      <trkpt lat="47.29419" lon="-2.26172">
        <ele>16</ele>
        <time>2020-08-15T09:00:27.000Z</time>
      </trkpt>
      <trkpt lat="47.29417" lon="-2.2617">
        <ele>16.39999961853</ele>
        <time>2020-08-15T09:00:28.000Z</time>
      </trkpt>
      <trkpt lat="47.29415" lon="-2.26167">
        <ele>16.799999237061</ele>
        <time>2020-08-15T09:00:29.000Z</time>
      </trkpt>
      <trkpt lat="47.29414" lon="-2.26163">
        <ele>17.200000762939</ele>
        <time>2020-08-15T09:00:30.000Z</time>
      </trkpt>
      <trkpt lat="47.29413" lon="-2.26159">
        <ele>17.60000038147</ele>
        <time>2020-08-15T09:00:31.000Z</time>
      </trkpt>
      <trkpt lat="47.29412" lon="-2.26142">
        <ele>17.60000038147</ele>
        <time>2020-08-15T09:00:34.000Z</time>
      </trkpt>
      <trkpt lat="47.29416" lon="-2.26122">
        <ele>17</ele>
        <time>2020-08-15T09:00:37.000Z</time>
      </trkpt>
      <trkpt lat="47.29417" lon="-2.26115">
        <ele>16.60000038147</ele>
        <time>2020-08-15T09:00:38.000Z</time>
      </trkpt>
      <trkpt lat="47.29416" lon="-2.26108">
        <ele>16.200000762939</ele>
        <time>2020-08-15T09:00:39.000Z</time>
      </trkpt>
      <trkpt lat="47.29415" lon="-2.26101">
        <ele>15.800000190735</ele>
        <time>2020-08-15T09:00:40.000Z</time>
      </trkpt>
      <trkpt lat="47.29414" lon="-2.26094">
        <ele>15.199999809265</ele>
        <time>2020-08-15T09:00:41.000Z</time>
      </trkpt>
      <trkpt lat="47.29413" lon="-2.26082">
        <ele>15.199999809265</ele>
        <time>2020-08-15T09:00:43.000Z</time>
      </trkpt>
      <trkpt lat="47.294" lon="-2.26053">
        <ele>15.199999809265</ele>
        <time>2020-08-15T09:00:49.000Z</time>
      </trkpt>
      <trkpt lat="47.29393" lon="-2.26034">
        <ele>15.199999809265</ele>
        <time>2020-08-15T09:00:53.000Z</time>
      </trkpt>
      <trkpt lat="47.29394" lon="-2.26028">
        <ele>15.199999809265</ele>
        <time>2020-08-15T09:00:54.000Z</time>
      </trkpt>
      <trkpt lat="47.29394" lon="-2.26002">
        <ele>15.199999809265</ele>
        <time>2020-08-15T09:00:59.000Z</time>
      </trkpt>
      <trkpt lat="47.29394" lon="-2.2598">
        <ele>15.199999809265</ele>
        <time>2020-08-15T09:01:05.000Z</time>
      </trkpt>
      <trkpt lat="47.29394" lon="-2.25968">
        <ele>15.199999809265</ele>
        <time>2020-08-15T09:01:08.000Z</time>
      </trkpt>
      <trkpt lat="47.29397" lon="-2.25966">
        <ele>15.199999809265</ele>
        <time>2020-08-15T09:01:10.000Z</time>
      </trkpt>
      <trkpt lat="47.29401" lon="-2.25968">
        <ele>15.199999809265</ele>
        <time>2020-08-15T09:01:12.000Z</time>
      </trkpt>
      <trkpt lat="47.29407" lon="-2.2597">
        <ele>15.199999809265</ele>
        <time>2020-08-15T09:01:14.000Z</time>
      </trkpt>
      <trkpt lat="47.29427" lon="-2.25958">
        <ele>15.199999809265</ele>
        <time>2020-08-15T09:01:19.000Z</time>
      </trkpt>
      <trkpt lat="47.2944" lon="-2.25937">
        <ele>15.199999809265</ele>
        <time>2020-08-15T09:01:23.000Z</time>
      </trkpt>
      <trkpt lat="47.2944" lon="-2.2592">
        <ele>15.199999809265</ele>
        <time>2020-08-15T09:01:27.000Z</time>
      </trkpt>
      <trkpt lat="47.29437" lon="-2.25894">
        <ele>15.199999809265</ele>
        <time>2020-08-15T09:01:32.000Z</time>
      </trkpt>
      <trkpt lat="47.29428" lon="-2.25872">
        <ele>15.199999809265</ele>
        <time>2020-08-15T09:01:37.000Z</time>
      </trkpt>
      <trkpt lat="47.29427" lon="-2.25863">
        <ele>15.199999809265</ele>
        <time>2020-08-15T09:01:39.000Z</time>
      </trkpt>
      <trkpt lat="47.29429" lon="-2.25854">
        <ele>15.199999809265</ele>
        <time>2020-08-15T09:01:41.000Z</time>
      </trkpt>
      <trkpt lat="47.29434" lon="-2.25821">
        <ele>15.199999809265</ele>
        <time>2020-08-15T09:01:46.000Z</time>
      </trkpt>
      <trkpt lat="47.29432" lon="-2.25798">
        <ele>15.199999809265</ele>
        <time>2020-08-15T09:01:51.000Z</time>
      </trkpt>
      <trkpt lat="47.29431" lon="-2.2578">
        <ele>15.199999809265</ele>
        <time>2020-08-15T09:01:56.000Z</time>
      </trkpt>
      <trkpt lat="47.29423" lon="-2.25768">
        <ele>15.199999809265</ele>
        <time>2020-08-15T09:02:01.000Z</time>
      </trkpt>
      <trkpt lat="47.29421" lon="-2.25764">
        <ele>15.199999809265</ele>
        <time>2020-08-15T09:02:02.000Z</time>
      </trkpt>
      <trkpt lat="47.29414" lon="-2.25759">
        <ele>15.199999809265</ele>
        <time>2020-08-15T09:02:06.000Z</time>
      </trkpt>
      <trkpt lat="47.29409" lon="-2.25757">
        <ele>15.199999809265</ele>
        <time>2020-08-15T09:02:08.000Z</time>
      </trkpt>
      <trkpt lat="47.29403" lon="-2.25755">
        <ele>15.800000190735</ele>
        <time>2020-08-15T09:02:10.000Z</time>
      </trkpt>
      <trkpt lat="47.29401" lon="-2.25755">
        <ele>16.200000762939</ele>
        <time>2020-08-15T09:02:11.000Z</time>
      </trkpt>
      <trkpt lat="47.29398" lon="-2.25755">
        <ele>16.60000038147</ele>
        <time>2020-08-15T09:02:12.000Z</time>
      </trkpt>
      <trkpt lat="47.29395" lon="-2.25756">
        <ele>17</ele>
        <time>2020-08-15T09:02:13.000Z</time>
      </trkpt>
      <trkpt lat="47.29393" lon="-2.25757">
        <ele>17.39999961853</ele>
        <time>2020-08-15T09:02:14.000Z</time>
      </trkpt>
      <trkpt lat="47.29376" lon="-2.25762">
        <ele>17.39999961853</ele>
        <time>2020-08-15T09:02:20.000Z</time>
      </trkpt>
      <trkpt lat="47.29373" lon="-2.25764">
        <ele>17.39999961853</ele>
        <time>2020-08-15T09:02:22.000Z</time>
      </trkpt>
      <trkpt lat="47.29371" lon="-2.25768">
        <ele>17.39999961853</ele>
        <time>2020-08-15T09:02:24.000Z</time>
      </trkpt>
      <trkpt lat="47.2937" lon="-2.25771">
        <ele>17.39999961853</ele>
        <time>2020-08-15T09:02:25.000Z</time>
      </trkpt>
      <trkpt lat="47.29368" lon="-2.25778">
        <ele>17.39999961853</ele>
        <time>2020-08-15T09:02:28.000Z</time>
      </trkpt>
      <trkpt lat="47.29367" lon="-2.25784">
        <ele>17.39999961853</ele>
        <time>2020-08-15T09:02:30.000Z</time>
      </trkpt>
      <trkpt lat="47.29359" lon="-2.25791">
        <ele>17.39999961853</ele>
        <time>2020-08-15T09:02:34.000Z</time>
      </trkpt>
      <trkpt lat="47.29356" lon="-2.25792">
        <ele>17.39999961853</ele>
        <time>2020-08-15T09:02:35.000Z</time>
      </trkpt>
      <trkpt lat="47.29347" lon="-2.25793">
        <ele>17.799999237061</ele>
        <time>2020-08-15T09:02:38.000Z</time>
      </trkpt>
      <trkpt lat="47.29344" lon="-2.25793">
        <ele>18.200000762939</ele>
        <time>2020-08-15T09:02:39.000Z</time>
      </trkpt>
      <trkpt lat="47.29342" lon="-2.25793">
        <ele>18.60000038147</ele>
        <time>2020-08-15T09:02:40.000Z</time>
      </trkpt>
      <trkpt lat="47.29339" lon="-2.25791">
        <ele>19.200000762939</ele>
        <time>2020-08-15T09:02:41.000Z</time>
      </trkpt>
      <trkpt lat="47.29336" lon="-2.25791">
        <ele>19.60000038147</ele>
        <time>2020-08-15T09:02:42.000Z</time>
      </trkpt>
      <trkpt lat="47.29322" lon="-2.25788">
        <ele>19.60000038147</ele>
        <time>2020-08-15T09:02:47.000Z</time>
      </trkpt>
      <trkpt lat="47.29307" lon="-2.258">
        <ele>19.60000038147</ele>
        <time>2020-08-15T09:02:52.000Z</time>
      </trkpt>
      <trkpt lat="47.29304" lon="-2.25804">
        <ele>20</ele>
        <time>2020-08-15T09:02:53.000Z</time>
      </trkpt>
      <trkpt lat="47.29301" lon="-2.25806">
        <ele>20.39999961853</ele>
        <time>2020-08-15T09:02:54.000Z</time>
      </trkpt>
      <trkpt lat="47.29298" lon="-2.25809">
        <ele>21.200000762939</ele>
        <time>2020-08-15T09:02:55.000Z</time>
      </trkpt>
      <trkpt lat="47.29294" lon="-2.25813">
        <ele>21.60000038147</ele>
        <time>2020-08-15T09:02:56.000Z</time>
      </trkpt>
      <trkpt lat="47.2929" lon="-2.25817">
        <ele>21.60000038147</ele>
        <time>2020-08-15T09:02:57.000Z</time>
      </trkpt>
      <trkpt lat="47.29256" lon="-2.25845">
        <ele>21.60000038147</ele>
        <time>2020-08-15T09:03:04.000Z</time>
      </trkpt>
      <trkpt lat="47.29227" lon="-2.25864">
        <ele>21.60000038147</ele>
        <time>2020-08-15T09:03:10.000Z</time>
      </trkpt>
      <trkpt lat="47.29197" lon="-2.25885">
        <ele>21.60000038147</ele>
        <time>2020-08-15T09:03:17.000Z</time>
      </trkpt>
      <trkpt lat="47.29183" lon="-2.25895">
        <ele>21.60000038147</ele>
        <time>2020-08-15T09:03:20.000Z</time>
      </trkpt>
      <trkpt lat="47.29175" lon="-2.25904">
        <ele>21.60000038147</ele>
        <time>2020-08-15T09:03:22.000Z</time>
      </trkpt>
      <trkpt lat="47.29166" lon="-2.25923">
        <ele>21.60000038147</ele>
        <time>2020-08-15T09:03:25.000Z</time>
      </trkpt>
      <trkpt lat="47.29159" lon="-2.25937">
        <ele>21.60000038147</ele>
        <time>2020-08-15T09:03:27.000Z</time>
      </trkpt>
      <trkpt lat="47.29143" lon="-2.25961">
        <ele>21.60000038147</ele>
        <time>2020-08-15T09:03:31.000Z</time>
      </trkpt>
      <trkpt lat="47.29137" lon="-2.25965">
        <ele>21.60000038147</ele>
        <time>2020-08-15T09:03:32.000Z</time>
      </trkpt>
      <trkpt lat="47.29114" lon="-2.25972">
        <ele>21.60000038147</ele>
        <time>2020-08-15T09:03:36.000Z</time>
      </trkpt>
      <trkpt lat="47.29108" lon="-2.25974">
        <ele>21.60000038147</ele>
        <time>2020-08-15T09:03:37.000Z</time>
      </trkpt>
      <trkpt lat="47.29092" lon="-2.25991">
        <ele>21.60000038147</ele>
        <time>2020-08-15T09:03:41.000Z</time>
      </trkpt>
      <trkpt lat="47.29086" lon="-2.25999">
        <ele>21.60000038147</ele>
        <time>2020-08-15T09:03:43.000Z</time>
      </trkpt>
      <trkpt lat="47.29081" lon="-2.26006">
        <ele>21.60000038147</ele>
        <time>2020-08-15T09:03:45.000Z</time>
      </trkpt>
      <trkpt lat="47.29081" lon="-2.26011">
        <ele>21.200000762939</ele>
        <time>2020-08-15T09:03:46.000Z</time>
      </trkpt>
      <trkpt lat="47.29082" lon="-2.26015">
        <ele>20.799999237061</ele>
        <time>2020-08-15T09:03:47.000Z</time>
      </trkpt>
      <trkpt lat="47.29083" lon="-2.26019">
        <ele>20.200000762939</ele>
        <time>2020-08-15T09:03:48.000Z</time>
      </trkpt>
      <trkpt lat="47.29085" lon="-2.26023">
        <ele>19.799999237061</ele>
        <time>2020-08-15T09:03:49.000Z</time>
      </trkpt>
      <trkpt lat="47.29086" lon="-2.26029">
        <ele>19.39999961853</ele>
        <time>2020-08-15T09:03:50.000Z</time>
      </trkpt>
      <trkpt lat="47.29092" lon="-2.26046">
        <ele>19.39999961853</ele>
        <time>2020-08-15T09:03:53.000Z</time>
      </trkpt>
      <trkpt lat="47.29102" lon="-2.26072">
        <ele>19.39999961853</ele>
        <time>2020-08-15T09:03:59.000Z</time>
      </trkpt>
      <trkpt lat="47.29102" lon="-2.26077">
        <ele>19.39999961853</ele>
        <time>2020-08-15T09:04:03.000Z</time>
      </trkpt>
      <trkpt lat="47.29103" lon="-2.2608">
        <ele>19.39999961853</ele>
        <time>2020-08-15T09:04:07.000Z</time>
      </trkpt>
      <trkpt lat="47.29105" lon="-2.26087">
        <ele>19.39999961853</ele>
        <time>2020-08-15T09:04:09.000Z</time>
      </trkpt>
      <trkpt lat="47.29113" lon="-2.26113">
        <ele>19.39999961853</ele>
        <time>2020-08-15T09:04:14.000Z</time>
      </trkpt>
      <trkpt lat="47.29115" lon="-2.26134">
        <ele>19.39999961853</ele>
        <time>2020-08-15T09:04:19.000Z</time>
      </trkpt>
      <trkpt lat="47.29113" lon="-2.26135">
        <ele>19.39999961853</ele>
        <time>2020-08-15T09:04:22.000Z</time>
      </trkpt>
      <trkpt lat="47.29111" lon="-2.2613">
        <ele>19.39999961853</ele>
        <time>2020-08-15T09:04:34.000Z</time>
      </trkpt>
      <trkpt lat="47.29105" lon="-2.26128">
        <ele>19.39999961853</ele>
        <time>2020-08-15T09:04:37.000Z</time>
      </trkpt>
      <trkpt lat="47.29099" lon="-2.2614">
        <ele>19.39999961853</ele>
        <time>2020-08-15T09:04:40.000Z</time>
      </trkpt>
      <trkpt lat="47.29096" lon="-2.26153">
        <ele>19.39999961853</ele>
        <time>2020-08-15T09:04:42.000Z</time>
      </trkpt>
      <trkpt lat="47.29093" lon="-2.26176">
        <ele>19.799999237061</ele>
        <time>2020-08-15T09:04:45.000Z</time>
      </trkpt>
      <trkpt lat="47.29091" lon="-2.26184">
        <ele>20.200000762939</ele>
        <time>2020-08-15T09:04:46.000Z</time>
      </trkpt>
      <trkpt lat="47.2909" lon="-2.26192">
        <ele>20.60000038147</ele>
        <time>2020-08-15T09:04:47.000Z</time>
      </trkpt>
      <trkpt lat="47.29088" lon="-2.26201">
        <ele>21</ele>
        <time>2020-08-15T09:04:48.000Z</time>
      </trkpt>
      <trkpt lat="47.29086" lon="-2.2621">
        <ele>21.39999961853</ele>
        <time>2020-08-15T09:04:49.000Z</time>
      </trkpt>
      <trkpt lat="47.29083" lon="-2.26228">
        <ele>21.39999961853</ele>
        <time>2020-08-15T09:04:51.000Z</time>
      </trkpt>
      <trkpt lat="47.29078" lon="-2.26263">
        <ele>21.39999961853</ele>
        <time>2020-08-15T09:04:55.000Z</time>
      </trkpt>
      <trkpt lat="47.29074" lon="-2.26281">
        <ele>21.39999961853</ele>
        <time>2020-08-15T09:04:57.000Z</time>
      </trkpt>
      <trkpt lat="47.29061" lon="-2.26322">
        <ele>21.39999961853</ele>
        <time>2020-08-15T09:05:02.000Z</time>
      </trkpt>
      <trkpt lat="47.29057" lon="-2.26329">
        <ele>21.39999961853</ele>
        <time>2020-08-15T09:05:03.000Z</time>
      </trkpt>
      <trkpt lat="47.29038" lon="-2.26351">
        <ele>21.39999961853</ele>
        <time>2020-08-15T09:05:07.000Z</time>
      </trkpt>
      <trkpt lat="47.29019" lon="-2.2637">
        <ele>21.39999961853</ele>
        <time>2020-08-15T09:05:11.000Z</time>
      </trkpt>
      <trkpt lat="47.29015" lon="-2.26377">
        <ele>21.39999961853</ele>
        <time>2020-08-15T09:05:12.000Z</time>
      </trkpt>
      <trkpt lat="47.29013" lon="-2.26399">
        <ele>21.39999961853</ele>
        <time>2020-08-15T09:05:15.000Z</time>
      </trkpt>
      <trkpt lat="47.29014" lon="-2.26407">
        <ele>21.39999961853</ele>
        <time>2020-08-15T09:05:16.000Z</time>
      </trkpt>
      <trkpt lat="47.29017" lon="-2.2645">
        <ele>21.39999961853</ele>
        <time>2020-08-15T09:05:20.000Z</time>
      </trkpt>
      <trkpt lat="47.29027" lon="-2.26522">
        <ele>21</ele>
        <time>2020-08-15T09:05:26.000Z</time>
      </trkpt>
      <trkpt lat="47.29031" lon="-2.26534">
        <ele>20.60000038147</ele>
        <time>2020-08-15T09:05:27.000Z</time>
      </trkpt>
      <trkpt lat="47.29034" lon="-2.26544">
        <ele>20.200000762939</ele>
        <time>2020-08-15T09:05:28.000Z</time>
      </trkpt>
      <trkpt lat="47.29036" lon="-2.26555">
        <ele>19.799999237061</ele>
        <time>2020-08-15T09:05:29.000Z</time>
      </trkpt>
      <trkpt lat="47.29039" lon="-2.26564">
        <ele>19.39999961853</ele>
        <time>2020-08-15T09:05:30.000Z</time>
      </trkpt>
      <trkpt lat="47.29042" lon="-2.26581">
        <ele>19.39999961853</ele>
        <time>2020-08-15T09:05:32.000Z</time>
      </trkpt>
      <trkpt lat="47.29046" lon="-2.26607">
        <ele>19.39999961853</ele>
        <time>2020-08-15T09:05:35.000Z</time>
      </trkpt>
      <trkpt lat="47.29047" lon="-2.26627">
        <ele>19.39999961853</ele>
        <time>2020-08-15T09:05:37.000Z</time>
      </trkpt>
      <trkpt lat="47.29051" lon="-2.26691">
        <ele>19.39999961853</ele>
        <time>2020-08-15T09:05:43.000Z</time>
      </trkpt>
      <trkpt lat="47.29055" lon="-2.26727">
        <ele>19</ele>
        <time>2020-08-15T09:05:46.000Z</time>
      </trkpt>
      <trkpt lat="47.29056" lon="-2.26739">
        <ele>18.60000038147</ele>
        <time>2020-08-15T09:05:47.000Z</time>
      </trkpt>
      <trkpt lat="47.29058" lon="-2.26751">
        <ele>18.200000762939</ele>
        <time>2020-08-15T09:05:48.000Z</time>
      </trkpt>
      <trkpt lat="47.29059" lon="-2.26761">
        <ele>17.200000762939</ele>
        <time>2020-08-15T09:05:49.000Z</time>
      </trkpt>
      <trkpt lat="47.2906" lon="-2.2677">
        <ele>16.60000038147</ele>
        <time>2020-08-15T09:05:50.000Z</time>
      </trkpt>
      <trkpt lat="47.29061" lon="-2.26777">
        <ele>16.200000762939</ele>
        <time>2020-08-15T09:05:51.000Z</time>
      </trkpt>
      <trkpt lat="47.29062" lon="-2.26783">
        <ele>15.60000038147</ele>
        <time>2020-08-15T09:05:52.000Z</time>
      </trkpt>
      <trkpt lat="47.29062" lon="-2.26787">
        <ele>15</ele>
        <time>2020-08-15T09:05:53.000Z</time>
      </trkpt>
      <trkpt lat="47.29062" lon="-2.26791">
        <ele>14.60000038147</ele>
        <time>2020-08-15T09:05:54.000Z</time>
      </trkpt>
      <trkpt lat="47.29063" lon="-2.26796">
        <ele>14.199999809265</ele>
        <time>2020-08-15T09:05:55.000Z</time>
      </trkpt>
      <trkpt lat="47.29063" lon="-2.26798">
        <ele>13.800000190735</ele>
        <time>2020-08-15T09:05:56.000Z</time>
      </trkpt>
      <trkpt lat="47.29063" lon="-2.268">
        <ele>13.199999809265</ele>
        <time>2020-08-15T09:05:57.000Z</time>
      </trkpt>
      <trkpt lat="47.29062" lon="-2.26801">
        <ele>12.800000190735</ele>
        <time>2020-08-15T09:05:58.000Z</time>
      </trkpt>
      <trkpt lat="47.29063" lon="-2.26807">
        <ele>12.800000190735</ele>
        <time>2020-08-15T09:06:04.000Z</time>
      </trkpt>
      <trkpt lat="47.29062" lon="-2.26821">
        <ele>12.800000190735</ele>
        <time>2020-08-15T09:06:11.000Z</time>
      </trkpt>
      <trkpt lat="47.29061" lon="-2.26852">
        <ele>12.800000190735</ele>
        <time>2020-08-15T09:06:17.000Z</time>
      </trkpt>
      <trkpt lat="47.29059" lon="-2.26872">
        <ele>12.800000190735</ele>
        <time>2020-08-15T09:06:21.000Z</time>
      </trkpt>
      <trkpt lat="47.29059" lon="-2.26881">
        <ele>12.800000190735</ele>
        <time>2020-08-15T09:06:25.000Z</time>
      </trkpt>
      <trkpt lat="47.29061" lon="-2.26889">
        <ele>12.800000190735</ele>
        <time>2020-08-15T09:06:31.000Z</time>
      </trkpt>
      <trkpt lat="47.29062" lon="-2.26891">
        <ele>12.800000190735</ele>
        <time>2020-08-15T09:06:50.000Z</time>
      </trkpt>
      <trkpt lat="47.29062" lon="-2.26891">
        <ele>12.800000190735</ele>
        <time>2020-08-15T09:06:51.000Z</time>
      </trkpt>
      <trkpt lat="47.29067" lon="-2.26899">
        <ele>12.800000190735</ele>
        <time>2020-08-15T09:07:37.000Z</time>
      </trkpt>
      <trkpt lat="47.29073" lon="-2.26912">
        <ele>12.800000190735</ele>
        <time>2020-08-15T09:07:41.000Z</time>
      </trkpt>
      <trkpt lat="47.29075" lon="-2.26916">
        <ele>12.800000190735</ele>
        <time>2020-08-15T09:07:43.000Z</time>
      </trkpt>
      <trkpt lat="47.29075" lon="-2.26923">
        <ele>12.800000190735</ele>
        <time>2020-08-15T09:07:45.000Z</time>
      </trkpt>
      <trkpt lat="47.29075" lon="-2.26941">
        <ele>12.800000190735</ele>
        <time>2020-08-15T09:07:50.000Z</time>
      </trkpt>
      <trkpt lat="47.29077" lon="-2.26968">
        <ele>12.800000190735</ele>
        <time>2020-08-15T09:07:55.000Z</time>
      </trkpt>
      <trkpt lat="47.29076" lon="-2.27006">
        <ele>12.800000190735</ele>
        <time>2020-08-15T09:08:01.000Z</time>
      </trkpt>
      <trkpt lat="47.29076" lon="-2.27017">
        <ele>12.800000190735</ele>
        <time>2020-08-15T09:08:04.000Z</time>
      </trkpt>
      <trkpt lat="47.29076" lon="-2.2702">
        <ele>12.800000190735</ele>
        <time>2020-08-15T09:08:05.000Z</time>
      </trkpt>
      <trkpt lat="47.29074" lon="-2.27029">
        <ele>12.800000190735</ele>
        <time>2020-08-15T09:08:09.000Z</time>
      </trkpt>
      <trkpt lat="47.29073" lon="-2.27033">
        <ele>12.800000190735</ele>
        <time>2020-08-15T09:08:11.000Z</time>
      </trkpt>
      <trkpt lat="47.29072" lon="-2.2705">
        <ele>12.800000190735</ele>
        <time>2020-08-15T09:08:16.000Z</time>
      </trkpt>
      <trkpt lat="47.29071" lon="-2.27079">
        <ele>12.800000190735</ele>
        <time>2020-08-15T09:08:22.000Z</time>
      </trkpt>
      <trkpt lat="47.29071" lon="-2.27092">
        <ele>12.800000190735</ele>
        <time>2020-08-15T09:08:24.000Z</time>
      </trkpt>
      <trkpt lat="47.2907" lon="-2.27105">
        <ele>12.800000190735</ele>
        <time>2020-08-15T09:08:26.000Z</time>
      </trkpt>
      <trkpt lat="47.29068" lon="-2.27127">
        <ele>12.800000190735</ele>
        <time>2020-08-15T09:08:30.000Z</time>
      </trkpt>
      <trkpt lat="47.29069" lon="-2.27133">
        <ele>12.800000190735</ele>
        <time>2020-08-15T09:08:31.000Z</time>
      </trkpt>
      <trkpt lat="47.29069" lon="-2.2716">
        <ele>12.800000190735</ele>
        <time>2020-08-15T09:08:36.000Z</time>
      </trkpt>
      <trkpt lat="47.29071" lon="-2.2718">
        <ele>12.800000190735</ele>
        <time>2020-08-15T09:08:41.000Z</time>
      </trkpt>
      <trkpt lat="47.29083" lon="-2.27188">
        <ele>12.800000190735</ele>
        <time>2020-08-15T09:08:45.000Z</time>
      </trkpt>
      <trkpt lat="47.29103" lon="-2.27192">
        <ele>12.800000190735</ele>
        <time>2020-08-15T09:08:50.000Z</time>
      </trkpt>
      <trkpt lat="47.2911" lon="-2.27199">
        <ele>12.800000190735</ele>
        <time>2020-08-15T09:08:53.000Z</time>
      </trkpt>
      <trkpt lat="47.2911" lon="-2.27201">
        <ele>12.800000190735</ele>
        <time>2020-08-15T09:08:54.000Z</time>
      </trkpt>
      <trkpt lat="47.29111" lon="-2.27205">
        <ele>12.800000190735</ele>
        <time>2020-08-15T09:08:55.000Z</time>
      </trkpt>
      <trkpt lat="47.29112" lon="-2.2722">
        <ele>12.800000190735</ele>
        <time>2020-08-15T09:08:59.000Z</time>
      </trkpt>
      <trkpt lat="47.29111" lon="-2.27226">
        <ele>12.800000190735</ele>
        <time>2020-08-15T09:09:01.000Z</time>
      </trkpt>
      <trkpt lat="47.29111" lon="-2.27237">
        <ele>12.800000190735</ele>
        <time>2020-08-15T09:09:03.000Z</time>
      </trkpt>
      <trkpt lat="47.29107" lon="-2.27267">
        <ele>12.800000190735</ele>
        <time>2020-08-15T09:09:08.000Z</time>
      </trkpt>
      <trkpt lat="47.29104" lon="-2.27294">
        <ele>12.800000190735</ele>
        <time>2020-08-15T09:09:13.000Z</time>
      </trkpt>
      <trkpt lat="47.291" lon="-2.27328">
        <ele>12.800000190735</ele>
        <time>2020-08-15T09:09:19.000Z</time>
      </trkpt>
      <trkpt lat="47.29101" lon="-2.27342">
        <ele>12.800000190735</ele>
        <time>2020-08-15T09:09:22.000Z</time>
      </trkpt>
      <trkpt lat="47.29102" lon="-2.27347">
        <ele>12.800000190735</ele>
        <time>2020-08-15T09:09:23.000Z</time>
      </trkpt>
      <trkpt lat="47.29109" lon="-2.27378">
        <ele>12.800000190735</ele>
        <time>2020-08-15T09:09:28.000Z</time>
      </trkpt>
      <trkpt lat="47.29111" lon="-2.27408">
        <ele>12.800000190735</ele>
        <time>2020-08-15T09:09:31.000Z</time>
      </trkpt>
      <trkpt lat="47.2911" lon="-2.27426">
        <ele>12.800000190735</ele>
        <time>2020-08-15T09:09:33.000Z</time>
      </trkpt>
      <trkpt lat="47.29108" lon="-2.27461">
        <ele>12.800000190735</ele>
        <time>2020-08-15T09:09:37.000Z</time>
      </trkpt>
      <trkpt lat="47.29106" lon="-2.27478">
        <ele>12.800000190735</ele>
        <time>2020-08-15T09:09:39.000Z</time>
      </trkpt>
      <trkpt lat="47.29104" lon="-2.2751">
        <ele>12.800000190735</ele>
        <time>2020-08-15T09:09:44.000Z</time>
      </trkpt>
      <trkpt lat="47.29103" lon="-2.2753">
        <ele>12.800000190735</ele>
        <time>2020-08-15T09:09:49.000Z</time>
      </trkpt>
      <trkpt lat="47.29092" lon="-2.27532">
        <ele>12.800000190735</ele>
        <time>2020-08-15T09:09:52.000Z</time>
      </trkpt>
      <trkpt lat="47.29083" lon="-2.27531">
        <ele>12.800000190735</ele>
        <time>2020-08-15T09:09:54.000Z</time>
      </trkpt>
      <trkpt lat="47.29068" lon="-2.2753">
        <ele>12.800000190735</ele>
        <time>2020-08-15T09:09:57.000Z</time>
      </trkpt>
      <trkpt lat="47.29034" lon="-2.27526">
        <ele>12.800000190735</ele>
        <time>2020-08-15T09:10:02.000Z</time>
      </trkpt>
      <trkpt lat="47.28976" lon="-2.27523">
        <ele>12.800000190735</ele>
        <time>2020-08-15T09:10:10.000Z</time>
      </trkpt>
      <trkpt lat="47.28936" lon="-2.27525">
        <ele>12.800000190735</ele>
        <time>2020-08-15T09:10:16.000Z</time>
      </trkpt>
      <trkpt lat="47.28881" lon="-2.27529">
        <ele>12.800000190735</ele>
        <time>2020-08-15T09:10:24.000Z</time>
      </trkpt>
      <trkpt lat="47.28842" lon="-2.27536">
        <ele>12.800000190735</ele>
        <time>2020-08-15T09:10:30.000Z</time>
      </trkpt>
      <trkpt lat="47.28816" lon="-2.27541">
        <ele>12.800000190735</ele>
        <time>2020-08-15T09:10:34.000Z</time>
      </trkpt>
      <trkpt lat="47.28805" lon="-2.27547">
        <ele>12.800000190735</ele>
        <time>2020-08-15T09:10:36.000Z</time>
      </trkpt>
      <trkpt lat="47.28785" lon="-2.2757">
        <ele>12.800000190735</ele>
        <time>2020-08-15T09:10:40.000Z</time>
      </trkpt>
      <trkpt lat="47.28781" lon="-2.27576">
        <ele>12.800000190735</ele>
        <time>2020-08-15T09:10:41.000Z</time>
      </trkpt>
      <trkpt lat="47.28763" lon="-2.27597">
        <ele>12.800000190735</ele>
        <time>2020-08-15T09:10:45.000Z</time>
      </trkpt>
      <trkpt lat="47.2875" lon="-2.27614">
        <ele>12.800000190735</ele>
        <time>2020-08-15T09:10:48.000Z</time>
      </trkpt>
      <trkpt lat="47.28746" lon="-2.27621">
        <ele>12.800000190735</ele>
        <time>2020-08-15T09:10:49.000Z</time>
      </trkpt>
      <trkpt lat="47.28716" lon="-2.27669">
        <ele>13.199999809265</ele>
        <time>2020-08-15T09:10:56.000Z</time>
      </trkpt>
      <trkpt lat="47.28711" lon="-2.27676">
        <ele>13.60000038147</ele>
        <time>2020-08-15T09:10:57.000Z</time>
      </trkpt>
      <trkpt lat="47.28707" lon="-2.27683">
        <ele>14</ele>
        <time>2020-08-15T09:10:58.000Z</time>
      </trkpt>
      <trkpt lat="47.28703" lon="-2.27691">
        <ele>14.39999961853</ele>
        <time>2020-08-15T09:10:59.000Z</time>
      </trkpt>
      <trkpt lat="47.28698" lon="-2.27698">
        <ele>14.800000190735</ele>
        <time>2020-08-15T09:11:00.000Z</time>
      </trkpt>
      <trkpt lat="47.2868" lon="-2.2773">
        <ele>14.800000190735</ele>
        <time>2020-08-15T09:11:04.000Z</time>
      </trkpt>
      <trkpt lat="47.28653" lon="-2.27793">
        <ele>14.800000190735</ele>
        <time>2020-08-15T09:11:11.000Z</time>
      </trkpt>
      <trkpt lat="47.28648" lon="-2.27823">
        <ele>14.800000190735</ele>
        <time>2020-08-15T09:11:14.000Z</time>
      </trkpt>
      <trkpt lat="47.28635" lon="-2.27886">
        <ele>14.800000190735</ele>
        <time>2020-08-15T09:11:20.000Z</time>
      </trkpt>
      <trkpt lat="47.2863" lon="-2.27923">
        <ele>14.800000190735</ele>
        <time>2020-08-15T09:11:25.000Z</time>
      </trkpt>
      <trkpt lat="47.28624" lon="-2.27945">
        <ele>14.800000190735</ele>
        <time>2020-08-15T09:11:30.000Z</time>
      </trkpt>
      <trkpt lat="47.28612" lon="-2.27966">
        <ele>14.800000190735</ele>
        <time>2020-08-15T09:11:35.000Z</time>
      </trkpt>
      <trkpt lat="47.28609" lon="-2.27989">
        <ele>14.800000190735</ele>
        <time>2020-08-15T09:11:39.000Z</time>
      </trkpt>
      <trkpt lat="47.28605" lon="-2.28001">
        <ele>14.800000190735</ele>
        <time>2020-08-15T09:11:43.000Z</time>
      </trkpt>
      <trkpt lat="47.286" lon="-2.28012">
        <ele>14.800000190735</ele>
        <time>2020-08-15T09:11:48.000Z</time>
      </trkpt>
      <trkpt lat="47.28594" lon="-2.28021">
        <ele>14.800000190735</ele>
        <time>2020-08-15T09:11:55.000Z</time>
      </trkpt>
      <trkpt lat="47.28592" lon="-2.28024">
        <ele>15.199999809265</ele>
        <time>2020-08-15T09:11:58.000Z</time>
      </trkpt>
      <trkpt lat="47.2859" lon="-2.28025">
        <ele>15.60000038147</ele>
        <time>2020-08-15T09:11:59.000Z</time>
      </trkpt>
      <trkpt lat="47.28589" lon="-2.28026">
        <ele>16.200000762939</ele>
        <time>2020-08-15T09:12:00.000Z</time>
      </trkpt>
      <trkpt lat="47.28588" lon="-2.28028">
        <ele>16.60000038147</ele>
        <time>2020-08-15T09:12:01.000Z</time>
      </trkpt>
      <trkpt lat="47.28587" lon="-2.2803">
        <ele>17</ele>
        <time>2020-08-15T09:12:02.000Z</time>
      </trkpt>
      <trkpt lat="47.2858" lon="-2.2804">
        <ele>17</ele>
        <time>2020-08-15T09:12:09.000Z</time>
      </trkpt>
      <trkpt lat="47.28572" lon="-2.28047">
        <ele>17</ele>
        <time>2020-08-15T09:12:13.000Z</time>
      </trkpt>
      <trkpt lat="47.28569" lon="-2.28049">
        <ele>17</ele>
        <time>2020-08-15T09:12:14.000Z</time>
      </trkpt>
      <trkpt lat="47.28559" lon="-2.28052">
        <ele>17</ele>
        <time>2020-08-15T09:12:19.000Z</time>
      </trkpt>
      <trkpt lat="47.28557" lon="-2.28052">
        <ele>17</ele>
        <time>2020-08-15T09:12:20.000Z</time>
      </trkpt>
      <trkpt lat="47.28545" lon="-2.2805">
        <ele>17</ele>
        <time>2020-08-15T09:12:26.000Z</time>
      </trkpt>
      <trkpt lat="47.28541" lon="-2.28052">
        <ele>17.39999961853</ele>
        <time>2020-08-15T09:12:28.000Z</time>
      </trkpt>
      <trkpt lat="47.28539" lon="-2.28052">
        <ele>17.799999237061</ele>
        <time>2020-08-15T09:12:29.000Z</time>
      </trkpt>
      <trkpt lat="47.28537" lon="-2.28051">
        <ele>18.200000762939</ele>
        <time>2020-08-15T09:12:30.000Z</time>
      </trkpt>
      <trkpt lat="47.28536" lon="-2.28051">
        <ele>18.60000038147</ele>
        <time>2020-08-15T09:12:31.000Z</time>
      </trkpt>
      <trkpt lat="47.28534" lon="-2.2805">
        <ele>19</ele>
        <time>2020-08-15T09:12:32.000Z</time>
      </trkpt>
      <trkpt lat="47.28526" lon="-2.28051">
        <ele>19.60000038147</ele>
        <time>2020-08-15T09:12:36.000Z</time>
      </trkpt>
      <trkpt lat="47.28525" lon="-2.28051">
        <ele>20</ele>
        <time>2020-08-15T09:12:37.000Z</time>
      </trkpt>
      <trkpt lat="47.28523" lon="-2.2805">
        <ele>20.39999961853</ele>
        <time>2020-08-15T09:12:38.000Z</time>
      </trkpt>
      <trkpt lat="47.28521" lon="-2.2805">
        <ele>20.799999237061</ele>
        <time>2020-08-15T09:12:39.000Z</time>
      </trkpt>
      <trkpt lat="47.2852" lon="-2.28048">
        <ele>21.39999961853</ele>
        <time>2020-08-15T09:12:40.000Z</time>
      </trkpt>
      <trkpt lat="47.28516" lon="-2.28048">
        <ele>21.39999961853</ele>
        <time>2020-08-15T09:12:42.000Z</time>
      </trkpt>
      <trkpt lat="47.28509" lon="-2.28043">
        <ele>21.799999237061</ele>
        <time>2020-08-15T09:12:46.000Z</time>
      </trkpt>
      <trkpt lat="47.28508" lon="-2.28041">
        <ele>22.200000762939</ele>
        <time>2020-08-15T09:12:47.000Z</time>
      </trkpt>
      <trkpt lat="47.28506" lon="-2.2804">
        <ele>22.799999237061</ele>
        <time>2020-08-15T09:12:48.000Z</time>
      </trkpt>
      <trkpt lat="47.28505" lon="-2.28039">
        <ele>23.200000762939</ele>
        <time>2020-08-15T09:12:49.000Z</time>
      </trkpt>
      <trkpt lat="47.28504" lon="-2.28037">
        <ele>23.60000038147</ele>
        <time>2020-08-15T09:12:50.000Z</time>
      </trkpt>
      <trkpt lat="47.28497" lon="-2.28035">
        <ele>23.60000038147</ele>
        <time>2020-08-15T09:12:54.000Z</time>
      </trkpt>
      <trkpt lat="47.28495" lon="-2.28037">
        <ele>23.60000038147</ele>
        <time>2020-08-15T09:12:56.000Z</time>
      </trkpt>
      <trkpt lat="47.28484" lon="-2.28044">
        <ele>23.60000038147</ele>
        <time>2020-08-15T09:13:02.000Z</time>
      </trkpt>
      <trkpt lat="47.28484" lon="-2.28046">
        <ele>23.60000038147</ele>
        <time>2020-08-15T09:13:03.000Z</time>
      </trkpt>
      <trkpt lat="47.28483" lon="-2.28058">
        <ele>23.60000038147</ele>
        <time>2020-08-15T09:13:07.000Z</time>
      </trkpt>
      <trkpt lat="47.28484" lon="-2.2806">
        <ele>23.60000038147</ele>
        <time>2020-08-15T09:13:08.000Z</time>
      </trkpt>
      <trkpt lat="47.28488" lon="-2.28067">
        <ele>23.60000038147</ele>
        <time>2020-08-15T09:13:11.000Z</time>
      </trkpt>
      <trkpt lat="47.28489" lon="-2.28083">
        <ele>23.60000038147</ele>
        <time>2020-08-15T09:13:16.000Z</time>
      </trkpt>
      <trkpt lat="47.28487" lon="-2.28085">
        <ele>23.60000038147</ele>
        <time>2020-08-15T09:13:17.000Z</time>
      </trkpt>
      <trkpt lat="47.28472" lon="-2.28095">
        <ele>23.60000038147</ele>
        <time>2020-08-15T09:13:22.000Z</time>
      </trkpt>
      <trkpt lat="47.28458" lon="-2.28091">
        <ele>23.60000038147</ele>
        <time>2020-08-15T09:13:26.000Z</time>
      </trkpt>
      <trkpt lat="47.28446" lon="-2.28088">
        <ele>23.60000038147</ele>
        <time>2020-08-15T09:13:31.000Z</time>
      </trkpt>
      <trkpt lat="47.28439" lon="-2.28091">
        <ele>23.60000038147</ele>
        <time>2020-08-15T09:13:34.000Z</time>
      </trkpt>
      <trkpt lat="47.28436" lon="-2.28092">
        <ele>23.60000038147</ele>
        <time>2020-08-15T09:13:35.000Z</time>
      </trkpt>
      <trkpt lat="47.28425" lon="-2.2809">
        <ele>23.60000038147</ele>
        <time>2020-08-15T09:13:39.000Z</time>
      </trkpt>
      <trkpt lat="47.28415" lon="-2.28089">
        <ele>23.60000038147</ele>
        <time>2020-08-15T09:13:43.000Z</time>
      </trkpt>
      <trkpt lat="47.28413" lon="-2.28088">
        <ele>23.60000038147</ele>
        <time>2020-08-15T09:13:44.000Z</time>
      </trkpt>
      <trkpt lat="47.2841" lon="-2.28087">
        <ele>23.60000038147</ele>
        <time>2020-08-15T09:13:46.000Z</time>
      </trkpt>
      <trkpt lat="47.28407" lon="-2.28085">
        <ele>23.60000038147</ele>
        <time>2020-08-15T09:13:49.000Z</time>
      </trkpt>
      <trkpt lat="47.28399" lon="-2.28082">
        <ele>21.60000038147</ele>
        <time>2020-08-15T09:14:31.000Z</time>
      </trkpt>
      <trkpt lat="47.28394" lon="-2.28084">
        <ele>21.60000038147</ele>
        <time>2020-08-15T09:14:34.000Z</time>
      </trkpt>
      <trkpt lat="47.2838" lon="-2.2808">
        <ele>21.60000038147</ele>
        <time>2020-08-15T09:14:42.000Z</time>
      </trkpt>
      <trkpt lat="47.28375" lon="-2.28073">
        <ele>21.60000038147</ele>
        <time>2020-08-15T09:14:47.000Z</time>
      </trkpt>
      <trkpt lat="47.28374" lon="-2.28072">
        <ele>21.60000038147</ele>
        <time>2020-08-15T09:14:48.000Z</time>
      </trkpt>
      <trkpt lat="47.28374" lon="-2.28065">
        <ele>21.60000038147</ele>
        <time>2020-08-15T09:14:51.000Z</time>
      </trkpt>
      <trkpt lat="47.28374" lon="-2.28057">
        <ele>21.60000038147</ele>
        <time>2020-08-15T09:14:54.000Z</time>
      </trkpt>
      <trkpt lat="47.28372" lon="-2.28058">
        <ele>21.60000038147</ele>
        <time>2020-08-15T09:14:56.000Z</time>
      </trkpt>
      <trkpt lat="47.28371" lon="-2.28062">
        <ele>21.60000038147</ele>
        <time>2020-08-15T09:14:57.000Z</time>
      </trkpt>
      <trkpt lat="47.2837" lon="-2.2807">
        <ele>21.60000038147</ele>
        <time>2020-08-15T09:15:00.000Z</time>
      </trkpt>
      <trkpt lat="47.28368" lon="-2.28075">
        <ele>21.60000038147</ele>
        <time>2020-08-15T09:15:02.000Z</time>
      </trkpt>
      <trkpt lat="47.28364" lon="-2.28084">
        <ele>21.60000038147</ele>
        <time>2020-08-15T09:15:05.000Z</time>
      </trkpt>
      <trkpt lat="47.28362" lon="-2.28086">
        <ele>21.60000038147</ele>
        <time>2020-08-15T09:15:06.000Z</time>
      </trkpt>
      <trkpt lat="47.28335" lon="-2.28106">
        <ele>21.60000038147</ele>
        <time>2020-08-15T09:15:17.000Z</time>
      </trkpt>
      <trkpt lat="47.28332" lon="-2.2811">
        <ele>21.60000038147</ele>
        <time>2020-08-15T09:15:18.000Z</time>
      </trkpt>
      <trkpt lat="47.28331" lon="-2.28133">
        <ele>21.60000038147</ele>
        <time>2020-08-15T09:15:22.000Z</time>
      </trkpt>
      <trkpt lat="47.28329" lon="-2.28174">
        <ele>21.60000038147</ele>
        <time>2020-08-15T09:15:28.000Z</time>
      </trkpt>
      <trkpt lat="47.28329" lon="-2.2818">
        <ele>22</ele>
        <time>2020-08-15T09:15:29.000Z</time>
      </trkpt>
      <trkpt lat="47.28329" lon="-2.28187">
        <ele>22.39999961853</ele>
        <time>2020-08-15T09:15:30.000Z</time>
      </trkpt>
      <trkpt lat="47.28328" lon="-2.28193">
        <ele>22.799999237061</ele>
        <time>2020-08-15T09:15:31.000Z</time>
      </trkpt>
      <trkpt lat="47.28328" lon="-2.282">
        <ele>23.39999961853</ele>
        <time>2020-08-15T09:15:32.000Z</time>
      </trkpt>
      <trkpt lat="47.28327" lon="-2.28207">
        <ele>23.799999237061</ele>
        <time>2020-08-15T09:15:33.000Z</time>
      </trkpt>
      <trkpt lat="47.28326" lon="-2.28221">
        <ele>23.799999237061</ele>
        <time>2020-08-15T09:15:35.000Z</time>
      </trkpt>
      <trkpt lat="47.28326" lon="-2.28228">
        <ele>24.60000038147</ele>
        <time>2020-08-15T09:15:36.000Z</time>
      </trkpt>
      <trkpt lat="47.28326" lon="-2.28235">
        <ele>25</ele>
        <time>2020-08-15T09:15:37.000Z</time>
      </trkpt>
      <trkpt lat="47.28326" lon="-2.28242">
        <ele>25.39999961853</ele>
        <time>2020-08-15T09:15:38.000Z</time>
      </trkpt>
      <trkpt lat="47.28326" lon="-2.28248">
        <ele>26</ele>
        <time>2020-08-15T09:15:39.000Z</time>
      </trkpt>
      <trkpt lat="47.28326" lon="-2.28269">
        <ele>26</ele>
        <time>2020-08-15T09:15:42.000Z</time>
      </trkpt>
      <trkpt lat="47.28325" lon="-2.28295">
        <ele>26.39999961853</ele>
        <time>2020-08-15T09:15:46.000Z</time>
      </trkpt>
      <trkpt lat="47.28325" lon="-2.28301">
        <ele>26.799999237061</ele>
        <time>2020-08-15T09:15:47.000Z</time>
      </trkpt>
      <trkpt lat="47.28324" lon="-2.28307">
        <ele>27.200000762939</ele>
        <time>2020-08-15T09:15:48.000Z</time>
      </trkpt>
      <trkpt lat="47.28324" lon="-2.28313">
        <ele>27.60000038147</ele>
        <time>2020-08-15T09:15:49.000Z</time>
      </trkpt>
      <trkpt lat="47.28325" lon="-2.28319">
        <ele>28</ele>
        <time>2020-08-15T09:15:50.000Z</time>
      </trkpt>
      <trkpt lat="47.28326" lon="-2.28332">
        <ele>28</ele>
        <time>2020-08-15T09:15:52.000Z</time>
      </trkpt>
      <trkpt lat="47.28327" lon="-2.28339">
        <ele>28</ele>
        <time>2020-08-15T09:15:53.000Z</time>
      </trkpt>
      <trkpt lat="47.28326" lon="-2.28359">
        <ele>28</ele>
        <time>2020-08-15T09:15:56.000Z</time>
      </trkpt>
      <trkpt lat="47.28325" lon="-2.28366">
        <ele>28</ele>
        <time>2020-08-15T09:15:57.000Z</time>
      </trkpt>
      <trkpt lat="47.28325" lon="-2.28373">
        <ele>28</ele>
        <time>2020-08-15T09:15:58.000Z</time>
      </trkpt>
      <trkpt lat="47.28314" lon="-2.28418">
        <ele>28</ele>
        <time>2020-08-15T09:16:04.000Z</time>
      </trkpt>
      <trkpt lat="47.28303" lon="-2.28459">
        <ele>28</ele>
        <time>2020-08-15T09:16:09.000Z</time>
      </trkpt>
      <trkpt lat="47.283" lon="-2.28478">
        <ele>28</ele>
        <time>2020-08-15T09:16:11.000Z</time>
      </trkpt>
      <trkpt lat="47.28288" lon="-2.28557">
        <ele>28</ele>
        <time>2020-08-15T09:16:19.000Z</time>
      </trkpt>
      <trkpt lat="47.28271" lon="-2.28636">
        <ele>28</ele>
        <time>2020-08-15T09:16:27.000Z</time>
      </trkpt>
      <trkpt lat="47.28258" lon="-2.28702">
        <ele>28</ele>
        <time>2020-08-15T09:16:34.000Z</time>
      </trkpt>
      <trkpt lat="47.28246" lon="-2.28767">
        <ele>28</ele>
        <time>2020-08-15T09:16:41.000Z</time>
      </trkpt>
      <trkpt lat="47.28237" lon="-2.28825">
        <ele>28</ele>
        <time>2020-08-15T09:16:48.000Z</time>
      </trkpt>
      <trkpt lat="47.28229" lon="-2.28868">
        <ele>28</ele>
        <time>2020-08-15T09:16:54.000Z</time>
      </trkpt>
      <trkpt lat="47.28224" lon="-2.28874">
        <ele>28</ele>
        <time>2020-08-15T09:16:56.000Z</time>
      </trkpt>
      <trkpt lat="47.2822" lon="-2.28877">
        <ele>28</ele>
        <time>2020-08-15T09:17:00.000Z</time>
      </trkpt>
      <trkpt lat="47.28219" lon="-2.28877">
        <ele>28</ele>
        <time>2020-08-15T09:17:01.000Z</time>
      </trkpt>
      <trkpt lat="47.28218" lon="-2.28875">
        <ele>28</ele>
        <time>2020-08-15T09:17:04.000Z</time>
      </trkpt>
      <trkpt lat="47.28216" lon="-2.28875">
        <ele>28</ele>
        <time>2020-08-15T09:17:21.000Z</time>
      </trkpt>
      <trkpt lat="47.28203" lon="-2.28867">
        <ele>28</ele>
        <time>2020-08-15T09:17:28.000Z</time>
      </trkpt>
      <trkpt lat="47.28185" lon="-2.28852">
        <ele>28</ele>
        <time>2020-08-15T09:17:33.000Z</time>
      </trkpt>
      <trkpt lat="47.28152" lon="-2.28826">
        <ele>27.60000038147</ele>
        <time>2020-08-15T09:17:40.000Z</time>
      </trkpt>
      <trkpt lat="47.28147" lon="-2.28821">
        <ele>27.200000762939</ele>
        <time>2020-08-15T09:17:41.000Z</time>
      </trkpt>
      <trkpt lat="47.28141" lon="-2.28817">
        <ele>26.799999237061</ele>
        <time>2020-08-15T09:17:42.000Z</time>
      </trkpt>
      <trkpt lat="47.28135" lon="-2.28813">
        <ele>26.39999961853</ele>
        <time>2020-08-15T09:17:43.000Z</time>
      </trkpt>
      <trkpt lat="47.2813" lon="-2.28808">
        <ele>26</ele>
        <time>2020-08-15T09:17:44.000Z</time>
      </trkpt>
      <trkpt lat="47.28119" lon="-2.288">
        <ele>26</ele>
        <time>2020-08-15T09:17:46.000Z</time>
      </trkpt>
      <trkpt lat="47.28094" lon="-2.28784">
        <ele>25.60000038147</ele>
        <time>2020-08-15T09:17:50.000Z</time>
      </trkpt>
      <trkpt lat="47.28088" lon="-2.28781">
        <ele>25.200000762939</ele>
        <time>2020-08-15T09:17:51.000Z</time>
      </trkpt>
      <trkpt lat="47.28081" lon="-2.28777">
        <ele>24.799999237061</ele>
        <time>2020-08-15T09:17:52.000Z</time>
      </trkpt>
      <trkpt lat="47.28075" lon="-2.28774">
        <ele>24.39999961853</ele>
        <time>2020-08-15T09:17:53.000Z</time>
      </trkpt>
      <trkpt lat="47.28068" lon="-2.2877">
        <ele>24</ele>
        <time>2020-08-15T09:17:54.000Z</time>
      </trkpt>
      <trkpt lat="47.28037" lon="-2.28757">
        <ele>24</ele>
        <time>2020-08-15T09:17:59.000Z</time>
      </trkpt>
      <trkpt lat="47.28002" lon="-2.28752">
        <ele>24</ele>
        <time>2020-08-15T09:18:05.000Z</time>
      </trkpt>
      <trkpt lat="47.27979" lon="-2.28748">
        <ele>23.60000038147</ele>
        <time>2020-08-15T09:18:09.000Z</time>
      </trkpt>
      <trkpt lat="47.27973" lon="-2.28747">
        <ele>23.200000762939</ele>
        <time>2020-08-15T09:18:10.000Z</time>
      </trkpt>
      <trkpt lat="47.27968" lon="-2.28746">
        <ele>22.799999237061</ele>
        <time>2020-08-15T09:18:11.000Z</time>
      </trkpt>
      <trkpt lat="47.27962" lon="-2.28747">
        <ele>22.39999961853</ele>
        <time>2020-08-15T09:18:12.000Z</time>
      </trkpt>
      <trkpt lat="47.27956" lon="-2.28747">
        <ele>22</ele>
        <time>2020-08-15T09:18:13.000Z</time>
      </trkpt>
      <trkpt lat="47.27928" lon="-2.28756">
        <ele>22</ele>
        <time>2020-08-15T09:18:18.000Z</time>
      </trkpt>
      <trkpt lat="47.27888" lon="-2.2877">
        <ele>22</ele>
        <time>2020-08-15T09:18:26.000Z</time>
      </trkpt>
      <trkpt lat="47.27884" lon="-2.28771">
        <ele>22</ele>
        <time>2020-08-15T09:18:27.000Z</time>
      </trkpt>
      <trkpt lat="47.27874" lon="-2.28783">
        <ele>22</ele>
        <time>2020-08-15T09:18:30.000Z</time>
      </trkpt>
      <trkpt lat="47.27869" lon="-2.28802">
        <ele>22</ele>
        <time>2020-08-15T09:18:33.000Z</time>
      </trkpt>
      <trkpt lat="47.27864" lon="-2.28816">
        <ele>22</ele>
        <time>2020-08-15T09:18:36.000Z</time>
      </trkpt>
      <trkpt lat="47.27852" lon="-2.2881">
        <ele>22</ele>
        <time>2020-08-15T09:18:39.000Z</time>
      </trkpt>
      <trkpt lat="47.27828" lon="-2.28794">
        <ele>22</ele>
        <time>2020-08-15T09:18:44.000Z</time>
      </trkpt>
      <trkpt lat="47.27823" lon="-2.28792">
        <ele>22</ele>
        <time>2020-08-15T09:18:45.000Z</time>
      </trkpt>
      <trkpt lat="47.27806" lon="-2.2879">
        <ele>22</ele>
        <time>2020-08-15T09:18:48.000Z</time>
      </trkpt>
      <trkpt lat="47.27801" lon="-2.2879">
        <ele>22</ele>
        <time>2020-08-15T09:18:49.000Z</time>
      </trkpt>
      <trkpt lat="47.27782" lon="-2.28793">
        <ele>22</ele>
        <time>2020-08-15T09:18:52.000Z</time>
      </trkpt>
      <trkpt lat="47.27769" lon="-2.28796">
        <ele>22</ele>
        <time>2020-08-15T09:18:54.000Z</time>
      </trkpt>
      <trkpt lat="47.27731" lon="-2.28812">
        <ele>22</ele>
        <time>2020-08-15T09:19:00.000Z</time>
      </trkpt>
      <trkpt lat="47.27708" lon="-2.2882">
        <ele>22</ele>
        <time>2020-08-15T09:19:04.000Z</time>
      </trkpt>
      <trkpt lat="47.27702" lon="-2.28818">
        <ele>22</ele>
        <time>2020-08-15T09:19:05.000Z</time>
      </trkpt>
      <trkpt lat="47.27691" lon="-2.28802">
        <ele>22</ele>
        <time>2020-08-15T09:19:08.000Z</time>
      </trkpt>
      <trkpt lat="47.27688" lon="-2.28795">
        <ele>22</ele>
        <time>2020-08-15T09:19:09.000Z</time>
      </trkpt>
      <trkpt lat="47.27681" lon="-2.28781">
        <ele>22</ele>
        <time>2020-08-15T09:19:11.000Z</time>
      </trkpt>
      <trkpt lat="47.27667" lon="-2.28765">
        <ele>22</ele>
        <time>2020-08-15T09:19:14.000Z</time>
      </trkpt>
      <trkpt lat="47.27651" lon="-2.28757">
        <ele>22</ele>
        <time>2020-08-15T09:19:17.000Z</time>
      </trkpt>
      <trkpt lat="47.27645" lon="-2.28756">
        <ele>22</ele>
        <time>2020-08-15T09:19:18.000Z</time>
      </trkpt>
      <trkpt lat="47.27606" lon="-2.28744">
        <ele>22</ele>
        <time>2020-08-15T09:19:25.000Z</time>
      </trkpt>
      <trkpt lat="47.2758" lon="-2.28729">
        <ele>22.39999961853</ele>
        <time>2020-08-15T09:19:29.000Z</time>
      </trkpt>
      <trkpt lat="47.27573" lon="-2.28725">
        <ele>22.799999237061</ele>
        <time>2020-08-15T09:19:30.000Z</time>
      </trkpt>
      <trkpt lat="47.27566" lon="-2.2872">
        <ele>23.200000762939</ele>
        <time>2020-08-15T09:19:31.000Z</time>
      </trkpt>
      <trkpt lat="47.2756" lon="-2.28716">
        <ele>23.60000038147</ele>
        <time>2020-08-15T09:19:32.000Z</time>
      </trkpt>
      <trkpt lat="47.27553" lon="-2.28712">
        <ele>24</ele>
        <time>2020-08-15T09:19:33.000Z</time>
      </trkpt>
      <trkpt lat="47.27528" lon="-2.28695">
        <ele>24</ele>
        <time>2020-08-15T09:19:37.000Z</time>
      </trkpt>
      <trkpt lat="47.27498" lon="-2.28664">
        <ele>24</ele>
        <time>2020-08-15T09:19:43.000Z</time>
      </trkpt>
      <trkpt lat="47.27494" lon="-2.28658">
        <ele>24</ele>
        <time>2020-08-15T09:19:44.000Z</time>
      </trkpt>
      <trkpt lat="47.27485" lon="-2.28628">
        <ele>24</ele>
        <time>2020-08-15T09:19:47.000Z</time>
      </trkpt>
      <trkpt lat="47.27481" lon="-2.28621">
        <ele>24</ele>
        <time>2020-08-15T09:19:48.000Z</time>
      </trkpt>
      <trkpt lat="47.27471" lon="-2.28615">
        <ele>24</ele>
        <time>2020-08-15T09:19:50.000Z</time>
      </trkpt>
      <trkpt lat="47.2746" lon="-2.28627">
        <ele>24</ele>
        <time>2020-08-15T09:19:53.000Z</time>
      </trkpt>
      <trkpt lat="47.27456" lon="-2.28633">
        <ele>24</ele>
        <time>2020-08-15T09:19:54.000Z</time>
      </trkpt>
      <trkpt lat="47.27443" lon="-2.28659">
        <ele>24</ele>
        <time>2020-08-15T09:19:58.000Z</time>
      </trkpt>
      <trkpt lat="47.27421" lon="-2.28702">
        <ele>24</ele>
        <time>2020-08-15T09:20:04.000Z</time>
      </trkpt>
      <trkpt lat="47.27398" lon="-2.28745">
        <ele>24</ele>
        <time>2020-08-15T09:20:10.000Z</time>
      </trkpt>
      <trkpt lat="47.27374" lon="-2.28802">
        <ele>24</ele>
        <time>2020-08-15T09:20:16.000Z</time>
      </trkpt>
      <trkpt lat="47.27363" lon="-2.28852">
        <ele>24</ele>
        <time>2020-08-15T09:20:21.000Z</time>
      </trkpt>
      <trkpt lat="47.27357" lon="-2.2888">
        <ele>24</ele>
        <time>2020-08-15T09:20:24.000Z</time>
      </trkpt>
      <trkpt lat="47.27354" lon="-2.28901">
        <ele>24</ele>
        <time>2020-08-15T09:20:26.000Z</time>
      </trkpt>
      <trkpt lat="47.2735" lon="-2.2893">
        <ele>24</ele>
        <time>2020-08-15T09:20:29.000Z</time>
      </trkpt>
      <trkpt lat="47.27347" lon="-2.28942">
        <ele>24</ele>
        <time>2020-08-15T09:20:31.000Z</time>
      </trkpt>
      <trkpt lat="47.2734" lon="-2.28946">
        <ele>24</ele>
        <time>2020-08-15T09:20:34.000Z</time>
      </trkpt>
      <trkpt lat="47.27329" lon="-2.2894">
        <ele>24</ele>
        <time>2020-08-15T09:20:37.000Z</time>
      </trkpt>
      <trkpt lat="47.27319" lon="-2.28946">
        <ele>24</ele>
        <time>2020-08-15T09:20:40.000Z</time>
      </trkpt>
      <trkpt lat="47.27316" lon="-2.28954">
        <ele>24</ele>
        <time>2020-08-15T09:20:42.000Z</time>
      </trkpt>
      <trkpt lat="47.27314" lon="-2.28962">
        <ele>24</ele>
        <time>2020-08-15T09:20:44.000Z</time>
      </trkpt>
      <trkpt lat="47.27303" lon="-2.28978">
        <ele>24</ele>
        <time>2020-08-15T09:20:49.000Z</time>
      </trkpt>
      <trkpt lat="47.27289" lon="-2.28998">
        <ele>24</ele>
        <time>2020-08-15T09:20:54.000Z</time>
      </trkpt>
      <trkpt lat="47.27274" lon="-2.29023">
        <ele>24</ele>
        <time>2020-08-15T09:20:59.000Z</time>
      </trkpt>
      <trkpt lat="47.27263" lon="-2.29039">
        <ele>24</ele>
        <time>2020-08-15T09:21:02.000Z</time>
      </trkpt>
      <trkpt lat="47.27253" lon="-2.29048">
        <ele>24</ele>
        <time>2020-08-15T09:21:04.000Z</time>
      </trkpt>
      <trkpt lat="47.27235" lon="-2.29064">
        <ele>24</ele>
        <time>2020-08-15T09:21:07.000Z</time>
      </trkpt>
      <trkpt lat="47.27224" lon="-2.29079">
        <ele>24</ele>
        <time>2020-08-15T09:21:09.000Z</time>
      </trkpt>
      <trkpt lat="47.27218" lon="-2.29084">
        <ele>24</ele>
        <time>2020-08-15T09:21:10.000Z</time>
      </trkpt>
      <trkpt lat="47.27192" lon="-2.29104">
        <ele>24</ele>
        <time>2020-08-15T09:21:14.000Z</time>
      </trkpt>
      <trkpt lat="47.27173" lon="-2.29101">
        <ele>24.60000038147</ele>
        <time>2020-08-15T09:21:17.000Z</time>
      </trkpt>
      <trkpt lat="47.27167" lon="-2.29099">
        <ele>25</ele>
        <time>2020-08-15T09:21:18.000Z</time>
      </trkpt>
      <trkpt lat="47.27162" lon="-2.29097">
        <ele>25.39999961853</ele>
        <time>2020-08-15T09:21:19.000Z</time>
      </trkpt>
      <trkpt lat="47.27158" lon="-2.29096">
        <ele>25.799999237061</ele>
        <time>2020-08-15T09:21:20.000Z</time>
      </trkpt>
      <trkpt lat="47.27154" lon="-2.29097">
        <ele>26.200000762939</ele>
        <time>2020-08-15T09:21:21.000Z</time>
      </trkpt>
      <trkpt lat="47.27148" lon="-2.29108">
        <ele>26.200000762939</ele>
        <time>2020-08-15T09:21:24.000Z</time>
      </trkpt>
      <trkpt lat="47.27138" lon="-2.29125">
        <ele>26.200000762939</ele>
        <time>2020-08-15T09:21:28.000Z</time>
      </trkpt>
      <trkpt lat="47.2713" lon="-2.29139">
        <ele>26.200000762939</ele>
        <time>2020-08-15T09:21:31.000Z</time>
      </trkpt>
      <trkpt lat="47.27127" lon="-2.29143">
        <ele>26.200000762939</ele>
        <time>2020-08-15T09:21:32.000Z</time>
      </trkpt>
      <trkpt lat="47.27126" lon="-2.29148">
        <ele>26.200000762939</ele>
        <time>2020-08-15T09:21:33.000Z</time>
      </trkpt>
      <trkpt lat="47.27125" lon="-2.29157">
        <ele>26.200000762939</ele>
        <time>2020-08-15T09:21:35.000Z</time>
      </trkpt>
      <trkpt lat="47.27131" lon="-2.2917">
        <ele>26.200000762939</ele>
        <time>2020-08-15T09:21:39.000Z</time>
      </trkpt>
      <trkpt lat="47.27136" lon="-2.29172">
        <ele>26.200000762939</ele>
        <time>2020-08-15T09:21:41.000Z</time>
      </trkpt>
      <trkpt lat="47.27144" lon="-2.29181">
        <ele>26.200000762939</ele>
        <time>2020-08-15T09:21:44.000Z</time>
      </trkpt>
      <trkpt lat="47.27157" lon="-2.29192">
        <ele>26.200000762939</ele>
        <time>2020-08-15T09:21:48.000Z</time>
      </trkpt>
      <trkpt lat="47.2716" lon="-2.29201">
        <ele>26.200000762939</ele>
        <time>2020-08-15T09:21:52.000Z</time>
      </trkpt>
      <trkpt lat="47.27165" lon="-2.29213">
        <ele>26.200000762939</ele>
        <time>2020-08-15T09:21:59.000Z</time>
      </trkpt>
      <trkpt lat="47.27172" lon="-2.2923">
        <ele>26.200000762939</ele>
        <time>2020-08-15T09:22:05.000Z</time>
      </trkpt>
      <trkpt lat="47.27172" lon="-2.2924">
        <ele>26.200000762939</ele>
        <time>2020-08-15T09:22:08.000Z</time>
      </trkpt>
      <trkpt lat="47.27168" lon="-2.2925">
        <ele>26.200000762939</ele>
        <time>2020-08-15T09:22:10.000Z</time>
      </trkpt>
      <trkpt lat="47.27158" lon="-2.29276">
        <ele>26.200000762939</ele>
        <time>2020-08-15T09:22:15.000Z</time>
      </trkpt>
      <trkpt lat="47.2715" lon="-2.29298">
        <ele>26.200000762939</ele>
        <time>2020-08-15T09:22:20.000Z</time>
      </trkpt>
      <trkpt lat="47.27156" lon="-2.29323">
        <ele>26.200000762939</ele>
        <time>2020-08-15T09:22:24.000Z</time>
      </trkpt>
      <trkpt lat="47.27176" lon="-2.29351">
        <ele>26.200000762939</ele>
        <time>2020-08-15T09:22:30.000Z</time>
      </trkpt>
      <trkpt lat="47.27189" lon="-2.29379">
        <ele>26.200000762939</ele>
        <time>2020-08-15T09:22:35.000Z</time>
      </trkpt>
      <trkpt lat="47.27203" lon="-2.29413">
        <ele>26.200000762939</ele>
        <time>2020-08-15T09:22:41.000Z</time>
      </trkpt>
      <trkpt lat="47.27209" lon="-2.29432">
        <ele>26.200000762939</ele>
        <time>2020-08-15T09:22:44.000Z</time>
      </trkpt>
      <trkpt lat="47.27215" lon="-2.29451">
        <ele>26.200000762939</ele>
        <time>2020-08-15T09:22:47.000Z</time>
      </trkpt>
      <trkpt lat="47.27229" lon="-2.29492">
        <ele>26.200000762939</ele>
        <time>2020-08-15T09:22:53.000Z</time>
      </trkpt>
      <trkpt lat="47.27237" lon="-2.29518">
        <ele>26.200000762939</ele>
        <time>2020-08-15T09:22:57.000Z</time>
      </trkpt>
      <trkpt lat="47.27242" lon="-2.2953">
        <ele>26.200000762939</ele>
        <time>2020-08-15T09:22:59.000Z</time>
      </trkpt>
      <trkpt lat="47.27245" lon="-2.29537">
        <ele>26.200000762939</ele>
        <time>2020-08-15T09:23:00.000Z</time>
      </trkpt>
      <trkpt lat="47.27251" lon="-2.29566">
        <ele>26.200000762939</ele>
        <time>2020-08-15T09:23:04.000Z</time>
      </trkpt>
      <trkpt lat="47.27253" lon="-2.29583">
        <ele>26.200000762939</ele>
        <time>2020-08-15T09:23:06.000Z</time>
      </trkpt>
      <trkpt lat="47.27256" lon="-2.29608">
        <ele>26.200000762939</ele>
        <time>2020-08-15T09:23:09.000Z</time>
      </trkpt>
      <trkpt lat="47.27261" lon="-2.29627">
        <ele>26.200000762939</ele>
        <time>2020-08-15T09:23:13.000Z</time>
      </trkpt>
      <trkpt lat="47.27266" lon="-2.29644">
        <ele>26.200000762939</ele>
        <time>2020-08-15T09:23:17.000Z</time>
      </trkpt>
      <trkpt lat="47.27268" lon="-2.2965">
        <ele>26.200000762939</ele>
        <time>2020-08-15T09:23:18.000Z</time>
      </trkpt>
      <trkpt lat="47.27271" lon="-2.2967">
        <ele>26.200000762939</ele>
        <time>2020-08-15T09:23:21.000Z</time>
      </trkpt>
      <trkpt lat="47.27279" lon="-2.2971">
        <ele>26.200000762939</ele>
        <time>2020-08-15T09:23:27.000Z</time>
      </trkpt>
      <trkpt lat="47.27282" lon="-2.29726">
        <ele>26.200000762939</ele>
        <time>2020-08-15T09:23:29.000Z</time>
      </trkpt>
      <trkpt lat="47.27287" lon="-2.29746">
        <ele>26.200000762939</ele>
        <time>2020-08-15T09:23:32.000Z</time>
      </trkpt>
      <trkpt lat="47.27298" lon="-2.29787">
        <ele>26.200000762939</ele>
        <time>2020-08-15T09:23:37.000Z</time>
      </trkpt>
      <trkpt lat="47.27306" lon="-2.29803">
        <ele>26.200000762939</ele>
        <time>2020-08-15T09:23:39.000Z</time>
      </trkpt>
      <trkpt lat="47.2732" lon="-2.29826">
        <ele>26.200000762939</ele>
        <time>2020-08-15T09:23:42.000Z</time>
      </trkpt>
      <trkpt lat="47.27338" lon="-2.29858">
        <ele>26.200000762939</ele>
        <time>2020-08-15T09:23:46.000Z</time>
      </trkpt>
      <trkpt lat="47.27355" lon="-2.29893">
        <ele>26.200000762939</ele>
        <time>2020-08-15T09:23:50.000Z</time>
      </trkpt>
      <trkpt lat="47.27377" lon="-2.29943">
        <ele>26.200000762939</ele>
        <time>2020-08-15T09:23:55.000Z</time>
      </trkpt>
      <trkpt lat="47.27411" lon="-2.30019">
        <ele>26.200000762939</ele>
        <time>2020-08-15T09:24:02.000Z</time>
      </trkpt>
      <trkpt lat="47.27434" lon="-2.30086">
        <ele>26.200000762939</ele>
        <time>2020-08-15T09:24:08.000Z</time>
      </trkpt>
      <trkpt lat="47.27447" lon="-2.30141">
        <ele>26.200000762939</ele>
        <time>2020-08-15T09:24:13.000Z</time>
      </trkpt>
      <trkpt lat="47.27454" lon="-2.30188">
        <ele>25.799999237061</ele>
        <time>2020-08-15T09:24:18.000Z</time>
      </trkpt>
      <trkpt lat="47.27455" lon="-2.30195">
        <ele>25.200000762939</ele>
        <time>2020-08-15T09:24:19.000Z</time>
      </trkpt>
      <trkpt lat="47.27455" lon="-2.30202">
        <ele>24.799999237061</ele>
        <time>2020-08-15T09:24:20.000Z</time>
      </trkpt>
      <trkpt lat="47.27454" lon="-2.30207">
        <ele>24.39999961853</ele>
        <time>2020-08-15T09:24:21.000Z</time>
      </trkpt>
      <trkpt lat="47.27451" lon="-2.30211">
        <ele>24</ele>
        <time>2020-08-15T09:24:22.000Z</time>
      </trkpt>
      <trkpt lat="47.27441" lon="-2.30217">
        <ele>24</ele>
        <time>2020-08-15T09:24:25.000Z</time>
      </trkpt>
      <trkpt lat="47.27418" lon="-2.30231">
        <ele>24</ele>
        <time>2020-08-15T09:24:30.000Z</time>
      </trkpt>
      <trkpt lat="47.27385" lon="-2.30246">
        <ele>24</ele>
        <time>2020-08-15T09:24:36.000Z</time>
      </trkpt>
      <trkpt lat="47.27369" lon="-2.30251">
        <ele>24</ele>
        <time>2020-08-15T09:24:39.000Z</time>
      </trkpt>
      <trkpt lat="47.27351" lon="-2.30253">
        <ele>24</ele>
        <time>2020-08-15T09:24:42.000Z</time>
      </trkpt>
      <trkpt lat="47.27315" lon="-2.30257">
        <ele>24</ele>
        <time>2020-08-15T09:24:48.000Z</time>
      </trkpt>
      <trkpt lat="47.2727" lon="-2.30259">
        <ele>23.60000038147</ele>
        <time>2020-08-15T09:24:55.000Z</time>
      </trkpt>
      <trkpt lat="47.27264" lon="-2.3026">
        <ele>23.200000762939</ele>
        <time>2020-08-15T09:24:56.000Z</time>
      </trkpt>
      <trkpt lat="47.27257" lon="-2.30261">
        <ele>22.799999237061</ele>
        <time>2020-08-15T09:24:57.000Z</time>
      </trkpt>
      <trkpt lat="47.2725" lon="-2.30263">
        <ele>22.39999961853</ele>
        <time>2020-08-15T09:24:58.000Z</time>
      </trkpt>
      <trkpt lat="47.27244" lon="-2.30263">
        <ele>22</ele>
        <time>2020-08-15T09:24:59.000Z</time>
      </trkpt>
      <trkpt lat="47.27238" lon="-2.30263">
        <ele>22</ele>
        <time>2020-08-15T09:25:00.000Z</time>
      </trkpt>
      <trkpt lat="47.27221" lon="-2.30258">
        <ele>22</ele>
        <time>2020-08-15T09:25:04.000Z</time>
      </trkpt>
      <trkpt lat="47.27212" lon="-2.30255">
        <ele>22</ele>
        <time>2020-08-15T09:25:06.000Z</time>
      </trkpt>
      <trkpt lat="47.27198" lon="-2.30253">
        <ele>22</ele>
        <time>2020-08-15T09:25:09.000Z</time>
      </trkpt>
      <trkpt lat="47.27188" lon="-2.30259">
        <ele>22</ele>
        <time>2020-08-15T09:25:11.000Z</time>
      </trkpt>
      <trkpt lat="47.27182" lon="-2.30261">
        <ele>22</ele>
        <time>2020-08-15T09:25:12.000Z</time>
      </trkpt>
      <trkpt lat="47.27178" lon="-2.3026">
        <ele>22</ele>
        <time>2020-08-15T09:25:13.000Z</time>
      </trkpt>
      <trkpt lat="47.27167" lon="-2.30248">
        <ele>22</ele>
        <time>2020-08-15T09:25:16.000Z</time>
      </trkpt>
      <trkpt lat="47.27159" lon="-2.30241">
        <ele>22</ele>
        <time>2020-08-15T09:25:18.000Z</time>
      </trkpt>
      <trkpt lat="47.27149" lon="-2.30242">
        <ele>22</ele>
        <time>2020-08-15T09:25:20.000Z</time>
      </trkpt>
      <trkpt lat="47.27139" lon="-2.30247">
        <ele>22</ele>
        <time>2020-08-15T09:25:22.000Z</time>
      </trkpt>
      <trkpt lat="47.27129" lon="-2.30252">
        <ele>22</ele>
        <time>2020-08-15T09:25:25.000Z</time>
      </trkpt>
      <trkpt lat="47.27123" lon="-2.30253">
        <ele>22</ele>
        <time>2020-08-15T09:25:29.000Z</time>
      </trkpt>
      <trkpt lat="47.27116" lon="-2.30255">
        <ele>22</ele>
        <time>2020-08-15T09:25:37.000Z</time>
      </trkpt>
      <trkpt lat="47.27106" lon="-2.30259">
        <ele>22</ele>
        <time>2020-08-15T09:25:44.000Z</time>
      </trkpt>
      <trkpt lat="47.27093" lon="-2.30265">
        <ele>22</ele>
        <time>2020-08-15T09:25:49.000Z</time>
      </trkpt>
      <trkpt lat="47.27076" lon="-2.30285">
        <ele>22</ele>
        <time>2020-08-15T09:25:57.000Z</time>
      </trkpt>
      <trkpt lat="47.27072" lon="-2.30304">
        <ele>22</ele>
        <time>2020-08-15T09:26:02.000Z</time>
      </trkpt>
      <trkpt lat="47.27067" lon="-2.30332">
        <ele>22.39999961853</ele>
        <time>2020-08-15T09:26:08.000Z</time>
      </trkpt>
      <trkpt lat="47.27066" lon="-2.30337">
        <ele>22.799999237061</ele>
        <time>2020-08-15T09:26:09.000Z</time>
      </trkpt>
      <trkpt lat="47.27066" lon="-2.30343">
        <ele>23.200000762939</ele>
        <time>2020-08-15T09:26:10.000Z</time>
      </trkpt>
      <trkpt lat="47.27065" lon="-2.30349">
        <ele>23.60000038147</ele>
        <time>2020-08-15T09:26:11.000Z</time>
      </trkpt>
      <trkpt lat="47.27064" lon="-2.30356">
        <ele>24</ele>
        <time>2020-08-15T09:26:12.000Z</time>
      </trkpt>
      <trkpt lat="47.27063" lon="-2.30363">
        <ele>24</ele>
        <time>2020-08-15T09:26:13.000Z</time>
      </trkpt>
      <trkpt lat="47.27055" lon="-2.30412">
        <ele>24</ele>
        <time>2020-08-15T09:26:19.000Z</time>
      </trkpt>
      <trkpt lat="47.27051" lon="-2.30441">
        <ele>24</ele>
        <time>2020-08-15T09:26:24.000Z</time>
      </trkpt>
      <trkpt lat="47.27049" lon="-2.30451">
        <ele>24</ele>
        <time>2020-08-15T09:26:28.000Z</time>
      </trkpt>
      <trkpt lat="47.27047" lon="-2.30458">
        <ele>24</ele>
        <time>2020-08-15T09:26:35.000Z</time>
      </trkpt>
      <trkpt lat="47.27053" lon="-2.30472">
        <ele>21.799999237061</ele>
        <time>2020-08-15T09:27:19.000Z</time>
      </trkpt>
      <trkpt lat="47.27058" lon="-2.30474">
        <ele>21.799999237061</ele>
        <time>2020-08-15T09:27:21.000Z</time>
      </trkpt>
      <trkpt lat="47.27064" lon="-2.30474">
        <ele>21.799999237061</ele>
        <time>2020-08-15T09:27:23.000Z</time>
      </trkpt>
      <trkpt lat="47.27073" lon="-2.3048">
        <ele>21.799999237061</ele>
        <time>2020-08-15T09:27:26.000Z</time>
      </trkpt>
      <trkpt lat="47.27097" lon="-2.30489">
        <ele>21.799999237061</ele>
        <time>2020-08-15T09:27:33.000Z</time>
      </trkpt>
      <trkpt lat="47.27111" lon="-2.30494">
        <ele>21.799999237061</ele>
        <time>2020-08-15T09:27:37.000Z</time>
      </trkpt>
      <trkpt lat="47.27116" lon="-2.30495">
        <ele>21.799999237061</ele>
        <time>2020-08-15T09:27:38.000Z</time>
      </trkpt>
      <trkpt lat="47.27132" lon="-2.30501">
        <ele>21.799999237061</ele>
        <time>2020-08-15T09:27:41.000Z</time>
      </trkpt>
      <trkpt lat="47.27137" lon="-2.30504">
        <ele>21.39999961853</ele>
        <time>2020-08-15T09:27:42.000Z</time>
      </trkpt>
      <trkpt lat="47.27142" lon="-2.30506">
        <ele>21</ele>
        <time>2020-08-15T09:27:43.000Z</time>
      </trkpt>
      <trkpt lat="47.27145" lon="-2.30509">
        <ele>20.60000038147</ele>
        <time>2020-08-15T09:27:44.000Z</time>
      </trkpt>
      <trkpt lat="47.27149" lon="-2.30513">
        <ele>20</ele>
        <time>2020-08-15T09:27:45.000Z</time>
      </trkpt>
      <trkpt lat="47.27152" lon="-2.30516">
        <ele>19.60000038147</ele>
        <time>2020-08-15T09:27:46.000Z</time>
      </trkpt>
      <trkpt lat="47.27172" lon="-2.3053">
        <ele>19.60000038147</ele>
        <time>2020-08-15T09:27:51.000Z</time>
      </trkpt>
      <trkpt lat="47.27179" lon="-2.30534">
        <ele>19.200000762939</ele>
        <time>2020-08-15T09:27:53.000Z</time>
      </trkpt>
      <trkpt lat="47.27182" lon="-2.30536">
        <ele>18.799999237061</ele>
        <time>2020-08-15T09:27:54.000Z</time>
      </trkpt>
      <trkpt lat="47.27184" lon="-2.30537">
        <ele>18.39999961853</ele>
        <time>2020-08-15T09:27:55.000Z</time>
      </trkpt>
      <trkpt lat="47.27186" lon="-2.30537">
        <ele>18</ele>
        <time>2020-08-15T09:27:56.000Z</time>
      </trkpt>
      <trkpt lat="47.27189" lon="-2.30539">
        <ele>17.60000038147</ele>
        <time>2020-08-15T09:27:57.000Z</time>
      </trkpt>
      <trkpt lat="47.27197" lon="-2.30542">
        <ele>17.60000038147</ele>
        <time>2020-08-15T09:28:01.000Z</time>
      </trkpt>
      <trkpt lat="47.27209" lon="-2.30544">
        <ele>17.60000038147</ele>
        <time>2020-08-15T09:28:06.000Z</time>
      </trkpt>
      <trkpt lat="47.27212" lon="-2.30544">
        <ele>17.60000038147</ele>
        <time>2020-08-15T09:28:07.000Z</time>
      </trkpt>
      <trkpt lat="47.27227" lon="-2.30541">
        <ele>17.60000038147</ele>
        <time>2020-08-15T09:28:12.000Z</time>
      </trkpt>
      <trkpt lat="47.27243" lon="-2.30544">
        <ele>17.200000762939</ele>
        <time>2020-08-15T09:28:16.000Z</time>
      </trkpt>
      <trkpt lat="47.27246" lon="-2.30545">
        <ele>16.799999237061</ele>
        <time>2020-08-15T09:28:17.000Z</time>
      </trkpt>
      <trkpt lat="47.2725" lon="-2.30546">
        <ele>16</ele>
        <time>2020-08-15T09:28:18.000Z</time>
      </trkpt>
      <trkpt lat="47.27255" lon="-2.30545">
        <ele>15.60000038147</ele>
        <time>2020-08-15T09:28:19.000Z</time>
      </trkpt>
      <trkpt lat="47.27266" lon="-2.30543">
        <ele>15.60000038147</ele>
        <time>2020-08-15T09:28:21.000Z</time>
      </trkpt>
      <trkpt lat="47.27275" lon="-2.30539">
        <ele>15.60000038147</ele>
        <time>2020-08-15T09:28:23.000Z</time>
      </trkpt>
      <trkpt lat="47.2729" lon="-2.30532">
        <ele>15.60000038147</ele>
        <time>2020-08-15T09:28:26.000Z</time>
      </trkpt>
      <trkpt lat="47.2731" lon="-2.30522">
        <ele>15.60000038147</ele>
        <time>2020-08-15T09:28:31.000Z</time>
      </trkpt>
      <trkpt lat="47.27331" lon="-2.30516">
        <ele>15.60000038147</ele>
        <time>2020-08-15T09:28:37.000Z</time>
      </trkpt>
      <trkpt lat="47.27343" lon="-2.30513">
        <ele>15.60000038147</ele>
        <time>2020-08-15T09:28:42.000Z</time>
      </trkpt>
      <trkpt lat="47.27362" lon="-2.30501">
        <ele>15.60000038147</ele>
        <time>2020-08-15T09:28:47.000Z</time>
      </trkpt>
      <trkpt lat="47.27384" lon="-2.30484">
        <ele>15.60000038147</ele>
        <time>2020-08-15T09:28:53.000Z</time>
      </trkpt>
      <trkpt lat="47.27402" lon="-2.30466">
        <ele>15.60000038147</ele>
        <time>2020-08-15T09:28:58.000Z</time>
      </trkpt>
      <trkpt lat="47.27408" lon="-2.30462">
        <ele>15.60000038147</ele>
        <time>2020-08-15T09:29:02.000Z</time>
      </trkpt>
      <trkpt lat="47.27409" lon="-2.30462">
        <ele>15.60000038147</ele>
        <time>2020-08-15T09:29:04.000Z</time>
      </trkpt>
      <trkpt lat="47.27415" lon="-2.30456">
        <ele>15.60000038147</ele>
        <time>2020-08-15T09:29:09.000Z</time>
      </trkpt>
      <trkpt lat="47.27417" lon="-2.30453">
        <ele>15.60000038147</ele>
        <time>2020-08-15T09:29:10.000Z</time>
      </trkpt>
      <trkpt lat="47.27434" lon="-2.30451">
        <ele>15.60000038147</ele>
        <time>2020-08-15T09:29:14.000Z</time>
      </trkpt>
      <trkpt lat="47.27471" lon="-2.30447">
        <ele>15.60000038147</ele>
        <time>2020-08-15T09:29:21.000Z</time>
      </trkpt>
      <trkpt lat="47.27492" lon="-2.3044">
        <ele>15.60000038147</ele>
        <time>2020-08-15T09:29:25.000Z</time>
      </trkpt>
      <trkpt lat="47.275" lon="-2.30438">
        <ele>15.60000038147</ele>
        <time>2020-08-15T09:29:27.000Z</time>
      </trkpt>
      <trkpt lat="47.27508" lon="-2.30449">
        <ele>15.60000038147</ele>
        <time>2020-08-15T09:29:30.000Z</time>
      </trkpt>
      <trkpt lat="47.27516" lon="-2.30478">
        <ele>15.60000038147</ele>
        <time>2020-08-15T09:29:34.000Z</time>
      </trkpt>
      <trkpt lat="47.27518" lon="-2.30487">
        <ele>15.60000038147</ele>
        <time>2020-08-15T09:29:35.000Z</time>
      </trkpt>
      <trkpt lat="47.27526" lon="-2.30531">
        <ele>15.60000038147</ele>
        <time>2020-08-15T09:29:40.000Z</time>
      </trkpt>
      <trkpt lat="47.27529" lon="-2.30539">
        <ele>15.60000038147</ele>
        <time>2020-08-15T09:29:41.000Z</time>
      </trkpt>
      <trkpt lat="47.27539" lon="-2.30573">
        <ele>15.60000038147</ele>
        <time>2020-08-15T09:29:45.000Z</time>
      </trkpt>
      <trkpt lat="47.27548" lon="-2.30603">
        <ele>15.60000038147</ele>
        <time>2020-08-15T09:29:50.000Z</time>
      </trkpt>
      <trkpt lat="47.27548" lon="-2.30613">
        <ele>15.60000038147</ele>
        <time>2020-08-15T09:29:56.000Z</time>
      </trkpt>
      <trkpt lat="47.27553" lon="-2.30631">
        <ele>15.60000038147</ele>
        <time>2020-08-15T09:30:01.000Z</time>
      </trkpt>
      <trkpt lat="47.27556" lon="-2.30641">
        <ele>15.60000038147</ele>
        <time>2020-08-15T09:30:04.000Z</time>
      </trkpt>
      <trkpt lat="47.27558" lon="-2.30649">
        <ele>15.60000038147</ele>
        <time>2020-08-15T09:30:07.000Z</time>
      </trkpt>
      <trkpt lat="47.27559" lon="-2.30651">
        <ele>15.60000038147</ele>
        <time>2020-08-15T09:30:10.000Z</time>
      </trkpt>
      <trkpt lat="47.27561" lon="-2.3066">
        <ele>15.60000038147</ele>
        <time>2020-08-15T09:31:15.000Z</time>
      </trkpt>
      <trkpt lat="47.27561" lon="-2.30664">
        <ele>15.60000038147</ele>
        <time>2020-08-15T09:31:16.000Z</time>
      </trkpt>
      <trkpt lat="47.27567" lon="-2.30693">
        <ele>15.60000038147</ele>
        <time>2020-08-15T09:31:21.000Z</time>
      </trkpt>
      <trkpt lat="47.27579" lon="-2.30739">
        <ele>15.60000038147</ele>
        <time>2020-08-15T09:31:28.000Z</time>
      </trkpt>
      <trkpt lat="47.27596" lon="-2.30788">
        <ele>15.60000038147</ele>
        <time>2020-08-15T09:31:35.000Z</time>
      </trkpt>
      <trkpt lat="47.27611" lon="-2.3082">
        <ele>15.60000038147</ele>
        <time>2020-08-15T09:31:40.000Z</time>
      </trkpt>
      <trkpt lat="47.27624" lon="-2.30853">
        <ele>15.60000038147</ele>
        <time>2020-08-15T09:31:45.000Z</time>
      </trkpt>
      <trkpt lat="47.27645" lon="-2.30899">
        <ele>15.60000038147</ele>
        <time>2020-08-15T09:31:51.000Z</time>
      </trkpt>
      <trkpt lat="47.2765" lon="-2.30907">
        <ele>15.60000038147</ele>
        <time>2020-08-15T09:31:52.000Z</time>
      </trkpt>
      <trkpt lat="47.2766" lon="-2.30931">
        <ele>15.60000038147</ele>
        <time>2020-08-15T09:31:55.000Z</time>
      </trkpt>
      <trkpt lat="47.27676" lon="-2.30977">
        <ele>15.60000038147</ele>
        <time>2020-08-15T09:32:01.000Z</time>
      </trkpt>
      <trkpt lat="47.2769" lon="-2.31014">
        <ele>15.60000038147</ele>
        <time>2020-08-15T09:32:06.000Z</time>
      </trkpt>
      <trkpt lat="47.2771" lon="-2.31065">
        <ele>15.60000038147</ele>
        <time>2020-08-15T09:32:13.000Z</time>
      </trkpt>
      <trkpt lat="47.27713" lon="-2.31072">
        <ele>15.60000038147</ele>
        <time>2020-08-15T09:32:14.000Z</time>
      </trkpt>
      <trkpt lat="47.27714" lon="-2.31079">
        <ele>15.60000038147</ele>
        <time>2020-08-15T09:32:15.000Z</time>
      </trkpt>
      <trkpt lat="47.27712" lon="-2.31095">
        <ele>15.60000038147</ele>
        <time>2020-08-15T09:32:17.000Z</time>
      </trkpt>
      <trkpt lat="47.27702" lon="-2.3113">
        <ele>15.60000038147</ele>
        <time>2020-08-15T09:32:22.000Z</time>
      </trkpt>
      <trkpt lat="47.27697" lon="-2.31146">
        <ele>15.60000038147</ele>
        <time>2020-08-15T09:32:24.000Z</time>
      </trkpt>
      <trkpt lat="47.27688" lon="-2.31182">
        <ele>15.60000038147</ele>
        <time>2020-08-15T09:32:28.000Z</time>
      </trkpt>
      <trkpt lat="47.27676" lon="-2.3124">
        <ele>15.60000038147</ele>
        <time>2020-08-15T09:32:34.000Z</time>
      </trkpt>
      <trkpt lat="47.27674" lon="-2.3125">
        <ele>15.60000038147</ele>
        <time>2020-08-15T09:32:35.000Z</time>
      </trkpt>
      <trkpt lat="47.27666" lon="-2.31278">
        <ele>15.199999809265</ele>
        <time>2020-08-15T09:32:38.000Z</time>
      </trkpt>
      <trkpt lat="47.27664" lon="-2.31287">
        <ele>14.800000190735</ele>
        <time>2020-08-15T09:32:39.000Z</time>
      </trkpt>
      <trkpt lat="47.27661" lon="-2.31296">
        <ele>14.39999961853</ele>
        <time>2020-08-15T09:32:40.000Z</time>
      </trkpt>
      <trkpt lat="47.27659" lon="-2.31304">
        <ele>14</ele>
        <time>2020-08-15T09:32:41.000Z</time>
      </trkpt>
      <trkpt lat="47.27656" lon="-2.31313">
        <ele>13.60000038147</ele>
        <time>2020-08-15T09:32:42.000Z</time>
      </trkpt>
      <trkpt lat="47.27643" lon="-2.3135">
        <ele>13.60000038147</ele>
        <time>2020-08-15T09:32:46.000Z</time>
      </trkpt>
      <trkpt lat="47.27628" lon="-2.31407">
        <ele>13.60000038147</ele>
        <time>2020-08-15T09:32:51.000Z</time>
      </trkpt>
      <trkpt lat="47.27625" lon="-2.31419">
        <ele>13.199999809265</ele>
        <time>2020-08-15T09:32:52.000Z</time>
      </trkpt>
      <trkpt lat="47.27622" lon="-2.31431">
        <ele>12.800000190735</ele>
        <time>2020-08-15T09:32:53.000Z</time>
      </trkpt>
      <trkpt lat="47.27618" lon="-2.31442">
        <ele>12.39999961853</ele>
        <time>2020-08-15T09:32:54.000Z</time>
      </trkpt>
      <trkpt lat="47.27615" lon="-2.31454">
        <ele>12</ele>
        <time>2020-08-15T09:32:55.000Z</time>
      </trkpt>
      <trkpt lat="47.27612" lon="-2.31465">
        <ele>11.60000038147</ele>
        <time>2020-08-15T09:32:56.000Z</time>
      </trkpt>
      <trkpt lat="47.27609" lon="-2.31477">
        <ele>11.60000038147</ele>
        <time>2020-08-15T09:32:57.000Z</time>
      </trkpt>
      <trkpt lat="47.27606" lon="-2.31489">
        <ele>11</ele>
        <time>2020-08-15T09:32:58.000Z</time>
      </trkpt>
      <trkpt lat="47.27603" lon="-2.315">
        <ele>10.60000038147</ele>
        <time>2020-08-15T09:32:59.000Z</time>
      </trkpt>
      <trkpt lat="47.276" lon="-2.31512">
        <ele>10.199999809265</ele>
        <time>2020-08-15T09:33:00.000Z</time>
      </trkpt>
      <trkpt lat="47.27597" lon="-2.31523">
        <ele>9.8000001907349</ele>
        <time>2020-08-15T09:33:01.000Z</time>
      </trkpt>
      <trkpt lat="47.27594" lon="-2.31533">
        <ele>9.3999996185303</ele>
        <time>2020-08-15T09:33:02.000Z</time>
      </trkpt>
      <trkpt lat="47.27589" lon="-2.31554">
        <ele>9.3999996185303</ele>
        <time>2020-08-15T09:33:04.000Z</time>
      </trkpt>
      <trkpt lat="47.27585" lon="-2.31564">
        <ele>9.3999996185303</ele>
        <time>2020-08-15T09:33:05.000Z</time>
      </trkpt>
      <trkpt lat="47.27572" lon="-2.31594">
        <ele>9.3999996185303</ele>
        <time>2020-08-15T09:33:08.000Z</time>
      </trkpt>
      <trkpt lat="47.27563" lon="-2.31624">
        <ele>9.3999996185303</ele>
        <time>2020-08-15T09:33:11.000Z</time>
      </trkpt>
      <trkpt lat="47.27559" lon="-2.31644">
        <ele>9.3999996185303</ele>
        <time>2020-08-15T09:33:13.000Z</time>
      </trkpt>
      <trkpt lat="47.27554" lon="-2.31664">
        <ele>9.3999996185303</ele>
        <time>2020-08-15T09:33:15.000Z</time>
      </trkpt>
      <trkpt lat="47.27546" lon="-2.31696">
        <ele>9.3999996185303</ele>
        <time>2020-08-15T09:33:18.000Z</time>
      </trkpt>
      <trkpt lat="47.2754" lon="-2.31719">
        <ele>9</ele>
        <time>2020-08-15T09:33:20.000Z</time>
      </trkpt>
      <trkpt lat="47.27537" lon="-2.3173">
        <ele>8.6000003814697</ele>
        <time>2020-08-15T09:33:21.000Z</time>
      </trkpt>
      <trkpt lat="47.27535" lon="-2.31742">
        <ele>8.1999998092651</ele>
        <time>2020-08-15T09:33:22.000Z</time>
      </trkpt>
      <trkpt lat="47.27532" lon="-2.31755">
        <ele>7.8000001907349</ele>
        <time>2020-08-15T09:33:23.000Z</time>
      </trkpt>
      <trkpt lat="47.27529" lon="-2.31767">
        <ele>7.4000000953674</ele>
        <time>2020-08-15T09:33:24.000Z</time>
      </trkpt>
      <trkpt lat="47.27526" lon="-2.31779">
        <ele>7.4000000953674</ele>
        <time>2020-08-15T09:33:25.000Z</time>
      </trkpt>
      <trkpt lat="47.27504" lon="-2.31854">
        <ele>7.4000000953674</ele>
        <time>2020-08-15T09:33:31.000Z</time>
      </trkpt>
      <trkpt lat="47.27476" lon="-2.31929">
        <ele>7.4000000953674</ele>
        <time>2020-08-15T09:33:37.000Z</time>
      </trkpt>
      <trkpt lat="47.2747" lon="-2.31942">
        <ele>7.4000000953674</ele>
        <time>2020-08-15T09:33:38.000Z</time>
      </trkpt>
      <trkpt lat="47.27445" lon="-2.32">
        <ele>7</ele>
        <time>2020-08-15T09:33:43.000Z</time>
      </trkpt>
      <trkpt lat="47.2744" lon="-2.32012">
        <ele>6.5999999046326</ele>
        <time>2020-08-15T09:33:44.000Z</time>
      </trkpt>
      <trkpt lat="47.27436" lon="-2.32024">
        <ele>6.1999998092651</ele>
        <time>2020-08-15T09:33:45.000Z</time>
      </trkpt>
      <trkpt lat="47.27431" lon="-2.32032">
        <ele>5.8000001907349</ele>
        <time>2020-08-15T09:33:46.000Z</time>
      </trkpt>
      <trkpt lat="47.27425" lon="-2.32038">
        <ele>5.4000000953674</ele>
        <time>2020-08-15T09:33:47.000Z</time>
      </trkpt>
      <trkpt lat="47.27414" lon="-2.32043">
        <ele>5.4000000953674</ele>
        <time>2020-08-15T09:33:49.000Z</time>
      </trkpt>
      <trkpt lat="47.27397" lon="-2.32034">
        <ele>5.4000000953674</ele>
        <time>2020-08-15T09:33:52.000Z</time>
      </trkpt>
      <trkpt lat="47.27386" lon="-2.32024">
        <ele>5.4000000953674</ele>
        <time>2020-08-15T09:33:54.000Z</time>
      </trkpt>
      <trkpt lat="47.27381" lon="-2.32019">
        <ele>5</ele>
        <time>2020-08-15T09:33:55.000Z</time>
      </trkpt>
      <trkpt lat="47.27375" lon="-2.32014">
        <ele>4.5999999046326</ele>
        <time>2020-08-15T09:33:56.000Z</time>
      </trkpt>
      <trkpt lat="47.2737" lon="-2.3201">
        <ele>4.1999998092651</ele>
        <time>2020-08-15T09:33:57.000Z</time>
      </trkpt>
      <trkpt lat="47.27365" lon="-2.32005">
        <ele>3.7999999523163</ele>
        <time>2020-08-15T09:33:58.000Z</time>
      </trkpt>
      <trkpt lat="47.2736" lon="-2.32">
        <ele>3.4000000953674</ele>
        <time>2020-08-15T09:33:59.000Z</time>
      </trkpt>
      <trkpt lat="47.27351" lon="-2.31993">
        <ele>3.4000000953674</ele>
        <time>2020-08-15T09:34:01.000Z</time>
      </trkpt>
      <trkpt lat="47.27348" lon="-2.31991">
        <ele>3.4000000953674</ele>
        <time>2020-08-15T09:34:02.000Z</time>
      </trkpt>
      <trkpt lat="47.27346" lon="-2.31992">
        <ele>3.4000000953674</ele>
        <time>2020-08-15T09:34:03.000Z</time>
      </trkpt>
      <trkpt lat="47.27344" lon="-2.31999">
        <ele>3.4000000953674</ele>
        <time>2020-08-15T09:34:05.000Z</time>
      </trkpt>
      <trkpt lat="47.27349" lon="-2.32015">
        <ele>3.4000000953674</ele>
        <time>2020-08-15T09:34:09.000Z</time>
      </trkpt>
      <trkpt lat="47.27357" lon="-2.32025">
        <ele>3.4000000953674</ele>
        <time>2020-08-15T09:34:14.000Z</time>
      </trkpt>
      <trkpt lat="47.27372" lon="-2.32042">
        <ele>3.4000000953674</ele>
        <time>2020-08-15T09:34:20.000Z</time>
      </trkpt>
      <trkpt lat="47.27376" lon="-2.32047">
        <ele>3.4000000953674</ele>
        <time>2020-08-15T09:34:21.000Z</time>
      </trkpt>
      <trkpt lat="47.27389" lon="-2.32066">
        <ele>3.4000000953674</ele>
        <time>2020-08-15T09:34:25.000Z</time>
      </trkpt>
      <trkpt lat="47.27397" lon="-2.32077">
        <ele>3.4000000953674</ele>
        <time>2020-08-15T09:34:27.000Z</time>
      </trkpt>
      <trkpt lat="47.27405" lon="-2.32099">
        <ele>3.4000000953674</ele>
        <time>2020-08-15T09:34:30.000Z</time>
      </trkpt>
      <trkpt lat="47.27402" lon="-2.32126">
        <ele>3.4000000953674</ele>
        <time>2020-08-15T09:34:33.000Z</time>
      </trkpt>
      <trkpt lat="47.27392" lon="-2.32185">
        <ele>3.4000000953674</ele>
        <time>2020-08-15T09:34:39.000Z</time>
      </trkpt>
      <trkpt lat="47.27384" lon="-2.32258">
        <ele>3.4000000953674</ele>
        <time>2020-08-15T09:34:46.000Z</time>
      </trkpt>
      <trkpt lat="47.27375" lon="-2.32298">
        <ele>3.7999999523163</ele>
        <time>2020-08-15T09:34:51.000Z</time>
      </trkpt>
      <trkpt lat="47.27373" lon="-2.32306">
        <ele>4.5999999046326</ele>
        <time>2020-08-15T09:34:52.000Z</time>
      </trkpt>
      <trkpt lat="47.27372" lon="-2.32313">
        <ele>5.1999998092651</ele>
        <time>2020-08-15T09:34:53.000Z</time>
      </trkpt>
      <trkpt lat="47.2737" lon="-2.32321">
        <ele>5.5999999046326</ele>
        <time>2020-08-15T09:34:54.000Z</time>
      </trkpt>
      <trkpt lat="47.27362" lon="-2.32361">
        <ele>5.5999999046326</ele>
        <time>2020-08-15T09:34:59.000Z</time>
      </trkpt>
      <trkpt lat="47.2735" lon="-2.32419">
        <ele>5.5999999046326</ele>
        <time>2020-08-15T09:35:05.000Z</time>
      </trkpt>
      <trkpt lat="47.27347" lon="-2.32428">
        <ele>5.5999999046326</ele>
        <time>2020-08-15T09:35:06.000Z</time>
      </trkpt>
      <trkpt lat="47.27336" lon="-2.32457">
        <ele>5.5999999046326</ele>
        <time>2020-08-15T09:35:09.000Z</time>
      </trkpt>
      <trkpt lat="47.27332" lon="-2.32466">
        <ele>5.5999999046326</ele>
        <time>2020-08-15T09:35:10.000Z</time>
      </trkpt>
      <trkpt lat="47.27311" lon="-2.32502">
        <ele>5.5999999046326</ele>
        <time>2020-08-15T09:35:15.000Z</time>
      </trkpt>
      <trkpt lat="47.2728" lon="-2.32548">
        <ele>5.5999999046326</ele>
        <time>2020-08-15T09:35:22.000Z</time>
      </trkpt>
      <trkpt lat="47.27248" lon="-2.32584">
        <ele>5.5999999046326</ele>
        <time>2020-08-15T09:35:28.000Z</time>
      </trkpt>
      <trkpt lat="47.27215" lon="-2.32617">
        <ele>5.5999999046326</ele>
        <time>2020-08-15T09:35:34.000Z</time>
      </trkpt>
      <trkpt lat="47.27172" lon="-2.32657">
        <ele>5.5999999046326</ele>
        <time>2020-08-15T09:35:42.000Z</time>
      </trkpt>
      <trkpt lat="47.27136" lon="-2.32692">
        <ele>5.5999999046326</ele>
        <time>2020-08-15T09:35:50.000Z</time>
      </trkpt>
      <trkpt lat="47.27132" lon="-2.32697">
        <ele>5.5999999046326</ele>
        <time>2020-08-15T09:35:51.000Z</time>
      </trkpt>
      <trkpt lat="47.27127" lon="-2.32708">
        <ele>5.5999999046326</ele>
        <time>2020-08-15T09:35:53.000Z</time>
      </trkpt>
      <trkpt lat="47.27114" lon="-2.3272">
        <ele>5.5999999046326</ele>
        <time>2020-08-15T09:35:56.000Z</time>
      </trkpt>
      <trkpt lat="47.27109" lon="-2.32724">
        <ele>5.5999999046326</ele>
        <time>2020-08-15T09:35:57.000Z</time>
      </trkpt>
      <trkpt lat="47.27066" lon="-2.32764">
        <ele>5.5999999046326</ele>
        <time>2020-08-15T09:36:05.000Z</time>
      </trkpt>
      <trkpt lat="47.27023" lon="-2.32804">
        <ele>5.5999999046326</ele>
        <time>2020-08-15T09:36:13.000Z</time>
      </trkpt>
      <trkpt lat="47.26991" lon="-2.32834">
        <ele>5.5999999046326</ele>
        <time>2020-08-15T09:36:19.000Z</time>
      </trkpt>
      <trkpt lat="47.26947" lon="-2.32874">
        <ele>5.5999999046326</ele>
        <time>2020-08-15T09:36:27.000Z</time>
      </trkpt>
      <trkpt lat="47.26906" lon="-2.32911">
        <ele>5.5999999046326</ele>
        <time>2020-08-15T09:36:35.000Z</time>
      </trkpt>
      <trkpt lat="47.2687" lon="-2.32944">
        <ele>5.5999999046326</ele>
        <time>2020-08-15T09:36:42.000Z</time>
      </trkpt>
      <trkpt lat="47.26822" lon="-2.32989">
        <ele>5.5999999046326</ele>
        <time>2020-08-15T09:36:51.000Z</time>
      </trkpt>
      <trkpt lat="47.26795" lon="-2.33015">
        <ele>5</ele>
        <time>2020-08-15T09:36:56.000Z</time>
      </trkpt>
      <trkpt lat="47.2679" lon="-2.33021">
        <ele>4.5999999046326</ele>
        <time>2020-08-15T09:36:57.000Z</time>
      </trkpt>
      <trkpt lat="47.26785" lon="-2.33025">
        <ele>4.1999998092651</ele>
        <time>2020-08-15T09:36:58.000Z</time>
      </trkpt>
      <trkpt lat="47.26782" lon="-2.33029">
        <ele>3.7999999523163</ele>
        <time>2020-08-15T09:36:59.000Z</time>
      </trkpt>
      <trkpt lat="47.2678" lon="-2.33031">
        <ele>3.2000000476837</ele>
        <time>2020-08-15T09:37:00.000Z</time>
      </trkpt>
      <trkpt lat="47.26775" lon="-2.33037">
        <ele>3.2000000476837</ele>
        <time>2020-08-15T09:37:03.000Z</time>
      </trkpt>
      <trkpt lat="47.26762" lon="-2.33048">
        <ele>3.2000000476837</ele>
        <time>2020-08-15T09:37:08.000Z</time>
      </trkpt>
      <trkpt lat="47.26745" lon="-2.33065">
        <ele>3.2000000476837</ele>
        <time>2020-08-15T09:37:13.000Z</time>
      </trkpt>
      <trkpt lat="47.26742" lon="-2.33066">
        <ele>3.2000000476837</ele>
        <time>2020-08-15T09:37:14.000Z</time>
      </trkpt>
      <trkpt lat="47.26732" lon="-2.33061">
        <ele>3.2000000476837</ele>
        <time>2020-08-15T09:37:17.000Z</time>
      </trkpt>
      <trkpt lat="47.26719" lon="-2.33069">
        <ele>2.7999999523163</ele>
        <time>2020-08-15T09:37:20.000Z</time>
      </trkpt>
      <trkpt lat="47.26715" lon="-2.33076">
        <ele>2</ele>
        <time>2020-08-15T09:37:21.000Z</time>
      </trkpt>
      <trkpt lat="47.26711" lon="-2.33082">
        <ele>1.6000000238419</ele>
        <time>2020-08-15T09:37:22.000Z</time>
      </trkpt>
      <trkpt lat="47.26707" lon="-2.33087">
        <ele>1.2000000476837</ele>
        <time>2020-08-15T09:37:23.000Z</time>
      </trkpt>
      <trkpt lat="47.26703" lon="-2.33092">
        <ele>1.2000000476837</ele>
        <time>2020-08-15T09:37:24.000Z</time>
      </trkpt>
      <trkpt lat="47.26687" lon="-2.33108">
        <ele>1.2000000476837</ele>
        <time>2020-08-15T09:37:28.000Z</time>
      </trkpt>
      <trkpt lat="47.26682" lon="-2.33109">
        <ele>1.2000000476837</ele>
        <time>2020-08-15T09:37:29.000Z</time>
      </trkpt>
      <trkpt lat="47.2668" lon="-2.3311">
        <ele>1.2000000476837</ele>
        <time>2020-08-15T09:37:32.000Z</time>
      </trkpt>
      <trkpt lat="47.26679" lon="-2.3311">
        <ele>1.2000000476837</ele>
        <time>2020-08-15T09:37:33.000Z</time>
      </trkpt>
      <trkpt lat="47.26677" lon="-2.33111">
        <ele>1.2000000476837</ele>
        <time>2020-08-15T09:37:50.000Z</time>
      </trkpt>
      <trkpt lat="47.26673" lon="-2.33116">
        <ele>1.2000000476837</ele>
        <time>2020-08-15T09:37:52.000Z</time>
      </trkpt>
      <trkpt lat="47.26656" lon="-2.33132">
        <ele>1.2000000476837</ele>
        <time>2020-08-15T09:37:57.000Z</time>
      </trkpt>
      <trkpt lat="47.2663" lon="-2.33152">
        <ele>1.2000000476837</ele>
        <time>2020-08-15T09:38:05.000Z</time>
      </trkpt>
      <trkpt lat="47.26618" lon="-2.3315">
        <ele>1.2000000476837</ele>
        <time>2020-08-15T09:38:08.000Z</time>
      </trkpt>
      <trkpt lat="47.26614" lon="-2.33149">
        <ele>1.2000000476837</ele>
        <time>2020-08-15T09:38:09.000Z</time>
      </trkpt>
      <trkpt lat="47.26604" lon="-2.33159">
        <ele>1.2000000476837</ele>
        <time>2020-08-15T09:38:12.000Z</time>
      </trkpt>
      <trkpt lat="47.26597" lon="-2.33175">
        <ele>1.2000000476837</ele>
        <time>2020-08-15T09:38:15.000Z</time>
      </trkpt>
      <trkpt lat="47.26594" lon="-2.3318">
        <ele>1.2000000476837</ele>
        <time>2020-08-15T09:38:16.000Z</time>
      </trkpt>
      <trkpt lat="47.26586" lon="-2.33202">
        <ele>1.2000000476837</ele>
        <time>2020-08-15T09:38:20.000Z</time>
      </trkpt>
      <trkpt lat="47.26576" lon="-2.33209">
        <ele>1.2000000476837</ele>
        <time>2020-08-15T09:38:23.000Z</time>
      </trkpt>
      <trkpt lat="47.26556" lon="-2.33222">
        <ele>1.2000000476837</ele>
        <time>2020-08-15T09:38:27.000Z</time>
      </trkpt>
      <trkpt lat="47.26524" lon="-2.33244">
        <ele>1.2000000476837</ele>
        <time>2020-08-15T09:38:34.000Z</time>
      </trkpt>
      <trkpt lat="47.26501" lon="-2.33261">
        <ele>1.2000000476837</ele>
        <time>2020-08-15T09:38:40.000Z</time>
      </trkpt>
      <trkpt lat="47.26499" lon="-2.33265">
        <ele>1.2000000476837</ele>
        <time>2020-08-15T09:38:41.000Z</time>
      </trkpt>
      <trkpt lat="47.26501" lon="-2.33277">
        <ele>1.2000000476837</ele>
        <time>2020-08-15T09:38:44.000Z</time>
      </trkpt>
      <trkpt lat="47.26512" lon="-2.33281">
        <ele>1.2000000476837</ele>
        <time>2020-08-15T09:38:48.000Z</time>
      </trkpt>
      <trkpt lat="47.26515" lon="-2.33279">
        <ele>1.2000000476837</ele>
        <time>2020-08-15T09:38:49.000Z</time>
      </trkpt>
      <trkpt lat="47.26519" lon="-2.3328">
        <ele>1.2000000476837</ele>
        <time>2020-08-15T09:38:52.000Z</time>
      </trkpt>
      <trkpt lat="47.2652" lon="-2.33282">
        <ele>1.2000000476837</ele>
        <time>2020-08-15T09:38:53.000Z</time>
      </trkpt>
      <trkpt lat="47.26521" lon="-2.33283">
        <ele>1.2000000476837</ele>
        <time>2020-08-15T09:38:56.000Z</time>
      </trkpt>
      <trkpt lat="47.26523" lon="-2.33286">
        <ele>1.2000000476837</ele>
        <time>2020-08-15T09:39:07.000Z</time>
      </trkpt>
      <trkpt lat="47.26524" lon="-2.33287">
        <ele>1.2000000476837</ele>
        <time>2020-08-15T09:39:08.000Z</time>
      </trkpt>
      <trkpt lat="47.26525" lon="-2.33288">
        <ele>1.2000000476837</ele>
        <time>2020-08-15T09:39:10.000Z</time>
      </trkpt>
      <trkpt lat="47.26529" lon="-2.33289">
        <ele>1.2000000476837</ele>
        <time>2020-08-15T09:39:25.000Z</time>
      </trkpt>
      <trkpt lat="47.2653" lon="-2.33291">
        <ele>1.2000000476837</ele>
        <time>2020-08-15T09:39:26.000Z</time>
      </trkpt>
      <trkpt lat="47.26537" lon="-2.33302">
        <ele>1.2000000476837</ele>
        <time>2020-08-15T09:39:31.000Z</time>
      </trkpt>
      <trkpt lat="47.26536" lon="-2.33305">
        <ele>1.2000000476837</ele>
        <time>2020-08-15T09:39:32.000Z</time>
      </trkpt>
      <trkpt lat="47.26532" lon="-2.33313">
        <ele>1.2000000476837</ele>
        <time>2020-08-15T09:39:34.000Z</time>
      </trkpt>
      <trkpt lat="47.26529" lon="-2.33334">
        <ele>1.2000000476837</ele>
        <time>2020-08-15T09:39:38.000Z</time>
      </trkpt>
      <trkpt lat="47.26528" lon="-2.33356">
        <ele>1.2000000476837</ele>
        <time>2020-08-15T09:39:42.000Z</time>
      </trkpt>
      <trkpt lat="47.2653" lon="-2.33362">
        <ele>1.2000000476837</ele>
        <time>2020-08-15T09:39:43.000Z</time>
      </trkpt>
      <trkpt lat="47.26534" lon="-2.3338">
        <ele>1.2000000476837</ele>
        <time>2020-08-15T09:39:46.000Z</time>
      </trkpt>
      <trkpt lat="47.26537" lon="-2.33393">
        <ele>1.2000000476837</ele>
        <time>2020-08-15T09:39:48.000Z</time>
      </trkpt>
      <trkpt lat="47.26544" lon="-2.33433">
        <ele>1.2000000476837</ele>
        <time>2020-08-15T09:39:53.000Z</time>
      </trkpt>
      <trkpt lat="47.26551" lon="-2.33486">
        <ele>1.2000000476837</ele>
        <time>2020-08-15T09:40:00.000Z</time>
      </trkpt>
      <trkpt lat="47.26556" lon="-2.33504">
        <ele>1.2000000476837</ele>
        <time>2020-08-15T09:40:03.000Z</time>
      </trkpt>
      <trkpt lat="47.26561" lon="-2.33511">
        <ele>1.2000000476837</ele>
        <time>2020-08-15T09:40:05.000Z</time>
      </trkpt>
      <trkpt lat="47.26563" lon="-2.33529">
        <ele>1.2000000476837</ele>
        <time>2020-08-15T09:40:08.000Z</time>
      </trkpt>
      <trkpt lat="47.26565" lon="-2.33536">
        <ele>1.2000000476837</ele>
        <time>2020-08-15T09:40:09.000Z</time>
      </trkpt>
      <trkpt lat="47.26568" lon="-2.33561">
        <ele>1.2000000476837</ele>
        <time>2020-08-15T09:40:12.000Z</time>
      </trkpt>
      <trkpt lat="47.26569" lon="-2.33569">
        <ele>1.2000000476837</ele>
        <time>2020-08-15T09:40:13.000Z</time>
      </trkpt>
      <trkpt lat="47.26572" lon="-2.33584">
        <ele>1.2000000476837</ele>
        <time>2020-08-15T09:40:15.000Z</time>
      </trkpt>
      <trkpt lat="47.26574" lon="-2.33606">
        <ele>1.2000000476837</ele>
        <time>2020-08-15T09:40:18.000Z</time>
      </trkpt>
      <trkpt lat="47.2658" lon="-2.33648">
        <ele>1.6000000238419</ele>
        <time>2020-08-15T09:40:24.000Z</time>
      </trkpt>
      <trkpt lat="47.26581" lon="-2.33655">
        <ele>2</ele>
        <time>2020-08-15T09:40:25.000Z</time>
      </trkpt>
      <trkpt lat="47.26583" lon="-2.33662">
        <ele>2.4000000953674</ele>
        <time>2020-08-15T09:40:26.000Z</time>
      </trkpt>
      <trkpt lat="47.26585" lon="-2.33668">
        <ele>3</ele>
        <time>2020-08-15T09:40:27.000Z</time>
      </trkpt>
      <trkpt lat="47.26588" lon="-2.33673">
        <ele>3.4000000953674</ele>
        <time>2020-08-15T09:40:28.000Z</time>
      </trkpt>
      <trkpt lat="47.26591" lon="-2.33679">
        <ele>3.4000000953674</ele>
        <time>2020-08-15T09:40:29.000Z</time>
      </trkpt>
      <trkpt lat="47.26602" lon="-2.33705">
        <ele>3.4000000953674</ele>
        <time>2020-08-15T09:40:33.000Z</time>
      </trkpt>
      <trkpt lat="47.2661" lon="-2.33718">
        <ele>3.4000000953674</ele>
        <time>2020-08-15T09:40:35.000Z</time>
      </trkpt>
      <trkpt lat="47.26618" lon="-2.33732">
        <ele>3.7999999523163</ele>
        <time>2020-08-15T09:40:37.000Z</time>
      </trkpt>
      <trkpt lat="47.26622" lon="-2.33739">
        <ele>4.5999999046326</ele>
        <time>2020-08-15T09:40:38.000Z</time>
      </trkpt>
      <trkpt lat="47.26627" lon="-2.33746">
        <ele>5</ele>
        <time>2020-08-15T09:40:39.000Z</time>
      </trkpt>
      <trkpt lat="47.26631" lon="-2.33753">
        <ele>5.4000000953674</ele>
        <time>2020-08-15T09:40:40.000Z</time>
      </trkpt>
      <trkpt lat="47.26657" lon="-2.33788">
        <ele>5.4000000953674</ele>
        <time>2020-08-15T09:40:45.000Z</time>
      </trkpt>
      <trkpt lat="47.26684" lon="-2.33834">
        <ele>5.4000000953674</ele>
        <time>2020-08-15T09:40:51.000Z</time>
      </trkpt>
      <trkpt lat="47.2672" lon="-2.33892">
        <ele>5.4000000953674</ele>
        <time>2020-08-15T09:40:59.000Z</time>
      </trkpt>
      <trkpt lat="47.26758" lon="-2.33951">
        <ele>5.4000000953674</ele>
        <time>2020-08-15T09:41:07.000Z</time>
      </trkpt>
      <trkpt lat="47.26763" lon="-2.33958">
        <ele>5.4000000953674</ele>
        <time>2020-08-15T09:41:08.000Z</time>
      </trkpt>
      <trkpt lat="47.26768" lon="-2.33966">
        <ele>5.8000001907349</ele>
        <time>2020-08-15T09:41:09.000Z</time>
      </trkpt>
      <trkpt lat="47.26772" lon="-2.33974">
        <ele>6.1999998092651</ele>
        <time>2020-08-15T09:41:10.000Z</time>
      </trkpt>
      <trkpt lat="47.26777" lon="-2.33981">
        <ele>6.8000001907349</ele>
        <time>2020-08-15T09:41:11.000Z</time>
      </trkpt>
      <trkpt lat="47.26782" lon="-2.33988">
        <ele>7.1999998092651</ele>
        <time>2020-08-15T09:41:12.000Z</time>
      </trkpt>
      <trkpt lat="47.26787" lon="-2.33996">
        <ele>7.5999999046326</ele>
        <time>2020-08-15T09:41:13.000Z</time>
      </trkpt>
      <trkpt lat="47.26802" lon="-2.34019">
        <ele>7.5999999046326</ele>
        <time>2020-08-15T09:41:16.000Z</time>
      </trkpt>
      <trkpt lat="47.26839" lon="-2.3408">
        <ele>7.5999999046326</ele>
        <time>2020-08-15T09:41:24.000Z</time>
      </trkpt>
      <trkpt lat="47.26859" lon="-2.3411">
        <ele>7.5999999046326</ele>
        <time>2020-08-15T09:41:28.000Z</time>
      </trkpt>
      <trkpt lat="47.26869" lon="-2.34125">
        <ele>7.5999999046326</ele>
        <time>2020-08-15T09:41:30.000Z</time>
      </trkpt>
      <trkpt lat="47.26897" lon="-2.34172">
        <ele>7.5999999046326</ele>
        <time>2020-08-15T09:41:36.000Z</time>
      </trkpt>
      <trkpt lat="47.26902" lon="-2.3418">
        <ele>7.5999999046326</ele>
        <time>2020-08-15T09:41:37.000Z</time>
      </trkpt>
      <trkpt lat="47.26939" lon="-2.34233">
        <ele>7.5999999046326</ele>
        <time>2020-08-15T09:41:44.000Z</time>
      </trkpt>
      <trkpt lat="47.26978" lon="-2.34293">
        <ele>7.5999999046326</ele>
        <time>2020-08-15T09:41:52.000Z</time>
      </trkpt>
      <trkpt lat="47.26987" lon="-2.34313">
        <ele>7.5999999046326</ele>
        <time>2020-08-15T09:41:55.000Z</time>
      </trkpt>
      <trkpt lat="47.26989" lon="-2.34318">
        <ele>7.5999999046326</ele>
        <time>2020-08-15T09:41:56.000Z</time>
      </trkpt>
      <trkpt lat="47.26994" lon="-2.34323">
        <ele>7.5999999046326</ele>
        <time>2020-08-15T09:41:58.000Z</time>
      </trkpt>
      <trkpt lat="47.26998" lon="-2.34324">
        <ele>7.5999999046326</ele>
        <time>2020-08-15T09:41:59.000Z</time>
      </trkpt>
      <trkpt lat="47.27009" lon="-2.34333">
        <ele>7.5999999046326</ele>
        <time>2020-08-15T09:42:02.000Z</time>
      </trkpt>
      <trkpt lat="47.2701" lon="-2.3434">
        <ele>7.5999999046326</ele>
        <time>2020-08-15T09:42:03.000Z</time>
      </trkpt>
      <trkpt lat="47.27019" lon="-2.34383">
        <ele>7.5999999046326</ele>
        <time>2020-08-15T09:42:09.000Z</time>
      </trkpt>
      <trkpt lat="47.27033" lon="-2.34443">
        <ele>7.5999999046326</ele>
        <time>2020-08-15T09:42:18.000Z</time>
      </trkpt>
      <trkpt lat="47.27032" lon="-2.34465">
        <ele>7.5999999046326</ele>
        <time>2020-08-15T09:42:22.000Z</time>
      </trkpt>
      <trkpt lat="47.27031" lon="-2.34485">
        <ele>7.5999999046326</ele>
        <time>2020-08-15T09:42:27.000Z</time>
      </trkpt>
      <trkpt lat="47.27032" lon="-2.34494">
        <ele>7.5999999046326</ele>
        <time>2020-08-15T09:42:32.000Z</time>
      </trkpt>
      <trkpt lat="47.2703" lon="-2.34497">
        <ele>7.5999999046326</ele>
        <time>2020-08-15T09:42:35.000Z</time>
      </trkpt>
      <trkpt lat="47.27026" lon="-2.345">
        <ele>7.5999999046326</ele>
        <time>2020-08-15T09:42:38.000Z</time>
      </trkpt>
      <trkpt lat="47.27024" lon="-2.34502">
        <ele>7.5999999046326</ele>
        <time>2020-08-15T09:42:40.000Z</time>
      </trkpt>
      <trkpt lat="47.27022" lon="-2.34504">
        <ele>7.5999999046326</ele>
        <time>2020-08-15T09:42:42.000Z</time>
      </trkpt>
      <trkpt lat="47.27022" lon="-2.34504">
        <ele>7.5999999046326</ele>
        <time>2020-08-15T09:42:44.000Z</time>
      </trkpt>
      <trkpt lat="47.27022" lon="-2.34497">
        <ele>11.60000038147</ele>
        <time>2020-08-15T10:31:07.000Z</time>
      </trkpt>
      <trkpt lat="47.27021" lon="-2.34492">
        <ele>11.60000038147</ele>
        <time>2020-08-15T10:31:11.000Z</time>
      </trkpt>
      <trkpt lat="47.27008" lon="-2.34499">
        <ele>11.60000038147</ele>
        <time>2020-08-15T10:31:16.000Z</time>
      </trkpt>
      <trkpt lat="47.26992" lon="-2.34504">
        <ele>11.60000038147</ele>
        <time>2020-08-15T10:31:21.000Z</time>
      </trkpt>
      <trkpt lat="47.26989" lon="-2.34507">
        <ele>11.60000038147</ele>
        <time>2020-08-15T10:31:23.000Z</time>
      </trkpt>
      <trkpt lat="47.26989" lon="-2.34508">
        <ele>11.60000038147</ele>
        <time>2020-08-15T10:31:24.000Z</time>
      </trkpt>
      <trkpt lat="47.26989" lon="-2.34511">
        <ele>11.60000038147</ele>
        <time>2020-08-15T10:31:25.000Z</time>
      </trkpt>
      <trkpt lat="47.26982" lon="-2.34519">
        <ele>11.60000038147</ele>
        <time>2020-08-15T10:31:29.000Z</time>
      </trkpt>
      <trkpt lat="47.26973" lon="-2.34525">
        <ele>11.60000038147</ele>
        <time>2020-08-15T10:31:32.000Z</time>
      </trkpt>
      <trkpt lat="47.26969" lon="-2.34527">
        <ele>11.60000038147</ele>
        <time>2020-08-15T10:31:33.000Z</time>
      </trkpt>
      <trkpt lat="47.26943" lon="-2.34539">
        <ele>11.60000038147</ele>
        <time>2020-08-15T10:31:39.000Z</time>
      </trkpt>
      <trkpt lat="47.26934" lon="-2.34545">
        <ele>12.39999961853</ele>
        <time>2020-08-15T10:31:41.000Z</time>
      </trkpt>
      <trkpt lat="47.26929" lon="-2.34547">
        <ele>12.800000190735</ele>
        <time>2020-08-15T10:31:42.000Z</time>
      </trkpt>
      <trkpt lat="47.26925" lon="-2.34549">
        <ele>13.199999809265</ele>
        <time>2020-08-15T10:31:43.000Z</time>
      </trkpt>
      <trkpt lat="47.26921" lon="-2.34551">
        <ele>13.60000038147</ele>
        <time>2020-08-15T10:31:44.000Z</time>
      </trkpt>
      <trkpt lat="47.26908" lon="-2.34558">
        <ele>13.60000038147</ele>
        <time>2020-08-15T10:31:48.000Z</time>
      </trkpt>
      <trkpt lat="47.269" lon="-2.34562">
        <ele>13.60000038147</ele>
        <time>2020-08-15T10:31:53.000Z</time>
      </trkpt>
      <trkpt lat="47.26895" lon="-2.34554">
        <ele>13.60000038147</ele>
        <time>2020-08-15T10:31:56.000Z</time>
      </trkpt>
      <trkpt lat="47.26893" lon="-2.34544">
        <ele>13.60000038147</ele>
        <time>2020-08-15T10:31:58.000Z</time>
      </trkpt>
      <trkpt lat="47.26888" lon="-2.34526">
        <ele>13.60000038147</ele>
        <time>2020-08-15T10:32:01.000Z</time>
      </trkpt>
      <trkpt lat="47.26883" lon="-2.34505">
        <ele>13.60000038147</ele>
        <time>2020-08-15T10:32:04.000Z</time>
      </trkpt>
      <trkpt lat="47.26879" lon="-2.3449">
        <ele>13.60000038147</ele>
        <time>2020-08-15T10:32:06.000Z</time>
      </trkpt>
      <trkpt lat="47.2687" lon="-2.3446">
        <ele>13.60000038147</ele>
        <time>2020-08-15T10:32:10.000Z</time>
      </trkpt>
      <trkpt lat="47.26868" lon="-2.34453">
        <ele>13.60000038147</ele>
        <time>2020-08-15T10:32:11.000Z</time>
      </trkpt>
      <trkpt lat="47.26862" lon="-2.34432">
        <ele>13.60000038147</ele>
        <time>2020-08-15T10:32:14.000Z</time>
      </trkpt>
      <trkpt lat="47.26848" lon="-2.34386">
        <ele>13.60000038147</ele>
        <time>2020-08-15T10:32:21.000Z</time>
      </trkpt>
      <trkpt lat="47.26831" lon="-2.34327">
        <ele>13.60000038147</ele>
        <time>2020-08-15T10:32:29.000Z</time>
      </trkpt>
      <trkpt lat="47.26828" lon="-2.34319">
        <ele>13.199999809265</ele>
        <time>2020-08-15T10:32:31.000Z</time>
      </trkpt>
      <trkpt lat="47.26826" lon="-2.34314">
        <ele>12.800000190735</ele>
        <time>2020-08-15T10:32:32.000Z</time>
      </trkpt>
      <trkpt lat="47.26824" lon="-2.34308">
        <ele>12.39999961853</ele>
        <time>2020-08-15T10:32:33.000Z</time>
      </trkpt>
      <trkpt lat="47.26822" lon="-2.34303">
        <ele>12</ele>
        <time>2020-08-15T10:32:34.000Z</time>
      </trkpt>
      <trkpt lat="47.26821" lon="-2.34298">
        <ele>11.60000038147</ele>
        <time>2020-08-15T10:32:35.000Z</time>
      </trkpt>
      <trkpt lat="47.26818" lon="-2.34286">
        <ele>11.60000038147</ele>
        <time>2020-08-15T10:32:37.000Z</time>
      </trkpt>
      <trkpt lat="47.26815" lon="-2.34271">
        <ele>11.60000038147</ele>
        <time>2020-08-15T10:32:39.000Z</time>
      </trkpt>
      <trkpt lat="47.26812" lon="-2.34265">
        <ele>11.60000038147</ele>
        <time>2020-08-15T10:32:40.000Z</time>
      </trkpt>
      <trkpt lat="47.26806" lon="-2.34242">
        <ele>11.60000038147</ele>
        <time>2020-08-15T10:32:43.000Z</time>
      </trkpt>
      <trkpt lat="47.268" lon="-2.34216">
        <ele>11.60000038147</ele>
        <time>2020-08-15T10:32:48.000Z</time>
      </trkpt>
      <trkpt lat="47.26789" lon="-2.34202">
        <ele>11.60000038147</ele>
        <time>2020-08-15T10:32:52.000Z</time>
      </trkpt>
      <trkpt lat="47.26785" lon="-2.34199">
        <ele>11.60000038147</ele>
        <time>2020-08-15T10:32:53.000Z</time>
      </trkpt>
      <trkpt lat="47.26766" lon="-2.34186">
        <ele>11.60000038147</ele>
        <time>2020-08-15T10:32:57.000Z</time>
      </trkpt>
      <trkpt lat="47.26733" lon="-2.34165">
        <ele>11.60000038147</ele>
        <time>2020-08-15T10:33:04.000Z</time>
      </trkpt>
      <trkpt lat="47.26705" lon="-2.34146">
        <ele>11.60000038147</ele>
        <time>2020-08-15T10:33:10.000Z</time>
      </trkpt>
      <trkpt lat="47.26701" lon="-2.34142">
        <ele>11.60000038147</ele>
        <time>2020-08-15T10:33:11.000Z</time>
      </trkpt>
      <trkpt lat="47.26683" lon="-2.34128">
        <ele>11.60000038147</ele>
        <time>2020-08-15T10:33:15.000Z</time>
      </trkpt>
      <trkpt lat="47.2666" lon="-2.34112">
        <ele>11.60000038147</ele>
        <time>2020-08-15T10:33:20.000Z</time>
      </trkpt>
      <trkpt lat="47.2665" lon="-2.34106">
        <ele>11.60000038147</ele>
        <time>2020-08-15T10:33:22.000Z</time>
      </trkpt>
      <trkpt lat="47.26637" lon="-2.34097">
        <ele>11.60000038147</ele>
        <time>2020-08-15T10:33:25.000Z</time>
      </trkpt>
      <trkpt lat="47.26628" lon="-2.34089">
        <ele>11.60000038147</ele>
        <time>2020-08-15T10:33:29.000Z</time>
      </trkpt>
      <trkpt lat="47.2661" lon="-2.34074">
        <ele>11.60000038147</ele>
        <time>2020-08-15T10:33:34.000Z</time>
      </trkpt>
      <trkpt lat="47.26578" lon="-2.34056">
        <ele>11.60000038147</ele>
        <time>2020-08-15T10:33:41.000Z</time>
      </trkpt>
      <trkpt lat="47.2654" lon="-2.34042">
        <ele>11.60000038147</ele>
        <time>2020-08-15T10:33:48.000Z</time>
      </trkpt>
      <trkpt lat="47.26519" lon="-2.3404">
        <ele>11.60000038147</ele>
        <time>2020-08-15T10:33:52.000Z</time>
      </trkpt>
      <trkpt lat="47.26492" lon="-2.34036">
        <ele>11.60000038147</ele>
        <time>2020-08-15T10:33:58.000Z</time>
      </trkpt>
      <trkpt lat="47.26481" lon="-2.3403">
        <ele>11.60000038147</ele>
        <time>2020-08-15T10:34:03.000Z</time>
      </trkpt>
      <trkpt lat="47.26479" lon="-2.34027">
        <ele>11.60000038147</ele>
        <time>2020-08-15T10:34:04.000Z</time>
      </trkpt>
      <trkpt lat="47.26482" lon="-2.34011">
        <ele>11.60000038147</ele>
        <time>2020-08-15T10:34:07.000Z</time>
      </trkpt>
      <trkpt lat="47.26485" lon="-2.34">
        <ele>11.60000038147</ele>
        <time>2020-08-15T10:34:09.000Z</time>
      </trkpt>
      <trkpt lat="47.26489" lon="-2.33987">
        <ele>11.60000038147</ele>
        <time>2020-08-15T10:34:11.000Z</time>
      </trkpt>
      <trkpt lat="47.2649" lon="-2.33981">
        <ele>11.60000038147</ele>
        <time>2020-08-15T10:34:12.000Z</time>
      </trkpt>
      <trkpt lat="47.26499" lon="-2.3395">
        <ele>11.60000038147</ele>
        <time>2020-08-15T10:34:17.000Z</time>
      </trkpt>
      <trkpt lat="47.26501" lon="-2.33943">
        <ele>11.60000038147</ele>
        <time>2020-08-15T10:34:18.000Z</time>
      </trkpt>
      <trkpt lat="47.26512" lon="-2.33913">
        <ele>11.60000038147</ele>
        <time>2020-08-15T10:34:24.000Z</time>
      </trkpt>
      <trkpt lat="47.26517" lon="-2.33895">
        <ele>11.60000038147</ele>
        <time>2020-08-15T10:34:28.000Z</time>
      </trkpt>
      <trkpt lat="47.26527" lon="-2.3386">
        <ele>11.60000038147</ele>
        <time>2020-08-15T10:34:33.000Z</time>
      </trkpt>
      <trkpt lat="47.26539" lon="-2.33819">
        <ele>11.60000038147</ele>
        <time>2020-08-15T10:34:39.000Z</time>
      </trkpt>
      <trkpt lat="47.26551" lon="-2.33783">
        <ele>11.60000038147</ele>
        <time>2020-08-15T10:34:45.000Z</time>
      </trkpt>
      <trkpt lat="47.26562" lon="-2.33753">
        <ele>11.60000038147</ele>
        <time>2020-08-15T10:34:51.000Z</time>
      </trkpt>
      <trkpt lat="47.26575" lon="-2.33713">
        <ele>11.60000038147</ele>
        <time>2020-08-15T10:34:58.000Z</time>
      </trkpt>
      <trkpt lat="47.26578" lon="-2.33702">
        <ele>11.60000038147</ele>
        <time>2020-08-15T10:35:01.000Z</time>
      </trkpt>
      <trkpt lat="47.26578" lon="-2.33694">
        <ele>11.60000038147</ele>
        <time>2020-08-15T10:35:04.000Z</time>
      </trkpt>
      <trkpt lat="47.26576" lon="-2.3369">
        <ele>11.60000038147</ele>
        <time>2020-08-15T10:35:05.000Z</time>
      </trkpt>
      <trkpt lat="47.26572" lon="-2.33673">
        <ele>11.60000038147</ele>
        <time>2020-08-15T10:35:08.000Z</time>
      </trkpt>
      <trkpt lat="47.26572" lon="-2.33666">
        <ele>11.60000038147</ele>
        <time>2020-08-15T10:35:09.000Z</time>
      </trkpt>
      <trkpt lat="47.26572" lon="-2.33649">
        <ele>11.199999809265</ele>
        <time>2020-08-15T10:35:11.000Z</time>
      </trkpt>
      <trkpt lat="47.26571" lon="-2.33641">
        <ele>10.800000190735</ele>
        <time>2020-08-15T10:35:12.000Z</time>
      </trkpt>
      <trkpt lat="47.2657" lon="-2.33632">
        <ele>10.39999961853</ele>
        <time>2020-08-15T10:35:13.000Z</time>
      </trkpt>
      <trkpt lat="47.26569" lon="-2.33623">
        <ele>10</ele>
        <time>2020-08-15T10:35:14.000Z</time>
      </trkpt>
      <trkpt lat="47.26568" lon="-2.33613">
        <ele>9.3999996185303</ele>
        <time>2020-08-15T10:35:15.000Z</time>
      </trkpt>
      <trkpt lat="47.26561" lon="-2.33565">
        <ele>9.3999996185303</ele>
        <time>2020-08-15T10:35:20.000Z</time>
      </trkpt>
      <trkpt lat="47.2655" lon="-2.33508">
        <ele>9.3999996185303</ele>
        <time>2020-08-15T10:35:26.000Z</time>
      </trkpt>
      <trkpt lat="47.2654" lon="-2.33483">
        <ele>9.3999996185303</ele>
        <time>2020-08-15T10:35:29.000Z</time>
      </trkpt>
      <trkpt lat="47.26538" lon="-2.33474">
        <ele>9.3999996185303</ele>
        <time>2020-08-15T10:35:30.000Z</time>
      </trkpt>
      <trkpt lat="47.26535" lon="-2.33457">
        <ele>9</ele>
        <time>2020-08-15T10:35:32.000Z</time>
      </trkpt>
      <trkpt lat="47.26533" lon="-2.33448">
        <ele>8.6000003814697</ele>
        <time>2020-08-15T10:35:33.000Z</time>
      </trkpt>
      <trkpt lat="47.26531" lon="-2.33439">
        <ele>8.1999998092651</ele>
        <time>2020-08-15T10:35:34.000Z</time>
      </trkpt>
      <trkpt lat="47.26529" lon="-2.33431">
        <ele>7.8000001907349</ele>
        <time>2020-08-15T10:35:35.000Z</time>
      </trkpt>
      <trkpt lat="47.26528" lon="-2.33423">
        <ele>7.4000000953674</ele>
        <time>2020-08-15T10:35:36.000Z</time>
      </trkpt>
      <trkpt lat="47.26528" lon="-2.33414">
        <ele>7.4000000953674</ele>
        <time>2020-08-15T10:35:37.000Z</time>
      </trkpt>
      <trkpt lat="47.26526" lon="-2.33388">
        <ele>7.4000000953674</ele>
        <time>2020-08-15T10:35:40.000Z</time>
      </trkpt>
      <trkpt lat="47.26524" lon="-2.33371">
        <ele>7.4000000953674</ele>
        <time>2020-08-15T10:35:42.000Z</time>
      </trkpt>
      <trkpt lat="47.26515" lon="-2.33353">
        <ele>7.4000000953674</ele>
        <time>2020-08-15T10:35:45.000Z</time>
      </trkpt>
      <trkpt lat="47.26498" lon="-2.33346">
        <ele>7.4000000953674</ele>
        <time>2020-08-15T10:35:49.000Z</time>
      </trkpt>
      <trkpt lat="47.26491" lon="-2.33346">
        <ele>7.4000000953674</ele>
        <time>2020-08-15T10:35:52.000Z</time>
      </trkpt>
      <trkpt lat="47.26484" lon="-2.33334">
        <ele>7.4000000953674</ele>
        <time>2020-08-15T10:35:57.000Z</time>
      </trkpt>
      <trkpt lat="47.26477" lon="-2.3332">
        <ele>7.4000000953674</ele>
        <time>2020-08-15T10:36:00.000Z</time>
      </trkpt>
      <trkpt lat="47.26476" lon="-2.33306">
        <ele>7.4000000953674</ele>
        <time>2020-08-15T10:36:02.000Z</time>
      </trkpt>
      <trkpt lat="47.26474" lon="-2.33278">
        <ele>7.4000000953674</ele>
        <time>2020-08-15T10:36:06.000Z</time>
      </trkpt>
      <trkpt lat="47.26461" lon="-2.33271">
        <ele>7.4000000953674</ele>
        <time>2020-08-15T10:36:09.000Z</time>
      </trkpt>
      <trkpt lat="47.2645" lon="-2.3327">
        <ele>7.4000000953674</ele>
        <time>2020-08-15T10:36:11.000Z</time>
      </trkpt>
      <trkpt lat="47.26417" lon="-2.33267">
        <ele>7.4000000953674</ele>
        <time>2020-08-15T10:36:17.000Z</time>
      </trkpt>
      <trkpt lat="47.26391" lon="-2.33263">
        <ele>7.4000000953674</ele>
        <time>2020-08-15T10:36:22.000Z</time>
      </trkpt>
      <trkpt lat="47.26387" lon="-2.33263">
        <ele>7.4000000953674</ele>
        <time>2020-08-15T10:36:23.000Z</time>
      </trkpt>
      <trkpt lat="47.26378" lon="-2.33257">
        <ele>7.4000000953674</ele>
        <time>2020-08-15T10:36:26.000Z</time>
      </trkpt>
      <trkpt lat="47.26376" lon="-2.33251">
        <ele>7.4000000953674</ele>
        <time>2020-08-15T10:36:27.000Z</time>
      </trkpt>
      <trkpt lat="47.26372" lon="-2.33224">
        <ele>7.4000000953674</ele>
        <time>2020-08-15T10:36:31.000Z</time>
      </trkpt>
      <trkpt lat="47.26372" lon="-2.33216">
        <ele>7.4000000953674</ele>
        <time>2020-08-15T10:36:32.000Z</time>
      </trkpt>
      <trkpt lat="47.2637" lon="-2.3316">
        <ele>7.4000000953674</ele>
        <time>2020-08-15T10:36:39.000Z</time>
      </trkpt>
      <trkpt lat="47.26368" lon="-2.33091">
        <ele>7.4000000953674</ele>
        <time>2020-08-15T10:36:48.000Z</time>
      </trkpt>
      <trkpt lat="47.26366" lon="-2.3302">
        <ele>7.4000000953674</ele>
        <time>2020-08-15T10:36:57.000Z</time>
      </trkpt>
      <trkpt lat="47.26364" lon="-2.32989">
        <ele>7.4000000953674</ele>
        <time>2020-08-15T10:37:01.000Z</time>
      </trkpt>
      <trkpt lat="47.26358" lon="-2.32976">
        <ele>7.4000000953674</ele>
        <time>2020-08-15T10:37:03.000Z</time>
      </trkpt>
      <trkpt lat="47.26344" lon="-2.32949">
        <ele>7.4000000953674</ele>
        <time>2020-08-15T10:37:07.000Z</time>
      </trkpt>
      <trkpt lat="47.26341" lon="-2.32942">
        <ele>7.4000000953674</ele>
        <time>2020-08-15T10:37:08.000Z</time>
      </trkpt>
      <trkpt lat="47.26319" lon="-2.32877">
        <ele>7.4000000953674</ele>
        <time>2020-08-15T10:37:17.000Z</time>
      </trkpt>
      <trkpt lat="47.26302" lon="-2.32859">
        <ele>7.4000000953674</ele>
        <time>2020-08-15T10:37:21.000Z</time>
      </trkpt>
      <trkpt lat="47.26297" lon="-2.32857">
        <ele>7.4000000953674</ele>
        <time>2020-08-15T10:37:22.000Z</time>
      </trkpt>
      <trkpt lat="47.26292" lon="-2.32853">
        <ele>7.4000000953674</ele>
        <time>2020-08-15T10:37:23.000Z</time>
      </trkpt>
      <trkpt lat="47.26286" lon="-2.32841">
        <ele>7.4000000953674</ele>
        <time>2020-08-15T10:37:25.000Z</time>
      </trkpt>
      <trkpt lat="47.26282" lon="-2.32812">
        <ele>7.4000000953674</ele>
        <time>2020-08-15T10:37:29.000Z</time>
      </trkpt>
      <trkpt lat="47.2628" lon="-2.32805">
        <ele>7.4000000953674</ele>
        <time>2020-08-15T10:37:30.000Z</time>
      </trkpt>
      <trkpt lat="47.26278" lon="-2.32799">
        <ele>7.4000000953674</ele>
        <time>2020-08-15T10:37:31.000Z</time>
      </trkpt>
      <trkpt lat="47.26268" lon="-2.32774">
        <ele>7.4000000953674</ele>
        <time>2020-08-15T10:37:35.000Z</time>
      </trkpt>
      <trkpt lat="47.26245" lon="-2.32739">
        <ele>7.4000000953674</ele>
        <time>2020-08-15T10:37:42.000Z</time>
      </trkpt>
      <trkpt lat="47.26213" lon="-2.32695">
        <ele>7.4000000953674</ele>
        <time>2020-08-15T10:37:51.000Z</time>
      </trkpt>
      <trkpt lat="47.262" lon="-2.32679">
        <ele>7.4000000953674</ele>
        <time>2020-08-15T10:37:55.000Z</time>
      </trkpt>
      <trkpt lat="47.26193" lon="-2.32673">
        <ele>7.4000000953674</ele>
        <time>2020-08-15T10:37:57.000Z</time>
      </trkpt>
      <trkpt lat="47.26162" lon="-2.32651">
        <ele>7.4000000953674</ele>
        <time>2020-08-15T10:38:04.000Z</time>
      </trkpt>
      <trkpt lat="47.2615" lon="-2.32643">
        <ele>7.4000000953674</ele>
        <time>2020-08-15T10:38:07.000Z</time>
      </trkpt>
      <trkpt lat="47.26141" lon="-2.32641">
        <ele>7.4000000953674</ele>
        <time>2020-08-15T10:38:09.000Z</time>
      </trkpt>
      <trkpt lat="47.26107" lon="-2.32637">
        <ele>7.4000000953674</ele>
        <time>2020-08-15T10:38:16.000Z</time>
      </trkpt>
      <trkpt lat="47.26064" lon="-2.32644">
        <ele>7.4000000953674</ele>
        <time>2020-08-15T10:38:24.000Z</time>
      </trkpt>
      <trkpt lat="47.26024" lon="-2.32651">
        <ele>7.4000000953674</ele>
        <time>2020-08-15T10:38:32.000Z</time>
      </trkpt>
      <trkpt lat="47.25984" lon="-2.32656">
        <ele>7.4000000953674</ele>
        <time>2020-08-15T10:38:40.000Z</time>
      </trkpt>
      <trkpt lat="47.25975" lon="-2.32657">
        <ele>7.4000000953674</ele>
        <time>2020-08-15T10:38:42.000Z</time>
      </trkpt>
      <trkpt lat="47.25966" lon="-2.32662">
        <ele>7</ele>
        <time>2020-08-15T10:38:44.000Z</time>
      </trkpt>
      <trkpt lat="47.25962" lon="-2.32664">
        <ele>6.5999999046326</ele>
        <time>2020-08-15T10:38:45.000Z</time>
      </trkpt>
      <trkpt lat="47.25959" lon="-2.32663">
        <ele>6.1999998092651</ele>
        <time>2020-08-15T10:38:46.000Z</time>
      </trkpt>
      <trkpt lat="47.25958" lon="-2.32659">
        <ele>5.8000001907349</ele>
        <time>2020-08-15T10:38:47.000Z</time>
      </trkpt>
      <trkpt lat="47.25958" lon="-2.32653">
        <ele>5.4000000953674</ele>
        <time>2020-08-15T10:38:48.000Z</time>
      </trkpt>
      <trkpt lat="47.25959" lon="-2.32641">
        <ele>5.4000000953674</ele>
        <time>2020-08-15T10:38:50.000Z</time>
      </trkpt>
      <trkpt lat="47.2596" lon="-2.32627">
        <ele>5.4000000953674</ele>
        <time>2020-08-15T10:38:52.000Z</time>
      </trkpt>
      <trkpt lat="47.25959" lon="-2.3262">
        <ele>5.4000000953674</ele>
        <time>2020-08-15T10:38:53.000Z</time>
      </trkpt>
      <trkpt lat="47.25951" lon="-2.32578">
        <ele>5.4000000953674</ele>
        <time>2020-08-15T10:38:59.000Z</time>
      </trkpt>
      <trkpt lat="47.25934" lon="-2.32523">
        <ele>5.4000000953674</ele>
        <time>2020-08-15T10:39:07.000Z</time>
      </trkpt>
      <trkpt lat="47.25929" lon="-2.3251">
        <ele>5.4000000953674</ele>
        <time>2020-08-15T10:39:09.000Z</time>
      </trkpt>
      <trkpt lat="47.25925" lon="-2.3249">
        <ele>5.4000000953674</ele>
        <time>2020-08-15T10:39:12.000Z</time>
      </trkpt>
      <trkpt lat="47.25923" lon="-2.32484">
        <ele>5.4000000953674</ele>
        <time>2020-08-15T10:39:13.000Z</time>
      </trkpt>
      <trkpt lat="47.25913" lon="-2.32472">
        <ele>5.4000000953674</ele>
        <time>2020-08-15T10:39:16.000Z</time>
      </trkpt>
      <trkpt lat="47.2591" lon="-2.32468">
        <ele>5.4000000953674</ele>
        <time>2020-08-15T10:39:17.000Z</time>
      </trkpt>
      <trkpt lat="47.25903" lon="-2.32464">
        <ele>5.4000000953674</ele>
        <time>2020-08-15T10:39:20.000Z</time>
      </trkpt>
      <trkpt lat="47.259" lon="-2.32458">
        <ele>5.4000000953674</ele>
        <time>2020-08-15T10:39:23.000Z</time>
      </trkpt>
      <trkpt lat="47.25908" lon="-2.32447">
        <ele>5.4000000953674</ele>
        <time>2020-08-15T10:39:26.000Z</time>
      </trkpt>
      <trkpt lat="47.25912" lon="-2.32443">
        <ele>5.4000000953674</ele>
        <time>2020-08-15T10:39:27.000Z</time>
      </trkpt>
      <trkpt lat="47.25915" lon="-2.32439">
        <ele>5.4000000953674</ele>
        <time>2020-08-15T10:39:28.000Z</time>
      </trkpt>
      <trkpt lat="47.25924" lon="-2.32424">
        <ele>5.4000000953674</ele>
        <time>2020-08-15T10:39:31.000Z</time>
      </trkpt>
      <trkpt lat="47.25928" lon="-2.32419">
        <ele>5.4000000953674</ele>
        <time>2020-08-15T10:39:32.000Z</time>
      </trkpt>
      <trkpt lat="47.25944" lon="-2.324">
        <ele>5.4000000953674</ele>
        <time>2020-08-15T10:39:36.000Z</time>
      </trkpt>
      <trkpt lat="47.25971" lon="-2.32365">
        <ele>5.4000000953674</ele>
        <time>2020-08-15T10:39:43.000Z</time>
      </trkpt>
      <trkpt lat="47.25998" lon="-2.3233">
        <ele>5.4000000953674</ele>
        <time>2020-08-15T10:39:50.000Z</time>
      </trkpt>
      <trkpt lat="47.2601" lon="-2.32315">
        <ele>5.4000000953674</ele>
        <time>2020-08-15T10:39:53.000Z</time>
      </trkpt>
      <trkpt lat="47.2602" lon="-2.32301">
        <ele>5.4000000953674</ele>
        <time>2020-08-15T10:39:56.000Z</time>
      </trkpt>
      <trkpt lat="47.2605" lon="-2.32267">
        <ele>5.4000000953674</ele>
        <time>2020-08-15T10:40:03.000Z</time>
      </trkpt>
      <trkpt lat="47.26062" lon="-2.32252">
        <ele>5.4000000953674</ele>
        <time>2020-08-15T10:40:06.000Z</time>
      </trkpt>
      <trkpt lat="47.26077" lon="-2.32235">
        <ele>5.4000000953674</ele>
        <time>2020-08-15T10:40:10.000Z</time>
      </trkpt>
      <trkpt lat="47.26101" lon="-2.32196">
        <ele>5.4000000953674</ele>
        <time>2020-08-15T10:40:17.000Z</time>
      </trkpt>
      <trkpt lat="47.26119" lon="-2.32159">
        <ele>5.4000000953674</ele>
        <time>2020-08-15T10:40:23.000Z</time>
      </trkpt>
      <trkpt lat="47.26133" lon="-2.32121">
        <ele>5.4000000953674</ele>
        <time>2020-08-15T10:40:29.000Z</time>
      </trkpt>
      <trkpt lat="47.26146" lon="-2.32073">
        <ele>5.4000000953674</ele>
        <time>2020-08-15T10:40:36.000Z</time>
      </trkpt>
      <trkpt lat="47.2616" lon="-2.32027">
        <ele>5.4000000953674</ele>
        <time>2020-08-15T10:40:43.000Z</time>
      </trkpt>
      <trkpt lat="47.26163" lon="-2.32022">
        <ele>5.4000000953674</ele>
        <time>2020-08-15T10:40:44.000Z</time>
      </trkpt>
      <trkpt lat="47.26175" lon="-2.3202">
        <ele>5.4000000953674</ele>
        <time>2020-08-15T10:40:47.000Z</time>
      </trkpt>
      <trkpt lat="47.26179" lon="-2.32021">
        <ele>5.4000000953674</ele>
        <time>2020-08-15T10:40:48.000Z</time>
      </trkpt>
      <trkpt lat="47.26193" lon="-2.32025">
        <ele>5.4000000953674</ele>
        <time>2020-08-15T10:40:53.000Z</time>
      </trkpt>
      <trkpt lat="47.26197" lon="-2.32021">
        <ele>5.4000000953674</ele>
        <time>2020-08-15T10:40:56.000Z</time>
      </trkpt>
      <trkpt lat="47.26198" lon="-2.32017">
        <ele>5.4000000953674</ele>
        <time>2020-08-15T10:40:57.000Z</time>
      </trkpt>
      <trkpt lat="47.26203" lon="-2.32006">
        <ele>5.4000000953674</ele>
        <time>2020-08-15T10:41:01.000Z</time>
      </trkpt>
      <trkpt lat="47.26219" lon="-2.31989">
        <ele>5.4000000953674</ele>
        <time>2020-08-15T10:41:07.000Z</time>
      </trkpt>
      <trkpt lat="47.26233" lon="-2.31972">
        <ele>5.4000000953674</ele>
        <time>2020-08-15T10:41:11.000Z</time>
      </trkpt>
      <trkpt lat="47.26237" lon="-2.31968">
        <ele>5.4000000953674</ele>
        <time>2020-08-15T10:41:12.000Z</time>
      </trkpt>
      <trkpt lat="47.26247" lon="-2.31951">
        <ele>5.4000000953674</ele>
        <time>2020-08-15T10:41:16.000Z</time>
      </trkpt>
      <trkpt lat="47.26252" lon="-2.31937">
        <ele>5.4000000953674</ele>
        <time>2020-08-15T10:41:20.000Z</time>
      </trkpt>
      <trkpt lat="47.2627" lon="-2.31909">
        <ele>5.4000000953674</ele>
        <time>2020-08-15T10:41:27.000Z</time>
      </trkpt>
      <trkpt lat="47.26288" lon="-2.31893">
        <ele>5.4000000953674</ele>
        <time>2020-08-15T10:41:32.000Z</time>
      </trkpt>
      <trkpt lat="47.26296" lon="-2.31867">
        <ele>5.4000000953674</ele>
        <time>2020-08-15T10:41:36.000Z</time>
      </trkpt>
      <trkpt lat="47.263" lon="-2.31834">
        <ele>5.4000000953674</ele>
        <time>2020-08-15T10:41:41.000Z</time>
      </trkpt>
      <trkpt lat="47.26303" lon="-2.31805">
        <ele>5.4000000953674</ele>
        <time>2020-08-15T10:41:46.000Z</time>
      </trkpt>
      <trkpt lat="47.26305" lon="-2.31769">
        <ele>5.4000000953674</ele>
        <time>2020-08-15T10:41:52.000Z</time>
      </trkpt>
      <trkpt lat="47.26301" lon="-2.31728">
        <ele>5.4000000953674</ele>
        <time>2020-08-15T10:41:58.000Z</time>
      </trkpt>
      <trkpt lat="47.26304" lon="-2.31715">
        <ele>5.4000000953674</ele>
        <time>2020-08-15T10:42:01.000Z</time>
      </trkpt>
      <trkpt lat="47.26308" lon="-2.31713">
        <ele>5.4000000953674</ele>
        <time>2020-08-15T10:42:02.000Z</time>
      </trkpt>
      <trkpt lat="47.26321" lon="-2.31707">
        <ele>5.4000000953674</ele>
        <time>2020-08-15T10:42:05.000Z</time>
      </trkpt>
      <trkpt lat="47.26328" lon="-2.31702">
        <ele>5.4000000953674</ele>
        <time>2020-08-15T10:42:07.000Z</time>
      </trkpt>
      <trkpt lat="47.2633" lon="-2.31698">
        <ele>5.4000000953674</ele>
        <time>2020-08-15T10:42:08.000Z</time>
      </trkpt>
      <trkpt lat="47.26333" lon="-2.31689">
        <ele>5.4000000953674</ele>
        <time>2020-08-15T10:42:10.000Z</time>
      </trkpt>
      <trkpt lat="47.2634" lon="-2.31687">
        <ele>5.4000000953674</ele>
        <time>2020-08-15T10:42:12.000Z</time>
      </trkpt>
      <trkpt lat="47.26343" lon="-2.31686">
        <ele>5.8000001907349</ele>
        <time>2020-08-15T10:42:13.000Z</time>
      </trkpt>
      <trkpt lat="47.26347" lon="-2.31684">
        <ele>6.1999998092651</ele>
        <time>2020-08-15T10:42:14.000Z</time>
      </trkpt>
      <trkpt lat="47.2635" lon="-2.31683">
        <ele>6.8000001907349</ele>
        <time>2020-08-15T10:42:15.000Z</time>
      </trkpt>
      <trkpt lat="47.26354" lon="-2.31681">
        <ele>7.1999998092651</ele>
        <time>2020-08-15T10:42:16.000Z</time>
      </trkpt>
      <trkpt lat="47.26357" lon="-2.3168">
        <ele>7.5999999046326</ele>
        <time>2020-08-15T10:42:17.000Z</time>
      </trkpt>
      <trkpt lat="47.26366" lon="-2.31676">
        <ele>7.5999999046326</ele>
        <time>2020-08-15T10:42:20.000Z</time>
      </trkpt>
      <trkpt lat="47.26389" lon="-2.31663">
        <ele>7.5999999046326</ele>
        <time>2020-08-15T10:42:27.000Z</time>
      </trkpt>
      <trkpt lat="47.26392" lon="-2.31662">
        <ele>8</ele>
        <time>2020-08-15T10:42:28.000Z</time>
      </trkpt>
      <trkpt lat="47.26394" lon="-2.31661">
        <ele>8.3999996185303</ele>
        <time>2020-08-15T10:42:29.000Z</time>
      </trkpt>
      <trkpt lat="47.26397" lon="-2.3166">
        <ele>8.8000001907349</ele>
        <time>2020-08-15T10:42:30.000Z</time>
      </trkpt>
      <trkpt lat="47.26399" lon="-2.31658">
        <ele>9.1999998092651</ele>
        <time>2020-08-15T10:42:31.000Z</time>
      </trkpt>
      <trkpt lat="47.26402" lon="-2.31657">
        <ele>9.6000003814697</ele>
        <time>2020-08-15T10:42:32.000Z</time>
      </trkpt>
      <trkpt lat="47.26408" lon="-2.31652">
        <ele>9.6000003814697</ele>
        <time>2020-08-15T10:42:34.000Z</time>
      </trkpt>
      <trkpt lat="47.26409" lon="-2.31648">
        <ele>9.6000003814697</ele>
        <time>2020-08-15T10:42:35.000Z</time>
      </trkpt>
      <trkpt lat="47.2641" lon="-2.31639">
        <ele>9.6000003814697</ele>
        <time>2020-08-15T10:42:37.000Z</time>
      </trkpt>
      <trkpt lat="47.2641" lon="-2.3161">
        <ele>9.6000003814697</ele>
        <time>2020-08-15T10:42:43.000Z</time>
      </trkpt>
      <trkpt lat="47.2641" lon="-2.31571">
        <ele>9.6000003814697</ele>
        <time>2020-08-15T10:42:51.000Z</time>
      </trkpt>
      <trkpt lat="47.26411" lon="-2.31555">
        <ele>9.6000003814697</ele>
        <time>2020-08-15T10:42:55.000Z</time>
      </trkpt>
      <trkpt lat="47.26413" lon="-2.31552">
        <ele>9.6000003814697</ele>
        <time>2020-08-15T10:42:56.000Z</time>
      </trkpt>
      <trkpt lat="47.26418" lon="-2.31554">
        <ele>9.6000003814697</ele>
        <time>2020-08-15T10:42:59.000Z</time>
      </trkpt>
      <trkpt lat="47.26418" lon="-2.31555">
        <ele>9.6000003814697</ele>
        <time>2020-08-15T10:43:00.000Z</time>
      </trkpt>
      <trkpt lat="47.26418" lon="-2.31555">
        <ele>9.6000003814697</ele>
        <time>2020-08-15T10:43:01.000Z</time>
      </trkpt>
    </trkseg>
  </trk>
</gpx>